# Wetter Temperatur Luftdruck Luftfeuchtigkeit Sichtweite Windgeschwindigkeit Windrichtung Zeit
1 Rain 27 1012 78 10000 4.63 20 14:22 01.02.2023
2 Rain 26 1012 83 10000 4.63 20 13:19 01.02.2023
3 Rain 26 1012 83 10000 4.12 10 12:27 01.02.2023
4 Rain 27 1013 74 10000 4.12 10 11:52 01.02.2023
5 Rain 27 1013 74 10000 6.17 350 08:42 01.02.2023
6 Rain 27 1012 78 10000 6.17 350 23:58 31.01.2023
7 Rain 24 1012 88 10000 2.57 60 21:26 31.01.2023
8 Rain 25 1012 88 10000 1.54 70 19:24 31.01.2023
9 Rain 23 1011 94 10000 0.51 140 17:54 31.01.2023
10 Rain 25 1010 88 10000 3.6 240 15:36 31.01.2023
11 Rain 25 1010 88 10000 3.6 240 15:18 31.01.2023
12 Rain 25 1010 83 10000 4.63 230 13:43 31.01.2023
13 Rain 25 1011 88 10000 5.14 250 11:28 31.01.2023
14 Mist 24 1012 94 3900 8.75 290 10:25 31.01.2023
15 Rain 24 1012 94 10000 7.72 300 09:44 31.01.2023
16 Rain 25 1011 88 10000 4.63 320 08:36 31.01.2023
17 Rain 25 1011 88 10000 7.2 320 07:36 31.01.2023
18 Rain 26 1008 83 10000 5.14 290 03:34 31.01.2023
19 Rain 27 1010 78 10000 7.72 300 23:27 30.01.2023
20 Rain 27 1010 83 10000 7.72 300 22:50 30.01.2023
21 Rain 26 1010 78 10000 8.23 300 21:43 30.01.2023
22 Rain 26 1010 78 10000 8.75 290 20:44 30.01.2023
23 Drizzle 25 1010 78 10000 8.23 270 18:26 30.01.2023
24 Rain 25 1009 83 10000 7.72 290 17:23 30.01.2023
25 Rain 26 1010 78 10000 6.17 320 14:47 30.01.2023
26 Rain 26 1010 83 10000 5.14 310 13:39 30.01.2023
27 Rain 26 1011 83 10000 3.09 330 11:30 30.01.2023
28 Rain 26 1012 83 10000 4.12 330 10:19 30.01.2023
29 Rain 26 1012 83 10000 4.12 350 09:52 30.01.2023
30 Rain 25 1012 88 10000 2.57 20 08:18 30.01.2023
31 Rain 24 1011 94 10000 3.6 90 02:33 30.01.2023
32 Clouds 25 1012 94 10000 2.06 90 23:35 29.01.2023
33 Clouds 27 1012 83 10000 3.09 20 22:38 29.01.2023
34 Clouds 28 1012 78 10000 3.09 30 21:53 29.01.2023
35 Rain 28 1012 78 10000 2.57 10 20:50 29.01.2023
36 Clouds 27 1012 83 10000 3.09 20 20:18 29.01.2023
37 Clouds 27 1012 83 10000 3.09 30 19:32 29.01.2023
38 Rain 27 1012 78 10000 3.09 20 17:51 29.01.2023
39 Rain 27 1011 78 10000 2.57 40 16:22 29.01.2023
40 Rain 27 1011 78 10000 2.57 40 15:50 29.01.2023
41 Rain 25 1011 88 10000 2.57 80 13:34 29.01.2023
42 Rain 25 1012 88 10000 2.06 90 12:52 29.01.2023
43 Rain 25 1012 88 10000 2.57 80 12:24 29.01.2023
44 Rain 26 1012 83 10000 2.57 90 11:58 29.01.2023
45 Rain 26 1013 83 10000 2.57 90 11:28 29.01.2023
46 Clouds 26 1013 83 10000 2.57 90 10:19 29.01.2023
47 Clouds 27 1012 78 10000 3.6 60 07:20 29.01.2023
48 Clouds 29 1011 74 10000 4.63 50 03:41 29.01.2023
49 Clouds 29 1013 74 10000 4.63 50 23:39 28.01.2023
50 Clouds 28 1014 78 10000 5.14 50 20:45 28.01.2023
51 Clouds 28 1014 78 10000 5.14 60 19:52 28.01.2023
52 Rain 26 1014 83 10000 4.12 60 18:35 28.01.2023
53 Clouds 25 1013 88 10000 2.57 80 17:20 28.01.2023
54 Clouds 25 1012 94 10000 2.06 80 16:25 28.01.2023
55 Rain 25 1012 94 10000 2.06 110 15:49 28.01.2023
56 Clouds 26 1012 83 10000 2.06 100 14:53 28.01.2023
57 Rain 26 1013 83 10000 3.6 70 13:30 28.01.2023
58 Rain 26 1014 89 10000 1.54 110 11:55 28.01.2023
59 Rain 26 1014 89 10000 3.6 80 10:34 28.01.2023
60 Clouds 27 1014 78 10000 5.14 70 08:22 28.01.2023
61 Clouds 28 1013 83 10000 6.17 50 01:42 28.01.2023
62 Clouds 29 1013 74 10000 6.17 50 00:25 28.01.2023
63 Clouds 29 1014 79 10000 5.66 70 21:27 27.01.2023
64 Clouds 27 1013 78 10000 4.12 80 18:45 27.01.2023
65 Clouds 26 1012 89 10000 2.06 100 17:57 27.01.2023
66 Clouds 26 1012 89 10000 2.06 100 17:19 27.01.2023
67 Clouds 26 1011 89 10000 4.12 80 16:35 27.01.2023
68 Clouds 26 1012 89 10000 2.57 90 14:57 27.01.2023
69 Clouds 26 1012 89 10000 2.57 90 14:25 27.01.2023
70 Clouds 26 1013 89 10000 3.09 90 12:57 27.01.2023
71 Clouds 27 1013 83 10000 2.57 100 08:42 27.01.2023
72 Clouds 28 1012 78 10000 4.63 70 05:58 27.01.2023
73 Clouds 29 1013 74 10000 5.14 50 22:56 26.01.2023
74 Clouds 29 1013 74 10000 5.66 60 21:40 26.01.2023
75 Clouds 28 1013 83 10000 5.66 60 20:36 26.01.2023
76 Clouds 27 1013 83 10000 4.12 60 19:21 26.01.2023
77 Clouds 25 1012 88 10000 2.57 90 17:42 26.01.2023
78 Clouds 25 1012 88 10000 3.09 100 16:27 26.01.2023
79 Clear 25 1011 88 10000 2.57 90 15:55 26.01.2023
80 Clear 25 1011 88 10000 2.06 90 15:31 26.01.2023
81 Clear 25 1012 88 10000 2.57 90 14:50 26.01.2023
82 Clouds 26 1013 83 10000 4.63 70 12:48 26.01.2023
83 Clouds 26 1014 83 10000 2.57 100 11:31 26.01.2023
84 Clouds 26 1014 83 10000 1.54 110 10:30 26.01.2023
85 Clouds 26 1014 83 10000 2.06 110 09:44 26.01.2023
86 Rain 26 1013 83 10000 2.06 100 08:25 26.01.2023
87 Clouds 28 1011 74 10000 1.54 350 02:26 26.01.2023
88 Rain 27 1013 83 10000 5.66 40 23:38 25.01.2023
89 Rain 28 1013 74 10000 5.66 50 21:59 25.01.2023
90 Rain 28 1014 83 10000 5.14 50 21:21 25.01.2023
91 Clouds 26 1013 83 10000 2.57 90 18:59 25.01.2023
92 Clouds 25 1013 88 10000 2.06 100 18:23 25.01.2023
93 Clouds 23 1012 94 10000 1.54 70 15:50 25.01.2023
94 Clouds 24 1013 94 10000 1.54 70 12:59 25.01.2023
95 Clouds 23 1013 100 10000 0.51 80 11:21 25.01.2023
96 Clouds 24 1014 94 10000 1.03 190 09:48 25.01.2023
97 Clouds 25 1013 83 10000 1.03 110 07:45 25.01.2023
98 Clouds 29 1012 70 10000 2.57 20 01:37 25.01.2023
99 Clear 28 1012 74 10000 3.09 40 00:25 25.01.2023
100 Clear 28 1013 78 10000 3.09 60 21:35 24.01.2023
101 Clouds 28 1013 74 10000 2.06 60 20:23 24.01.2023
102 Clouds 26 1013 89 10000 0.51 80 18:46 24.01.2023
103 Clouds 22 1012 100 10000 1.03 80 17:31 24.01.2023
104 Clouds 23 1012 100 10000 0.51 110 16:53 24.01.2023
105 Clouds 23 1012 100 10000 0.51 100 16:26 24.01.2023
106 Clouds 22 1012 100 10000 0.51 140 13:41 24.01.2023
107 Clouds 23 1012 100 10000 1.03 180 11:30 24.01.2023
108 Clouds 24 1012 94 10000 1.03 180 08:38 24.01.2023
109 Clouds 24 1012 94 10000 1.03 180 08:18 24.01.2023
110 Clouds 24 1012 94 10000 0.51 140 07:47 24.01.2023
111 Rain 26 1011 89 10000 1.54 170 02:39 24.01.2023
112 Rain 28 1011 78 10000 3.09 40 00:36 24.01.2023
113 Clouds 27 1012 78 10000 1.54 240 22:28 23.01.2023
114 Clouds 27 1012 78 10000 1.54 70 19:58 23.01.2023
115 Clouds 23 1011 100 10000 1.03 180 18:58 23.01.2023
116 Rain 22 1010 100 10000 1.03 180 16:40 23.01.2023
117 Clouds 22 1010 100 10000 1.54 190 15:26 23.01.2023
118 Clouds 22 1011 100 10000 1.03 180 13:55 23.01.2023
119 Clouds 22 1011 100 10000 0.51 180 12:55 23.01.2023
120 Clouds 22 1012 100 10000 0.51 350 11:45 23.01.2023
121 Clouds 23 1012 100 10000 0.51 150 10:55 23.01.2023
122 Clouds 25 1012 88 10000 1.03 140 08:24 23.01.2023
123 Rain 27 1012 78 10000 5.14 60 23:53 22.01.2023
124 Rain 27 1013 78 10000 4.04 148 21:50 22.01.2023
125 Rain 26 1013 83 10000 1.03 40 20:58 22.01.2023
126 Clouds 27 1013 78 10000 1.03 90 19:54 22.01.2023
127 Clouds 27 1013 78 10000 1.03 130 19:21 22.01.2023
128 Clouds 24 1013 94 10000 1.03 100 18:25 22.01.2023
129 Clouds 23 1012 100 10000 0.51 100 17:55 22.01.2023
130 Clouds 23 1012 100 10000 0 0 17:23 22.01.2023
131 Clouds 23 1012 94 10000 1.03 200 15:23 22.01.2023
132 Clouds 22 1012 100 10000 0.51 110 14:20 22.01.2023
133 Clouds 23 1013 94 10000 0.51 180 13:26 22.01.2023
134 Clouds 25 1013 83 10000 1.54 160 12:28 22.01.2023
135 Clouds 23 1014 94 10000 1.03 150 11:23 22.01.2023
136 Clouds 24 1014 88 10000 1.03 140 09:34 22.01.2023
137 Clouds 27 1013 78 10000 3.6 50 02:58 22.01.2023
138 Clouds 28 1015 78 10000 5.14 50 23:43 21.01.2023
139 Clouds 27 1015 78 10000 5.14 60 22:48 21.01.2023
140 Clouds 27 1016 78 10000 5.14 50 21:28 21.01.2023
141 Clouds 26 1015 83 10000 1.03 120 18:50 21.01.2023
142 Clouds 24 1014 94 10000 1.54 110 15:36 21.01.2023
143 Clouds 24 1015 94 10000 1.54 110 13:31 21.01.2023
144 Clouds 25 1015 88 10000 2.06 90 12:52 21.01.2023
145 Clouds 25 1016 88 10000 2.06 100 11:28 21.01.2023
146 Clouds 25 1016 88 10000 2.06 100 10:47 21.01.2023
147 Clouds 26 1016 83 10000 3.09 90 08:28 21.01.2023
148 Clouds 29 1014 74 10000 7.2 70 01:19 21.01.2023
149 Clouds 28 1015 78 10000 6.17 70 22:27 20.01.2023
150 Clouds 27 1015 83 10000 6.69 70 21:36 20.01.2023
151 Clouds 25 1016 94 10000 6.69 70 20:42 20.01.2023
152 Clouds 24 1016 94 10000 2.57 90 18:29 20.01.2023
153 Clouds 24 1015 88 10000 1.03 100 15:45 20.01.2023
154 Clouds 24 1015 94 10000 1.03 120 14:33 20.01.2023
155 Clouds 25 1016 88 10000 3.09 90 12:24 20.01.2023
156 Clouds 26 1016 83 10000 5.14 80 08:59 20.01.2023
157 Clouds 26 1015 83 10000 5.66 80 07:43 20.01.2023
158 Clouds 29 1015 74 10000 7.72 80 02:33 20.01.2023
159 Clouds 28 1016 78 10000 7.72 70 22:38 19.01.2023
160 Clouds 28 1016 78 10000 7.72 70 22:38 19.01.2023
161 Clouds 28 1016 78 10000 7.72 70 22:18 19.01.2023
162 Clouds 27 1017 83 10000 7.72 80 20:21 19.01.2023
163 Clouds 26 1016 89 10000 5.14 80 18:57 19.01.2023
164 Clouds 25 1014 94 10000 4.63 80 15:22 19.01.2023
165 Clouds 26 1016 89 10000 6.69 70 10:44 19.01.2023
166 Clouds 26 1016 89 10000 4.63 60 08:59 19.01.2023
167 Rain 26 1015 89 10000 5.14 40 23:19 18.01.2023
168 Rain 25 1014 88 10000 7.2 70 20:38 18.01.2023
169 Rain 25 1014 88 10000 7.2 70 20:18 18.01.2023
170 Rain 24 1013 94 7000 7.2 70 19:36 18.01.2023
171 Rain 25 1012 94 4900 5.66 50 17:32 18.01.2023
172 Rain 24 1011 94 10000 4.12 90 14:21 18.01.2023
173 Rain 24 1013 100 5000 6.69 40 12:50 18.01.2023
174 Rain 24 1014 94 10000 3.09 90 10:29 18.01.2023
175 Rain 24 1013 94 5000 8.23 60 07:36 18.01.2023
176 Clouds 27 1011 78 10000 3.09 70 01:25 18.01.2023
177 Clouds 27 1012 74 10000 5.66 70 22:30 17.01.2023
178 Rain 25 1012 78 10000 2.57 90 20:25 17.01.2023
179 Clouds 25 1011 88 10000 3.6 20 18:59 17.01.2023
180 Clouds 22 1010 94 10000 1.03 80 17:47 17.01.2023
181 Clouds 23 1009 88 10000 1.54 100 15:35 17.01.2023
182 Clouds 24 1009 83 10000 1.54 100 14:51 17.01.2023
183 Clouds 25 1009 73 10000 3.6 8 13:33 17.01.2023
184 Clouds 26 1010 73 10000 2.57 30 11:49 17.01.2023
185 Clouds 24 1011 83 10000 1.54 90 10:34 17.01.2023
186 Clouds 24 1011 83 10000 2.06 70 09:26 17.01.2023
187 Clouds 26 1010 73 10000 1.54 360 07:34 17.01.2023
188 Clouds 28 1007 65 10000 3.6 310 03:49 17.01.2023
189 Clear 28 1008 69 10000 3.6 320 00:48 17.01.2023
190 Clouds 27 1009 74 10000 2.57 340 22:38 16.01.2023
191 Clouds 27 1009 74 10000 2.06 330 21:44 16.01.2023
192 Rain 26 1009 73 10000 1.54 290 19:55 16.01.2023
193 Rain 26 1009 78 10000 0.51 270 19:18 16.01.2023
194 Rain 23 1009 94 10000 1.03 200 18:48 16.01.2023
195 Rain 22 1008 100 10000 1.03 150 18:18 16.01.2023
196 Rain 22 1007 94 10000 1.03 170 17:20 16.01.2023
197 Rain 23 1007 94 10000 1.03 210 14:19 16.01.2023
198 Rain 23 1008 94 10000 1.54 230 13:36 16.01.2023
199 Clouds 22 1009 100 10000 1.54 230 10:25 16.01.2023
200 Clear 22 1008 94 10000 0.51 190 08:23 16.01.2023
201 Clouds 26 1008 73 10000 2.57 280 22:44 15.01.2023
202 Clouds 25 1008 73 10000 2.06 240 21:23 15.01.2023
203 Clouds 25 1008 78 10000 2.06 240 20:28 15.01.2023
204 Clouds 23 1008 88 10000 1.54 210 19:31 15.01.2023
205 Clear 19 1006 100 10000 0.51 180 17:24 15.01.2023
206 Clear 19 1006 100 10000 0.51 150 13:46 15.01.2023
207 Clear 19 1007 100 10000 0.51 150 12:21 15.01.2023
208 Clear 20 1008 94 10000 0.51 170 11:28 15.01.2023
209 Clear 20 1008 94 10000 1.03 190 10:21 15.01.2023
210 Clear 24 1008 73 10000 0.51 170 07:45 15.01.2023
211 Rain 25 1008 69 10000 1.03 200 23:34 14.01.2023
212 Clouds 25 1008 69 10000 3.09 50 22:43 14.01.2023
213 Clouds 26 1008 61 10000 2.06 210 21:36 14.01.2023
214 Clouds 26 1008 61 10000 2.06 210 21:18 14.01.2023
215 Clouds 25 1008 65 10000 1.54 170 20:42 14.01.2023
216 Clouds 25 1008 65 10000 1.54 170 20:21 14.01.2023
217 Clouds 21 1007 88 10000 1.54 90 17:49 14.01.2023
218 Clouds 19 1007 100 10000 0 0 15:31 14.01.2023
219 Clouds 19 1007 100 10000 1.03 190 14:56 14.01.2023
220 Clouds 19 1007 100 10000 0.51 170 13:44 14.01.2023
221 Clouds 20 1008 94 10000 0.51 180 12:26 14.01.2023
222 Clouds 20 1009 94 10000 1.03 150 10:48 14.01.2023
223 Clouds 22 1008 78 10000 1.03 140 08:19 14.01.2023
224 Clouds 27 1007 54 10000 2.06 150 00:50 14.01.2023
225 Clouds 27 1008 57 10000 3.09 110 22:59 13.01.2023
226 Clouds 27 1008 61 10000 3.09 130 22:40 13.01.2023
227 Clouds 26 1009 61 10000 2.57 150 21:56 13.01.2023
228 Clouds 25 1009 65 10000 2.06 160 20:24 13.01.2023
229 Clouds 24 1008 73 10000 2.57 140 18:54 13.01.2023
230 Clouds 24 1007 78 10000 1.54 130 16:57 13.01.2023
231 Clouds 24 1007 73 10000 2.57 130 14:40 13.01.2023
232 Clouds 24 1008 78 10000 2.57 130 12:21 13.01.2023
233 Clouds 24 1009 73 10000 3.6 130 10:32 13.01.2023
234 Clouds 25 1009 73 10000 3.6 130 09:54 13.01.2023
235 Clouds 24 1009 78 10000 2.57 130 09:34 13.01.2023
236 Clouds 25 1008 73 10000 3.09 120 08:28 13.01.2023
237 Clouds 25 1007 78 10000 1.54 130 06:54 13.01.2023
238 Clouds 26 1007 73 10000 3.09 120 05:44 13.01.2023
239 Clouds 27 1006 69 10000 3.09 140 00:45 13.01.2023
240 Rain 27 1007 74 10000 3.6 130 22:45 12.01.2023
241 Rain 26 1008 73 10000 4.12 120 20:56 12.01.2023
242 Rain 25 1008 78 10000 4.63 120 19:57 12.01.2023
243 Rain 23 1007 88 6000 3.6 140 17:56 12.01.2023
244 Rain 23 1006 94 5000 3.6 160 16:48 12.01.2023
245 Clouds 24 1006 83 10000 2.57 130 14:45 12.01.2023
246 Clouds 24 1006 83 10000 2.57 130 14:45 12.01.2023
247 Clouds 24 1006 83 10000 3.6 140 14:23 12.01.2023
248 Clouds 24 1007 83 10000 3.09 140 12:56 12.01.2023
249 Clouds 25 1009 78 10000 3.09 120 10:54 12.01.2023
250 Clouds 25 1009 78 10000 2.06 130 09:29 12.01.2023
251 Clouds 26 1007 73 10000 3.09 150 05:27 12.01.2023
252 Clouds 28 1008 65 10000 3.6 140 23:59 11.01.2023
253 Clouds 27 1009 74 10000 3.09 100 23:41 11.01.2023
254 Clouds 27 1009 74 10000 3.09 100 23:21 11.01.2023
255 Clouds 27 1009 74 10000 1.54 130 21:47 11.01.2023
256 Clouds 26 1009 78 10000 1.54 90 20:32 11.01.2023
257 Clouds 24 1009 94 10000 0.51 150 18:39 11.01.2023
258 Clouds 24 1008 94 10000 1.54 80 17:23 11.01.2023
259 Clouds 24 1008 88 10000 1.54 100 15:20 11.01.2023
260 Rain 24 1009 100 10000 1.03 90 13:44 11.01.2023
261 Rain 25 1010 94 10000 1.03 350 11:55 11.01.2023
262 Rain 26 1011 89 10000 2.06 120 10:32 11.01.2023
263 Rain 26 1010 94 10000 3.6 230 08:20 11.01.2023
264 Rain 26 1010 89 10000 3.09 230 07:25 11.01.2023
265 Rain 26 1010 94 10000 6.69 250 01:25 11.01.2023
266 Rain 26 1011 94 10000 8.23 260 22:46 10.01.2023
267 Rain 25 1012 94 10000 5.14 290 21:34 10.01.2023
268 Rain 25 1012 94 10000 7.72 290 20:42 10.01.2023
269 Rain 25 1012 94 10000 7.72 280 19:39 10.01.2023
270 Rain 25 1011 94 6000 6.69 280 18:47 10.01.2023
271 Rain 25 1010 94 10000 1.54 230 17:59 10.01.2023
272 Drizzle 26 1010 89 10000 5.66 270 16:39 10.01.2023
273 Drizzle 26 1010 89 10000 5.66 280 15:31 10.01.2023
274 Rain 26 1011 94 10000 8.23 270 14:31 10.01.2023
275 Rain 26 1011 94 10000 3.6 290 12:22 10.01.2023
276 Clouds 27 1012 94 10000 3.6 280 09:21 10.01.2023
277 Rain 27 1011 89 10000 3.6 280 08:29 10.01.2023
278 Rain 27 1011 94 10000 3.6 280 07:26 10.01.2023
279 Rain 28 1009 89 10000 4.12 290 04:53 10.01.2023
280 Rain 28 1011 83 10000 4.12 280 23:28 09.01.2023
281 Clouds 26 1012 81 10000 6.51 321 21:51 09.01.2023
282 Rain 25 1012 84 10000 5.94 327 20:44 09.01.2023
283 Rain 26 1012 82 10000 8.07 316 19:21 09.01.2023
284 Rain 25 1011 84 10000 8.66 313 17:54 09.01.2023
285 Rain 25 1011 84 10000 8.82 309 17:19 09.01.2023
286 Rain 25 1011 84 10000 8.82 309 16:32 09.01.2023
287 Rain 25 1010 83 10000 9.18 309 15:23 09.01.2023
288 Rain 25 1010 83 10000 9.18 309 14:43 09.01.2023
289 Rain 25 1010 88 8363 9.21 299 12:55 09.01.2023
290 Rain 25 1011 87 10000 10.5 296 12:25 09.01.2023
291 Rain 25 1011 88 10000 5.14 260 11:20 09.01.2023
292 Drizzle 25 1011 94 10000 5.14 290 08:42 09.01.2023
293 Rain 25 1010 94 10000 8.23 270 06:34 09.01.2023
294 Rain 25 1010 94 10000 5.66 290 02:53 09.01.2023
295 Rain 25 1012 94 10000 3.09 290 22:43 08.01.2023
296 Rain 25 1012 94 10000 3.09 90 21:23 08.01.2023
297 Rain 24 1012 94 10000 3.09 70 20:57 08.01.2023
298 Rain 24 1012 94 10000 3.6 50 19:19 08.01.2023
299 Drizzle 23 1011 94 10000 3.09 100 17:39 08.01.2023
300 Drizzle 23 1011 94 10000 3.09 100 17:18 08.01.2023
301 Rain 24 1011 88 10000 2.57 90 15:38 08.01.2023
302 Rain 24 1011 88 10000 2.57 90 15:38 08.01.2023
303 Drizzle 24 1011 88 10000 2.57 90 14:18 08.01.2023
304 Rain 24 1012 88 10000 3.09 100 13:32 08.01.2023
305 Drizzle 24 1012 94 10000 5.14 70 12:58 08.01.2023
306 Rain 24 1013 88 10000 2.06 100 11:22 08.01.2023
307 Rain 23 1013 94 10000 3.09 90 09:37 08.01.2023
308 Rain 24 1013 83 10000 1.03 110 07:55 08.01.2023
309 Rain 25 1013 88 10000 2.57 30 02:20 08.01.2023
310 Rain 24 1014 88 10000 3.09 40 22:49 07.01.2023
311 Rain 22 1014 85 10000 1.41 36 22:24 07.01.2023
312 Drizzle 24 1014 88 10000 1.54 360 21:49 07.01.2023
313 Drizzle 24 1014 88 10000 1.03 100 20:54 07.01.2023
314 Drizzle 24 1014 88 10000 1.03 100 20:24 07.01.2023
315 Clouds 22 1014 94 10000 1.54 170 18:52 07.01.2023
316 Clouds 22 1014 94 10000 1.54 170 18:52 07.01.2023
317 Clouds 22 1013 94 10000 1.03 170 17:59 07.01.2023
318 Clouds 22 1013 94 10000 1.03 170 17:36 07.01.2023
319 Rain 22 1012 88 10000 1.54 160 16:38 07.01.2023
320 Rain 21 1012 94 10000 1.54 150 15:50 07.01.2023
321 Rain 21 1013 89 10000 3.31 130 15:29 07.01.2023
322 Rain 21 1013 94 10000 1.03 160 14:30 07.01.2023
323 Drizzle 22 1013 88 10000 1.54 150 13:54 07.01.2023
324 Drizzle 22 1013 88 10000 1.54 150 13:26 07.01.2023
325 Rain 21 1014 94 10000 1.54 180 12:23 07.01.2023
326 Drizzle 22 1014 94 10000 0.51 170 11:50 07.01.2023
327 Drizzle 21 1015 94 10000 1.03 130 10:25 07.01.2023
328 Drizzle 21 1014 94 10000 2.57 60 08:27 07.01.2023
329 Rain 21 1014 94 10000 1.03 120 07:44 07.01.2023
330 Drizzle 22 1013 88 10000 1.03 20 06:56 07.01.2023
331 Rain 26 1013 78 10000 2.06 130 00:43 07.01.2023
332 Rain 26 1013 78 10000 2.06 100 22:23 06.01.2023
333 Rain 26 1013 73 10000 1.03 260 21:58 06.01.2023
334 Rain 26 1013 73 10000 1.03 260 21:26 06.01.2023
335 Clouds 24 1013 83 10000 0.51 190 19:58 06.01.2023
336 Clouds 24 1013 83 10000 0.51 190 19:40 06.01.2023
337 Rain 24 1013 83 10000 0.51 190 19:22 06.01.2023
338 Rain 22 1012 88 10000 1.03 150 18:34 06.01.2023
339 Rain 22 1011 88 10000 1.03 130 16:56 06.01.2023
340 Rain 23 1012 91 5208 4.32 83 16:24 06.01.2023
341 Rain 22 1011 83 10000 1.54 120 15:55 06.01.2023
342 Rain 22 1011 83 10000 1.54 120 15:37 06.01.2023
343 Rain 22 1011 88 10000 5.14 80 13:56 06.01.2023
344 Rain 23 1011 88 10000 5.14 80 12:22 06.01.2023
345 Drizzle 23 1012 94 10000 4.63 80 10:57 06.01.2023
346 Rain 23 1012 88 10000 3.09 90 08:55 06.01.2023
347 Rain 25 1010 83 10000 5.14 90 05:31 06.01.2023
348 Clouds 27 1011 69 10000 5.14 110 23:48 05.01.2023
349 Clouds 27 1012 69 10000 4.12 100 22:54 05.01.2023
350 Clouds 27 1012 69 10000 4.63 100 21:22 05.01.2023
351 Clouds 26 1012 73 10000 3.6 110 19:18 05.01.2023
352 Clouds 24 1010 78 10000 2.06 120 17:26 05.01.2023
353 Clouds 24 1010 78 10000 2.06 110 15:59 05.01.2023
354 Clouds 24 1010 78 10000 2.06 110 15:59 05.01.2023
355 Clouds 24 1010 78 10000 2.06 110 15:37 05.01.2023
356 Clouds 24 1010 78 10000 2.06 110 14:34 05.01.2023
357 Clouds 25 1011 73 10000 3.09 100 12:42 05.01.2023
358 Clouds 25 1012 69 10000 2.06 100 11:42 05.01.2023
359 Clouds 25 1012 73 10000 2.06 110 09:48 05.01.2023
360 Clouds 25 1011 73 10000 2.06 120 08:23 05.01.2023
361 Clouds 27 1010 61 10000 3.09 100 06:50 05.01.2023
362 Clouds 28 1009 61 10000 3.09 110 03:34 05.01.2023
363 Clouds 25 1011 70 10000 5.49 123 22:27 04.01.2023
364 Clouds 27 1011 61 10000 2.57 100 21:32 04.01.2023
365 Clouds 26 1010 69 10000 2.06 230 20:23 04.01.2023
366 Clouds 25 1010 69 10000 2.06 130 19:47 04.01.2023
367 Clouds 25 1010 69 10000 2.06 130 19:29 04.01.2023
368 Clouds 24 1010 73 10000 2.06 130 18:18 04.01.2023
369 Clouds 24 1009 73 10000 2.06 160 16:31 04.01.2023
370 Clouds 24 1009 73 10000 1.03 150 14:52 04.01.2023
371 Clouds 24 1009 73 10000 1.54 150 13:30 04.01.2023
372 Clouds 25 1010 73 10000 4.63 157 11:24 04.01.2023
373 Clouds 25 1011 73 10000 1.03 130 10:44 04.01.2023
374 Clouds 25 1011 73 10000 1.03 130 10:25 04.01.2023
375 Clouds 24 1010 78 10000 0.51 160 09:52 04.01.2023
376 Clouds 26 1007 78 10000 1.54 170 05:39 04.01.2023
377 Clouds 27 1007 69 10000 4.63 140 01:41 04.01.2023
378 Rain 25 1007 78 10000 4.12 150 23:42 03.01.2023
379 Rain 25 1007 83 10000 3.6 180 22:56 03.01.2023
380 Clouds 26 1007 73 10000 2.57 170 21:39 03.01.2023
381 Clouds 25 1007 83 10000 3.09 190 20:50 03.01.2023
382 Clouds 25 1005 83 10000 4.63 200 18:24 03.01.2023
383 Drizzle 25 1003 88 10000 7.72 250 16:40 03.01.2023
384 Clouds 26 1001 94 10000 12.86 280 14:23 03.01.2023
385 Clouds 26 1002 89 10000 8.75 290 13:33 03.01.2023
386 Clouds 26 1002 89 10000 8.75 290 13:32 03.01.2023
387 Rain 26 1004 94 10000 7.72 300 12:59 03.01.2023
388 Rain 26 1004 94 10000 7.72 300 12:31 03.01.2023
389 Clouds 27 1005 89 10000 6.69 300 11:53 03.01.2023
390 Rain 27 1005 89 10000 5.66 320 09:26 03.01.2023
391 Rain 27 1005 89 10000 3.6 310 04:26 03.01.2023
392 Rain 26 1006 89 10000 4.12 300 03:47 03.01.2023
393 Rain 26 1006 89 10000 4.12 300 03:27 03.01.2023
394 Rain 27 1008 94 10000 4.12 300 23:19 02.01.2023
395 Rain 28 1008 83 10000 4.12 310 22:26 02.01.2023
396 Rain 27 1008 89 10000 3.6 310 20:51 02.01.2023
397 Rain 27 1008 89 10000 3.6 310 20:26 02.01.2023
398 Drizzle 26 1008 94 10000 2.57 300 18:45 02.01.2023
399 Rain 26 1007 94 10000 3.09 300 15:43 02.01.2023
400 Rain 26 1008 94 10000 3.09 310 13:51 02.01.2023
401 Rain 26 1008 94 10000 3.09 320 12:19 02.01.2023
402 Rain 25 1010 100 10000 4.12 290 10:57 02.01.2023
403 Rain 25 1009 94 10000 3.6 270 08:38 02.01.2023
404 Rain 29 1008 84 10000 3.6 310 03:32 02.01.2023
405 Clouds 28 1010 83 10000 4.63 340 22:43 01.01.2023
406 Clouds 28 1011 83 10000 4.63 140 21:43 01.01.2023
407 Clouds 28 1011 83 10000 4.12 360 20:48 01.01.2023
408 Clouds 28 1011 83 10000 4.12 360 20:18 01.01.2023
409 Clouds 27 1011 89 10000 3.6 350 18:47 01.01.2023
410 Clouds 26 1010 94 10000 3.09 360 17:23 01.01.2023
411 Clouds 26 1010 94 10000 3.6 360 16:34 01.01.2023
412 Clouds 26 1010 94 10000 3.09 20 15:28 01.01.2023
413 Clouds 27 1011 89 10000 3.6 20 13:42 01.01.2023
414 Clouds 27 1012 83 10000 3.09 20 12:41 01.01.2023
415 Clouds 26 1012 89 10000 2.57 30 11:39 01.01.2023
416 Clouds 26 1013 89 10000 2.57 40 10:47 01.01.2023
417 Clouds 26 1012 94 10000 2.57 30 08:59 01.01.2023
418 Clouds 26 1012 94 10000 2.57 30 08:23 01.01.2023
419 Clouds 26 1012 94 10000 2.57 30 07:27 01.01.2023
420 Clouds 27 1011 77 10000 4.31 25 03:47 01.01.2023
421 Clouds 29 1013 79 10000 3.09 30 23:44 31.12.2022
422 Clouds 28 1013 83 10000 3.6 50 22:35 31.12.2022
423 Clouds 27 1013 83 10000 3.6 60 21:41 31.12.2022
424 Clouds 27 1013 83 10000 3.6 60 21:19 31.12.2022
425 Clouds 27 1013 89 10000 2.06 40 19:42 31.12.2022
426 Clouds 26 1013 89 10000 1.54 120 18:45 31.12.2022
427 Clouds 26 1013 89 10000 1.54 120 18:19 31.12.2022
428 Clouds 25 1012 88 10000 1.03 130 17:48 31.12.2022
429 Clouds 25 1011 88 10000 1.03 130 16:59 31.12.2022
430 Clouds 25 1011 88 10000 1.03 130 16:29 31.12.2022
431 Clouds 25 1012 94 10000 1.54 140 14:45 31.12.2022
432 Clouds 25 1012 94 10000 1.54 140 13:43 31.12.2022
433 Clouds 25 1013 94 10000 1.03 140 12:40 31.12.2022
434 Clouds 25 1013 94 10000 1.03 140 12:19 31.12.2022
435 Clouds 26 1013 77 10000 3.43 18 11:50 31.12.2022
436 Clouds 25 1013 88 10000 1.54 120 10:36 31.12.2022
437 Clouds 24 1013 88 10000 2.06 120 09:54 31.12.2022
438 Clouds 24 1013 88 10000 2.06 120 09:35 31.12.2022
439 Clouds 24 1012 88 10000 1.03 90 07:48 31.12.2022
440 Clouds 29 1013 79 10000 2.06 320 00:35 31.12.2022
441 Clouds 28 1013 83 10000 2.57 340 23:45 30.12.2022
442 Rain 28 1014 83 10000 2.57 340 22:49 30.12.2022
443 Rain 28 1014 78 10000 3.09 350 21:43 30.12.2022
444 Rain 28 1014 78 10000 3.09 350 21:23 30.12.2022
445 Rain 26 1013 89 10000 2.57 350 18:58 30.12.2022
446 Rain 26 1012 89 10000 2.57 360 17:42 30.12.2022
447 Clouds 26 1012 89 10000 2.57 360 17:23 30.12.2022
448 Clouds 26 1011 89 10000 3.09 10 15:50 30.12.2022
449 Rain 26 1013 94 10000 3.09 20 13:56 30.12.2022
450 Rain 27 1014 89 10000 2.57 10 10:24 30.12.2022
451 Rain 26 1014 83 10000 1.03 40 07:59 30.12.2022
452 Clouds 28 1012 83 10000 3.6 350 02:41 30.12.2022
453 Clouds 27 1013 89 10000 1.54 30 00:53 30.12.2022
454 Clouds 24 1014 94 10000 2.57 30 22:46 29.12.2022
455 Rain 24 1014 94 10000 2.57 60 21:29 29.12.2022
456 Rain 24 1014 94 10000 2.57 40 20:54 29.12.2022
457 Drizzle 24 1013 94 10000 1.03 120 19:55 29.12.2022
458 Rain 25 1012 94 10000 2.06 360 17:57 29.12.2022
459 Rain 25 1012 94 10000 2.06 360 17:28 29.12.2022
460 Rain 26 1012 94 10000 3.09 340 16:55 29.12.2022
461 Rain 26 1011 94 10000 1.54 150 15:58 29.12.2022
462 Drizzle 26 1012 94 10000 2.06 130 14:37 29.12.2022
463 Clouds 27 1013 89 10000 3.09 340 12:41 29.12.2022
464 Rain 26 1014 89 10000 2.06 10 10:31 29.12.2022
465 Rain 28 1012 83 10000 2.57 340 06:57 29.12.2022
466 Clouds 29 1012 79 10000 4.63 10 23:30 28.12.2022
467 Clouds 29 1013 74 10000 4.63 10 22:25 28.12.2022
468 Clouds 28 1013 83 10000 4.63 20 21:20 28.12.2022
469 Clouds 28 1013 78 10000 4.63 20 20:20 28.12.2022
470 Clouds 26 1013 83 10000 4.12 50 18:52 28.12.2022
471 Clouds 26 1012 83 10000 3.6 60 16:23 28.12.2022
472 Clouds 26 1013 83 10000 3.6 50 14:27 28.12.2022
473 Clouds 26 1014 83 10000 3.6 60 12:49 28.12.2022
474 Clouds 26 1015 83 10000 3.6 60 11:34 28.12.2022
475 Clouds 26 1015 83 10000 3.6 60 10:26 28.12.2022
476 Clouds 26 1014 83 10000 3.09 50 07:48 28.12.2022
477 Clouds 27 1013 78 10000 3.09 50 06:46 28.12.2022
478 Clouds 29 1014 74 10000 3.6 40 01:18 28.12.2022
479 Clouds 28 1015 78 10000 3.09 40 22:28 27.12.2022
480 Clouds 26 1016 83 10000 1.03 110 19:51 27.12.2022
481 Clouds 23 1016 94 10000 1.03 150 18:41 27.12.2022
482 Clouds 23 1015 88 10000 0.51 160 16:59 27.12.2022
483 Clouds 23 1015 88 10000 3.43 78 15:55 27.12.2022
484 Clouds 23 1015 88 10000 3.18 70 14:25 27.12.2022
485 Clouds 24 1016 83 10000 0.51 140 12:23 27.12.2022
486 Clouds 24 1016 83 10000 1.03 130 09:48 27.12.2022
487 Clouds 24 1016 83 10000 1.03 130 09:24 27.12.2022
488 Clouds 24 1016 78 10000 1.54 130 08:47 27.12.2022
489 Clouds 28 1014 69 10000 4.63 60 04:54 27.12.2022
490 Clouds 28 1016 74 10000 5.66 60 23:39 26.12.2022
491 Clouds 25 1017 71 10000 3.57 93 21:50 26.12.2022
492 Clouds 25 1017 71 10000 3.72 91 20:43 26.12.2022
493 Clouds 25 1017 71 10000 3.68 85 19:51 26.12.2022
494 Clouds 25 1017 70 10000 3.62 92 18:42 26.12.2022
495 Clouds 21 1016 100 10000 1.03 120 16:51 26.12.2022
496 Clouds 21 1015 100 10000 0.51 130 15:25 26.12.2022
497 Clouds 24 1016 83 10000 1.54 120 12:55 26.12.2022
498 Clouds 24 1016 88 10000 2.57 90 09:44 26.12.2022
499 Clouds 27 1014 74 10000 6.17 70 02:53 26.12.2022
500 Clouds 27 1016 74 10000 5.66 50 23:38 25.12.2022
501 Clouds 27 1017 69 10000 5.66 60 22:42 25.12.2022
502 Clouds 27 1017 69 10000 6.17 70 21:50 25.12.2022
503 Clouds 26 1017 73 10000 2.06 90 19:28 25.12.2022
504 Clouds 23 1016 83 10000 1.54 100 17:52 25.12.2022
505 Clouds 23 1016 83 10000 1.54 110 17:34 25.12.2022
506 Clouds 24 1015 78 10000 2.57 90 16:19 25.12.2022
507 Clouds 24 1016 88 10000 2.57 100 13:23 25.12.2022
508 Clouds 24 1016 88 10000 2.06 100 10:59 25.12.2022
509 Clouds 27 1014 74 10000 6.17 70 02:57 25.12.2022
510 Clouds 28 1016 69 10000 6.69 70 22:29 24.12.2022
511 Clouds 27 1016 74 10000 2.06 110 19:51 24.12.2022
512 Clouds 23 1015 94 10000 1.03 130 16:47 24.12.2022
513 Clouds 24 1015 88 10000 1.54 120 14:55 24.12.2022
514 Clouds 24 1015 88 10000 2.06 100 13:30 24.12.2022
515 Clouds 24 1016 88 10000 2.57 90 11:26 24.12.2022
516 Clouds 25 1017 83 10000 2.57 100 10:22 24.12.2022
517 Clouds 25 1016 83 10000 3.09 110 09:37 24.12.2022
518 Clouds 25 1016 83 10000 2.06 110 06:56 24.12.2022
519 Clouds 27 1015 74 10000 3.09 110 02:50 24.12.2022
520 Clouds 28 1016 69 10000 4.63 100 23:37 23.12.2022
521 Clouds 28 1016 65 10000 5.14 90 22:27 23.12.2022
522 Clouds 27 1016 74 10000 5.14 80 20:41 23.12.2022
523 Clouds 26 1016 73 10000 4.12 100 19:39 23.12.2022
524 Clouds 26 1016 73 10000 4.12 100 19:21 23.12.2022
525 Clouds 25 1016 83 10000 4.63 90 18:46 23.12.2022
526 Clouds 25 1016 83 10000 3.09 100 18:19 23.12.2022
527 Clouds 24 1016 88 10000 1.54 130 16:34 23.12.2022
528 Clouds 23 1015 88 10000 1.03 110 15:30 23.12.2022
529 Clear 25 1018 78 10000 2.57 100 11:47 23.12.2022
530 Clouds 25 1018 78 10000 3.6 100 09:37 23.12.2022
531 Clouds 25 1017 83 10000 4.12 100 07:55 23.12.2022
532 Clouds 25 1017 83 10000 3.09 110 06:52 23.12.2022
533 Clouds 26 1017 73 10000 5.66 90 05:45 23.12.2022
534 Clouds 29 1018 79 10000 6.17 90 23:22 22.12.2022
535 Clouds 28 1018 78 10000 6.69 80 22:35 22.12.2022
536 Rain 27 1018 83 10000 6.17 90 20:27 22.12.2022
537 Clouds 26 1018 89 10000 4.63 90 19:24 22.12.2022
538 Clouds 26 1018 83 10000 2.57 100 18:38 22.12.2022
539 Clouds 25 1017 88 10000 3.09 90 16:59 22.12.2022
540 Clouds 25 1017 88 10000 3.09 90 16:37 22.12.2022
541 Clouds 25 1017 88 10000 4.12 80 15:33 22.12.2022
542 Clouds 25 1017 88 10000 3.09 90 14:45 22.12.2022
543 Clouds 25 1017 88 10000 4.12 90 13:32 22.12.2022
544 Clouds 25 1018 94 10000 4.63 90 12:40 22.12.2022
545 Clouds 26 1019 89 10000 6.17 80 10:32 22.12.2022
546 Clouds 26 1019 89 10000 6.17 90 09:59 22.12.2022
547 Clouds 26 1018 89 10000 6.69 90 09:19 22.12.2022
548 Clouds 26 1018 89 10000 5.14 90 07:54 22.12.2022
549 Clouds 27 1017 83 10000 7.2 80 04:19 22.12.2022
550 Clouds 28 1018 78 10000 8.23 80 00:51 22.12.2022
551 Rain 28 1018 78 10000 7.72 80 22:42 21.12.2022
552 Clouds 28 1018 83 10000 7.72 70 21:51 21.12.2022
553 Rain 28 1018 89 10000 6.69 80 21:20 21.12.2022
554 Rain 26 1018 89 9000 4.63 80 20:40 21.12.2022
555 Rain 27 1018 89 10000 6.17 80 19:56 21.12.2022
556 Rain 26 1018 94 10000 3.6 80 19:38 21.12.2022
557 Clouds 26 1018 94 10000 3.6 80 19:19 21.12.2022
558 Clouds 24 1017 94 10000 2.06 90 18:42 21.12.2022
559 Clouds 24 1015 100 10000 2.57 90 16:19 21.12.2022
560 Clouds 24 1015 94 10000 2.57 90 14:24 21.12.2022
561 Clouds 24 1015 94 10000 3.09 90 12:18 21.12.2022
562 Clouds 24 1016 94 10000 3.09 90 11:21 21.12.2022
563 Clouds 24 1016 94 10000 2.06 100 10:30 21.12.2022
564 Clouds 24 1015 94 10000 1.03 80 08:49 21.12.2022
565 Clouds 24 1013 88 10000 1.03 80 06:35 21.12.2022
566 Rain 23 1013 100 6000 4.12 290 00:27 21.12.2022
567 Rain 24 1014 94 2200 4.12 310 21:47 20.12.2022
568 Rain 24 1014 94 2200 4.12 310 21:47 20.12.2022
569 Rain 24 1014 94 7000 2.06 270 20:58 20.12.2022
570 Rain 24 1014 94 10000 1.03 200 19:59 20.12.2022
571 Rain 23 1013 100 10000 1.54 210 18:48 20.12.2022
572 Rain 23 1013 100 6000 1.03 220 18:23 20.12.2022
573 Rain 23 1013 100 10000 3.09 250 17:50 20.12.2022
574 Rain 24 1013 94 10000 4.12 250 17:25 20.12.2022
575 Rain 23 1012 100 10000 1.54 90 15:58 20.12.2022
576 Clouds 23 1012 100 10000 0 0 14:56 20.12.2022
577 Clouds 23 1012 94 10000 0.51 200 14:36 20.12.2022
578 Clouds 23 1013 94 10000 0.51 150 13:26 20.12.2022
579 Clouds 23 1013 94 10000 1.03 190 12:34 20.12.2022
580 Clouds 24 1013 94 10000 0.51 170 11:54 20.12.2022
581 Clouds 24 1014 88 10000 0.51 140 09:57 20.12.2022
582 Clouds 25 1013 83 10000 1.03 110 06:58 20.12.2022
583 Clouds 27 1012 74 10000 1.54 320 00:20 20.12.2022
584 Rain 26 1013 78 10000 3.6 50 22:22 19.12.2022
585 Rain 26 1013 78 10000 3.6 50 20:48 19.12.2022
586 Rain 26 1013 78 10000 2.06 90 19:40 19.12.2022
587 Rain 24 1012 83 10000 1.03 120 18:43 19.12.2022
588 Clouds 23 1012 94 10000 0.51 130 17:38 19.12.2022
589 Rain 23 1011 88 10000 1.03 120 14:45 19.12.2022
590 Clouds 23 1012 94 10000 2.57 90 12:35 19.12.2022
591 Clouds 24 1013 83 10000 2.57 90 11:36 19.12.2022
592 Clouds 23 1013 94 10000 4.12 80 07:48 19.12.2022
593 Clouds 24 1012 88 10000 2.06 110 06:32 19.12.2022
594 Clouds 27 1013 83 10000 5.66 70 22:59 18.12.2022
595 Clouds 27 1013 83 10000 5.66 70 21:47 18.12.2022
596 Clouds 27 1013 89 10000 4.63 60 21:24 18.12.2022
597 Clouds 27 1013 83 10000 4.63 50 20:52 18.12.2022
598 Clouds 26 1013 94 10000 3.09 80 19:43 18.12.2022
599 Clouds 25 1013 94 10000 2.57 90 18:39 18.12.2022
600 Clouds 25 1012 94 10000 2.06 90 17:52 18.12.2022
601 Clouds 25 1012 94 10000 2.06 90 15:41 18.12.2022
602 Clouds 25 1012 94 10000 2.06 90 15:20 18.12.2022
603 Clouds 25 1012 94 10000 3.09 80 14:21 18.12.2022
604 Clouds 25 1012 94 10000 3.09 90 12:58 18.12.2022
605 Clouds 25 1012 94 10000 3.09 90 12:58 18.12.2022
606 Clouds 25 1013 94 10000 3.6 70 12:31 18.12.2022
607 Clouds 25 1013 94 10000 2.57 80 11:22 18.12.2022
608 Clouds 26 1014 89 10000 3.6 70 09:24 18.12.2022
609 Clouds 25 1014 94 10000 3.09 80 08:45 18.12.2022
610 Clouds 26 1013 89 10000 2.57 50 06:24 18.12.2022
611 Clouds 27 1012 83 10000 4.12 50 04:20 18.12.2022
612 Clouds 27 1013 83 10000 5.14 50 01:49 18.12.2022
613 Clouds 27 1014 83 10000 5.66 60 22:29 17.12.2022
614 Clouds 26 1014 89 10000 5.14 60 20:18 17.12.2022
615 Rain 25 1012 94 10000 5.66 60 17:20 17.12.2022
616 Rain 25 1012 94 10000 3.09 60 14:44 17.12.2022
617 Rain 23 1012 94 10000 2.57 100 12:29 17.12.2022
618 Rain 22 1013 94 10000 1.54 190 10:51 17.12.2022
619 Rain 23 1013 100 4100 1.54 120 09:57 17.12.2022
620 Rain 23 1013 100 4800 5.66 300 08:35 17.12.2022
621 Clouds 26 1011 89 10000 5.14 50 06:46 17.12.2022
622 Clouds 27 1010 89 10000 7.72 60 23:59 16.12.2022
623 Clouds 26 1011 83 10000 7.2 60 21:38 16.12.2022
624 Rain 26 1011 78 10000 7.72 60 20:24 16.12.2022
625 Rain 25 1010 88 10000 9.77 60 17:19 16.12.2022
626 Rain 25 1010 94 10000 8.75 60 14:50 16.12.2022
627 Clouds 25 1010 88 10000 8.75 60 13:50 16.12.2022
628 Rain 25 1010 88 10000 8.75 50 12:21 16.12.2022
629 Clouds 26 1011 89 10000 8.75 60 10:47 16.12.2022
630 Rain 26 1011 83 10000 7.72 60 09:32 16.12.2022
631 Clouds 26 1010 89 10000 7.72 60 08:26 16.12.2022
632 Clouds 26 1010 89 10000 7.72 60 07:54 16.12.2022
633 Rain 26 1008 94 10000 8.23 60 23:45 15.12.2022
634 Rain 25 1009 94 3500 8.75 50 22:31 15.12.2022
635 Clouds 26 1009 89 10000 8.75 60 20:41 15.12.2022
636 Rain 25 1009 94 10000 8.23 70 19:37 15.12.2022
637 Clouds 25 1008 88 10000 7.72 60 18:29 15.12.2022
638 Clouds 25 1008 88 10000 7.72 60 17:27 15.12.2022
639 Rain 24 1007 94 10000 7.2 70 15:39 15.12.2022
640 Clouds 25 1008 88 10000 7.72 60 13:59 15.12.2022
641 Drizzle 25 1009 88 10000 7.2 60 12:41 15.12.2022
642 Rain 24 1010 94 10000 6.69 50 10:29 15.12.2022
643 Rain 24 1010 94 4000 7.72 50 08:54 15.12.2022
644 Clouds 25 1008 88 10000 7.2 60 06:26 15.12.2022
645 Rain 25 1008 94 10000 6.69 50 05:18 15.12.2022
646 Clouds 26 1009 89 10000 7.2 50 21:25 14.12.2022
647 Clouds 26 1009 89 10000 6.69 60 20:59 14.12.2022
648 Clouds 26 1008 89 10000 5.66 60 20:31 14.12.2022
649 Clouds 25 1008 88 10000 7.72 60 18:31 14.12.2022
650 Clouds 25 1007 88 10000 8.23 60 16:58 14.12.2022
651 Rain 24 1007 100 7000 6.17 60 15:40 14.12.2022
652 Clouds 24 1007 94 10000 9.26 60 14:22 14.12.2022
653 Rain 24 1008 94 10000 9.77 60 12:21 14.12.2022
654 Clouds 25 1009 94 9000 10.8 60 10:36 14.12.2022
655 Clouds 26 1008 83 10000 9.77 60 08:54 14.12.2022
656 Clouds 26 1008 78 10000 9.26 70 23:22 13.12.2022
657 Clouds 25 1009 83 10000 4.63 90 21:49 13.12.2022
658 Clouds 27 1009 69 10000 1.54 120 20:49 13.12.2022
659 Clouds 26 1009 73 10000 1.54 100 20:25 13.12.2022
660 Clouds 22 1009 88 10000 1.03 160 17:50 13.12.2022
661 Clear 19 1008 100 10000 0.51 120 15:55 13.12.2022
662 Clear 19 1008 100 10000 1.03 190 14:52 13.12.2022
663 Clear 19 1008 100 10000 1.03 190 14:52 13.12.2022
664 Clouds 20 1009 94 10000 0.51 140 11:32 13.12.2022
665 Clouds 20 1010 94 10000 1.03 190 10:36 13.12.2022
666 Clouds 21 1010 88 10000 0.51 80 09:43 13.12.2022
667 Clouds 24 1008 73 10000 2.57 100 06:20 13.12.2022
668 Clouds 26 1010 65 10000 3.09 130 22:23 12.12.2022
669 Clouds 25 1010 69 10000 4.12 130 21:22 12.12.2022
670 Clouds 23 1010 78 10000 3.6 140 18:33 12.12.2022
671 Clouds 23 1010 78 10000 3.6 130 17:19 12.12.2022
672 Clouds 23 1009 78 10000 3.09 130 15:22 12.12.2022
673 Clouds 23 1011 78 10000 1.54 120 11:51 12.12.2022
674 Clouds 24 1011 73 10000 3.09 120 09:19 12.12.2022
675 Clouds 25 1009 65 10000 5.14 90 04:54 12.12.2022
676 Clouds 25 1010 65 10000 4.12 110 01:53 12.12.2022
677 Clouds 25 1012 65 10000 5.66 90 22:53 11.12.2022
678 Clouds 25 1012 65 10000 4.63 110 20:42 11.12.2022
679 Clouds 24 1012 69 10000 2.57 120 19:42 11.12.2022
680 Clouds 24 1012 69 10000 2.57 120 18:56 11.12.2022
681 Clouds 23 1012 64 10000 3.09 130 17:58 11.12.2022
682 Clouds 23 1012 64 10000 3.09 130 17:58 11.12.2022
683 Clouds 23 1012 64 10000 2.57 120 17:29 11.12.2022
684 Clouds 23 1011 68 10000 3.09 130 16:50 11.12.2022
685 Clouds 23 1011 73 10000 4.63 130 15:46 11.12.2022
686 Clouds 23 1011 73 10000 3.09 130 14:21 11.12.2022
687 Clouds 23 1012 73 10000 3.09 120 12:44 11.12.2022
688 Clouds 23 1013 68 10000 3.6 120 11:30 11.12.2022
689 Clouds 24 1012 73 10000 5.14 110 06:25 11.12.2022
690 Clouds 26 1013 65 10000 5.14 110 00:32 11.12.2022
691 Clouds 25 1013 69 10000 5.14 110 22:53 10.12.2022
692 Clouds 25 1013 73 10000 4.63 130 22:32 10.12.2022
693 Clouds 26 1013 69 10000 4.63 130 21:19 10.12.2022
694 Clouds 24 1014 73 10000 6.17 120 20:24 10.12.2022
695 Clouds 23 1013 83 10000 4.12 140 18:33 10.12.2022
696 Clouds 24 1013 78 10000 3.09 130 16:47 10.12.2022
697 Clouds 24 1012 78 10000 3.6 120 15:53 10.12.2022
698 Clouds 23 1012 83 10000 3.09 130 15:34 10.12.2022
699 Clouds 23 1013 83 10000 3.09 110 13:59 10.12.2022
700 Rain 23 1013 88 10000 4.63 110 12:45 10.12.2022
701 Rain 24 1014 83 10000 4.63 120 11:26 10.12.2022
702 Rain 24 1014 88 10000 3.09 110 10:26 10.12.2022
703 Clouds 24 1014 83 10000 1.03 100 07:29 10.12.2022
704 Clouds 24 1014 83 10000 2.57 90 06:56 10.12.2022
705 Rain 24 1014 88 8000 2.57 130 23:52 09.12.2022
706 Clouds 26 1014 78 10000 4.12 100 22:43 09.12.2022
707 Clouds 26 1015 83 10000 3.09 100 21:43 09.12.2022
708 Rain 26 1015 83 10000 3.6 80 20:59 09.12.2022
709 Clouds 26 1015 89 10000 4.63 70 19:49 09.12.2022
710 Clouds 24 1014 88 10000 1.54 100 18:32 09.12.2022
711 Clouds 23 1014 94 10000 1.54 80 17:32 09.12.2022
712 Clouds 23 1013 94 10000 1.03 100 16:29 09.12.2022
713 Clouds 24 1013 88 10000 3.6 60 15:31 09.12.2022
714 Rain 23 1014 94 10000 3.6 80 12:52 09.12.2022
715 Rain 23 1016 94 10000 3.6 170 10:51 09.12.2022
716 Rain 23 1016 94 4900 5.14 180 10:23 09.12.2022
717 Clouds 27 1015 83 10000 1.54 30 07:29 09.12.2022
718 Clouds 28 1013 83 10000 3.09 20 03:18 09.12.2022
719 Clouds 28 1015 83 10000 3.09 20 23:36 08.12.2022
720 Clouds 27 1015 89 10000 3.6 20 20:56 08.12.2022
721 Clouds 26 1014 94 10000 1.03 80 18:58 08.12.2022
722 Clouds 23 1013 100 10000 1.03 160 16:46 08.12.2022
723 Clouds 26 1012 89 10000 2.06 330 14:31 08.12.2022
724 Clouds 25 1012 94 10000 1.03 290 13:29 08.12.2022
725 Clouds 24 1013 100 10000 1.03 190 10:37 08.12.2022
726 Clouds 24 1013 94 10000 0.51 230 09:31 08.12.2022
727 Rain 25 1012 88 10000 3.6 280 07:18 08.12.2022
728 Clouds 28 1010 74 10000 5.14 280 22:44 07.12.2022
729 Clouds 27 1010 78 10000 5.66 280 22:18 07.12.2022
730 Clouds 27 1010 78 10000 5.66 280 21:46 07.12.2022
731 Clouds 26 1010 83 10000 6.17 280 20:24 07.12.2022
732 Rain 24 1008 100 4700 4.12 300 18:23 07.12.2022
733 Clouds 25 1007 88 10000 5.14 350 15:39 07.12.2022
734 Clouds 25 1008 83 10000 4.12 10 13:28 07.12.2022
735 Rain 24 1009 88 10000 5.66 40 10:50 07.12.2022
736 Rain 24 1010 94 10000 4.63 20 09:58 07.12.2022
737 Clouds 24 1009 88 10000 4.63 40 08:58 07.12.2022
738 Clouds 24 1008 88 10000 5.14 40 07:21 07.12.2022
739 Clouds 25 1007 83 10000 5.14 50 05:24 07.12.2022
740 Rain 24 1009 88 10000 4.12 50 23:58 06.12.2022
741 Mist 22 1010 100 4300 1.54 90 21:41 06.12.2022
742 Rain 24 1009 94 10000 3.09 50 19:22 06.12.2022
743 Clouds 25 1008 88 10000 5.14 60 17:19 06.12.2022
744 Rain 24 1007 94 10000 6.69 60 16:29 06.12.2022
745 Clouds 25 1008 88 10000 5.66 40 15:35 06.12.2022
746 Rain 24 1009 94 10000 4.12 60 14:35 06.12.2022
747 Rain 25 1009 83 10000 4.63 40 13:49 06.12.2022
748 Clouds 24 1009 88 10000 7.2 70 12:41 06.12.2022
749 Clouds 25 1010 83 10000 6.69 60 11:34 06.12.2022
750 Rain 24 1011 88 10000 6.69 70 07:49 06.12.2022
751 Clouds 25 1011 83 10000 4.12 90 02:26 06.12.2022
752 Rain 25 1013 88 10000 2.57 80 22:47 05.12.2022
753 Rain 24 1013 88 10000 3.09 90 21:39 05.12.2022
754 Rain 23 1013 94 10000 2.57 90 20:51 05.12.2022
755 Rain 23 1013 94 10000 3.6 80 19:51 05.12.2022
756 Rain 23 1013 94 10000 3.6 90 19:32 05.12.2022
757 Rain 22 1012 94 10000 3.6 80 16:49 05.12.2022
758 Rain 22 1011 94 10000 1.54 160 15:28 05.12.2022
759 Rain 22 1012 100 10000 1.03 200 13:44 05.12.2022
760 Rain 23 1013 94 10000 1.54 60 12:57 05.12.2022
761 Rain 23 1013 94 10000 2.06 130 12:37 05.12.2022
762 Rain 23 1014 88 10000 2.06 130 11:00 05.12.2022
763 Clouds 27 1012 89 10000 2.06 30 06:38 05.12.2022
764 Clouds 28 1013 78 10000 3.09 10 23:56 04.12.2022
765 Clouds 29 1013 79 10000 4.12 20 22:41 04.12.2022
766 Clouds 29 1013 79 10000 4.12 20 22:18 04.12.2022
767 Clouds 28 1014 78 10000 3.09 20 21:30 04.12.2022
768 Clouds 27 1014 89 10000 3.09 20 19:49 04.12.2022
769 Clouds 27 1013 83 10000 3.6 20 19:23 04.12.2022
770 Clouds 26 1013 89 10000 3.09 30 17:58 04.12.2022
771 Clouds 26 1012 94 10000 3.09 40 17:21 04.12.2022
772 Clouds 26 1012 94 10000 2.57 40 16:36 04.12.2022
773 Clouds 26 1012 94 10000 2.57 40 16:18 04.12.2022
774 Clouds 26 1012 94 10000 2.57 20 14:54 04.12.2022
775 Clouds 26 1012 94 10000 2.06 40 13:45 04.12.2022
776 Clouds 26 1013 94 10000 3.09 40 12:45 04.12.2022
777 Clouds 26 1013 94 10000 2.57 50 11:59 04.12.2022
778 Clouds 26 1014 94 10000 2.57 50 10:48 04.12.2022
779 Clouds 26 1013 94 10000 1.03 40 07:34 04.12.2022
780 Clouds 29 1011 79 10000 3.6 360 02:22 04.12.2022
781 Clouds 29 1012 79 10000 5.14 20 23:43 03.12.2022
782 Clouds 29 1013 79 10000 4.63 20 22:24 03.12.2022
783 Clouds 28 1013 83 10000 4.63 20 21:39 03.12.2022
784 Clouds 28 1013 83 10000 4.12 20 20:35 03.12.2022
785 Clouds 26 1012 94 10000 4.12 20 18:40 03.12.2022
786 Clouds 26 1011 89 10000 4.12 40 17:22 03.12.2022
787 Clouds 26 1012 94 10000 3.09 40 14:32 03.12.2022
788 Clouds 26 1012 94 10000 4.12 40 12:55 03.12.2022
789 Clouds 26 1013 94 10000 4.63 40 12:24 03.12.2022
790 Clouds 26 1014 94 10000 4.63 50 10:26 03.12.2022
791 Clouds 26 1013 94 10000 4.12 50 07:58 03.12.2022
792 Clouds 29 1012 79 10000 4.63 40 01:31 03.12.2022
793 Clouds 27 1013 83 10000 5.14 40 23:25 02.12.2022
794 Clouds 27 1014 83 10000 4.12 40 20:59 02.12.2022
795 Clouds 27 1013 83 10000 3.6 50 19:34 02.12.2022
796 Clouds 25 1011 94 10000 4.12 60 15:59 02.12.2022
797 Clouds 25 1011 94 10000 4.12 60 15:59 02.12.2022
798 Clouds 25 1011 94 10000 4.12 60 14:45 02.12.2022
799 Clouds 26 1011 89 10000 3.6 60 14:26 02.12.2022
800 Clouds 26 1012 94 10000 4.12 60 13:36 02.12.2022
801 Rain 26 1013 94 10000 3.6 60 11:43 02.12.2022
802 Clouds 26 1013 94 10000 3.6 70 09:45 02.12.2022
803 Rain 26 1012 94 10000 2.06 60 07:24 02.12.2022
804 Clouds 29 1011 79 10000 5.14 40 23:54 01.12.2022
805 Clouds 27 1012 83 10000 4.12 40 21:59 01.12.2022
806 Clouds 27 1012 83 10000 3.09 30 21:37 01.12.2022
807 Clouds 27 1012 83 10000 4.12 40 20:18 01.12.2022
808 Clouds 26 1011 83 10000 5.14 50 18:23 01.12.2022
809 Clouds 25 1010 88 10000 6.17 50 15:59 01.12.2022
810 Clouds 25 1012 88 10000 6.69 60 12:35 01.12.2022
811 Clouds 25 1013 88 10000 4.63 70 10:28 01.12.2022
812 Clouds 25 1013 88 10000 5.14 60 09:54 01.12.2022
813 Clouds 25 1013 88 10000 5.14 70 09:36 01.12.2022
814 Clouds 28 1010 78 10000 8.23 60 02:00 01.12.2022
815 Clouds 28 1012 74 10000 8.23 70 22:38 30.11.2022
816 Clouds 27 1012 78 10000 7.72 70 21:19 30.11.2022
817 Clouds 27 1012 78 10000 7.72 70 20:45 30.11.2022
818 Clouds 27 1012 78 10000 7.2 70 20:22 30.11.2022
819 Clouds 25 1012 83 10000 4.12 80 18:33 30.11.2022
820 Clouds 24 1011 88 10000 4.12 80 17:36 30.11.2022
821 Clouds 24 1011 88 10000 3.6 90 16:19 30.11.2022
822 Clouds 24 1012 88 10000 3.6 90 14:27 30.11.2022
823 Clouds 24 1012 88 10000 3.09 90 13:48 30.11.2022
824 Clouds 24 1014 88 10000 6.17 70 10:42 30.11.2022
825 Clouds 24 1013 88 10000 4.12 80 08:39 30.11.2022
826 Clouds 24 1013 88 10000 3.6 90 07:56 30.11.2022
827 Clouds 25 1014 77 10000 5.88 85 23:36 29.11.2022
828 Clouds 27 1013 74 10000 6.69 60 22:49 29.11.2022
829 Clouds 27 1014 78 10000 7.2 70 21:26 29.11.2022
830 Clouds 26 1014 78 10000 6.17 70 20:37 29.11.2022
831 Clouds 25 1014 83 10000 4.63 70 18:58 29.11.2022
832 Clouds 23 1013 94 10000 4.63 90 16:59 29.11.2022
833 Rain 23 1013 94 10000 4.63 90 16:24 29.11.2022
834 Rain 23 1013 94 10000 3.6 80 14:50 29.11.2022
835 Rain 23 1015 94 10000 2.57 110 12:55 29.11.2022
836 Rain 24 1016 83 10000 1.54 110 11:32 29.11.2022
837 Clouds 24 1016 83 10000 2.06 110 10:53 29.11.2022
838 Clouds 24 1016 83 10000 4.12 110 09:38 29.11.2022
839 Clouds 25 1016 78 10000 4.12 110 08:34 29.11.2022
840 Clouds 28 1015 65 10000 6.69 80 00:36 29.11.2022
841 Clouds 27 1016 65 10000 6.69 80 23:34 28.11.2022
842 Clouds 27 1016 65 10000 8.23 80 22:32 28.11.2022
843 Clear 27 1016 65 10000 6.69 90 21:43 28.11.2022
844 Clouds 26 1016 73 10000 8.23 80 20:37 28.11.2022
845 Clouds 25 1016 78 10000 5.66 90 19:38 28.11.2022
846 Clouds 24 1016 78 10000 4.12 100 18:29 28.11.2022
847 Clouds 24 1016 78 10000 4.63 90 17:50 28.11.2022
848 Haze 23 1015 88 5000 0.51 210 15:31 28.11.2022
849 Clouds 23 1015 88 10000 2.06 110 14:24 28.11.2022
850 Clouds 24 1015 78 10000 2.57 110 13:46 28.11.2022
851 Clouds 24 1016 83 10000 4.63 90 11:53 28.11.2022
852 Clouds 25 1016 78 10000 4.63 100 09:27 28.11.2022
853 Clouds 25 1015 73 10000 4.12 100 05:49 28.11.2022
854 Clouds 26 1014 69 10000 7.72 80 04:41 28.11.2022
855 Clouds 27 1014 65 10000 7.72 70 03:23 28.11.2022
856 Clouds 27 1015 65 10000 7.72 80 00:42 28.11.2022
857 Clouds 27 1016 65 10000 5.66 90 22:24 27.11.2022
858 Clouds 26 1017 65 10000 5.14 90 20:49 27.11.2022
859 Clouds 25 1017 73 10000 4.12 90 18:57 27.11.2022
860 Clouds 23 1016 78 10000 3.6 110 16:44 27.11.2022
861 Clouds 23 1016 78 10000 2.06 110 14:22 27.11.2022
862 Clouds 23 1016 78 10000 3.6 100 12:27 27.11.2022
863 Clouds 24 1017 70 10000 7.2 104 10:36 27.11.2022
864 Clouds 24 1016 73 10000 4.12 100 07:55 27.11.2022
865 Clouds 27 1015 61 10000 8.23 70 23:39 26.11.2022
866 Clouds 26 1015 69 10000 8.23 80 21:44 26.11.2022
867 Clouds 25 1016 73 10000 6.17 80 20:20 26.11.2022
868 Clouds 24 1016 78 10000 3.09 100 18:57 26.11.2022
869 Clouds 23 1015 88 10000 1.54 120 16:47 26.11.2022
870 Clouds 23 1014 83 10000 1.54 110 15:37 26.11.2022
871 Clouds 23 1015 78 10000 3.6 80 12:51 26.11.2022
872 Clouds 23 1015 78 10000 4.63 90 10:54 26.11.2022
873 Clouds 23 1016 78 10000 3.09 100 09:43 26.11.2022
874 Clouds 23 1015 78 10000 3.09 100 08:21 26.11.2022
875 Clouds 26 1015 73 10000 5.66 60 22:43 25.11.2022
876 Clouds 26 1015 73 10000 6.17 70 21:35 25.11.2022
877 Clouds 26 1015 73 10000 4.63 70 20:21 25.11.2022
878 Clouds 23 1014 83 10000 4.12 80 16:59 25.11.2022
879 Clouds 22 1014 88 10000 2.06 90 15:40 25.11.2022
880 Clouds 24 1016 78 10000 4.12 90 10:29 25.11.2022
881 Clouds 24 1016 78 10000 3.09 90 08:44 25.11.2022
882 Clouds 24 1016 78 10000 4.12 90 07:27 25.11.2022
883 Clouds 24 1015 78 10000 5.14 90 06:42 25.11.2022
884 Clouds 27 1015 69 10000 7.72 60 01:25 25.11.2022
885 Clouds 27 1016 69 10000 8.23 80 23:22 24.11.2022
886 Clouds 27 1016 69 10000 8.23 80 22:22 24.11.2022
887 Clouds 26 1016 73 10000 7.2 80 21:32 24.11.2022
888 Clouds 24 1017 78 10000 4.63 110 19:39 24.11.2022
889 Clouds 23 1016 83 10000 3.6 100 17:46 24.11.2022
890 Clouds 23 1016 83 10000 3.6 100 17:22 24.11.2022
891 Clouds 23 1015 83 10000 3.6 90 16:19 24.11.2022
892 Clouds 24 1016 83 10000 2.57 110 14:23 24.11.2022
893 Clouds 24 1016 83 10000 2.57 110 14:23 24.11.2022
894 Clouds 24 1016 83 10000 5.66 80 12:38 24.11.2022
895 Clouds 24 1017 83 10000 7.72 80 10:38 24.11.2022
896 -273 0 0 0 0 0 08:19 24.11.2022
897 Clouds 26 1015 78 10000 7.2 90 03:38 24.11.2022
898 Clouds 27 1017 69 10000 5.66 110 23:47 23.11.2022
899 Rain 25 1018 83 10000 3.6 110 22:41 23.11.2022
900 Clouds 27 1018 74 10000 6.17 90 21:40 23.11.2022
901 Clouds 25 1018 83 10000 6.17 90 20:48 23.11.2022
902 Clouds 25 1017 78 10000 5.14 90 19:31 23.11.2022
903 Clouds 24 1017 83 10000 4.12 90 18:41 23.11.2022
904 Clouds 24 1016 83 10000 3.6 110 16:56 23.11.2022
905 Clouds 24 1017 83 10000 4.63 100 13:41 23.11.2022
906 Clouds 24 1017 83 10000 4.63 100 13:21 23.11.2022
907 Clouds 24 1018 83 8000 6.17 90 12:21 23.11.2022
908 Clouds 24 1018 83 10000 5.14 90 11:41 23.11.2022
909 Clouds 24 1019 83 10000 4.12 90 10:43 23.11.2022
910 Clouds 24 1018 78 10000 5.66 80 09:44 23.11.2022
911 Clouds 24 1018 78 10000 6.17 80 09:25 23.11.2022
912 Clouds 24 1017 78 10000 4.63 90 08:37 23.11.2022
913 Clouds 26 1015 73 10000 7.2 90 05:22 23.11.2022
914 Clouds 26 1015 73 10000 8.75 90 04:23 23.11.2022
915 Clouds 26 1017 73 10000 6.17 90 22:59 22.11.2022
916 Clouds 25 1018 78 10000 6.69 90 22:33 22.11.2022
917 Clouds 25 1018 78 10000 6.17 100 21:34 22.11.2022
918 Clouds 24 1018 88 10000 5.66 90 20:45 22.11.2022
919 Mist 22 1018 94 3000 5.14 80 19:53 22.11.2022
920 Clouds 23 1017 88 10000 4.12 90 17:56 22.11.2022
921 Clouds 23 1016 83 10000 4.63 90 16:55 22.11.2022
922 Clouds 23 1015 83 10000 6.17 80 15:50 22.11.2022
923 Clouds 23 1016 78 10000 4.63 90 13:41 22.11.2022
924 Clouds 23 1017 73 10000 5.14 90 11:40 22.11.2022
925 Clouds 23 1017 73 10000 5.14 90 09:18 22.11.2022
926 Rain 23 1016 78 10000 4.63 100 07:18 22.11.2022
927 Clouds 27 1015 61 10000 7.2 80 01:40 22.11.2022
928 Clouds 26 1016 61 10000 8.75 70 23:36 21.11.2022
929 Clouds 27 1016 61 10000 8.23 80 22:34 21.11.2022
930 Clouds 26 1016 61 10000 7.72 80 21:58 21.11.2022
931 Clouds 25 1016 65 10000 6.17 90 20:36 21.11.2022
932 Clouds 24 1016 69 10000 4.12 100 19:41 21.11.2022
933 Rain 23 1016 73 10000 4.12 100 18:54 21.11.2022
934 Clouds 23 1015 73 10000 3.09 100 17:46 21.11.2022
935 Clouds 23 1015 73 10000 3.09 110 16:52 21.11.2022
936 Clouds 23 1015 73 10000 3.6 110 16:34 21.11.2022
937 Clouds 23 1014 73 10000 4.12 110 15:24 21.11.2022
938 Clouds 22 1015 73 10000 1.54 130 13:55 21.11.2022
939 Clouds 22 1015 73 10000 3.09 110 13:34 21.11.2022
940 Clouds 23 1016 73 10000 3.6 120 10:27 21.11.2022
941 Clouds 23 1016 68 10000 4.12 110 08:39 21.11.2022
942 Clouds 23 1015 68 10000 4.12 110 05:45 21.11.2022
943 Clouds 25 1016 61 10000 6.69 80 22:25 20.11.2022
944 Clouds 25 1016 61 10000 6.69 80 21:24 20.11.2022
945 Clouds 24 1016 64 10000 6.17 80 20:23 20.11.2022
946 Clouds 23 1016 68 10000 2.06 120 18:20 20.11.2022
947 Clouds 22 1015 73 10000 3.09 130 15:59 20.11.2022
948 Clouds 22 1015 73 10000 2.57 130 15:28 20.11.2022
949 Clouds 23 1015 73 10000 4.63 100 14:30 20.11.2022
950 Clouds 23 1015 73 10000 3.6 100 13:32 20.11.2022
951 Clouds 23 1015 78 10000 3.6 100 12:31 20.11.2022
952 Clouds 22 1016 78 10000 3.6 100 10:59 20.11.2022
953 Clouds 22 1016 83 10000 3.6 120 09:55 20.11.2022
954 Rain 22 1016 88 10000 3.09 120 08:59 20.11.2022
955 Clouds 22 1015 88 10000 4.12 110 08:33 20.11.2022
956 Rain 23 1015 83 10000 3.6 120 07:28 20.11.2022
957 Clouds 27 1013 65 10000 7.72 80 01:31 20.11.2022
958 Clouds 26 1013 65 10000 6.17 90 00:58 20.11.2022
959 Clouds 26 1014 61 10000 5.14 100 00:39 20.11.2022
960 Clouds 26 1014 61 10000 5.14 100 00:20 20.11.2022
961 Clouds 26 1014 61 10000 5.14 100 23:47 19.11.2022
962 Clouds 25 1014 65 10000 5.66 100 23:20 19.11.2022
963 Clouds 26 1015 65 10000 4.63 100 22:20 19.11.2022
964 Clouds 25 1015 61 10000 5.14 90 21:28 19.11.2022
965 Clouds 25 1015 65 10000 4.63 100 20:42 19.11.2022
966 Clouds 25 1015 65 10000 4.63 100 20:42 19.11.2022
967 Clouds 25 1015 65 10000 4.63 100 20:22 19.11.2022
968 Clouds 24 1014 69 10000 3.6 110 18:54 19.11.2022
969 Clouds 22 1014 83 10000 2.06 110 17:39 19.11.2022
970 Clouds 22 1014 83 10000 2.06 110 17:18 19.11.2022
971 Clouds 23 1013 78 10000 2.06 120 15:34 19.11.2022
972 Rain 22 1014 88 7000 2.57 100 13:36 19.11.2022
973 Clouds 24 1014 73 10000 3.09 100 11:57 19.11.2022
974 Clouds 23 1015 78 10000 4.63 90 10:18 19.11.2022
975 Clouds 23 1014 83 10000 2.57 100 08:19 19.11.2022
976 Clouds 23 1014 83 10000 2.57 100 08:19 19.11.2022
977 Clouds 25 1012 69 10000 2.57 110 04:45 19.11.2022
978 Clouds 27 1012 61 10000 6.69 70 01:50 19.11.2022
979 Clouds 27 1013 65 10000 7.72 80 23:35 18.11.2022
980 Clouds 26 1013 65 10000 8.75 80 22:24 18.11.2022
981 Clouds 26 1014 65 10000 5.14 100 21:36 18.11.2022
982 Clouds 25 1014 69 10000 5.14 100 20:58 18.11.2022
983 Clouds 25 1014 69 10000 4.63 100 20:25 18.11.2022
984 Clouds 25 1014 73 10000 4.63 90 19:37 18.11.2022
985 Clouds 23 1012 83 10000 3.6 100 17:45 18.11.2022
986 Clouds 23 1012 83 10000 3.6 90 16:32 18.11.2022
987 Clouds 23 1013 88 10000 3.6 90 12:39 18.11.2022
988 Clouds 23 1013 88 10000 4.63 90 10:45 18.11.2022
989 Clouds 23 1013 100 10000 2.57 90 07:52 18.11.2022
990 Haze 24 1012 94 5000 3.6 100 05:37 18.11.2022
991 Clouds 26 1011 83 10000 6.17 80 02:49 18.11.2022
992 Clouds 26 1013 78 10000 6.17 70 23:38 17.11.2022
993 Clouds 26 1013 73 10000 7.72 80 20:48 17.11.2022
994 Clouds 25 1013 78 10000 6.69 80 19:54 17.11.2022
995 Clouds 25 1013 78 10000 6.17 80 19:27 17.11.2022
996 Clouds 24 1012 83 10000 4.63 80 18:29 17.11.2022
997 Clouds 23 1012 88 10000 4.12 90 17:30 17.11.2022
998 Clouds 23 1011 83 10000 2.06 100 16:31 17.11.2022
999 Clouds 23 1012 83 10000 3.6 90 12:20 17.11.2022
1000 Clouds 24 1012 78 10000 3.6 90 10:47 17.11.2022
1001 Clouds 23 1012 78 10000 3.6 90 07:35 17.11.2022
1002 Clouds 23 1012 78 10000 3.6 90 07:35 17.11.2022
1003 Clouds 26 1010 65 10000 6.17 70 01:30 17.11.2022
1004 Clouds 26 1012 65 10000 6.69 60 23:31 16.11.2022
1005 Clouds 26 1012 61 10000 6.69 60 22:19 16.11.2022
1006 Clouds 26 1013 61 10000 6.17 70 20:31 16.11.2022
1007 Clouds 24 1012 69 10000 3.09 90 18:49 16.11.2022
1008 Clouds 22 1012 73 10000 2.57 100 18:30 16.11.2022
1009 Clouds 22 1011 73 10000 2.57 100 15:41 16.11.2022
1010 Clouds 22 1012 73 10000 3.6 90 11:23 16.11.2022
1011 Clouds 23 1011 68 10000 3.6 110 06:54 16.11.2022
1012 Clouds 25 1012 61 10000 8.23 80 01:38 16.11.2022
1013 Clouds 25 1013 61 10000 8.23 80 23:31 15.11.2022
1014 Clouds 25 1014 65 10000 4.63 100 21:28 15.11.2022
1015 Clouds 24 1014 60 10000 4.63 100 19:48 15.11.2022
1016 Clouds 23 1014 68 10000 3.09 100 18:51 15.11.2022
1017 Clouds 21 1013 78 10000 2.06 110 17:36 15.11.2022
1018 Clouds 21 1012 73 10000 1.54 110 16:20 15.11.2022
1019 Clouds 21 1012 73 10000 1.54 110 16:20 15.11.2022
1020 Clouds 21 1012 73 10000 2.06 100 15:37 15.11.2022
1021 Clouds 22 1013 68 10000 3.6 100 13:57 15.11.2022
1022 Clouds 22 1013 68 10000 2.57 100 12:54 15.11.2022
1023 Clouds 22 1013 68 10000 5.14 90 11:21 15.11.2022
1024 Clouds 23 1014 68 10000 4.12 100 09:38 15.11.2022
1025 Clouds 26 1013 57 10000 6.69 90 00:42 15.11.2022
1026 Clouds 26 1013 57 10000 6.69 90 00:22 15.11.2022
1027 Clouds 25 1014 53 10000 5.66 100 21:52 14.11.2022
1028 Clouds 24 1015 57 10000 6.17 90 20:44 14.11.2022
1029 Clouds 23 1014 60 10000 5.66 90 19:19 14.11.2022
1030 Clouds 23 1014 64 10000 4.63 100 18:21 14.11.2022
1031 Clouds 21 1014 73 10000 3.09 90 12:55 14.11.2022
1032 Clouds 22 1014 68 10000 4.12 100 11:45 14.11.2022
1033 Clouds 22 1015 73 10000 3.09 100 10:49 14.11.2022
1034 Clouds 22 1014 73 10000 5.66 100 08:29 14.11.2022
1035 Clouds 22 1014 78 10000 4.12 100 07:50 14.11.2022
1036 Clouds 25 1013 53 10000 6.69 90 00:19 14.11.2022
1037 Clouds 25 1014 57 10000 5.14 100 22:39 13.11.2022
1038 Clouds 25 1014 53 10000 4.63 90 21:40 13.11.2022
1039 Clouds 25 1014 57 10000 4.12 90 20:22 13.11.2022
1040 Clouds 22 1014 73 10000 4.63 100 18:28 13.11.2022
1041 Clouds 22 1014 73 10000 4.12 110 17:46 13.11.2022
1042 Rain 21 1012 83 10000 3.09 100 15:19 13.11.2022
1043 Clouds 21 1013 83 10000 3.09 110 14:25 13.11.2022
1044 Clouds 21 1013 78 10000 2.06 110 12:43 13.11.2022
1045 Clouds 21 1014 83 10000 1.54 110 11:29 13.11.2022
1046 Clouds 21 1014 73 10000 1.54 110 09:41 13.11.2022
1047 Clouds 23 1013 64 10000 4.12 100 05:51 13.11.2022
1048 Clouds 24 1014 64 10000 6.17 90 22:58 12.11.2022
1049 Clouds 24 1015 64 10000 4.63 110 21:24 12.11.2022
1050 Clouds 25 1015 61 10000 4.12 100 20:22 12.11.2022
1051 Clouds 23 1014 64 10000 3.09 110 18:27 12.11.2022
1052 Clouds 22 1013 73 10000 3.09 110 16:27 12.11.2022
1053 Clouds 21 1013 73 10000 2.06 120 15:23 12.11.2022
1054 Clouds 22 1014 73 10000 2.06 110 12:38 12.11.2022
1055 Clouds 22 1015 73 10000 2.06 110 09:29 12.11.2022
1056 Clouds 23 1014 64 10000 4.12 90 06:55 12.11.2022
1057 Clouds 25 1015 65 10000 6.69 90 22:49 11.11.2022
1058 Clouds 24 1016 73 10000 4.63 100 20:51 11.11.2022
1059 Clouds 24 1016 73 10000 5.14 100 19:44 11.11.2022
1060 Clouds 24 1015 73 10000 5.66 100 19:21 11.11.2022
1061 Clouds 22 1015 78 10000 1.54 100 17:56 11.11.2022
1062 Clouds 22 1015 78 10000 1.54 100 16:28 11.11.2022
1063 Clouds 22 1015 78 10000 2.57 110 14:21 11.11.2022
1064 Clouds 23 1016 68 10000 1.54 100 13:29 11.11.2022
1065 Clouds 23 1018 68 10000 5.14 100 09:49 11.11.2022
1066 Clouds 23 1017 73 10000 4.63 100 08:27 11.11.2022
1067 Clouds 23 1016 73 10000 5.14 100 06:26 11.11.2022
1068 Clouds 25 1017 69 10000 7.2 100 23:38 10.11.2022
1069 Clouds 25 1018 69 10000 7.2 90 22:38 10.11.2022
1070 Clouds 24 1018 73 10000 7.2 90 21:34 10.11.2022
1071 Clouds 25 1018 69 10000 7.2 90 20:52 10.11.2022
1072 Clouds 24 1018 73 10000 7.2 100 20:22 10.11.2022
1073 Clouds 24 1018 73 10000 5.66 90 19:43 10.11.2022
1074 Clouds 23 1018 78 10000 4.63 100 18:32 10.11.2022
1075 Clouds 23 1017 73 10000 5.66 100 16:26 10.11.2022
1076 Clouds 22 1018 83 10000 4.12 100 13:57 10.11.2022
1077 Clouds 23 1019 78 10000 5.66 90 11:40 10.11.2022
1078 Clouds 23 1019 83 10000 5.66 90 08:44 10.11.2022
1079 Clouds 25 1017 73 10000 9.26 80 01:34 10.11.2022
1080 Clouds 26 1018 69 10000 5.66 100 23:39 09.11.2022
1081 Clouds 25 1018 73 10000 6.17 100 22:36 09.11.2022
1082 Clouds 25 1018 73 10000 6.17 100 20:48 09.11.2022
1083 Clouds 25 1018 73 10000 5.66 90 20:29 09.11.2022
1084 Clouds 24 1018 78 10000 6.69 90 19:42 09.11.2022
1085 Clouds 24 1018 78 10000 6.69 90 19:18 09.11.2022
1086 Clouds 23 1016 78 10000 5.14 100 16:19 09.11.2022
1087 Clouds 23 1016 78 10000 3.6 100 14:48 09.11.2022
1088 Clouds 23 1016 78 10000 3.6 100 14:25 09.11.2022
1089 Clouds 23 1017 78 10000 3.09 100 13:19 09.11.2022
1090 Clouds 23 1017 78 10000 4.63 90 11:46 09.11.2022
1091 Clouds 23 1018 73 10000 4.63 90 08:42 09.11.2022
1092 Clouds 23 1017 73 10000 7.72 100 07:46 09.11.2022
1093 Clouds 23 1017 73 10000 7.72 100 07:46 09.11.2022
1094 Clouds 23 1017 73 10000 7.72 100 07:46 09.11.2022
1095 Clouds 25 1016 65 10000 5.66 100 00:56 09.11.2022
1096 Clouds 24 1017 64 10000 6.69 90 21:46 08.11.2022
1097 Clouds 25 1017 61 10000 6.69 90 21:28 08.11.2022
1098 Clouds 24 1017 60 10000 5.14 100 20:41 08.11.2022
1099 Clouds 24 1017 60 10000 3.09 100 19:37 08.11.2022
1100 Clouds 23 1017 64 10000 3.09 100 18:50 08.11.2022
1101 Clear 20 1016 73 10000 1.54 130 17:26 08.11.2022
1102 Clear 22 1015 68 10000 2.57 110 14:56 08.11.2022
1103 Clouds 22 1015 68 10000 3.09 120 13:41 08.11.2022
1104 Clouds 22 1015 68 10000 3.09 120 13:22 08.11.2022
1105 Clouds 22 1016 73 10000 3.09 110 09:20 08.11.2022
1106 Clouds 23 1015 73 10000 3.09 120 07:25 08.11.2022
1107 Clouds 25 1014 69 10000 3.6 130 00:33 08.11.2022
1108 Clouds 23 1014 83 10000 3.09 120 22:24 07.11.2022
1109 Rain 24 1014 73 10000 2.57 130 21:21 07.11.2022
1110 Rain 25 1014 69 10000 2.57 120 20:33 07.11.2022
1111 Clouds 20 1013 94 10000 1.03 150 17:52 07.11.2022
1112 Clouds 19 1012 100 10000 1.03 100 17:19 07.11.2022
1113 Clouds 20 1012 94 10000 1.03 90 15:35 07.11.2022
1114 Clouds 22 1012 83 10000 2.57 120 14:47 07.11.2022
1115 Rain 22 1013 88 10000 2.57 130 12:36 07.11.2022
1116 Rain 22 1014 83 10000 2.06 140 11:30 07.11.2022
1117 Clouds 23 1013 78 10000 1.03 130 09:36 07.11.2022
1118 Clouds 23 1012 73 10000 2.57 150 07:41 07.11.2022
1119 Clouds 24 1010 73 10000 3.6 110 04:18 07.11.2022
1120 Clouds 26 1010 57 10000 3.6 130 01:20 07.11.2022
1121 Clouds 26 1012 57 10000 3.09 100 22:18 06.11.2022
1122 Clouds 25 1012 61 10000 2.57 120 21:19 06.11.2022
1123 Clouds 25 1012 65 10000 1.54 100 20:23 06.11.2022
1124 Clear 24 1012 69 10000 2.06 100 19:33 06.11.2022
1125 Clear 21 1011 88 10000 0.51 150 18:39 06.11.2022
1126 Clear 21 1011 88 10000 0.51 150 18:19 06.11.2022
1127 Clouds 20 1011 88 10000 1.03 140 17:20 06.11.2022
1128 Clouds 20 1010 88 10000 1.03 120 16:37 06.11.2022
1129 Clouds 20 1010 88 10000 1.03 170 15:42 06.11.2022
1130 Clear 20 1011 88 10000 1.03 200 12:48 06.11.2022
1131 Clear 22 1012 78 10000 1.54 120 11:56 06.11.2022
1132 Clear 22 1013 78 10000 3.09 120 10:36 06.11.2022
1133 Clear 23 1012 73 10000 3.09 120 07:44 06.11.2022
1134 Clear 23 1012 73 10000 3.09 120 07:44 06.11.2022
1135 Clear 23 1012 73 10000 3.09 120 07:44 06.11.2022
1136 Clouds 26 1011 65 10000 4.12 110 00:46 06.11.2022
1137 Clouds 25 1012 65 10000 4.12 150 22:49 05.11.2022
1138 Clouds 23 1012 73 10000 3.6 120 19:20 05.11.2022
1139 Clouds 22 1011 73 10000 2.06 130 16:57 05.11.2022
1140 Clouds 22 1011 78 10000 1.54 130 15:20 05.11.2022
1141 Clouds 23 1012 73 10000 5.66 110 13:51 05.11.2022
1142 Clouds 23 1013 73 10000 4.63 110 12:30 05.11.2022
1143 Clouds 23 1014 73 10000 3.6 120 09:33 05.11.2022
1144 Clouds 23 1014 73 10000 4.12 110 07:23 05.11.2022
1145 Clouds 23 1014 73 10000 4.12 100 06:56 05.11.2022
1146 Clouds 26 1014 65 10000 7.72 90 00:45 05.11.2022
1147 Clouds 25 1015 73 10000 6.69 100 23:29 04.11.2022
1148 -273 0 0 0 0 0 21:37 04.11.2022
1149 Clouds 23 1016 83 10000 6.69 90 19:39 04.11.2022
1150 Clouds 23 1015 78 10000 6.17 110 17:44 04.11.2022
1151 Clouds 23 1015 83 10000 5.14 110 14:38 04.11.2022
1152 Clouds 23 1016 78 10000 5.66 100 13:19 04.11.2022
1153 Clouds 23 1017 83 10000 6.17 90 11:58 04.11.2022
1154 Clouds 23 1018 78 10000 6.17 90 09:30 04.11.2022
1155 Clouds 24 1017 78 10000 6.17 90 08:20 04.11.2022
1156 Clouds 24 1016 73 10000 7.2 100 06:34 04.11.2022
1157 Clouds 25 1017 69 10000 6.17 110 00:42 04.11.2022
1158 Clouds 25 1018 69 10000 5.66 100 21:18 03.11.2022
1159 Clouds 25 1018 69 10000 4.63 120 20:44 03.11.2022
1160 Clouds 24 1018 69 10000 5.66 100 19:41 03.11.2022
1161 Clouds 23 1018 73 10000 5.66 100 18:18 03.11.2022
1162 Clouds 23 1017 73 10000 5.66 110 17:36 03.11.2022
1163 Clouds 23 1017 78 10000 6.17 110 14:58 03.11.2022
1164 Clouds 23 1017 78 10000 6.17 100 13:26 03.11.2022
1165 Clouds 23 1017 78 10000 6.69 110 12:34 03.11.2022
1166 Clouds 23 1018 78 10000 6.69 100 11:28 03.11.2022
1167 Clouds 24 1018 73 10000 7.2 100 07:45 03.11.2022
1168 Clouds 25 1018 69 10000 7.72 100 21:44 02.11.2022
1169 Clouds 24 1018 73 10000 6.69 110 20:51 02.11.2022
1170 Clouds 25 1018 69 10000 5.66 110 20:19 02.11.2022
1171 Clouds 23 1016 73 10000 4.63 100 17:30 02.11.2022
1172 Clouds 23 1016 73 10000 4.63 100 16:22 02.11.2022
1173 Clouds 23 1015 78 10000 5.66 100 14:58 02.11.2022
1174 Clouds 23 1016 78 10000 6.17 100 12:48 02.11.2022
1175 Clouds 23 1016 78 10000 5.66 110 11:55 02.11.2022
1176 Clouds 23 1017 78 10000 7.2 100 09:22 02.11.2022
1177 Clouds 23 1016 80 10000 11.23 114 05:36 02.11.2022
1178 Clouds 25 1015 73 10000 8.75 90 00:28 02.11.2022
1179 Clouds 25 1016 73 10000 6.69 100 22:19 01.11.2022
1180 Clouds 25 1017 73 10000 5.66 110 21:41 01.11.2022
1181 Clouds 24 1017 78 10000 6.17 110 20:26 01.11.2022
1182 Clouds 24 1017 73 10000 6.17 110 19:54 01.11.2022
1183 Clouds 24 1016 78 10000 6.17 100 19:35 01.11.2022
1184 Rain 22 1016 88 8000 4.63 110 17:33 01.11.2022
1185 Rain 22 1016 88 10000 3.09 120 16:22 01.11.2022
1186 Haze 22 1015 88 3300 4.63 100 14:25 01.11.2022
1187 Clouds 23 1016 83 10000 4.63 80 12:28 01.11.2022
1188 Clouds 23 1016 83 10000 6.17 90 11:24 01.11.2022
1189 Clouds 22 1017 83 10000 6.69 90 10:56 01.11.2022
1190 Clouds 23 1017 83 10000 6.17 90 08:43 01.11.2022
1191 Haze 22 1016 88 2700 5.66 100 07:30 01.11.2022
1192 Rain 22 1016 88 2700 5.66 100 07:30 01.11.2022
1193 Rain 22 1016 88 2700 5.66 100 07:30 01.11.2022
1194 Clouds 23 1016 83 10000 5.14 100 06:47 01.11.2022
1195 Clouds 24 1015 78 10000 4.63 100 05:57 01.11.2022
1196 Clouds 25 1015 73 10000 5.66 90 03:38 01.11.2022
1197 Clouds 24 1017 78 10000 6.69 100 21:55 31.10.2022
1198 Clouds 24 1017 78 10000 6.17 100 20:40 31.10.2022
1199 Rain 24 1017 78 10000 6.17 100 18:54 31.10.2022
1200 Clouds 23 1016 78 10000 6.69 100 17:48 31.10.2022
1201 Clouds 23 1016 88 10000 6.69 90 16:42 31.10.2022
1202 Clouds 23 1015 83 10000 5.66 90 13:24 31.10.2022
1203 Clouds 23 1017 88 10000 9.26 80 10:20 31.10.2022
1204 Clouds 23 1017 88 10000 9.26 90 08:37 31.10.2022
1205 Clouds 23 1016 94 10000 9.26 90 04:48 31.10.2022
1206 Rain 23 1015 94 10000 8.23 90 02:20 31.10.2022
1207 Rain 24 1016 88 10000 10.8 80 22:59 30.10.2022
1208 Rain 23 1017 94 10000 9.77 90 20:46 30.10.2022
1209 Rain 23 1017 94 10000 10.8 90 19:54 30.10.2022
1210 Rain 23 1016 94 9000 8.75 80 17:53 30.10.2022
1211 Rain 22 1015 94 4500 7.72 90 15:28 30.10.2022
1212 Rain 23 1015 88 10000 8.75 90 13:51 30.10.2022
1213 Rain 23 1015 83 10000 9.77 90 12:30 30.10.2022
1214 Clouds 23 1016 88 10000 8.75 90 11:21 30.10.2022
1215 Clouds 23 1017 88 10000 6.69 90 09:36 30.10.2022
1216 Clouds 23 1017 83 10000 7.2 90 08:20 30.10.2022
1217 Clouds 25 1015 73 10000 6.69 90 00:30 30.10.2022
1218 Clouds 26 1016 65 10000 10.29 90 23:48 29.10.2022
1219 Clouds 26 1016 69 10000 9.26 90 22:52 29.10.2022
1220 Clouds 24 1016 73 10000 6.17 100 20:52 29.10.2022
1221 Clouds 23 1014 78 10000 4.63 100 17:24 29.10.2022
1222 Clouds 23 1015 73 10000 3.6 100 15:51 29.10.2022
1223 Clouds 23 1015 73 10000 4.63 100 15:23 29.10.2022
1224 Clouds 23 1015 78 10000 6.17 90 14:41 29.10.2022
1225 Clouds 23 1016 78 10000 5.14 90 12:34 29.10.2022
1226 Clouds 23 1016 78 10000 4.63 100 10:36 29.10.2022
1227 Clouds 23 1015 78 10000 6.17 90 07:33 29.10.2022
1228 Clouds 24 1014 73 10000 5.66 90 05:55 29.10.2022
1229 Clouds 25 1014 69 10000 7.2 90 02:45 29.10.2022
1230 Clouds 25 1016 69 10000 5.66 100 22:30 28.10.2022
1231 Clouds 25 1016 69 10000 5.66 100 20:46 28.10.2022
1232 Clouds 23 1015 73 10000 4.63 100 18:51 28.10.2022
1233 Clouds 23 1015 73 10000 5.66 100 18:30 28.10.2022
1234 Clouds 23 1015 73 10000 4.12 100 15:29 28.10.2022
1235 Clouds 23 1016 78 10000 5.66 100 13:44 28.10.2022
1236 Clouds 23 1016 73 10000 5.14 100 12:26 28.10.2022
1237 Clouds 23 1017 73 10000 5.14 110 11:34 28.10.2022
1238 Clouds 23 1017 73 10000 5.66 100 10:45 28.10.2022
1239 Clouds 23 1017 78 10000 5.66 100 09:44 28.10.2022
1240 Clouds 23 1016 73 10000 3.6 110 07:56 28.10.2022
1241 Clouds 24 1014 69 10000 6.17 100 03:41 28.10.2022
1242 Clouds 24 1016 78 10000 6.17 100 23:48 27.10.2022
1243 Clouds 24 1017 73 10000 4.12 100 22:39 27.10.2022
1244 Clouds 24 1016 73 10000 5.14 100 21:33 27.10.2022
1245 Clouds 22 1015 88 10000 3.6 100 18:34 27.10.2022
1246 Clouds 22 1014 88 10000 2.06 100 17:28 27.10.2022
1247 Clouds 22 1015 94 10000 4.12 70 13:34 27.10.2022
1248 Clouds 22 1015 83 10000 3.6 100 08:58 27.10.2022
1249 Clouds 23 1014 78 10000 4.12 130 03:00 27.10.2022
1250 Rain 23 1015 73 10000 0.51 300 23:54 26.10.2022
1251 Clouds 24 1015 69 10000 2.57 350 22:46 26.10.2022
1252 Clouds 24 1015 69 10000 2.57 360 21:56 26.10.2022
1253 Clouds 18 1013 94 10000 0.51 220 18:42 26.10.2022
1254 Clouds 19 1013 88 10000 1.03 160 16:31 26.10.2022
1255 Clouds 19 1013 94 10000 1.03 110 13:35 26.10.2022
1256 Rain 19 1014 94 10000 1.03 80 12:36 26.10.2022
1257 Rain 22 1013 78 10000 2.57 140 09:31 26.10.2022
1258 Clouds 22 1012 73 10000 2.06 160 08:53 26.10.2022
1259 Clouds 22 1012 68 10000 2.06 150 07:57 26.10.2022
1260 Clouds 26 1010 53 10000 3.09 210 00:42 26.10.2022
1261 Clouds 25 1010 57 10000 2.06 200 23:57 25.10.2022
1262 Clouds 24 1010 69 10000 2.57 210 21:47 25.10.2022
1263 Clouds 25 1009 61 10000 3.09 220 20:46 25.10.2022
1264 Clouds 22 1008 68 10000 4.12 220 18:58 25.10.2022
1265 Clouds 22 1007 68 10000 5.14 230 17:49 25.10.2022
1266 Clouds 23 1006 68 10000 5.14 240 13:40 25.10.2022
1267 Clouds 23 1007 68 10000 4.63 240 11:38 25.10.2022
1268 Clouds 23 1007 68 10000 4.63 240 11:38 25.10.2022
1269 Clouds 23 1007 68 10000 3.6 230 10:36 25.10.2022
1270 Clouds 23 1006 68 10000 5.14 230 08:44 25.10.2022
1271 Clouds 23 1006 73 10000 3.6 230 08:18 25.10.2022
1272 Clouds 23 1005 73 10000 4.63 240 07:54 25.10.2022
1273 Clouds 24 1005 69 10000 3.6 230 06:54 25.10.2022
1274 Rain 24 1004 78 10000 5.14 230 03:38 25.10.2022
1275 Rain 22 1005 100 250 9.26 260 00:33 25.10.2022
1276 Haze 24 1006 94 4200 8.75 330 22:29 24.10.2022
1277 Haze 24 1006 94 4400 8.23 330 21:50 24.10.2022
1278 Rain 24 1006 94 7000 9.26 330 21:32 24.10.2022
1279 Clouds 25 1006 88 10000 9.26 330 20:41 24.10.2022
1280 Rain 25 1005 83 10000 6.69 340 18:52 24.10.2022
1281 Clouds 25 1005 88 10000 5.66 340 16:59 24.10.2022
1282 Clouds 25 1006 88 10000 5.66 350 15:51 24.10.2022
1283 Clouds 25 1007 83 10000 4.63 350 14:20 24.10.2022
1284 Clouds 24 1008 88 10000 5.66 340 12:53 24.10.2022
1285 Clouds 24 1010 88 10000 4.12 330 09:42 24.10.2022
1286 Clouds 24 1010 83 10000 4.63 350 07:56 24.10.2022
1287 Drizzle 25 1011 94 10000 4.12 20 22:50 23.10.2022
1288 Rain 25 1011 94 10000 3.6 30 20:40 23.10.2022
1289 Rain 24 1011 94 7000 5.14 30 19:27 23.10.2022
1290 Rain 25 1010 88 10000 4.12 50 17:30 23.10.2022
1291 Rain 25 1010 88 10000 4.12 50 17:30 23.10.2022
1292 Clouds 25 1010 83 10000 4.12 50 16:19 23.10.2022
1293 Clouds 25 1011 88 10000 4.12 60 14:58 23.10.2022
1294 Clouds 25 1013 94 10000 3.6 70 11:56 23.10.2022
1295 Clouds 25 1014 94 10000 4.12 60 10:52 23.10.2022
1296 Clouds 26 1012 83 10000 2.06 50 06:27 23.10.2022
1297 Clouds 27 1015 83 10000 3.09 40 23:24 22.10.2022
1298 Clouds 27 1015 83 10000 2.57 40 22:30 22.10.2022
1299 Clouds 27 1015 83 10000 3.09 40 21:39 22.10.2022
1300 Clouds 26 1015 83 10000 2.57 40 20:18 22.10.2022
1301 Rain 25 1014 88 10000 2.57 40 19:31 22.10.2022
1302 Rain 25 1013 88 10000 3.09 50 17:39 22.10.2022
1303 Clouds 25 1012 94 10000 3.6 60 16:28 22.10.2022
1304 Clouds 25 1013 94 10000 3.6 60 14:49 22.10.2022
1305 Clouds 24 1014 94 10000 2.57 80 14:18 22.10.2022
1306 Clouds 25 1016 88 10000 3.09 60 11:22 22.10.2022
1307 Clouds 25 1015 88 10000 4.12 60 09:43 22.10.2022
1308 Clouds 25 1015 88 10000 2.06 40 08:37 22.10.2022
1309 Clouds 27 1013 78 10000 4.63 60 04:25 22.10.2022
1310 Clouds 27 1015 78 10000 6.17 60 00:19 22.10.2022
1311 Clouds 27 1016 78 10000 7.72 70 22:19 21.10.2022
1312 Clouds 26 1016 83 10000 7.72 70 21:32 21.10.2022
1313 Clouds 25 1015 88 10000 7.72 70 20:20 21.10.2022
1314 Clouds 24 1014 88 10000 7.72 70 17:21 21.10.2022
1315 Clouds 25 1015 88 10000 7.2 70 14:32 21.10.2022
1316 Clouds 25 1016 88 10000 7.72 60 13:30 21.10.2022
1317 Clouds 25 1016 83 10000 5.14 70 11:45 21.10.2022
1318 Clouds 24 1016 88 10000 7.72 70 10:22 21.10.2022
1319 Clouds 24 1016 88 10000 3.6 90 08:39 21.10.2022
1320 Clouds 24 1015 88 10000 4.63 90 07:47 21.10.2022
1321 Clouds 27 1015 69 10000 4.12 50 02:30 21.10.2022
1322 Clouds 26 1016 69 10000 6.17 60 22:32 20.10.2022
1323 Clouds 25 1016 73 10000 5.66 70 20:48 20.10.2022
1324 Clouds 23 1015 83 10000 3.09 100 19:40 20.10.2022
1325 Clouds 22 1015 88 10000 2.06 100 17:54 20.10.2022
1326 Clouds 22 1014 88 10000 2.06 90 17:33 20.10.2022
1327 Clouds 22 1017 83 10000 1.54 110 13:22 20.10.2022
1328 Clouds 23 1017 83 10000 3.09 100 12:28 20.10.2022
1329 Clouds 23 1017 83 10000 5.14 80 11:23 20.10.2022
1330 Clouds 23 1017 88 10000 6.69 80 10:50 20.10.2022
1331 Clouds 23 1017 88 10000 2.57 90 08:22 20.10.2022
1332 Clouds 25 1015 73 10000 5.66 80 05:43 20.10.2022
1333 Clouds 27 1016 65 10000 7.2 70 01:52 20.10.2022
1334 Clouds 26 1017 69 10000 8.23 70 22:46 19.10.2022
1335 Clouds 26 1017 69 10000 9.26 80 21:58 19.10.2022
1336 Clouds 25 1017 73 10000 8.23 70 21:18 19.10.2022
1337 Clouds 23 1017 78 10000 2.57 100 18:51 19.10.2022
1338 Clouds 22 1016 83 10000 2.57 100 17:38 19.10.2022
1339 Clouds 22 1016 78 10000 2.06 100 15:58 19.10.2022
1340 Clouds 23 1017 73 10000 3.09 90 13:52 19.10.2022
1341 Clouds 23 1018 68 10000 4.12 90 09:42 19.10.2022
1342 Clouds 23 1018 68 10000 4.12 90 08:35 19.10.2022
1343 Clouds 24 1016 64 10000 7.2 80 06:25 19.10.2022
1344 Clouds 26 1017 61 10000 8.75 70 01:26 19.10.2022
1345 Clouds 26 1018 61 10000 8.23 80 23:19 18.10.2022
1346 Clouds 25 1019 65 10000 7.72 90 21:45 18.10.2022
1347 Clouds 25 1019 65 10000 7.2 80 20:59 18.10.2022
1348 Clouds 23 1018 73 10000 6.17 90 20:18 18.10.2022
1349 Clouds 22 1018 73 10000 2.57 110 17:48 18.10.2022
1350 Clouds 22 1017 73 10000 2.57 110 16:52 18.10.2022
1351 Clouds 23 1018 73 10000 5.66 80 14:31 18.10.2022
1352 Clouds 23 1019 73 10000 3.6 90 12:33 18.10.2022
1353 Clouds 23 1019 73 10000 5.14 90 11:22 18.10.2022
1354 Clouds 23 1019 78 10000 5.66 90 09:45 18.10.2022
1355 Clouds 23 1018 73 10000 4.12 100 07:56 18.10.2022
1356 Clouds 26 1017 65 10000 7.2 80 03:19 18.10.2022
1357 Clouds 26 1019 57 10000 8.23 80 22:24 17.10.2022
1358 Clouds 25 1019 65 10000 5.66 90 20:55 17.10.2022
1359 Clouds 24 1019 73 10000 2.57 100 20:31 17.10.2022
1360 Clouds 24 1019 73 10000 2.57 100 19:51 17.10.2022
1361 Clouds 23 1018 73 10000 4.12 100 18:52 17.10.2022
1362 Clouds 23 1018 73 10000 2.06 100 16:52 17.10.2022
1363 Clouds 23 1019 68 10000 2.57 120 15:29 17.10.2022
1364 Clouds 23 1019 68 10000 3.09 110 14:35 17.10.2022
1365 Clouds 24 1020 73 10000 4.12 100 11:23 17.10.2022
1366 Clouds 25 1019 73 10000 5.14 100 06:36 17.10.2022
1367 Clouds 26 1021 69 10000 3.6 90 23:30 16.10.2022
1368 Clouds 26 1021 65 10000 4.12 100 21:48 16.10.2022
1369 Clouds 25 1021 73 10000 3.6 90 20:43 16.10.2022
1370 Clouds 24 1020 83 10000 3.09 90 19:46 16.10.2022
1371 Clouds 23 1019 88 10000 3.6 90 17:52 16.10.2022
1372 Clouds 23 1019 88 10000 3.6 100 17:30 16.10.2022
1373 Clouds 23 1019 94 10000 2.06 100 15:57 16.10.2022
1374 Clouds 24 1019 88 10000 2.57 90 14:33 16.10.2022
1375 Clouds 24 1020 83 10000 1.54 100 12:23 16.10.2022
1376 Clouds 24 1020 83 10000 3.09 100 10:27 16.10.2022
1377 Clouds 24 1020 83 10000 3.09 90 08:44 16.10.2022
1378 Clear 27 1019 69 10000 6.17 60 01:26 16.10.2022
1379 Clouds 26 1020 73 10000 7.72 80 22:43 15.10.2022
1380 Clouds 26 1020 73 10000 8.23 80 21:25 15.10.2022
1381 Clouds 25 1020 73 10000 7.2 80 20:43 15.10.2022
1382 Clouds 23 1019 78 10000 1.03 120 18:44 15.10.2022
1383 Clouds 23 1018 83 10000 2.57 100 15:49 15.10.2022
1384 Clouds 24 1018 75 10000 6.89 92 14:39 15.10.2022
1385 Clouds 22 1020 94 10000 2.06 90 11:57 15.10.2022
1386 Clear 21 1020 94 10000 1.03 150 10:32 15.10.2022
1387 Clear 23 1019 88 10000 1.03 110 08:34 15.10.2022
1388 Clear 28 1017 69 10000 5.66 50 02:35 15.10.2022
1389 Clouds 27 1019 74 10000 5.14 60 23:31 14.10.2022
1390 Clouds 26 1019 78 10000 4.63 60 22:23 14.10.2022
1391 Clouds 25 1019 83 10000 4.12 70 21:28 14.10.2022
1392 Clouds 25 1017 83 10000 5.14 80 19:54 14.10.2022
1393 Clouds 24 1016 94 10000 4.12 80 16:38 14.10.2022
1394 Clouds 24 1017 94 10000 4.12 80 13:26 14.10.2022
1395 Clouds 24 1017 94 10000 2.57 80 12:18 14.10.2022
1396 Clouds 24 1017 94 10000 2.57 90 09:29 14.10.2022
1397 Clouds 25 1016 83 10000 3.09 80 06:55 14.10.2022
1398 Clouds 25 1015 83 10000 3.6 60 06:18 14.10.2022
1399 Clouds 25 1015 83 10000 4.12 40 05:42 14.10.2022
1400 Clouds 27 1014 78 10000 5.66 50 03:43 14.10.2022
1401 Clouds 26 1016 83 10000 6.69 60 23:49 13.10.2022
1402 Clouds 27 1017 78 10000 6.69 60 22:21 13.10.2022
1403 Clouds 26 1017 83 10000 6.17 70 21:25 13.10.2022
1404 Clouds 24 1016 88 10000 5.66 80 19:43 13.10.2022
1405 Clouds 24 1016 88 10000 5.66 80 18:53 13.10.2022
1406 Clouds 24 1016 88 10000 5.14 70 18:22 13.10.2022
1407 Rain 24 1015 88 10000 5.66 70 16:28 13.10.2022
1408 Clouds 24 1015 88 10000 6.17 70 15:42 13.10.2022
1409 Clouds 24 1015 88 10000 5.14 60 14:18 13.10.2022
1410 Clouds 24 1016 88 10000 6.17 70 12:44 13.10.2022
1411 Clouds 24 1016 88 10000 6.69 70 11:34 13.10.2022
1412 Clouds 24 1016 88 10000 7.2 60 09:21 13.10.2022
1413 Clouds 25 1015 83 10000 6.17 70 07:39 13.10.2022
1414 Clouds 25 1015 83 10000 6.69 60 06:28 13.10.2022
1415 Clouds 27 1016 78 10000 7.2 60 01:46 13.10.2022
1416 Clouds 26 1016 78 10000 7.2 60 00:41 13.10.2022
1417 Clouds 26 1017 83 10000 7.2 60 22:45 12.10.2022
1418 Clouds 25 1017 88 10000 6.69 60 21:48 12.10.2022
1419 Clouds 25 1017 88 10000 7.2 60 21:19 12.10.2022
1420 Clouds 25 1017 88 10000 6.69 60 20:35 12.10.2022
1421 Clouds 24 1016 88 10000 6.69 60 19:23 12.10.2022
1422 Clouds 24 1015 94 10000 6.17 60 18:18 12.10.2022
1423 Clouds 24 1015 94 10000 6.17 60 17:42 12.10.2022
1424 Clouds 24 1015 94 10000 7.2 70 14:45 12.10.2022
1425 Clouds 24 1016 94 10000 5.14 60 13:53 12.10.2022
1426 Clouds 24 1016 88 10000 7.2 70 11:54 12.10.2022
1427 Clouds 24 1016 94 10000 7.72 60 09:36 12.10.2022
1428 Haze 23 1015 94 5000 8.75 70 07:42 12.10.2022
1429 Haze 23 1015 94 4300 8.23 60 06:44 12.10.2022
1430 Clouds 24 1015 88 10000 8.23 70 05:27 12.10.2022
1431 Clouds 27 1016 74 10000 9.77 60 00:32 12.10.2022
1432 Rain 23 1017 94 10000 9.26 70 21:25 11.10.2022
1433 Clouds 23 1017 94 10000 8.23 70 20:30 11.10.2022
1434 Rain 22 1016 100 5000 8.23 70 18:27 11.10.2022
1435 Rain 23 1015 88 10000 8.75 70 16:24 11.10.2022
1436 Clouds 23 1016 88 10000 11.32 80 13:44 11.10.2022
1437 Rain 22 1017 94 10000 11.32 80 10:48 11.10.2022
1438 Rain 24 1017 78 10000 10.29 80 10:26 11.10.2022
1439 Clouds 23 1017 83 10000 10.29 80 08:46 11.10.2022
1440 Clouds 25 1015 73 10000 9.77 80 04:23 11.10.2022
1441 Clouds 26 1017 69 10000 11.32 80 00:47 11.10.2022
1442 Clouds 25 1017 69 10000 10.8 80 23:52 10.10.2022
1443 Clouds 23 1017 78 10000 9.26 90 20:58 10.10.2022
1444 Clouds 22 1017 88 10000 6.69 90 19:43 10.10.2022
1445 Rain 22 1016 83 10000 7.72 90 17:52 10.10.2022
1446 Rain 21 1015 94 10000 8.75 90 16:37 10.10.2022
1447 Clouds 22 1016 83 10000 7.2 90 14:22 10.10.2022
1448 Rain 22 1017 88 10000 6.17 90 12:23 10.10.2022
1449 Rain 22 1018 88 4000 9.77 90 10:20 10.10.2022
1450 Clouds 22 1017 83 10000 8.75 100 07:21 10.10.2022
1451 Clouds 23 1016 83 10000 8.75 90 05:37 10.10.2022
1452 Clouds 25 1017 73 10000 6.69 90 01:58 10.10.2022
1453 Clouds 25 1017 73 10000 6.69 90 01:58 10.10.2022
1454 Clouds 25 1017 73 10000 6.69 90 01:58 10.10.2022
1455 Clouds 25 1017 73 10000 6.69 90 01:58 10.10.2022
1456 Clouds 25 1018 69 10000 6.69 100 00:23 10.10.2022
1457 Clouds 24 1019 73 10000 7.2 100 22:27 09.10.2022
1458 Clouds 24 1019 73 10000 7.2 100 21:45 09.10.2022
1459 Clouds 23 1019 83 10000 5.66 100 20:45 09.10.2022
1460 Rain 23 1019 73 10000 5.66 110 19:52 09.10.2022
1461 Clouds 23 1018 78 10000 5.66 100 18:52 09.10.2022
1462 Clouds 23 1018 73 10000 7.72 100 18:25 09.10.2022
1463 Clouds 23 1018 73 10000 5.66 100 16:56 09.10.2022
1464 Clouds 23 1018 73 10000 6.17 110 16:21 09.10.2022
1465 Clouds 23 1018 73 10000 6.69 100 15:27 09.10.2022
1466 Clouds 23 1019 73 10000 6.69 100 14:27 09.10.2022
1467 Clouds 23 1020 68 10000 6.17 100 12:53 09.10.2022
1468 Clouds 23 1021 68 10000 6.17 100 11:28 09.10.2022
1469 Clouds 23 1020 68 10000 6.69 100 08:41 09.10.2022
1470 Clouds 24 1019 64 10000 6.17 100 07:35 09.10.2022
1471 Clouds 25 1018 69 10000 5.14 110 03:30 09.10.2022
1472 Clouds 26 1019 61 10000 5.14 100 02:22 09.10.2022
1473 Clouds 25 1020 65 10000 7.2 100 23:56 08.10.2022
1474 Rain 24 1021 78 10000 3.09 100 22:52 08.10.2022
1475 Clouds 24 1021 64 10000 6.69 80 20:45 08.10.2022
1476 Clouds 23 1020 73 10000 4.12 80 19:48 08.10.2022
1477 Clouds 22 1020 83 10000 3.09 100 17:45 08.10.2022
1478 Clouds 22 1020 73 10000 3.6 130 15:36 08.10.2022
1479 Rain 21 1020 88 6000 4.12 150 13:53 08.10.2022
1480 Rain 22 1021 83 10000 1.03 170 12:30 08.10.2022
1481 Clouds 24 1021 78 10000 3.6 100 10:35 08.10.2022
1482 Clouds 23 1020 83 10000 2.57 110 09:43 08.10.2022
1483 Clouds 24 1019 83 10000 3.6 90 07:32 08.10.2022
1484 Clouds 26 1018 73 10000 7.2 70 02:45 08.10.2022
1485 Clouds 26 1019 73 10000 7.72 80 00:24 08.10.2022
1486 Clouds 26 1020 73 10000 8.23 80 23:20 07.10.2022
1487 Clouds 26 1020 78 10000 7.72 80 22:19 07.10.2022
1488 Clouds 25 1019 83 10000 6.17 80 20:37 07.10.2022
1489 Clouds 22 1018 94 10000 2.06 100 18:40 07.10.2022
1490 Clouds 23 1017 83 10000 2.57 90 16:58 07.10.2022
1491 Clouds 23 1017 88 10000 4.63 80 15:50 07.10.2022
1492 Clouds 23 1018 88 10000 3.09 90 14:35 07.10.2022
1493 Clouds 23 1019 83 10000 4.12 90 11:48 07.10.2022
1494 Clouds 23 1019 78 10000 2.57 100 09:26 07.10.2022
1495 Clouds 23 1019 78 10000 3.09 100 08:47 07.10.2022
1496 Clouds 25 1018 65 10000 5.66 70 05:51 07.10.2022
1497 Clouds 26 1018 61 10000 7.72 70 00:28 07.10.2022
1498 Clouds 26 1019 53 10000 6.69 60 22:50 06.10.2022
1499 Clouds 26 1019 44 10000 7.72 70 21:42 06.10.2022
1500 Clouds 25 1019 61 10000 6.69 80 20:54 06.10.2022
1501 Clouds 24 1018 64 10000 5.66 70 19:46 06.10.2022
1502 Clouds 23 1017 73 10000 6.69 70 18:37 06.10.2022
1503 Clouds 23 1017 73 10000 3.6 90 16:58 06.10.2022
1504 Clouds 23 1018 78 10000 5.66 80 13:51 06.10.2022
1505 Clouds 24 1019 73 10000 6.69 80 10:45 06.10.2022
1506 Clouds 25 1017 69 10000 7.72 80 05:43 06.10.2022
1507 Clouds 26 1018 65 10000 8.75 70 02:38 06.10.2022
1508 Clouds 25 1021 69 10000 8.23 80 22:29 05.10.2022
1509 Clouds 24 1020 73 10000 6.17 80 19:54 05.10.2022
1510 Clouds 23 1019 83 10000 4.63 80 17:48 05.10.2022
1511 Clouds 23 1019 83 10000 4.63 90 17:27 05.10.2022
1512 Clouds 23 1019 78 10000 4.63 90 15:37 05.10.2022
1513 Clouds 23 1020 78 10000 6.17 80 14:38 05.10.2022
1514 Clouds 23 1021 83 10000 5.66 90 13:39 05.10.2022
1515 Clouds 23 1021 83 10000 4.12 100 12:19 05.10.2022
1516 Clouds 23 1021 78 10000 6.69 80 08:31 05.10.2022
1517 Clouds 24 1020 73 10000 7.72 80 07:22 05.10.2022
1518 Clouds 25 1019 69 10000 9.26 80 05:34 05.10.2022
1519 Clouds 26 1020 65 10000 9.77 80 02:37 05.10.2022
1520 Clouds 26 1021 69 10000 9.26 80 00:41 05.10.2022
1521 Clouds 26 1021 69 10000 9.26 80 00:22 05.10.2022
1522 Clouds 25 1022 73 10000 9.26 70 21:25 04.10.2022
1523 Clouds 25 1022 78 10000 7.72 80 20:20 04.10.2022
1524 Clouds 23 1021 88 10000 5.66 80 18:56 04.10.2022
1525 Clouds 23 1020 88 10000 6.17 80 18:33 04.10.2022
1526 Clouds 23 1020 88 10000 5.66 80 16:57 04.10.2022
1527 Clouds 23 1020 88 10000 6.17 80 15:21 04.10.2022
1528 Clouds 24 1022 83 10000 7.2 80 10:43 04.10.2022
1529 Clouds 24 1021 83 10000 7.72 80 08:28 04.10.2022
1530 Clouds 26 1020 73 10000 8.23 90 04:48 04.10.2022
1531 Clouds 26 1021 73 10000 9.77 70 23:59 03.10.2022
1532 Clouds 26 1022 69 10000 10.29 70 22:45 03.10.2022
1533 Clouds 25 1022 73 10000 8.75 80 21:30 03.10.2022
1534 Clouds 24 1021 73 10000 7.72 80 20:36 03.10.2022
1535 Clouds 23 1020 78 10000 5.66 80 18:52 03.10.2022
1536 Clouds 23 1019 73 10000 6.69 80 17:32 03.10.2022
1537 Clouds 23 1019 78 10000 7.2 90 15:59 03.10.2022
1538 Clouds 23 1019 73 10000 8.23 80 14:26 03.10.2022
1539 Clouds 23 1020 73 10000 8.23 80 12:36 03.10.2022
1540 Clouds 23 1020 68 10000 7.72 90 10:59 03.10.2022
1541 Clouds 23 1020 68 10000 7.72 80 09:52 03.10.2022
1542 Clouds 23 1019 68 10000 7.72 90 08:46 03.10.2022
1543 Clouds 25 1017 61 10000 8.23 90 04:41 03.10.2022
1544 Clouds 25 1019 65 10000 5.66 110 23:27 02.10.2022
1545 Clouds 24 1019 69 10000 4.63 100 21:58 02.10.2022
1546 Clouds 21 1018 83 9000 4.12 110 19:50 02.10.2022
1547 Clouds 22 1017 68 10000 6.69 90 17:55 02.10.2022
1548 Clouds 22 1016 73 10000 5.66 80 16:53 02.10.2022
1549 Clouds 22 1016 64 10000 4.63 90 16:32 02.10.2022
1550 Clouds 22 1017 60 10000 3.6 100 15:25 02.10.2022
1551 Rain 22 1017 68 10000 3.6 110 13:46 02.10.2022
1552 Clouds 22 1018 73 10000 4.63 110 12:39 02.10.2022
1553 Clouds 22 1018 68 10000 4.12 100 11:48 02.10.2022
1554 Clouds 22 1018 68 10000 4.63 100 11:30 02.10.2022
1555 Clouds 22 1018 64 10000 5.14 100 10:19 02.10.2022
1556 Clouds 22 1017 64 10000 4.12 110 08:27 02.10.2022
1557 Clouds 23 1016 56 10000 5.66 110 05:19 02.10.2022
1558 Clouds 24 1018 46 10000 5.66 100 00:57 02.10.2022
1559 Clouds 25 1018 44 10000 5.66 90 00:37 02.10.2022
1560 Clouds 24 1018 50 10000 3.09 110 23:24 01.10.2022
1561 Clouds 23 1019 56 10000 1.54 140 21:38 01.10.2022
1562 Clouds 22 1017 56 10000 3.09 130 18:54 01.10.2022
1563 Clouds 21 1016 64 10000 3.09 120 17:25 01.10.2022
1564 Clouds 21 1017 68 10000 3.09 130 14:44 01.10.2022
1565 Clouds 21 1018 64 10000 1.54 140 13:43 01.10.2022
1566 Clouds 21 1018 64 10000 2.57 120 12:34 01.10.2022
1567 Clouds 22 1019 60 10000 3.09 110 11:22 01.10.2022
1568 Clouds 22 1019 60 10000 3.6 120 10:44 01.10.2022
1569 Clouds 22 1019 60 10000 3.6 120 10:25 01.10.2022
1570 Clouds 21 1019 64 10000 2.06 120 09:18 01.10.2022
1571 Rain 22 1018 64 10000 3.6 120 08:19 01.10.2022
1572 Clouds 24 1016 57 10000 5.14 120 03:37 01.10.2022
1573 Clouds 24 1017 57 10000 5.66 140 01:22 01.10.2022
1574 Clouds 24 1017 57 10000 5.66 140 01:22 01.10.2022
1575 Clouds 24 1018 64 10000 4.63 140 22:56 30.09.2022
1576 Clouds 23 1018 68 10000 4.12 140 21:44 30.09.2022
1577 Rain 22 1018 73 10000 3.6 150 20:45 30.09.2022
1578 Clouds 23 1017 68 10000 4.12 150 20:19 30.09.2022
1579 Rain 21 1015 83 8000 2.57 160 17:40 30.09.2022
1580 Clear 21 1015 78 10000 4.12 150 16:25 30.09.2022
1581 Clouds 21 1016 83 10000 1.03 110 13:40 30.09.2022
1582 Clouds 22 1016 78 10000 1.54 130 11:59 30.09.2022
1583 Clouds 22 1016 78 10000 2.57 150 11:31 30.09.2022
1584 Clouds 22 1015 78 10000 1.54 120 08:37 30.09.2022
1585 Clouds 23 1014 78 10000 3.09 140 06:29 30.09.2022
1586 Clouds 24 1012 69 10000 3.09 180 02:45 30.09.2022
1587 Clouds 24 1012 73 10000 5.14 190 23:46 29.09.2022
1588 Clouds 24 1012 78 10000 5.14 220 21:29 29.09.2022
1589 Clouds 23 1011 78 10000 5.66 220 20:59 29.09.2022
1590 Clouds 23 1008 83 10000 4.12 230 18:45 29.09.2022
1591 Clouds 24 1007 78 10000 6.17 250 17:32 29.09.2022
1592 Clouds 24 1007 88 10000 5.14 250 16:28 29.09.2022
1593 Clouds 24 1007 88 10000 7.2 290 15:36 29.09.2022
1594 Clouds 24 1007 88 10000 6.17 300 14:35 29.09.2022
1595 Clouds 25 1008 94 9000 8.23 310 10:33 29.09.2022
1596 Clouds 25 1008 94 10000 6.69 300 07:22 29.09.2022
1597 Rain 25 1009 94 7000 5.66 330 02:51 29.09.2022
1598 Clouds 26 1011 83 10000 5.14 350 23:56 28.09.2022
1599 Clouds 26 1011 83 10000 5.14 350 23:56 28.09.2022
1600 Clouds 26 1011 83 10000 5.14 350 22:44 28.09.2022
1601 Clouds 25 1011 88 10000 4.63 360 21:29 28.09.2022
1602 Clouds 25 1010 88 10000 4.12 360 20:25 28.09.2022
1603 Rain 23 1010 94 10000 2.06 110 18:42 28.09.2022
1604 Clouds 23 1010 94 10000 1.03 210 15:32 28.09.2022
1605 Rain 23 1011 94 10000 2.57 260 13:27 28.09.2022
1606 Clouds 25 1013 94 10000 3.09 300 11:18 28.09.2022
1607 Clouds 25 1013 88 10000 3.09 300 09:18 28.09.2022
1608 Clouds 25 1012 88 10000 3.09 300 07:20 28.09.2022
1609 Clouds 26 1012 89 10000 4.63 320 03:18 28.09.2022
1610 Clouds 26 1013 89 10000 3.6 320 01:35 28.09.2022
1611 Clouds 26 1014 89 10000 2.57 320 23:20 27.09.2022
1612 Clouds 26 1015 89 10000 2.06 340 21:47 27.09.2022
1613 Clouds 25 1014 94 10000 2.06 340 20:39 27.09.2022
1614 Clouds 25 1014 88 10000 2.57 320 19:48 27.09.2022
1615 Clouds 24 1013 94 10000 2.57 320 18:45 27.09.2022
1616 Clouds 24 1013 94 10000 2.57 330 17:45 27.09.2022
1617 Clouds 24 1013 94 10000 3.6 320 15:40 27.09.2022
1618 Clouds 24 1014 94 10000 2.57 340 14:55 27.09.2022
1619 Rain 25 1015 88 10000 2.06 350 12:50 27.09.2022
1620 Clouds 25 1016 88 10000 2.06 360 11:34 27.09.2022
1621 Clouds 25 1016 94 10000 2.06 40 08:50 27.09.2022
1622 Clouds 25 1015 88 10000 2.06 40 06:45 27.09.2022
1623 Rain 25 1015 94 9000 5.66 80 01:57 27.09.2022
1624 Clouds 26 1016 83 10000 6.17 70 01:29 27.09.2022
1625 Clouds 25 1017 83 10000 6.17 70 23:26 26.09.2022
1626 Clouds 25 1018 88 10000 4.12 80 22:34 26.09.2022
1627 Haze 24 1018 88 4200 3.09 90 20:45 26.09.2022
1628 Clouds 24 1018 84 10000 4.15 87 19:30 26.09.2022
1629 Clouds 23 1017 88 10000 2.57 80 18:31 26.09.2022
1630 Clouds 23 1016 88 10000 2.57 90 16:29 26.09.2022
1631 Clouds 23 1017 88 10000 3.09 90 14:24 26.09.2022
1632 Clouds 23 1018 83 10000 2.57 100 11:29 26.09.2022
1633 Clouds 23 1018 83 10000 2.57 90 10:38 26.09.2022
1634 Clouds 23 1018 83 10000 2.57 90 10:19 26.09.2022
1635 Clouds 23 1018 83 10000 3.09 90 09:53 26.09.2022
1636 Clouds 23 1018 83 10000 4.12 70 09:23 26.09.2022
1637 Clouds 23 1017 83 10000 3.6 90 07:30 26.09.2022
1638 Clouds 26 1017 73 10000 5.66 60 02:48 26.09.2022
1639 Clouds 26 1019 73 10000 7.2 60 23:29 25.09.2022
1640 Clouds 26 1019 73 10000 6.17 70 21:54 25.09.2022
1641 Clouds 25 1019 73 10000 7.2 70 21:34 25.09.2022
1642 Clouds 25 1019 73 10000 7.2 70 20:44 25.09.2022
1643 Clouds 23 1018 83 10000 6.17 80 19:31 25.09.2022
1644 Clouds 23 1018 83 10000 4.63 90 18:34 25.09.2022
1645 Clouds 23 1017 83 10000 5.14 80 17:52 25.09.2022
1646 Clouds 23 1017 78 10000 5.66 70 16:22 25.09.2022
1647 Clouds 23 1017 78 10000 5.14 80 15:43 25.09.2022
1648 Clouds 23 1018 78 10000 5.66 80 14:21 25.09.2022
1649 Clouds 23 1019 78 10000 7.2 70 12:49 25.09.2022
1650 Clouds 23 1019 78 10000 8.23 70 10:26 25.09.2022
1651 Clouds 24 1019 73 10000 6.17 80 08:23 25.09.2022
1652 Clouds 24 1017 69 10000 10.29 70 05:31 25.09.2022
1653 Clouds 26 1019 65 10000 9.77 70 00:39 25.09.2022
1654 Clouds 25 1020 65 10000 7.72 80 22:34 24.09.2022
1655 Clouds 24 1020 64 10000 5.66 90 20:45 24.09.2022
1656 Clouds 23 1019 56 10000 3.09 120 19:21 24.09.2022
1657 Clouds 23 1018 68 10000 5.66 90 16:59 24.09.2022
1658 Clouds 22 1018 73 10000 5.14 90 16:23 24.09.2022
1659 Clouds 23 1019 68 10000 5.66 90 15:19 24.09.2022
1660 Clouds 23 1019 68 10000 7.2 80 13:23 24.09.2022
1661 Clouds 23 1020 73 10000 8.23 80 12:40 24.09.2022
1662 Clouds 23 1020 73 10000 7.2 90 10:19 24.09.2022
1663 Rain 23 1019 73 10000 6.69 90 09:22 24.09.2022
1664 Clouds 23 1019 73 10000 6.69 100 08:42 24.09.2022
1665 Clouds 25 1017 65 10000 7.72 90 04:58 24.09.2022
1666 Clouds 26 1017 61 10000 8.23 90 04:27 24.09.2022
1667 Clouds 26 1020 57 10000 8.23 90 23:25 23.09.2022
1668 Clouds 25 1020 53 10000 4.63 110 21:41 23.09.2022
1669 Clouds 25 1020 53 10000 4.63 110 21:22 23.09.2022
1670 Clouds 24 1020 57 10000 6.17 100 20:54 23.09.2022
1671 Clouds 23 1019 64 10000 4.12 110 19:20 23.09.2022
1672 Clouds 23 1018 64 10000 4.12 100 17:42 23.09.2022
1673 Clouds 23 1020 73 10000 4.63 90 13:40 23.09.2022
1674 Clouds 23 1021 78 10000 5.66 90 10:22 23.09.2022
1675 Clouds 24 1020 64 10000 6.17 100 07:30 23.09.2022
1676 Clouds 26 1019 65 10000 7.72 90 02:25 23.09.2022
1677 Clouds 26 1021 65 10000 6.17 110 23:29 22.09.2022
1678 Clouds 25 1022 69 10000 5.14 110 22:28 22.09.2022
1679 Clouds 25 1022 69 10000 4.12 120 21:30 22.09.2022
1680 Clouds 24 1021 73 10000 3.6 110 20:21 22.09.2022
1681 Clouds 23 1020 73 10000 5.66 110 18:44 22.09.2022
1682 Clouds 23 1020 78 10000 5.66 100 14:49 22.09.2022
1683 Rain 22 1021 88 7000 5.14 100 10:38 22.09.2022
1684 Rain 22 1021 88 7000 5.14 100 10:19 22.09.2022
1685 Clouds 24 1020 73 10000 7.2 110 07:50 22.09.2022
1686 Clouds 24 1018 78 10000 6.69 100 04:38 22.09.2022
1687 Clouds 26 1020 69 10000 6.69 90 00:25 22.09.2022
1688 Clouds 25 1021 73 10000 4.63 110 22:28 21.09.2022
1689 Clouds 24 1021 73 10000 6.69 100 20:55 21.09.2022
1690 Clouds 23 1019 78 10000 5.14 100 18:34 21.09.2022
1691 Clouds 23 1018 78 10000 3.6 110 17:39 21.09.2022
1692 Clouds 23 1019 78 10000 4.63 110 15:29 21.09.2022
1693 Rain 23 1020 78 10000 4.63 110 13:39 21.09.2022
1694 Rain 23 1020 78 10000 6.17 100 11:34 21.09.2022
1695 Rain 22 1020 88 8000 5.66 100 10:50 21.09.2022
1696 Clouds 23 1020 83 10000 5.66 100 09:38 21.09.2022
1697 Rain 23 1020 83 10000 5.66 100 08:23 21.09.2022
1698 Rain 21 1018 94 6000 7.72 90 02:52 21.09.2022
1699 Rain 23 1019 88 10000 6.17 90 02:33 21.09.2022
1700 Clouds 25 1019 78 10000 7.2 90 01:49 21.09.2022
1701 Clouds 25 1020 73 10000 6.17 90 23:50 20.09.2022
1702 Rain 23 1021 83 10000 4.63 100 21:34 20.09.2022
1703 Clouds 23 1020 83 10000 5.66 100 20:23 20.09.2022
1704 Rain 22 1018 88 8000 4.12 100 17:41 20.09.2022
1705 Rain 22 1018 88 10000 3.09 100 15:18 20.09.2022
1706 Rain 22 1019 88 10000 4.12 100 13:59 20.09.2022
1707 Clouds 23 1020 83 10000 4.12 110 11:24 20.09.2022
1708 Rain 22 1019 88 10000 2.57 110 08:29 20.09.2022
1709 Clouds 22 1019 88 10000 2.06 140 07:31 20.09.2022
1710 Rain 23 1018 88 8000 3.09 120 04:30 20.09.2022
1711 Rain 24 1019 83 7000 3.09 140 01:28 20.09.2022
1712 Clouds 25 1020 73 10000 2.06 260 22:29 19.09.2022
1713 Clouds 24 1019 78 10000 2.06 70 20:59 19.09.2022
1714 Clouds 24 1019 73 10000 1.54 350 20:39 19.09.2022
1715 Clouds 23 1018 83 10000 1.03 220 18:42 19.09.2022
1716 Clouds 23 1017 83 10000 2.06 160 16:29 19.09.2022
1717 Clouds 22 1018 94 10000 1.03 200 13:44 19.09.2022
1718 Clear 21 1019 94 10000 1.03 60 11:33 19.09.2022
1719 Clear 22 1019 94 10000 0.51 120 09:33 19.09.2022
1720 Clouds 23 1018 88 10000 1.03 140 08:20 19.09.2022
1721 Clouds 26 1018 73 10000 1.54 240 02:31 19.09.2022
1722 Clouds 26 1020 73 10000 2.57 210 23:24 18.09.2022
1723 Clouds 26 1020 78 10000 3.09 50 21:53 18.09.2022
1724 Clouds 25 1019 83 10000 1.54 90 20:34 18.09.2022
1725 Clouds 22 1018 94 10000 1.54 90 18:42 18.09.2022
1726 Clouds 23 1018 88 10000 2.57 80 17:45 18.09.2022
1727 Clouds 23 1018 88 10000 4.12 70 16:32 18.09.2022
1728 Clouds 22 1019 88 10000 2.06 90 14:35 18.09.2022
1729 Clear 22 1020 88 10000 1.54 100 12:55 18.09.2022
1730 Clouds 23 1020 88 10000 2.06 100 11:46 18.09.2022
1731 Clouds 25 1018 78 10000 6.17 80 06:30 18.09.2022
1732 Clear 26 1019 73 10000 8.23 70 01:30 18.09.2022
1733 Clouds 26 1020 73 10000 7.2 60 00:42 18.09.2022
1734 Clouds 25 1021 78 10000 7.2 80 21:54 17.09.2022
1735 Clouds 24 1021 83 10000 2.06 100 20:29 17.09.2022
1736 Clouds 20 1021 100 10000 1.03 120 19:19 17.09.2022
1737 Clouds 21 1020 88 10000 1.03 110 16:57 17.09.2022
1738 Clouds 23 1021 83 10000 3.09 90 13:59 17.09.2022
1739 Clouds 23 1021 83 10000 2.57 90 11:55 17.09.2022
1740 Clouds 23 1021 78 10000 2.57 100 09:40 17.09.2022
1741 Clouds 25 1019 69 10000 6.69 60 06:27 17.09.2022
1742 Clouds 26 1019 65 10000 7.2 60 02:43 17.09.2022
1743 Clouds 25 1021 69 10000 7.2 70 22:58 16.09.2022
1744 Clouds 25 1021 69 10000 8.75 70 21:32 16.09.2022
1745 Clouds 24 1021 69 10000 8.75 70 20:31 16.09.2022
1746 Clouds 23 1020 78 10000 7.2 80 17:52 16.09.2022
1747 Clouds 23 1020 78 10000 7.2 80 17:52 16.09.2022
1748 Clouds 23 1020 78 10000 6.69 70 15:43 16.09.2022
1749 Clouds 23 1020 78 10000 5.14 80 14:28 16.09.2022
1750 Clouds 23 1021 78 10000 6.69 70 11:46 16.09.2022
1751 Clouds 24 1021 69 10000 5.66 80 08:53 16.09.2022
1752 Clouds 24 1019 69 10000 5.14 90 07:19 16.09.2022
1753 Clouds 24 1019 69 10000 5.66 90 06:47 16.09.2022
1754 Clouds 26 1019 65 10000 8.75 80 02:59 16.09.2022
1755 Clouds 26 1021 69 10000 9.77 80 23:48 15.09.2022
1756 Clouds 25 1020 65 10000 8.75 70 21:19 15.09.2022
1757 Clouds 23 1020 64 10000 7.2 80 19:57 15.09.2022
1758 Clouds 23 1019 64 10000 4.63 90 18:30 15.09.2022
1759 Clouds 23 1019 64 10000 4.63 90 17:33 15.09.2022
1760 Clouds 23 1018 68 10000 5.14 80 16:43 15.09.2022
1761 Clouds 23 1019 64 10000 7.72 80 14:36 15.09.2022
1762 Clouds 23 1020 64 10000 6.69 80 12:21 15.09.2022
1763 Clouds 22 1020 68 10000 4.63 90 09:54 15.09.2022
1764 Clouds 23 1019 73 10000 6.69 90 07:50 15.09.2022
1765 Clouds 25 1019 69 10000 8.23 80 03:53 15.09.2022
1766 Clouds 27 1020 65 10000 8.75 80 01:20 15.09.2022
1767 Clouds 24 1021 78 10000 8.75 80 21:39 14.09.2022
1768 Clouds 23 1020 83 10000 4.12 90 19:34 14.09.2022
1769 Clouds 23 1020 83 10000 4.12 90 18:32 14.09.2022
1770 Clouds 23 1019 83 10000 4.12 90 16:46 14.09.2022
1771 Clouds 23 1020 83 10000 3.09 90 15:34 14.09.2022
1772 Clouds 24 1021 78 10000 3.09 100 13:36 14.09.2022
1773 Clouds 24 1021 78 10000 4.63 90 10:52 14.09.2022
1774 Clouds 24 1021 78 10000 5.14 90 09:41 14.09.2022
1775 Clouds 24 1019 83 10000 5.14 90 06:52 14.09.2022
1776 Clouds 24 1019 83 10000 5.14 90 06:34 14.09.2022
1777 Clouds 24 1019 83 10000 5.14 90 06:34 14.09.2022
1778 Clouds 26 1018 73 10000 9.26 80 03:55 14.09.2022
1779 Clouds 27 1021 61 10000 5.14 100 01:43 14.09.2022
1780 Clouds 27 1021 61 10000 5.14 100 01:20 14.09.2022
1781 Clouds 26 1021 69 10000 6.69 80 23:55 13.09.2022
1782 Clouds 26 1022 65 10000 6.17 80 23:37 13.09.2022
1783 Clouds 26 1022 65 10000 6.17 80 23:19 13.09.2022
1784 Clouds 26 1022 69 10000 5.66 80 22:44 13.09.2022
1785 Clouds 25 1022 69 10000 4.12 100 21:42 13.09.2022
1786 Clouds 23 1020 78 10000 3.09 90 19:32 13.09.2022
1787 Clouds 22 1019 83 10000 2.57 90 17:33 13.09.2022
1788 Clouds 22 1020 83 10000 2.57 90 15:54 13.09.2022
1789 Clouds 23 1021 83 10000 3.09 90 13:54 13.09.2022
1790 Clouds 23 1022 78 10000 4.63 90 12:28 13.09.2022
1791 Clouds 24 1021 78 10000 3.6 100 08:32 13.09.2022
1792 Clouds 26 1019 73 10000 6.17 90 04:32 13.09.2022
1793 Clouds 26 1022 69 10000 5.14 100 23:32 12.09.2022
1794 Clouds 26 1022 73 10000 5.66 90 22:46 12.09.2022
1795 Clouds 25 1022 73 10000 5.66 90 21:36 12.09.2022
1796 Clouds 24 1022 78 10000 4.63 100 20:24 12.09.2022
1797 Clouds 23 1021 83 10000 4.12 90 18:42 12.09.2022
1798 Clouds 24 1020 78 10000 4.12 100 16:20 12.09.2022
1799 Clouds 24 1022 83 10000 5.14 90 13:24 12.09.2022
1800 Clouds 24 1022 83 10000 4.12 90 11:22 12.09.2022
1801 Clouds 24 1022 83 10000 4.63 90 09:35 12.09.2022
1802 Clouds 25 1019 73 10000 5.14 100 04:46 12.09.2022
1803 Clouds 26 1019 69 10000 5.14 100 03:25 12.09.2022
1804 Clouds 26 1021 69 10000 5.66 80 23:18 11.09.2022
1805 Clouds 25 1021 73 10000 7.2 80 21:41 11.09.2022
1806 Clouds 25 1020 73 10000 5.66 80 20:45 11.09.2022
1807 Clouds 24 1020 78 10000 3.6 90 19:46 11.09.2022
1808 Clouds 23 1020 83 10000 3.6 90 19:22 11.09.2022
1809 Clouds 23 1019 83 10000 3.6 90 18:20 11.09.2022
1810 Clouds 23 1019 83 10000 3.6 90 16:28 11.09.2022
1811 Clouds 23 1019 83 10000 3.09 100 14:18 11.09.2022
1812 Clouds 24 1020 78 10000 5.14 90 12:32 11.09.2022
1813 Clouds 24 1018 83 10000 4.12 90 08:27 11.09.2022
1814 Clouds 25 1018 78 10000 5.66 90 06:33 11.09.2022
1815 Clouds 27 1018 78 10000 8.23 70 00:49 11.09.2022
1816 Clouds 26 1019 78 10000 6.69 80 22:26 10.09.2022
1817 Clouds 25 1019 83 10000 6.17 90 20:51 10.09.2022
1818 Clouds 24 1018 88 10000 5.14 80 19:45 10.09.2022
1819 Clouds 24 1018 88 10000 5.14 80 19:45 10.09.2022
1820 Clouds 24 1018 88 10000 3.6 90 19:27 10.09.2022
1821 Clouds 24 1017 88 10000 5.14 90 17:59 10.09.2022
1822 Clouds 24 1017 88 10000 5.66 80 15:45 10.09.2022
1823 Clouds 24 1018 88 10000 5.66 80 14:37 10.09.2022
1824 Clouds 24 1019 88 10000 3.09 80 12:52 10.09.2022
1825 Clouds 24 1019 94 10000 5.66 80 10:35 10.09.2022
1826 Clear 24 1018 88 10000 4.12 80 08:42 10.09.2022
1827 Clear 24 1018 88 10000 4.63 90 08:23 10.09.2022
1828 Clouds 25 1017 83 10000 7.2 80 05:25 10.09.2022
1829 Clouds 27 1020 69 10000 5.66 70 23:52 09.09.2022
1830 Clouds 27 1020 74 10000 4.12 60 23:19 09.09.2022
1831 Clouds 25 1019 78 10000 5.66 80 21:24 09.09.2022
1832 Clouds 24 1019 83 10000 1.03 80 20:28 09.09.2022
1833 Clouds 21 1019 94 10000 1.03 100 19:23 09.09.2022
1834 Clouds 22 1018 88 10000 2.57 100 18:18 09.09.2022
1835 Clouds 23 1018 83 10000 2.57 90 15:45 09.09.2022
1836 Clouds 23 1019 83 10000 4.63 90 13:47 09.09.2022
1837 Clouds 23 1020 78 10000 4.63 90 11:51 09.09.2022
1838 Clouds 23 1020 83 10000 4.12 90 08:19 09.09.2022
1839 Clouds 26 1019 69 10000 7.72 80 03:43 09.09.2022
1840 Clear 26 1022 61 10000 5.66 90 00:39 09.09.2022
1841 Clouds 25 1022 65 10000 6.17 80 21:52 08.09.2022
1842 Clouds 24 1022 69 10000 4.12 90 20:49 08.09.2022
1843 Clouds 24 1022 69 10000 3.09 90 20:29 08.09.2022
1844 Clouds 23 1021 73 10000 3.6 90 19:25 08.09.2022
1845 Clouds 23 1020 73 10000 4.63 90 17:35 08.09.2022
1846 Clouds 23 1020 78 10000 5.14 90 16:18 08.09.2022
1847 Clouds 23 1022 83 10000 3.09 90 13:30 08.09.2022
1848 Clouds 23 1022 83 10000 4.63 90 12:42 08.09.2022
1849 Clouds 24 1023 78 10000 4.12 90 11:23 08.09.2022
1850 Clouds 23 1022 88 10000 3.6 90 09:46 08.09.2022
1851 Clouds 24 1021 83 10000 3.6 90 07:25 08.09.2022
1852 Clouds 26 1020 78 10000 6.69 70 04:43 08.09.2022
1853 Clouds 26 1020 78 10000 6.17 80 02:36 08.09.2022
1854 Clouds 26 1020 78 10000 6.17 80 02:18 08.09.2022
1855 Clouds 26 1022 69 10000 5.66 90 22:58 07.09.2022
1856 Clouds 25 1022 73 10000 5.14 90 21:45 07.09.2022
1857 Clouds 25 1022 78 10000 4.63 90 21:21 07.09.2022
1858 Clear 24 1021 78 10000 2.57 100 20:28 07.09.2022
1859 Clouds 23 1020 88 10000 2.06 90 18:54 07.09.2022
1860 Clouds 23 1020 83 10000 3.09 100 16:18 07.09.2022
1861 Clear 20 1021 100 10000 1.03 150 10:52 07.09.2022
1862 Clear 21 1021 94 10000 0.51 150 10:32 07.09.2022
1863 Clouds 22 1020 94 10000 1.54 150 08:26 07.09.2022
1864 Clear 25 1019 78 10000 5.14 70 05:46 07.09.2022
1865 Clear 26 1020 78 10000 5.66 70 00:31 07.09.2022
1866 Clouds 25 1021 83 10000 5.14 70 21:51 06.09.2022
1867 Clouds 25 1021 83 10000 5.14 70 21:51 06.09.2022
1868 Clouds 25 1021 78 10000 5.66 70 21:32 06.09.2022
1869 Clouds 22 1020 94 10000 2.06 90 19:38 06.09.2022
1870 Clouds 23 1019 88 10000 3.09 90 18:34 06.09.2022
1871 Clouds 23 1018 94 10000 3.09 90 17:37 06.09.2022
1872 Clouds 23 1018 88 10000 3.09 90 16:44 06.09.2022
1873 Clouds 23 1018 88 10000 3.09 90 15:55 06.09.2022
1874 Clouds 23 1019 88 10000 3.6 80 13:47 06.09.2022
1875 Clouds 23 1019 88 10000 3.6 90 13:27 06.09.2022
1876 Clouds 23 1019 94 10000 4.12 80 12:56 06.09.2022
1877 Clouds 23 1020 94 10000 3.6 80 10:54 06.09.2022
1878 Clouds 24 1019 88 10000 4.12 90 08:58 06.09.2022
1879 Clouds 24 1019 88 10000 3.6 80 07:52 06.09.2022
1880 Clouds 24 1018 88 10000 4.63 90 05:59 06.09.2022
1881 Clouds 26 1019 78 10000 7.72 80 00:20 06.09.2022
1882 Clouds 25 1019 78 10000 5.66 90 22:41 05.09.2022
1883 Clouds 24 1019 78 10000 3.09 100 20:59 05.09.2022
1884 Clouds 23 1019 83 10000 3.09 90 19:50 05.09.2022
1885 Clouds 23 1018 83 10000 3.6 100 18:49 05.09.2022
1886 Clouds 23 1018 83 10000 3.09 100 18:23 05.09.2022
1887 Clouds 23 1017 83 10000 3.6 110 17:31 05.09.2022
1888 Clouds 22 1018 83 10000 1.54 130 15:52 05.09.2022
1889 Clouds 23 1019 78 10000 2.57 120 13:39 05.09.2022
1890 Clouds 23 1019 78 10000 2.57 100 12:29 05.09.2022
1891 Clouds 23 1019 73 10000 2.57 120 10:34 05.09.2022
1892 Clouds 22 1018 78 10000 4.12 110 07:43 05.09.2022
1893 Clouds 24 1017 78 10000 3.6 130 02:50 05.09.2022
1894 Clouds 25 1018 65 10000 5.14 90 23:40 04.09.2022
1895 Clouds 25 1019 73 10000 2.57 140 22:28 04.09.2022
1896 Clouds 24 1019 73 10000 3.09 120 21:40 04.09.2022
1897 Clouds 22 1018 83 10000 4.12 140 19:39 04.09.2022
1898 Clouds 22 1016 83 10000 2.57 120 18:20 04.09.2022
1899 Clouds 20 1016 94 10000 0.51 100 17:19 04.09.2022
1900 Clouds 22 1016 83 10000 2.06 100 14:36 04.09.2022
1901 Clouds 22 1017 83 10000 3.09 90 13:52 04.09.2022
1902 Clouds 22 1017 88 10000 4.12 120 12:18 04.09.2022
1903 Clouds 22 1017 94 10000 2.06 180 10:47 04.09.2022
1904 Clouds 22 1016 100 10000 1.03 230 08:20 04.09.2022
1905 Clouds 24 1014 88 10000 2.57 210 05:35 04.09.2022
1906 Clouds 25 1015 88 10000 6.17 320 00:50 04.09.2022
1907 Clouds 25 1016 88 10000 6.17 340 22:24 03.09.2022
1908 Clouds 25 1015 88 10000 4.63 20 21:23 03.09.2022
1909 Clouds 25 1015 88 10000 4.63 20 21:23 03.09.2022
1910 Clouds 23 1014 94 10000 3.09 80 19:42 03.09.2022
1911 Clouds 21 1013 100 10000 3.09 90 17:28 03.09.2022
1912 Clouds 22 1013 94 10000 2.57 90 16:31 03.09.2022
1913 Clouds 22 1014 94 10000 2.57 80 14:45 03.09.2022
1914 Clouds 22 1014 94 10000 2.57 80 14:22 03.09.2022
1915 Rain 22 1016 88 10000 1.03 220 12:24 03.09.2022
1916 Drizzle 22 1015 94 10000 3.09 200 10:41 03.09.2022
1917 Clouds 25 1014 83 10000 2.57 320 08:29 03.09.2022
1918 Clouds 25 1014 83 10000 2.57 320 08:29 03.09.2022
1919 Clouds 25 1013 83 10000 2.57 20 06:58 03.09.2022
1920 Clouds 26 1013 78 10000 3.6 350 04:34 03.09.2022
1921 Clouds 25 1015 83 10000 3.6 360 00:29 03.09.2022
1922 Clouds 25 1015 88 10000 3.6 360 22:57 02.09.2022
1923 Clouds 25 1015 88 10000 3.09 350 20:59 02.09.2022
1924 Clouds 24 1015 88 10000 3.6 350 20:28 02.09.2022
1925 Clouds 23 1014 94 10000 1.03 50 19:22 02.09.2022
1926 Rain 23 1014 88 8000 4.12 310 18:28 02.09.2022
1927 Clouds 24 1013 88 10000 3.09 360 17:43 02.09.2022
1928 Clouds 23 1013 94 10000 2.06 80 16:47 02.09.2022
1929 Clouds 23 1014 94 10000 1.03 160 13:55 02.09.2022
1930 Clouds 23 1015 94 10000 1.03 180 12:36 02.09.2022
1931 Rain 22 1015 100 10000 1.03 150 10:19 02.09.2022
1932 Rain 22 1015 94 2800 7.2 270 09:39 02.09.2022
1933 Clouds 25 1014 88 10000 3.09 360 07:30 02.09.2022
1934 Clouds 25 1014 88 10000 3.09 360 07:30 02.09.2022
1935 Clouds 25 1014 88 10000 3.09 360 06:36 02.09.2022
1936 Clouds 26 1014 83 10000 3.6 10 02:37 02.09.2022
1937 Clouds 26 1016 83 10000 3.6 20 22:30 01.09.2022
1938 Clouds 26 1016 89 10000 2.57 40 21:43 01.09.2022
1939 Clouds 25 1016 88 10000 2.06 20 21:23 01.09.2022
1940 Clouds 25 1016 88 10000 1.54 20 20:37 01.09.2022
1941 Clouds 24 1015 94 10000 1.54 50 18:49 01.09.2022
1942 Clouds 23 1014 94 10000 1.54 80 17:21 01.09.2022
1943 Clouds 21 1015 100 10000 1.54 80 15:34 01.09.2022
1944 Clear 21 1016 100 10000 1.03 80 13:48 01.09.2022
1945 Clear 21 1016 100 10000 1.03 100 12:57 01.09.2022
1946 Clouds 21 1017 100 10000 1.03 80 11:52 01.09.2022
1947 Clouds 21 1017 100 10000 0.51 180 11:29 01.09.2022
1948 Clouds 23 1017 94 10000 0.51 10 09:49 01.09.2022
1949 Clouds 23 1016 88 10000 1.54 40 07:50 01.09.2022
1950 Clouds 25 1015 83 10000 2.06 290 05:56 01.09.2022
1951 Clouds 26 1016 83 10000 3.09 340 01:31 01.09.2022
1952 Clouds 26 1017 83 10000 3.09 360 22:56 31.08.2022
1953 Clouds 25 1017 88 10000 2.06 360 20:45 31.08.2022
1954 Clouds 24 1015 94 10000 2.57 320 18:47 31.08.2022
1955 Clouds 24 1014 88 10000 3.6 350 16:47 31.08.2022
1956 Clouds 24 1015 94 10000 2.06 330 15:25 31.08.2022
1957 Clouds 24 1016 88 10000 2.57 340 13:37 31.08.2022
1958 Clouds 24 1017 88 10000 3.09 350 11:55 31.08.2022
1959 Clouds 25 1017 88 10000 2.06 340 09:36 31.08.2022
1960 Clouds 25 1016 83 10000 3.09 20 08:26 31.08.2022
1961 Clouds 26 1015 73 10000 3.6 70 02:58 31.08.2022
1962 Clouds 23 1017 88 10000 3.09 90 22:24 30.08.2022
1963 Clouds 24 1017 88 10000 2.06 80 21:28 30.08.2022
1964 Clouds 23 1017 88 10000 1.03 120 20:26 30.08.2022
1965 Clouds 22 1015 94 10000 2.06 100 16:58 30.08.2022
1966 Clouds 23 1016 88 10000 3.6 90 13:51 30.08.2022
1967 Clouds 20 1016 100 10000 0.51 80 11:58 30.08.2022
1968 Clouds 20 1016 100 10000 1.03 70 11:20 30.08.2022
1969 Clouds 21 1016 94 10000 0.51 160 09:33 30.08.2022
1970 Clouds 24 1015 78 10000 2.06 100 06:48 30.08.2022
1971 Clouds 26 1016 78 10000 3.6 50 00:33 30.08.2022
1972 Clouds 25 1017 78 10000 2.57 30 22:37 29.08.2022
1973 Clouds 25 1017 83 10000 2.06 40 21:51 29.08.2022
1974 Clouds 21 1015 100 10000 0.51 180 20:35 29.08.2022
1975 Clear 19 1014 100 10000 1.03 160 18:58 29.08.2022
1976 Clear 19 1014 100 10000 0.51 160 17:32 29.08.2022
1977 Clear 19 1014 100 10000 0.51 150 16:57 29.08.2022
1978 Clear 20 1014 100 10000 0.51 100 15:18 29.08.2022
1979 Clear 20 1015 100 10000 0.51 130 13:42 29.08.2022
1980 Clear 20 1015 100 10000 0.51 150 12:20 29.08.2022
1981 Clear 21 1016 100 10000 0.51 110 10:42 29.08.2022
1982 Clear 22 1015 88 10000 1.54 90 08:53 29.08.2022
1983 Clouds 25 1014 73 10000 1.54 40 06:30 29.08.2022
1984 Clouds 26 1014 73 10000 3.6 40 01:58 29.08.2022
1985 Clouds 26 1017 78 10000 4.63 60 22:55 28.08.2022
1986 Clouds 25 1016 78 10000 4.63 60 21:46 28.08.2022
1987 Clouds 24 1016 83 10000 4.12 60 20:59 28.08.2022
1988 Clouds 23 1015 88 10000 2.57 90 19:44 28.08.2022
1989 Clouds 22 1015 94 10000 2.57 90 18:22 28.08.2022
1990 Clouds 23 1015 88 10000 4.12 70 17:40 28.08.2022
1991 Clouds 23 1015 88 10000 6.17 70 16:33 28.08.2022
1992 Clouds 22 1016 94 10000 4.12 90 14:44 28.08.2022
1993 Clouds 22 1018 88 10000 3.6 80 12:49 28.08.2022
1994 Clear 22 1018 94 10000 2.57 90 10:51 28.08.2022
1995 Clear 22 1018 94 10000 1.54 110 09:56 28.08.2022
1996 Clear 22 1018 94 10000 0.51 160 08:39 28.08.2022
1997 Clouds 22 1018 94 10000 1.54 170 07:48 28.08.2022
1998 Clouds 26 1017 69 10000 5.14 90 03:32 28.08.2022
1999 Clouds 26 1018 69 10000 7.72 80 00:31 28.08.2022
2000 Clouds 25 1019 69 10000 6.69 90 22:38 27.08.2022
2001 Clouds 24 1018 69 10000 5.14 90 21:40 27.08.2022
2002 Clouds 23 1018 73 10000 3.09 100 19:57 27.08.2022
2003 Clouds 22 1018 78 10000 4.12 90 18:27 27.08.2022
2004 Clouds 22 1018 78 10000 3.6 100 15:53 27.08.2022
2005 Clouds 22 1018 78 10000 2.57 100 15:25 27.08.2022
2006 Clouds 23 1019 78 10000 4.12 90 12:30 27.08.2022
2007 Clouds 23 1019 78 10000 4.12 90 11:32 27.08.2022
2008 Clouds 23 1019 78 10000 4.12 90 11:32 27.08.2022
2009 Clouds 23 1019 78 10000 6.17 90 09:49 27.08.2022
2010 Clouds 23 1018 78 10000 6.17 90 08:22 27.08.2022
2011 Clouds 25 1018 73 10000 8.23 80 03:40 27.08.2022
2012 Clouds 26 1020 65 10000 5.14 80 23:57 26.08.2022
2013 Clouds 25 1020 65 10000 2.06 120 22:40 26.08.2022
2014 Clear 24 1019 69 10000 2.57 130 21:19 26.08.2022
2015 Clear 20 1018 77 10000 1.54 130 19:23 26.08.2022
2016 Clear 22 1017 68 10000 2.57 130 16:50 26.08.2022
2017 Clear 21 1017 73 10000 2.06 110 15:31 26.08.2022
2018 Clouds 21 1018 73 10000 2.06 120 14:30 26.08.2022
2019 Clouds 21 1018 73 10000 1.54 120 12:49 26.08.2022
2020 Drizzle 21 1018 78 10000 1.54 140 11:27 26.08.2022
2021 Clouds 22 1018 73 10000 2.06 100 10:29 26.08.2022
2022 Clouds 23 1017 68 10000 3.6 110 07:28 26.08.2022
2023 Clouds 24 1017 73 10000 5.66 100 01:41 26.08.2022
2024 Clouds 24 1019 73 10000 4.63 90 23:32 25.08.2022
2025 Clouds 23 1018 83 10000 3.6 90 21:27 25.08.2022
2026 Clouds 21 1017 88 10000 4.12 90 20:29 25.08.2022
2027 Rain 21 1016 88 10000 4.63 100 18:53 25.08.2022
2028 Rain 21 1016 94 10000 5.14 80 17:44 25.08.2022
2029 Rain 20 1016 94 10000 1.03 110 17:24 25.08.2022
2030 Rain 21 1017 88 8000 1.54 120 15:39 25.08.2022
2031 Clouds 21 1017 88 10000 1.03 160 14:33 25.08.2022
2032 Rain 21 1018 94 10000 1.54 130 11:53 25.08.2022
2033 Clouds 22 1018 83 10000 1.54 120 10:46 25.08.2022
2034 Clouds 23 1018 73 10000 2.57 120 08:52 25.08.2022
2035 Clouds 24 1016 69 10000 3.6 90 05:19 25.08.2022
2036 Clouds 24 1017 69 10000 5.14 90 00:30 25.08.2022
2037 Clouds 25 1018 69 10000 4.12 90 23:25 24.08.2022
2038 Clouds 24 1018 69 10000 4.12 90 22:21 24.08.2022
2039 Clouds 24 1018 69 10000 3.09 100 21:33 24.08.2022
2040 Clouds 23 1017 73 10000 2.57 100 20:24 24.08.2022
2041 Clouds 22 1017 78 10000 2.06 120 18:39 24.08.2022
2042 Clouds 22 1016 78 10000 2.57 100 16:23 24.08.2022
2043 Clouds 22 1016 78 10000 2.06 110 15:48 24.08.2022
2044 Clouds 22 1019 78 10000 2.57 110 12:53 24.08.2022
2045 Clouds 22 1019 73 10000 2.06 110 11:22 24.08.2022
2046 Clouds 22 1020 78 10000 1.54 130 09:19 24.08.2022
2047 Clouds 22 1019 78 10000 3.6 80 07:33 24.08.2022
2048 Clouds 25 1018 73 10000 8.75 70 01:43 24.08.2022
2049 Clouds 25 1019 73 10000 8.23 80 22:53 23.08.2022
2050 Clouds 25 1019 73 10000 9.26 80 22:24 23.08.2022
2051 Rain 23 1019 83 10000 6.17 90 21:21 23.08.2022
2052 Rain 22 1018 88 10000 6.17 90 19:43 23.08.2022
2053 Rain 22 1018 88 10000 4.12 90 18:30 23.08.2022
2054 Rain 21 1018 94 10000 4.63 80 17:43 23.08.2022
2055 Rain 20 1018 94 6000 6.17 70 16:33 23.08.2022
2056 Clouds 23 1019 88 10000 5.66 80 14:55 23.08.2022
2057 Clouds 22 1019 94 10000 4.12 90 13:25 23.08.2022
2058 Clouds 22 1019 94 10000 5.14 80 11:19 23.08.2022
2059 Clouds 22 1019 94 10000 6.17 80 10:33 23.08.2022
2060 Clouds 22 1020 88 10000 5.14 80 09:46 23.08.2022
2061 Clouds 23 1019 83 10000 4.63 90 08:47 23.08.2022
2062 Clouds 22 1019 88 10000 4.12 80 08:19 23.08.2022
2063 Clouds 22 1019 83 10000 4.12 90 07:33 23.08.2022
2064 Clouds 22 1018 88 10000 4.63 90 06:25 23.08.2022
2065 Clouds 26 1019 73 10000 5.66 70 01:52 23.08.2022
2066 Clouds 26 1019 69 10000 5.66 80 00:27 23.08.2022
2067 Clouds 25 1019 73 10000 2.57 70 23:32 22.08.2022
2068 Rain 22 1020 78 10000 3.09 110 22:25 22.08.2022
2069 Rain 20 1020 94 10000 1.54 120 20:53 22.08.2022
2070 Rain 20 1020 94 10000 6.17 80 19:46 22.08.2022
2071 Rain 20 1019 100 10000 5.14 90 18:37 22.08.2022
2072 Rain 20 1019 88 10000 5.66 70 16:23 22.08.2022
2073 Rain 21 1019 88 10000 3.6 100 15:22 22.08.2022
2074 Clouds 20 1019 100 10000 1.03 150 12:53 22.08.2022
2075 Clouds 21 1019 94 10000 1.03 190 09:27 22.08.2022
2076 Clouds 23 1018 88 10000 1.54 80 06:58 22.08.2022
2077 Clouds 24 1018 94 9000 6.17 40 02:28 22.08.2022
2078 Clouds 24 1018 88 10000 6.17 60 00:37 22.08.2022
2079 Clouds 24 1018 88 10000 6.17 70 23:32 21.08.2022
2080 Clouds 23 1018 94 10000 3.09 90 21:56 21.08.2022
2081 Clouds 23 1018 88 10000 4.63 90 21:20 21.08.2022
2082 Clouds 23 1017 83 10000 3.6 90 20:20 21.08.2022
2083 Clouds 23 1016 78 10000 3.6 90 18:49 21.08.2022
2084 Clouds 21 1015 94 10000 0.51 140 16:50 21.08.2022
2085 Clouds 20 1015 100 10000 1.03 220 15:52 21.08.2022
2086 Mist 20 1016 100 2800 0.51 100 14:51 21.08.2022
2087 Clouds 21 1017 94 10000 1.03 180 13:50 21.08.2022
2088 Clouds 21 1017 100 10000 0.51 200 12:56 21.08.2022
2089 Clouds 24 1017 78 10000 4.12 330 10:40 21.08.2022
2090 Rain 24 1016 78 10000 5.14 360 08:57 21.08.2022
2091 Clouds 24 1015 78 10000 5.66 340 08:39 21.08.2022
2092 Clouds 24 1015 78 10000 5.66 340 08:18 21.08.2022
2093 Clouds 24 1015 78 10000 3.09 360 06:33 21.08.2022
2094 Clouds 25 1014 83 10000 3.09 10 01:47 21.08.2022
2095 Clouds 25 1016 83 10000 4.12 360 23:32 20.08.2022
2096 Clouds 25 1016 78 10000 5.66 340 21:51 20.08.2022
2097 Rain 23 1015 94 4400 5.14 340 20:50 20.08.2022
2098 Clouds 24 1014 88 10000 4.63 340 19:42 20.08.2022
2099 Clouds 24 1013 88 10000 5.66 330 18:45 20.08.2022
2100 Rain 24 1012 88 10000 6.17 330 18:25 20.08.2022
2101 Clouds 24 1012 83 10000 7.72 340 17:20 20.08.2022
2102 Clouds 23 1012 94 10000 5.14 340 15:52 20.08.2022
2103 Rain 23 1013 94 10000 7.2 340 13:48 20.08.2022
2104 Clouds 23 1013 94 10000 4.12 350 11:54 20.08.2022
2105 Rain 23 1013 88 7000 4.63 340 11:24 20.08.2022
2106 Rain 22 1013 94 3000 3.6 330 09:20 20.08.2022
2107 Rain 22 1011 94 5000 3.6 50 06:40 20.08.2022
2108 Clouds 24 1011 83 10000 4.63 70 04:40 20.08.2022
2109 Clear 24 1012 78 10000 4.12 80 00:53 20.08.2022
2110 Clouds 24 1013 83 10000 6.17 70 23:21 19.08.2022
2111 Clouds 23 1012 83 10000 5.14 70 22:35 19.08.2022
2112 Clouds 19 1011 100 10000 0.51 150 20:30 19.08.2022
2113 Rain 19 1010 100 10000 1.03 200 18:53 19.08.2022
2114 Rain 19 1010 100 10000 0.51 100 15:54 19.08.2022
2115 Rain 19 1012 88 10000 2.57 200 13:40 19.08.2022
2116 Rain 18 1012 100 2400 3.6 200 11:39 19.08.2022
2117 Rain 18 1011 88 10000 3.6 210 10:29 19.08.2022
2118 Clouds 22 1009 88 10000 7.2 80 07:21 19.08.2022
2119 Clouds 24 1010 69 10000 8.75 70 01:24 19.08.2022
2120 Clouds 24 1011 69 10000 7.72 70 00:31 19.08.2022
2121 Clouds 24 1011 64 10000 7.72 70 23:48 18.08.2022
2122 Clouds 23 1012 68 10000 7.72 60 22:52 18.08.2022
2123 Clouds 23 1012 68 10000 6.17 50 22:18 18.08.2022
2124 Clouds 23 1012 64 10000 2.06 50 21:40 18.08.2022
2125 Clouds 19 1011 82 10000 1.03 120 20:27 18.08.2022
2126 Clouds 19 1011 82 10000 1.54 150 19:30 18.08.2022
2127 Clouds 19 1010 88 10000 2.06 170 17:55 18.08.2022
2128 Clouds 18 1010 88 10000 0.51 140 17:18 18.08.2022
2129 Clouds 20 1010 83 10000 3.6 80 14:57 18.08.2022
2130 Clouds 21 1010 73 10000 2.57 90 14:19 18.08.2022
2131 Clouds 21 1010 73 10000 5.66 130 13:29 18.08.2022
2132 Clouds 21 1011 73 10000 7.2 140 11:42 18.08.2022
2133 Rain 21 1013 73 10000 2.57 110 09:43 18.08.2022
2134 Clouds 21 1013 73 10000 4.63 120 08:40 18.08.2022
2135 Rain 20 1013 73 10000 5.14 130 07:19 18.08.2022
2136 Clouds 22 1013 64 10000 6.17 130 04:36 18.08.2022
2137 Clouds 21 1017 73 10000 4.63 130 23:35 17.08.2022
2138 Clouds 21 1017 68 10000 7.2 130 21:46 17.08.2022
2139 Rain 20 1018 68 10000 5.14 130 20:19 17.08.2022
2140 Clouds 20 1017 68 10000 6.17 130 19:29 17.08.2022
2141 Clouds 19 1017 77 10000 4.12 140 17:36 17.08.2022
2142 Clouds 19 1018 72 10000 4.12 130 16:35 17.08.2022
2143 Clouds 20 1018 68 10000 3.6 130 15:26 17.08.2022
2144 Clouds 20 1020 64 10000 2.57 140 12:57 17.08.2022
2145 Clouds 20 1020 68 10000 2.57 130 11:37 17.08.2022
2146 Clouds 21 1020 46 10000 3.6 110 09:31 17.08.2022
2147 Rain 21 1020 60 10000 3.09 120 08:23 17.08.2022
2148 Clouds 22 1019 53 10000 4.12 120 03:27 17.08.2022
2149 Clouds 23 1021 49 10000 4.12 120 23:58 16.08.2022
2150 Clouds 22 1022 49 10000 5.14 120 22:30 16.08.2022
2151 Clouds 21 1022 56 10000 4.12 130 20:52 16.08.2022
2152 Clouds 21 1022 56 10000 5.66 120 19:53 16.08.2022
2153 Rain 20 1021 73 10000 4.63 120 18:34 16.08.2022
2154 Clouds 21 1020 64 10000 4.63 140 17:40 16.08.2022
2155 Clouds 21 1021 64 10000 4.63 130 15:47 16.08.2022
2156 Clouds 21 1021 64 10000 5.14 120 14:55 16.08.2022
2157 Clouds 21 1021 64 10000 3.6 130 14:37 16.08.2022
2158 Clouds 21 1022 64 10000 5.14 110 12:43 16.08.2022
2159 Clouds 21 1022 60 10000 3.6 130 10:35 16.08.2022
2160 Clouds 22 1022 56 10000 4.12 140 09:43 16.08.2022
2161 Clouds 21 1021 60 10000 5.14 130 08:43 16.08.2022
2162 Clouds 21 1021 56 10000 5.66 130 07:23 16.08.2022
2163 Clouds 23 1021 53 10000 4.63 120 01:35 16.08.2022
2164 Clouds 22 1022 60 10000 4.12 140 22:29 15.08.2022
2165 Clouds 22 1022 60 10000 3.6 130 21:53 15.08.2022
2166 Clouds 21 1022 68 10000 5.66 140 20:47 15.08.2022
2167 Clouds 21 1021 68 10000 4.63 140 20:18 15.08.2022
2168 Clouds 21 1020 68 10000 4.63 120 18:31 15.08.2022
2169 Drizzle 21 1020 78 10000 4.63 120 16:40 15.08.2022
2170 Drizzle 21 1020 78 10000 4.63 120 16:40 15.08.2022
2171 Drizzle 21 1020 78 10000 4.63 120 16:20 15.08.2022
2172 Clouds 21 1020 73 10000 3.09 120 13:55 15.08.2022
2173 Rain 21 1021 78 10000 2.57 130 12:24 15.08.2022
2174 Rain 21 1020 78 10000 4.63 150 09:57 15.08.2022
2175 Rain 21 1018 78 10000 6.69 140 08:21 15.08.2022
2176 Rain 21 1018 88 3700 3.6 140 04:36 15.08.2022
2177 Clouds 22 1018 78 10000 2.57 160 01:26 15.08.2022
2178 Clouds 22 1019 83 10000 2.06 90 22:39 14.08.2022
2179 Clouds 22 1019 83 10000 1.03 100 21:38 14.08.2022
2180 Rain 21 1018 88 10000 1.03 160 19:54 14.08.2022
2181 Clouds 21 1017 83 10000 1.03 260 18:58 14.08.2022
2182 Clouds 22 1017 78 10000 1.54 40 18:19 14.08.2022
2183 Clouds 21 1016 83 10000 3.6 90 16:53 14.08.2022
2184 Clouds 21 1016 78 10000 1.03 60 15:48 14.08.2022
2185 Clouds 20 1016 88 10000 4.12 60 14:27 14.08.2022
2186 Clouds 21 1016 83 10000 3.09 60 13:50 14.08.2022
2187 Clouds 20 1017 88 10000 2.57 50 13:19 14.08.2022
2188 Clouds 20 1017 88 10000 1.54 190 12:23 14.08.2022
2189 Clouds 22 1016 73 10000 2.57 150 10:49 14.08.2022
2190 Clouds 22 1016 73 10000 4.12 190 08:51 14.08.2022
2191 Drizzle 21 1015 94 6000 4.12 180 06:22 14.08.2022
2192 Clouds 24 1014 88 10000 2.57 220 02:48 14.08.2022
2193 Clouds 24 1016 83 10000 2.06 200 23:53 13.08.2022
2194 Clouds 24 1016 88 10000 2.57 210 22:52 13.08.2022
2195 Rain 23 1015 94 1100 1.03 210 20:58 13.08.2022
2196 Clouds 23 1015 94 10000 0.51 190 20:31 13.08.2022
2197 Clouds 23 1014 94 10000 1.03 190 19:29 13.08.2022
2198 Clouds 23 1013 94 10000 1.03 210 17:40 13.08.2022
2199 Clouds 24 1014 94 10000 4.63 300 15:23 13.08.2022
2200 Clouds 24 1014 94 10000 3.6 330 14:27 13.08.2022
2201 Clouds 25 1015 94 10000 2.57 330 13:38 13.08.2022
2202 Clouds 25 1015 94 10000 2.57 320 11:52 13.08.2022
2203 Clouds 25 1016 94 10000 2.57 320 10:21 13.08.2022
2204 Clouds 24 1014 94 10000 2.57 300 08:23 13.08.2022
2205 Clouds 24 1014 94 10000 2.57 300 08:23 13.08.2022
2206 Clouds 24 1014 94 10000 2.57 300 08:23 13.08.2022
2207 Clouds 26 1013 83 10000 3.09 330 04:21 13.08.2022
2208 Clear 26 1015 83 10000 4.12 350 23:47 12.08.2022
2209 Clouds 25 1015 83 10000 3.09 350 21:42 12.08.2022
2210 Clouds 24 1015 94 10000 3.6 350 20:40 12.08.2022
2211 Clouds 24 1015 88 10000 4.12 350 19:36 12.08.2022
2212 Clouds 24 1014 88 10000 3.6 10 18:38 12.08.2022
2213 Clouds 24 1014 88 10000 3.09 20 16:28 12.08.2022
2214 Clouds 24 1015 88 10000 3.09 20 15:31 12.08.2022
2215 Clouds 24 1015 94 10000 3.6 40 14:27 12.08.2022
2216 Clouds 24 1016 88 10000 4.12 40 12:51 12.08.2022
2217 Clouds 24 1016 88 10000 4.63 40 09:50 12.08.2022
2218 Clouds 24 1015 83 10000 5.66 40 07:47 12.08.2022
2219 Clouds 25 1015 78 10000 5.66 40 06:28 12.08.2022
2220 Clouds 26 1016 73 10000 5.66 50 01:45 12.08.2022
2221 Clouds 26 1016 73 10000 6.17 50 00:20 12.08.2022
2222 Clouds 25 1017 73 10000 6.17 50 23:29 11.08.2022
2223 Clouds 24 1017 83 10000 5.66 70 21:57 11.08.2022
2224 Clouds 24 1017 78 10000 6.17 70 21:34 11.08.2022
2225 Clouds 23 1016 83 10000 6.17 60 20:31 11.08.2022
2226 Clouds 23 1016 83 10000 6.17 70 19:53 11.08.2022
2227 Clouds 22 1015 88 10000 6.17 70 19:29 11.08.2022
2228 Clouds 23 1015 78 10000 5.14 70 17:34 11.08.2022
2229 Clouds 22 1015 83 10000 4.12 70 16:19 11.08.2022
2230 Clouds 23 1016 78 10000 5.14 60 15:20 11.08.2022
2231 Clouds 22 1016 83 10000 3.09 90 12:39 11.08.2022
2232 Rain 23 1016 83 10000 4.63 70 09:29 11.08.2022
2233 Clouds 23 1014 78 10000 5.14 70 06:59 11.08.2022
2234 Clouds 25 1014 69 10000 7.2 70 03:25 11.08.2022
2235 Clouds 25 1017 65 10000 7.2 80 00:28 11.08.2022
2236 Clouds 24 1017 73 10000 6.17 90 22:18 10.08.2022
2237 Clouds 24 1017 73 10000 2.06 110 21:20 10.08.2022
2238 Clear 23 1017 73 10000 2.06 100 20:43 10.08.2022
2239 Clear 23 1017 73 10000 2.06 100 20:43 10.08.2022
2240 Clear 20 1016 88 10000 1.54 130 18:53 10.08.2022
2241 Clouds 21 1015 83 10000 2.06 150 17:31 10.08.2022
2242 Clear 21 1016 83 10000 2.06 120 15:53 10.08.2022
2243 Clouds 21 1017 88 10000 2.06 120 13:34 10.08.2022
2244 Rain 22 1017 83 10000 2.57 110 12:24 10.08.2022
2245 Rain 22 1016 78 10000 5.66 100 08:45 10.08.2022
2246 Clouds 23 1016 73 10000 3.6 110 07:44 10.08.2022
2247 Clouds 24 1015 69 10000 4.63 100 05:53 10.08.2022
2248 Clouds 25 1016 65 10000 5.14 100 02:44 10.08.2022
2249 Clouds 25 1018 69 10000 6.17 90 23:33 09.08.2022
2250 Clouds 25 1018 69 10000 6.69 90 22:48 09.08.2022
2251 Clouds 23 1017 73 10000 4.63 90 21:34 09.08.2022
2252 Clouds 22 1016 78 10000 5.66 90 19:33 09.08.2022
2253 Clouds 22 1016 73 10000 4.63 100 17:59 09.08.2022
2254 Clouds 21 1016 78 10000 3.6 110 17:26 09.08.2022
2255 Clouds 20 1017 88 10000 1.54 150 16:40 09.08.2022
2256 Clouds 22 1017 78 10000 2.57 120 15:31 09.08.2022
2257 Clouds 22 1018 78 10000 4.12 90 12:20 09.08.2022
2258 Clouds 23 1018 68 10000 4.12 100 08:55 09.08.2022
2259 Clouds 22 1018 68 10000 4.12 90 08:26 09.08.2022
2260 Clouds 23 1017 64 10000 5.14 100 07:18 09.08.2022
2261 Clouds 24 1017 60 10000 8.23 90 02:27 09.08.2022
2262 Clouds 25 1019 69 10000 8.23 90 23:26 08.08.2022
2263 Clouds 25 1019 65 10000 9.77 80 22:52 08.08.2022
2264 Clouds 24 1019 69 10000 6.69 100 21:47 08.08.2022
2265 Clouds 21 1019 83 8000 7.2 90 20:51 08.08.2022
2266 Clouds 22 1018 78 10000 5.66 100 19:50 08.08.2022
2267 Clouds 22 1017 73 10000 3.09 110 18:19 08.08.2022
2268 Clouds 22 1017 68 10000 5.66 100 15:57 08.08.2022
2269 Clouds 22 1018 73 10000 5.14 100 15:38 08.08.2022
2270 Clouds 23 1018 68 10000 7.2 90 12:35 08.08.2022
2271 Clouds 23 1018 73 10000 6.17 100 10:50 08.08.2022
2272 Clouds 23 1018 60 10000 7.72 90 08:20 08.08.2022
2273 Clouds 23 1017 73 10000 4.63 100 04:45 08.08.2022
2274 Clouds 24 1018 60 10000 8.75 90 01:29 08.08.2022
2275 Clouds 23 1019 64 10000 7.2 110 21:42 07.08.2022
2276 Clouds 23 1019 64 10000 7.2 110 21:24 07.08.2022
2277 Clouds 22 1019 68 10000 5.14 100 20:24 07.08.2022
2278 Clouds 21 1018 78 10000 4.12 110 19:52 07.08.2022
2279 Rain 21 1018 78 10000 5.14 110 19:22 07.08.2022
2280 Clouds 22 1017 68 10000 5.66 100 17:45 07.08.2022
2281 Clouds 22 1018 68 10000 6.17 90 16:52 07.08.2022
2282 Clouds 23 1017 64 10000 7.2 100 15:39 07.08.2022
2283 Clouds 22 1018 68 10000 7.2 100 13:58 07.08.2022
2284 Clouds 21 1019 83 8000 4.63 100 12:41 07.08.2022
2285 Clouds 21 1019 78 10000 7.72 100 10:51 07.08.2022
2286 Clouds 22 1019 78 10000 7.72 100 10:20 07.08.2022
2287 Clouds 25 1017 61 10000 8.75 90 04:37 07.08.2022
2288 Clouds 24 1018 69 10000 9.26 80 02:18 07.08.2022
2289 Haze 21 1020 94 2800 9.77 80 22:34 06.08.2022
2290 Clouds 23 1020 73 10000 5.14 90 21:52 06.08.2022
2291 Clouds 23 1019 73 10000 5.66 100 19:46 06.08.2022
2292 Clouds 23 1018 78 10000 5.66 100 18:38 06.08.2022
2293 Clouds 22 1018 78 10000 5.14 100 17:45 06.08.2022
2294 Clouds 23 1018 78 10000 6.17 90 16:19 06.08.2022
2295 Clouds 23 1019 68 10000 3.6 100 13:51 06.08.2022
2296 Clouds 23 1019 73 10000 5.14 100 12:27 06.08.2022
2297 Clouds 23 1019 68 10000 4.63 100 10:53 06.08.2022
2298 Clouds 23 1019 73 10000 5.14 90 09:31 06.08.2022
2299 Clouds 24 1017 73 10000 7.72 80 04:38 06.08.2022
2300 Clouds 24 1019 73 10000 8.75 80 00:46 06.08.2022
2301 Clouds 24 1020 69 10000 7.2 100 22:35 05.08.2022
2302 Clouds 23 1019 73 10000 5.66 100 20:37 05.08.2022
2303 Clouds 22 1019 78 10000 4.63 100 18:55 05.08.2022
2304 Clouds 22 1019 73 10000 4.63 100 18:36 05.08.2022
2305 Clouds 22 1019 83 10000 4.63 100 16:52 05.08.2022
2306 Clouds 23 1018 78 10000 5.14 90 15:24 05.08.2022
2307 Clouds 23 1018 78 10000 4.63 90 14:34 05.08.2022
2308 Clouds 23 1019 83 10000 8.23 80 13:26 05.08.2022
2309 Clouds 23 1019 78 10000 8.23 80 12:59 05.08.2022
2310 Clouds 23 1019 83 10000 8.23 80 11:20 05.08.2022
2311 Clear 23 1018 83 10000 8.75 80 08:46 05.08.2022
2312 Clouds 24 1017 73 10000 7.2 80 07:33 05.08.2022
2313 Clouds 25 1017 73 10000 7.2 90 02:33 05.08.2022
2314 Clouds 25 1019 73 10000 8.23 80 22:43 04.08.2022
2315 Clear 24 1019 73 10000 7.2 90 21:28 04.08.2022
2316 Clouds 23 1019 78 10000 7.72 90 20:53 04.08.2022
2317 Clouds 23 1019 78 10000 6.69 90 20:33 04.08.2022
2318 Clouds 23 1019 73 10000 7.72 90 18:57 04.08.2022
2319 Clouds 23 1018 73 10000 6.69 80 18:33 04.08.2022
2320 Clouds 23 1019 68 10000 7.72 90 14:50 04.08.2022
2321 Clouds 23 1019 73 10000 5.14 100 13:23 04.08.2022
2322 Clouds 23 1019 73 10000 5.14 100 11:38 04.08.2022
2323 Clouds 23 1019 68 10000 4.63 100 09:58 04.08.2022
2324 Clouds 23 1019 68 10000 4.12 100 07:44 04.08.2022
2325 Clouds 25 1020 61 10000 7.2 90 02:46 04.08.2022
2326 Clouds 25 1021 57 10000 5.66 90 23:58 03.08.2022
2327 Clouds 24 1022 64 10000 8.23 80 23:36 03.08.2022
2328 Clouds 24 1022 53 10000 7.2 90 21:26 03.08.2022
2329 Clouds 23 1021 60 10000 6.69 90 20:19 03.08.2022
2330 Clouds 23 1020 53 10000 5.66 90 18:40 03.08.2022
2331 Clouds 23 1020 60 10000 3.6 110 16:27 03.08.2022
2332 Clouds 23 1020 60 10000 4.63 100 15:53 03.08.2022
2333 Clouds 23 1021 56 10000 4.12 100 13:32 03.08.2022
2334 Clouds 24 1021 53 10000 4.63 110 09:55 03.08.2022
2335 Clouds 24 1020 53 10000 4.12 100 06:46 03.08.2022
2336 Clouds 24 1020 60 10000 5.14 100 04:22 03.08.2022
2337 Clouds 25 1020 53 10000 4.63 90 03:22 03.08.2022
2338 Clouds 25 1022 53 10000 5.14 120 23:54 02.08.2022
2339 Clouds 24 1023 60 10000 4.12 100 21:59 02.08.2022
2340 Clouds 24 1022 57 10000 2.57 110 21:41 02.08.2022
2341 Clouds 23 1022 56 10000 4.12 100 20:25 02.08.2022
2342 Clouds 23 1021 60 10000 3.09 110 16:51 02.08.2022
2343 Clouds 23 1021 60 10000 2.06 110 13:54 02.08.2022
2344 Clouds 23 1022 68 10000 3.09 110 10:34 02.08.2022
2345 Clouds 23 1022 73 10000 2.06 120 08:36 02.08.2022
2346 Clouds 24 1021 60 10000 2.06 120 07:51 02.08.2022
2347 Clouds 25 1020 57 10000 4.63 100 04:56 02.08.2022
2348 Clouds 25 1020 61 10000 6.17 80 02:30 02.08.2022
2349 Clouds 26 1021 65 10000 7.72 70 23:25 01.08.2022
2350 Clouds 24 1021 73 10000 7.2 80 21:42 01.08.2022
2351 Clouds 24 1021 73 10000 5.66 90 20:19 01.08.2022
2352 Clouds 23 1020 78 10000 4.63 90 18:55 01.08.2022
2353 Clouds 23 1020 83 10000 5.14 90 16:56 01.08.2022
2354 Clouds 23 1020 88 10000 6.69 80 16:33 01.08.2022
2355 Clouds 24 1020 83 10000 6.17 80 15:44 01.08.2022
2356 Clouds 23 1020 88 10000 4.63 90 14:45 01.08.2022
2357 Clouds 23 1021 88 10000 5.14 90 13:32 01.08.2022
2358 Clouds 23 1021 88 10000 7.72 80 11:18 01.08.2022
2359 Clouds 23 1021 88 10000 4.12 90 08:55 01.08.2022
2360 Clouds 23 1020 88 10000 4.63 80 07:23 01.08.2022
2361 Clouds 23 1019 88 10000 5.66 90 04:32 01.08.2022
2362 Clouds 26 1020 65 10000 6.69 90 01:23 01.08.2022
2363 Clouds 25 1022 65 10000 5.66 90 22:44 31.07.2022
2364 Clouds 25 1022 65 10000 5.66 90 22:25 31.07.2022
2365 Clouds 23 1021 68 10000 3.09 100 20:28 31.07.2022
2366 Clouds 23 1020 64 10000 3.6 90 18:39 31.07.2022
2367 Clouds 23 1020 68 10000 5.14 100 16:26 31.07.2022
2368 Clouds 24 1021 69 10000 4.63 100 14:33 31.07.2022
2369 Clouds 24 1021 73 10000 5.66 90 12:58 31.07.2022
2370 Clouds 24 1021 69 10000 7.72 90 11:37 31.07.2022
2371 Clouds 24 1021 73 10000 6.69 90 08:46 31.07.2022
2372 Clouds 25 1020 69 10000 8.23 80 05:20 31.07.2022
2373 Clouds 26 1021 73 10000 9.26 70 01:20 31.07.2022
2374 Clouds 26 1022 73 10000 10.29 80 22:40 30.07.2022
2375 Clouds 25 1022 78 10000 8.23 80 21:50 30.07.2022
2376 Clouds 25 1022 78 10000 8.23 80 21:32 30.07.2022
2377 Clouds 24 1021 83 10000 6.17 90 20:28 30.07.2022
2378 Clouds 24 1021 83 10000 6.17 90 19:42 30.07.2022
2379 Clouds 24 1020 83 10000 6.17 80 17:52 30.07.2022
2380 Clouds 24 1020 83 10000 5.14 80 16:37 30.07.2022
2381 Clouds 24 1020 83 10000 5.14 90 15:29 30.07.2022
2382 Clouds 24 1021 88 10000 5.14 90 13:22 30.07.2022
2383 Clouds 24 1021 88 10000 6.69 80 12:21 30.07.2022
2384 Clouds 24 1021 88 10000 6.17 80 10:44 30.07.2022
2385 Clouds 24 1021 88 10000 5.14 90 09:59 30.07.2022
2386 Clouds 24 1021 88 10000 5.14 90 08:44 30.07.2022
2387 Clouds 24 1020 88 10000 5.66 90 06:50 30.07.2022
2388 Clouds 26 1020 78 10000 6.17 90 02:33 30.07.2022
2389 Clouds 25 1022 73 10000 5.14 90 22:57 29.07.2022
2390 Clouds 25 1021 73 10000 5.14 100 21:30 29.07.2022
2391 Clouds 24 1021 78 10000 3.6 110 20:50 29.07.2022
2392 Clouds 23 1021 83 10000 3.6 100 19:29 29.07.2022
2393 Clouds 23 1020 83 10000 3.6 90 16:43 29.07.2022
2394 Clouds 24 1021 83 10000 6.17 90 13:46 29.07.2022
2395 Clouds 24 1021 83 10000 6.69 90 11:34 29.07.2022
2396 Clouds 24 1021 83 10000 5.14 100 08:51 29.07.2022
2397 Clouds 24 1021 78 10000 5.14 100 08:20 29.07.2022
2398 Clouds 26 1020 73 10000 9.77 80 02:52 29.07.2022
2399 Clouds 26 1021 73 10000 9.77 80 23:20 28.07.2022
2400 Clouds 25 1021 78 10000 9.77 80 21:30 28.07.2022
2401 Clouds 24 1020 83 10000 9.77 80 20:45 28.07.2022
2402 Clouds 24 1020 83 10000 10.29 80 19:44 28.07.2022
2403 Clouds 24 1019 83 10000 8.75 80 19:25 28.07.2022
2404 Clouds 24 1019 83 10000 8.75 80 17:44 28.07.2022
2405 Clouds 23 1018 94 10000 9.26 80 16:59 28.07.2022
2406 Rain 23 1018 94 9000 8.75 80 16:36 28.07.2022
2407 Clouds 23 1020 88 10000 7.2 90 13:35 28.07.2022
2408 Clouds 24 1020 83 10000 6.69 100 11:42 28.07.2022
2409 Clouds 24 1019 78 10000 5.66 100 06:46 28.07.2022
2410 Clouds 25 1018 73 10000 3.6 90 05:33 28.07.2022
2411 Clouds 26 1019 69 10000 9.26 80 02:40 28.07.2022
2412 Clouds 25 1021 65 10000 7.72 90 22:45 27.07.2022
2413 Clouds 24 1020 64 10000 6.17 90 21:29 27.07.2022
2414 Clouds 22 1020 78 10000 5.14 100 19:44 27.07.2022
2415 Clouds 23 1019 73 10000 5.66 100 18:39 27.07.2022
2416 Clouds 22 1019 73 10000 3.6 110 15:52 27.07.2022
2417 Clouds 22 1019 73 10000 3.6 110 15:20 27.07.2022
2418 Rain 22 1020 78 10000 4.12 110 14:40 27.07.2022
2419 Clouds 22 1020 68 10000 3.6 100 12:50 27.07.2022
2420 Clouds 22 1020 64 10000 3.6 100 08:55 27.07.2022
2421 Clouds 22 1018 64 10000 5.14 100 07:24 27.07.2022
2422 Clouds 24 1018 60 10000 7.2 100 02:42 27.07.2022
2423 Clouds 23 1019 64 10000 5.66 100 22:29 26.07.2022
2424 Clouds 22 1019 64 10000 6.17 100 21:21 26.07.2022
2425 Clouds 22 1019 68 10000 5.66 100 20:43 26.07.2022
2426 Clouds 20 1018 77 10000 3.6 110 18:44 26.07.2022
2427 Rain 20 1018 83 10000 5.14 110 18:19 26.07.2022
2428 Rain 21 1017 73 10000 4.12 110 16:32 26.07.2022
2429 Rain 20 1017 83 10000 3.6 120 15:36 26.07.2022
2430 Rain 20 1018 83 10000 3.09 120 13:46 26.07.2022
2431 Clouds 21 1018 73 10000 3.09 120 11:38 26.07.2022
2432 Rain 20 1018 83 10000 2.06 150 08:57 26.07.2022
2433 Clouds 22 1016 64 10000 3.09 110 05:53 26.07.2022
2434 Clouds 24 1017 57 10000 4.12 100 00:44 26.07.2022
2435 Clouds 23 1018 60 10000 4.12 90 23:32 25.07.2022
2436 Clouds 22 1018 64 10000 2.57 120 22:25 25.07.2022
2437 Clouds 20 1017 77 10000 2.57 100 21:41 25.07.2022
2438 Clouds 20 1017 73 10000 2.06 110 20:41 25.07.2022
2439 Clouds 20 1016 68 10000 1.03 160 19:33 25.07.2022
2440 Clouds 20 1016 73 10000 1.54 120 18:18 25.07.2022
2441 Clouds 19 1016 72 10000 1.54 130 17:27 25.07.2022
2442 Clouds 18 1016 88 10000 1.03 110 14:44 25.07.2022
2443 Clouds 20 1017 68 10000 4.63 140 12:21 25.07.2022
2444 Clouds 20 1017 68 10000 3.09 150 09:50 25.07.2022
2445 Clouds 20 1015 77 10000 2.57 180 04:25 25.07.2022
2446 Clouds 22 1017 56 10000 1.54 160 23:54 24.07.2022
2447 Clouds 21 1017 64 10000 2.57 190 22:59 24.07.2022
2448 Clouds 22 1017 49 10000 2.06 200 22:29 24.07.2022
2449 Clouds 22 1017 46 10000 1.03 160 21:19 24.07.2022
2450 Clouds 21 1017 49 10000 1.54 150 20:50 24.07.2022
2451 Clouds 20 1016 52 10000 2.57 190 20:19 24.07.2022
2452 Clouds 21 1015 56 10000 2.06 180 18:46 24.07.2022
2453 Clouds 20 1014 60 10000 1.54 170 16:29 24.07.2022
2454 Clouds 21 1014 60 10000 1.54 170 15:45 24.07.2022
2455 Clouds 20 1014 73 10000 1.54 160 14:29 24.07.2022
2456 Clouds 21 1015 68 10000 2.57 170 12:54 24.07.2022
2457 Clouds 21 1015 68 10000 2.06 150 11:40 24.07.2022
2458 Clouds 21 1015 64 10000 2.06 160 11:00 24.07.2022
2459 Clouds 21 1014 60 10000 2.06 160 08:33 24.07.2022
2460 Clouds 21 1014 60 10000 2.06 160 07:52 24.07.2022
2461 Clouds 22 1013 56 10000 2.57 210 05:44 24.07.2022
2462 Clouds 24 1014 64 10000 3.6 200 00:28 24.07.2022
2463 Clouds 23 1014 64 10000 4.12 220 21:28 23.07.2022
2464 Clouds 23 1013 68 10000 4.63 220 19:59 23.07.2022
2465 Drizzle 22 1012 83 10000 3.6 210 18:50 23.07.2022
2466 Haze 21 1011 94 4800 4.12 200 17:28 23.07.2022
2467 Clouds 23 1011 88 10000 3.09 210 16:33 23.07.2022
2468 Clouds 22 1011 94 10000 3.09 220 15:22 23.07.2022
2469 Clouds 23 1011 88 10000 3.6 220 14:58 23.07.2022
2470 Clouds 24 1011 83 10000 4.12 230 14:26 23.07.2022
2471 Clouds 25 1012 73 10000 5.14 250 12:44 23.07.2022
2472 Clouds 24 1012 73 10000 4.63 250 10:45 23.07.2022
2473 Clouds 24 1012 73 10000 3.6 240 09:56 23.07.2022
2474 Clouds 24 1012 73 10000 4.12 230 08:31 23.07.2022
2475 Clouds 26 1011 78 10000 6.69 270 03:38 23.07.2022
2476 Clouds 26 1014 78 10000 2.57 320 00:41 23.07.2022
2477 Clouds 25 1014 83 10000 3.6 30 22:19 22.07.2022
2478 Clouds 24 1014 83 10000 4.63 60 20:39 22.07.2022
2479 Clouds 24 1013 83 10000 5.14 50 19:32 22.07.2022
2480 Clouds 24 1014 79 10000 5.58 31 18:23 22.07.2022
2481 Clouds 24 1013 78 10000 4.63 60 16:46 22.07.2022
2482 Clouds 24 1014 78 10000 7.72 70 14:20 22.07.2022
2483 Clouds 23 1016 83 10000 7.72 80 10:41 22.07.2022
2484 Clouds 23 1016 83 10000 6.17 80 09:25 22.07.2022
2485 Clouds 23 1016 83 10000 6.69 80 08:26 22.07.2022
2486 Clouds 25 1015 69 10000 8.23 80 04:26 22.07.2022
2487 Clouds 23 1017 73 10000 5.66 90 23:45 21.07.2022
2488 Clouds 22 1019 78 10000 3.6 110 22:20 21.07.2022
2489 Clouds 22 1018 73 10000 4.63 100 20:48 21.07.2022
2490 Clouds 22 1017 73 10000 5.66 100 18:54 21.07.2022
2491 Clouds 22 1016 73 10000 4.12 110 17:29 21.07.2022
2492 Clouds 22 1016 73 10000 5.66 100 16:53 21.07.2022
2493 Clouds 21 1018 83 10000 5.66 100 14:52 21.07.2022
2494 Rain 21 1018 83 8000 4.12 100 14:22 21.07.2022
2495 Clouds 23 1019 64 10000 6.17 100 12:27 21.07.2022
2496 Clouds 22 1019 68 10000 6.17 100 10:37 21.07.2022
2497 Clouds 22 1019 68 10000 5.66 100 08:53 21.07.2022
2498 Clouds 22 1019 73 10000 5.66 100 08:35 21.07.2022
2499 Clouds 22 1018 73 10000 6.17 110 07:22 21.07.2022
2500 Rain 22 1017 78 10000 7.2 110 03:25 21.07.2022
2501 Clouds 24 1020 69 10000 6.69 100 22:51 20.07.2022
2502 Rain 23 1020 68 10000 7.2 100 22:20 20.07.2022
2503 Rain 22 1019 78 7000 5.66 110 20:49 20.07.2022
2504 Clouds 23 1018 68 10000 7.2 100 19:47 20.07.2022
2505 Clouds 23 1018 68 10000 7.2 100 19:47 20.07.2022
2506 Clouds 23 1018 68 10000 8.23 100 19:19 20.07.2022
2507 Clouds 23 1018 68 10000 5.14 110 18:33 20.07.2022
2508 Clouds 23 1018 68 10000 6.17 110 17:42 20.07.2022
2509 Clouds 23 1018 73 10000 5.66 100 15:43 20.07.2022
2510 Clouds 23 1018 73 10000 4.63 110 14:54 20.07.2022
2511 Clouds 23 1018 68 10000 4.12 110 13:44 20.07.2022
2512 Clouds 23 1019 73 10000 6.69 100 11:31 20.07.2022
2513 Clouds 23 1017 73 10000 4.12 100 07:36 20.07.2022
2514 Clouds 25 1017 61 10000 5.14 120 01:58 20.07.2022
2515 Clouds 25 1018 61 10000 3.6 120 00:43 20.07.2022
2516 Clouds 24 1018 69 10000 3.09 110 22:38 19.07.2022
2517 Clouds 24 1018 69 10000 3.09 110 22:20 19.07.2022
2518 Clouds 23 1018 68 10000 2.57 110 20:50 19.07.2022
2519 Clouds 22 1017 68 10000 3.09 110 19:37 19.07.2022
2520 Clouds 22 1017 68 10000 2.06 120 18:42 19.07.2022
2521 Clouds 22 1017 68 10000 1.54 140 17:55 19.07.2022
2522 Clouds 23 1017 68 10000 3.09 130 15:49 19.07.2022
2523 Clouds 22 1017 78 10000 2.06 140 13:46 19.07.2022
2524 Clouds 22 1018 78 10000 1.54 140 11:34 19.07.2022
2525 Clouds 22 1018 78 10000 2.06 120 09:53 19.07.2022
2526 Clouds 22 1018 78 10000 2.06 130 08:48 19.07.2022
2527 Clouds 22 1017 78 10000 2.57 130 07:57 19.07.2022
2528 Rain 22 1017 83 10000 2.06 150 07:18 19.07.2022
2529 Clouds 24 1016 69 10000 3.09 130 05:19 19.07.2022
2530 Clouds 25 1016 65 10000 3.09 120 03:40 19.07.2022
2531 Clouds 24 1018 73 10000 2.57 110 23:57 18.07.2022
2532 Rain 23 1018 83 10000 2.57 100 23:20 18.07.2022
2533 Rain 22 1019 88 10000 3.09 100 22:27 18.07.2022
2534 Rain 22 1018 83 8000 2.06 140 21:24 18.07.2022
2535 Rain 21 1018 88 10000 2.06 140 20:34 18.07.2022
2536 Rain 20 1017 94 10000 1.54 170 18:32 18.07.2022
2537 Clouds 22 1017 78 10000 2.06 120 16:34 18.07.2022
2538 Rain 22 1017 83 10000 2.06 120 15:28 18.07.2022
2539 Clouds 23 1018 73 10000 2.06 110 13:32 18.07.2022
2540 Clouds 23 1018 73 10000 3.09 120 11:43 18.07.2022
2541 Clouds 22 1018 78 10000 2.57 110 09:55 18.07.2022
2542 Clouds 22 1018 78 10000 2.57 110 09:55 18.07.2022
2543 Rain 22 1018 83 10000 3.6 110 07:58 18.07.2022
2544 Clouds 23 1017 78 10000 4.63 100 05:25 18.07.2022
2545 Drizzle 22 1019 83 10000 4.12 90 22:57 17.07.2022
2546 Clouds 24 1019 73 10000 1.54 110 22:31 17.07.2022
2547 Rain 21 1019 88 10000 3.09 100 21:39 17.07.2022
2548 Clouds 21 1019 88 10000 2.57 110 20:46 17.07.2022
2549 Rain 21 1018 88 9000 2.06 130 19:50 17.07.2022
2550 Clouds 22 1018 78 10000 3.09 110 19:21 17.07.2022
2551 Clouds 21 1017 78 10000 2.06 110 17:43 17.07.2022
2552 Clouds 22 1017 73 10000 2.06 110 17:25 17.07.2022
2553 Clouds 22 1017 73 10000 3.09 100 16:32 17.07.2022
2554 Clouds 22 1017 78 10000 3.6 110 15:49 17.07.2022
2555 Clouds 22 1018 83 10000 5.14 90 13:51 17.07.2022
2556 Clouds 22 1019 83 10000 2.57 110 12:43 17.07.2022
2557 Rain 22 1019 88 10000 7.72 70 10:20 17.07.2022
2558 Rain 22 1018 78 10000 5.14 100 06:59 17.07.2022
2559 Rain 22 1018 78 10000 5.14 100 06:59 17.07.2022
2560 Rain 24 1019 78 10000 6.17 90 02:35 17.07.2022
2561 Clouds 24 1021 73 8000 8.23 90 23:26 16.07.2022
2562 Clouds 25 1021 69 10000 5.14 90 22:20 16.07.2022
2563 Clouds 23 1020 78 10000 7.2 90 20:30 16.07.2022
2564 Clouds 23 1019 73 10000 7.72 100 18:54 16.07.2022
2565 Clouds 23 1019 73 10000 7.72 100 17:38 16.07.2022
2566 Clouds 22 1020 83 10000 6.17 90 15:54 16.07.2022
2567 Clouds 23 1020 78 10000 7.2 90 12:26 16.07.2022
2568 Clouds 23 1021 73 10000 5.66 90 10:18 16.07.2022
2569 Clouds 23 1021 68 10000 8.23 80 09:25 16.07.2022
2570 Clouds 23 1020 73 10000 6.17 90 08:40 16.07.2022
2571 Clouds 23 1020 73 10000 4.63 90 06:57 16.07.2022
2572 Rain 24 1020 73 10000 4.63 100 03:32 16.07.2022
2573 Clouds 25 1022 57 10000 8.23 80 23:54 15.07.2022
2574 Clouds 25 1022 57 10000 8.75 80 22:54 15.07.2022
2575 Clouds 24 1022 60 10000 5.14 90 21:55 15.07.2022
2576 Clouds 23 1021 60 10000 3.6 100 20:35 15.07.2022
2577 Clouds 23 1021 64 10000 6.17 90 18:46 15.07.2022
2578 Clouds 23 1021 60 10000 4.63 100 18:22 15.07.2022
2579 Clouds 23 1020 64 10000 5.14 100 16:46 15.07.2022
2580 Clouds 24 1021 57 10000 5.14 90 13:58 15.07.2022
2581 Clouds 24 1021 60 10000 3.6 100 12:22 15.07.2022
2582 Clouds 23 1021 68 10000 4.63 90 10:52 15.07.2022
2583 Clouds 23 1021 68 10000 3.09 100 07:47 15.07.2022
2584 Clouds 26 1020 53 10000 8.23 80 02:47 15.07.2022
2585 Clouds 25 1022 61 10000 5.66 100 00:39 15.07.2022
2586 Clouds 24 1023 64 10000 4.63 90 22:54 14.07.2022
2587 Clouds 24 1022 60 10000 5.66 100 21:59 14.07.2022
2588 Clouds 24 1022 60 10000 5.66 90 21:33 14.07.2022
2589 Clouds 24 1022 64 10000 6.69 90 20:57 14.07.2022
2590 Clouds 23 1021 64 10000 7.72 80 20:37 14.07.2022
2591 Clouds 23 1021 64 10000 7.72 80 20:18 14.07.2022
2592 Clouds 23 1021 68 10000 2.57 100 16:42 14.07.2022
2593 Clouds 23 1021 68 10000 2.06 110 16:18 14.07.2022
2594 Clouds 23 1021 68 10000 5.14 90 14:44 14.07.2022
2595 Clouds 23 1021 64 10000 6.17 90 13:33 14.07.2022
2596 Clouds 23 1021 64 10000 6.17 90 12:19 14.07.2022
2597 Clouds 23 1020 64 10000 7.72 80 11:25 14.07.2022
2598 Clouds 23 1021 68 10000 4.63 90 10:39 14.07.2022
2599 Clouds 23 1020 68 10000 4.12 90 08:22 14.07.2022
2600 Clouds 25 1019 61 10000 4.12 110 03:36 14.07.2022
2601 Clouds 24 1020 64 10000 7.2 80 00:54 14.07.2022
2602 Clouds 24 1020 60 10000 5.66 90 23:38 13.07.2022
2603 Clouds 24 1021 60 10000 5.14 80 22:26 13.07.2022
2604 Clouds 24 1020 60 10000 4.12 100 21:30 13.07.2022
2605 Clouds 23 1020 64 10000 1.54 120 20:26 13.07.2022
2606 Clouds 23 1018 64 10000 3.09 100 17:56 13.07.2022
2607 Clouds 22 1018 68 10000 2.06 110 16:59 13.07.2022
2608 Clouds 22 1019 68 10000 2.06 130 15:59 13.07.2022
2609 Clouds 22 1020 68 10000 2.06 150 13:45 13.07.2022
2610 Clouds 23 1020 68 10000 1.54 130 10:47 13.07.2022
2611 Clouds 23 1020 68 10000 1.54 120 10:28 13.07.2022
2612 Clouds 23 1019 73 10000 2.57 120 09:28 13.07.2022
2613 Clouds 23 1019 73 10000 2.57 130 07:53 13.07.2022
2614 Clouds 24 1018 73 10000 5.66 80 03:34 13.07.2022
2615 Clouds 25 1019 65 10000 3.6 100 00:25 13.07.2022
2616 Clouds 25 1019 61 10000 3.09 90 22:28 12.07.2022
2617 Clouds 24 1019 64 10000 3.09 90 21:45 12.07.2022
2618 Clouds 23 1019 68 10000 1.03 90 20:44 12.07.2022
2619 Clouds 19 1018 82 10000 1.03 170 19:44 12.07.2022
2620 Clouds 20 1018 77 10000 1.54 150 18:25 12.07.2022
2621 Clouds 21 1018 68 10000 2.06 160 16:20 12.07.2022
2622 Clouds 22 1019 68 10000 2.06 150 14:31 12.07.2022
2623 Clouds 22 1019 68 10000 2.06 140 13:24 12.07.2022
2624 Clouds 23 1019 68 10000 1.54 130 11:46 12.07.2022
2625 Clouds 23 1020 68 10000 1.54 140 10:25 12.07.2022
2626 Clouds 22 1019 78 10000 2.06 130 08:40 12.07.2022
2627 Clouds 22 1019 83 10000 1.54 140 07:47 12.07.2022
2628 Drizzle 24 1018 69 2700 2.06 140 05:45 12.07.2022
2629 Clouds 25 1018 65 10000 3.09 110 04:18 12.07.2022
2630 Clouds 25 1021 65 10000 5.14 80 23:50 11.07.2022
2631 Clouds 25 1021 61 10000 5.14 90 22:37 11.07.2022
2632 Clouds 24 1020 73 10000 2.06 110 20:54 11.07.2022
2633 Clouds 22 1020 78 10000 1.54 120 20:29 11.07.2022
2634 Clouds 21 1019 78 10000 1.54 140 18:39 11.07.2022
2635 Clouds 21 1019 78 10000 1.54 140 17:57 11.07.2022
2636 Clouds 21 1019 78 10000 1.03 130 16:22 11.07.2022
2637 Clouds 22 1020 73 10000 1.03 130 14:52 11.07.2022
2638 Clouds 22 1021 73 10000 1.54 120 12:38 11.07.2022
2639 Clouds 22 1021 73 10000 2.06 140 10:54 11.07.2022
2640 Clouds 23 1021 64 10000 3.09 120 09:54 11.07.2022
2641 Clouds 21 1021 68 10000 1.03 150 08:36 11.07.2022
2642 Clear 23 1020 60 10000 1.54 120 07:52 11.07.2022
2643 Clouds 25 1021 47 10000 4.63 90 00:54 11.07.2022
2644 Clouds 25 1022 50 10000 4.63 110 23:53 10.07.2022
2645 Clouds 25 1022 50 10000 3.6 100 22:34 10.07.2022
2646 Clouds 23 1021 53 10000 2.57 120 20:55 10.07.2022
2647 Clouds 23 1020 56 10000 2.06 150 20:00 10.07.2022
2648 Clouds 22 1020 64 10000 1.54 150 19:21 10.07.2022
2649 Clouds 23 1019 60 10000 2.06 110 17:51 10.07.2022
2650 Clouds 23 1019 60 10000 2.06 110 16:59 10.07.2022
2651 Clouds 23 1019 53 10000 2.57 120 16:20 10.07.2022
2652 Clouds 23 1020 56 10000 2.06 130 14:43 10.07.2022
2653 Clouds 23 1021 53 10000 1.54 130 12:42 10.07.2022
2654 Clouds 22 1021 60 10000 1.54 120 11:36 10.07.2022
2655 Clouds 23 1021 64 10000 2.06 120 09:30 10.07.2022
2656 Clouds 22 1020 68 10000 2.57 110 08:42 10.07.2022
2657 Clouds 23 1019 64 10000 3.6 100 06:36 10.07.2022
2658 Clouds 25 1021 57 10000 6.17 90 23:44 09.07.2022
2659 Clouds 24 1021 60 10000 5.14 100 22:26 09.07.2022
2660 Clouds 24 1021 60 10000 5.14 100 22:26 09.07.2022
2661 Clouds 23 1021 64 10000 5.14 90 21:40 09.07.2022
2662 Clouds 22 1020 68 10000 3.6 110 19:37 09.07.2022
2663 Clouds 22 1019 68 10000 3.09 110 18:25 09.07.2022
2664 Rain 21 1019 78 10000 1.54 140 17:18 09.07.2022
2665 Rain 21 1019 83 10000 2.57 120 15:56 09.07.2022
2666 Clouds 23 1019 64 10000 3.6 100 15:36 09.07.2022
2667 Clouds 23 1019 60 10000 3.09 100 13:54 09.07.2022
2668 Clouds 23 1019 60 10000 3.09 100 13:28 09.07.2022
2669 Clouds 23 1020 60 10000 3.6 100 11:40 09.07.2022
2670 Clouds 23 1019 64 10000 3.6 110 10:24 09.07.2022
2671 Clouds 23 1019 64 10000 4.12 110 08:27 09.07.2022
2672 Clouds 23 1018 64 10000 3.6 100 06:59 09.07.2022
2673 Clouds 24 1017 57 10000 5.66 90 04:35 09.07.2022
2674 Clouds 25 1019 57 10000 4.12 110 23:27 08.07.2022
2675 Clouds 23 1019 64 10000 3.09 110 21:59 08.07.2022
2676 Clouds 23 1019 60 10000 4.12 100 21:20 08.07.2022
2677 Clouds 21 1018 64 10000 1.54 140 20:33 08.07.2022
2678 Clouds 22 1017 64 10000 1.54 120 18:36 08.07.2022
2679 Clouds 21 1017 64 10000 2.06 120 17:45 08.07.2022
2680 Clouds 22 1017 64 10000 2.57 120 15:30 08.07.2022
2681 Clouds 22 1017 64 10000 2.06 130 14:49 08.07.2022
2682 Clouds 20 1017 68 10000 1.03 140 12:28 08.07.2022
2683 Clouds 20 1017 68 10000 1.54 140 10:46 08.07.2022
2684 Clear 21 1017 64 10000 1.54 140 09:24 08.07.2022
2685 Clouds 22 1016 60 10000 2.57 140 06:55 08.07.2022
2686 Clouds 23 1015 60 10000 4.12 130 04:31 08.07.2022
2687 Clouds 24 1017 60 10000 3.6 110 23:56 07.07.2022
2688 Clouds 24 1017 60 10000 4.63 110 22:47 07.07.2022
2689 Clouds 22 1016 68 10000 5.14 140 21:39 07.07.2022
2690 Clouds 22 1015 68 10000 2.57 130 18:43 07.07.2022
2691 Clouds 22 1015 64 10000 2.57 140 17:41 07.07.2022
2692 Clouds 18 1016 82 10000 0.51 60 15:34 07.07.2022
2693 Clouds 21 1016 68 10000 2.06 130 13:30 07.07.2022
2694 Clouds 21 1016 68 10000 2.06 120 12:40 07.07.2022
2695 Clouds 21 1016 68 10000 2.06 120 12:20 07.07.2022
2696 Clouds 21 1017 68 10000 2.06 120 11:31 07.07.2022
2697 Clouds 21 1017 68 10000 2.57 130 10:44 07.07.2022
2698 Clouds 21 1017 68 10000 2.06 140 10:25 07.07.2022
2699 Clouds 21 1016 68 10000 2.06 130 07:40 07.07.2022
2700 Clouds 24 1015 57 10000 2.57 120 04:42 07.07.2022
2701 Clouds 22 1018 64 10000 6.15 134 23:37 06.07.2022
2702 Clouds 24 1018 53 10000 3.6 110 23:19 06.07.2022
2703 Clouds 24 1018 53 10000 3.6 110 22:56 06.07.2022
2704 Clouds 23 1018 60 10000 3.09 110 22:38 06.07.2022
2705 Clouds 22 1018 64 10000 4.63 130 21:30 06.07.2022
2706 Clouds 22 1017 60 10000 4.63 120 19:38 06.07.2022
2707 Clouds 22 1016 60 10000 3.09 130 18:21 06.07.2022
2708 Clouds 22 1016 60 10000 1.03 110 16:19 06.07.2022
2709 Clouds 22 1017 64 10000 1.54 110 14:54 06.07.2022
2710 Clouds 21 1018 68 10000 2.06 100 12:40 06.07.2022
2711 Clouds 21 1018 64 10000 2.57 110 11:49 06.07.2022
2712 Clouds 22 1018 60 10000 3.09 120 10:18 06.07.2022
2713 Clouds 22 1017 60 10000 4.12 110 07:46 06.07.2022
2714 Clouds 22 1017 60 10000 3.6 110 07:23 06.07.2022
2715 Clouds 23 1018 60 10000 3.09 140 02:55 06.07.2022
2716 Clouds 24 1019 57 10000 3.6 140 22:45 05.07.2022
2717 Clouds 24 1019 57 10000 3.6 140 22:45 05.07.2022
2718 Clouds 23 1018 60 10000 3.6 130 21:36 05.07.2022
2719 Clouds 23 1018 60 10000 3.6 140 20:38 05.07.2022
2720 Clouds 22 1017 73 10000 4.63 150 19:41 05.07.2022
2721 Clouds 22 1017 73 10000 4.63 150 19:22 05.07.2022
2722 Clouds 23 1016 64 10000 5.14 140 17:46 05.07.2022
2723 Drizzle 22 1016 73 10000 6.69 150 16:44 05.07.2022
2724 Clouds 23 1016 68 10000 5.66 150 15:25 05.07.2022
2725 Rain 22 1016 73 10000 5.14 140 13:53 05.07.2022
2726 Clouds 23 1016 73 10000 3.6 130 12:42 05.07.2022
2727 Clouds 23 1016 73 10000 6.17 150 11:24 05.07.2022
2728 Rain 22 1016 83 10000 5.66 150 10:31 05.07.2022
2729 Rain 22 1016 88 5000 3.09 130 08:25 05.07.2022
2730 Clouds 23 1015 83 10000 1.03 140 07:31 05.07.2022
2731 Rain 23 1015 88 8000 1.54 140 04:46 05.07.2022
2732 Drizzle 22 1015 94 10000 2.06 170 02:48 05.07.2022
2733 Clouds 26 1016 65 10000 2.06 290 23:42 04.07.2022
2734 Clouds 25 1016 69 10000 2.06 320 22:59 04.07.2022
2735 Clouds 26 1016 69 10000 1.54 320 22:20 04.07.2022
2736 Clouds 21 1015 100 10000 0.51 170 20:59 04.07.2022
2737 Clouds 19 1015 100 10000 0.51 140 20:38 04.07.2022
2738 Clouds 19 1015 100 10000 0.51 140 20:18 04.07.2022
2739 Clear 18 1014 100 10000 0.51 140 19:43 04.07.2022
2740 Clear 18 1014 100 10000 0.51 160 19:24 04.07.2022
2741 Clear 18 1014 100 10000 1.03 180 17:23 04.07.2022
2742 Clear 18 1014 100 10000 1.03 180 15:41 04.07.2022
2743 Clear 19 1014 94 10000 1.03 180 14:21 04.07.2022
2744 Clouds 19 1014 100 10000 1.03 180 13:20 04.07.2022
2745 Clear 19 1014 100 10000 1.03 180 11:43 04.07.2022
2746 Clouds 20 1015 94 10000 1.54 190 10:33 04.07.2022
2747 Clouds 19 1015 100 10000 1.03 180 09:33 04.07.2022
2748 Clouds 23 1014 73 10000 1.54 110 06:42 04.07.2022
2749 Clouds 26 1013 61 10000 4.63 50 02:59 04.07.2022
2750 Clouds 26 1015 65 10000 4.12 60 23:53 03.07.2022
2751 Clouds 24 1015 69 10000 4.12 80 22:48 03.07.2022
2752 Clear 21 1015 88 10000 0.51 100 20:46 03.07.2022
2753 Clear 18 1014 100 10000 0.51 170 19:59 03.07.2022
2754 Clear 19 1014 94 10000 0.51 130 19:25 03.07.2022
2755 Clear 22 1014 73 10000 2.06 150 18:30 03.07.2022
2756 Clear 21 1014 83 10000 1.54 140 17:41 03.07.2022
2757 Clouds 20 1014 94 10000 0.51 100 15:28 03.07.2022
2758 Clouds 21 1015 88 10000 1.03 140 14:53 03.07.2022
2759 Clouds 20 1015 94 10000 1.03 110 13:50 03.07.2022
2760 Clouds 20 1015 94 10000 1.03 130 12:47 03.07.2022
2761 Clouds 19 1015 100 10000 1.03 110 12:18 03.07.2022
2762 Clouds 22 1016 83 10000 1.54 150 10:54 03.07.2022
2763 Clouds 21 1016 88 10000 1.03 140 10:35 03.07.2022
2764 Clouds 24 1015 73 10000 1.54 110 07:38 03.07.2022
2765 Clouds 24 1015 78 10000 2.57 100 06:34 03.07.2022
2766 Clouds 26 1017 61 10000 5.14 80 00:38 03.07.2022
2767 Clouds 26 1017 57 10000 5.66 60 23:36 02.07.2022
2768 Clouds 26 1017 57 10000 6.17 70 22:31 02.07.2022
2769 Clouds 23 1017 78 10000 2.06 90 20:26 02.07.2022
2770 Clouds 20 1016 88 10000 1.54 100 19:49 02.07.2022
2771 Clouds 23 1017 73 10000 2.06 100 18:20 02.07.2022
2772 Clouds 23 1016 73 10000 2.06 110 17:38 02.07.2022
2773 Clouds 24 1016 73 10000 3.09 100 15:56 02.07.2022
2774 Clouds 23 1017 83 10000 1.54 120 13:35 02.07.2022
2775 Clouds 23 1018 83 10000 2.06 100 11:48 02.07.2022
2776 Clouds 24 1018 73 10000 4.12 80 10:50 02.07.2022
2777 Clouds 24 1018 78 10000 2.57 100 09:49 02.07.2022
2778 Clouds 24 1018 73 10000 2.06 100 08:37 02.07.2022
2779 Clouds 24 1018 73 10000 2.06 100 08:19 02.07.2022
2780 Clouds 26 1017 69 10000 7.2 70 02:53 02.07.2022
2781 Clouds 27 1019 65 10000 7.72 70 00:27 02.07.2022
2782 Clouds 26 1020 69 10000 7.2 70 22:59 01.07.2022
2783 Clouds 26 1020 69 10000 6.17 80 22:29 01.07.2022
2784 Clouds 26 1020 73 10000 6.69 80 21:37 01.07.2022
2785 Clouds 25 1019 78 10000 6.69 70 20:58 01.07.2022
2786 Clouds 24 1019 83 10000 5.14 70 20:19 01.07.2022
2787 Clouds 24 1019 83 10000 5.14 70 19:34 01.07.2022
2788 Clouds 25 1018 78 10000 6.69 70 16:40 01.07.2022
2789 Clouds 25 1019 83 10000 6.69 60 14:27 01.07.2022
2790 Clouds 25 1019 83 10000 6.69 60 13:23 01.07.2022
2791 Clouds 25 1019 83 10000 7.72 60 10:53 01.07.2022
2792 Clouds 25 1019 83 10000 7.2 70 10:19 01.07.2022
2793 Clouds 25 1019 83 10000 7.2 70 10:19 01.07.2022
2794 Clouds 25 1018 88 10000 6.17 70 06:20 01.07.2022
2795 Clouds 26 1018 89 10000 6.17 60 01:57 01.07.2022
2796 Clouds 27 1019 83 10000 7.2 80 23:34 30.06.2022
2797 Clouds 27 1019 83 10000 5.66 70 22:47 30.06.2022
2798 Clouds 27 1019 83 10000 5.66 70 22:47 30.06.2022
2799 Clouds 27 1019 78 10000 6.17 80 22:27 30.06.2022
2800 Clouds 26 1019 83 10000 6.17 70 21:51 30.06.2022
2801 Clouds 24 1019 94 10000 2.06 90 20:41 30.06.2022
2802 Clouds 24 1018 94 10000 2.57 90 19:55 30.06.2022
2803 Clouds 24 1018 94 10000 2.57 100 19:35 30.06.2022
2804 Clouds 24 1018 94 10000 3.09 90 18:43 30.06.2022
2805 Clouds 23 1017 94 10000 1.54 100 17:49 30.06.2022
2806 Clouds 23 1017 94 10000 2.06 110 16:56 30.06.2022
2807 Clouds 23 1017 94 10000 0.51 160 15:52 30.06.2022
2808 Clouds 24 1018 83 10000 0.51 160 13:51 30.06.2022
2809 Clouds 24 1018 83 10000 1.54 120 13:18 30.06.2022
2810 Clouds 24 1018 83 10000 2.06 100 12:32 30.06.2022
2811 Clouds 21 1018 94 10000 0.51 110 10:19 30.06.2022
2812 Clouds 22 1018 88 10000 0.51 190 09:40 30.06.2022
2813 Clouds 24 1018 83 10000 1.03 150 08:22 30.06.2022
2814 Clouds 24 1017 83 10000 0.51 120 07:40 30.06.2022
2815 Clouds 27 1017 69 10000 2.57 90 03:35 30.06.2022
2816 Clouds 27 1019 69 10000 3.09 110 23:38 29.06.2022
2817 Clouds 26 1019 69 10000 4.12 100 22:41 29.06.2022
2818 Clouds 25 1019 78 10000 3.09 90 21:59 29.06.2022
2819 Clouds 21 1018 94 10000 1.03 130 20:35 29.06.2022
2820 Clouds 20 1018 100 10000 0.51 140 19:56 29.06.2022
2821 Clouds 21 1017 94 10000 1.03 110 17:55 29.06.2022
2822 Clouds 21 1017 94 10000 1.03 220 16:55 29.06.2022
2823 Clouds 22 1017 94 10000 0.51 170 15:44 29.06.2022
2824 Clouds 23 1018 94 10000 1.03 170 13:43 29.06.2022
2825 Clouds 22 1018 100 10000 1.03 130 12:36 29.06.2022
2826 Clear 22 1017 94 10000 1.03 180 09:46 29.06.2022
2827 Clear 22 1017 94 10000 1.03 170 09:22 29.06.2022
2828 Clear 25 1016 78 10000 1.54 180 06:28 29.06.2022
2829 Clouds 27 1016 74 10000 2.57 310 02:59 29.06.2022
2830 Clear 29 1017 61 10000 1.54 70 00:52 29.06.2022
2831 Clear 27 1018 61 10000 1.54 140 00:33 29.06.2022
2832 Clouds 27 1018 61 10000 2.57 120 22:49 28.06.2022
2833 Clouds 25 1019 83 10000 1.03 210 21:57 28.06.2022
2834 Clouds 24 1018 88 10000 1.03 90 21:38 28.06.2022
2835 Clouds 23 1018 94 10000 0.51 150 20:57 28.06.2022
2836 Clouds 22 1018 94 10000 1.03 160 19:50 28.06.2022
2837 Clouds 22 1017 94 10000 1.54 110 19:24 28.06.2022
2838 Clouds 22 1017 94 10000 1.03 320 18:37 28.06.2022
2839 Rain 24 1017 94 10000 2.06 120 16:35 28.06.2022
2840 Rain 24 1016 94 10000 4.12 90 15:54 28.06.2022
2841 Rain 25 1017 88 10000 5.66 60 14:22 28.06.2022
2842 Clouds 25 1017 94 10000 5.66 60 13:55 28.06.2022
2843 Clouds 25 1017 88 10000 5.66 40 13:32 28.06.2022
2844 Clouds 25 1018 83 10000 8.75 60 11:57 28.06.2022
2845 Rain 25 1017 88 10000 7.72 60 09:46 28.06.2022
2846 Rain 25 1017 88 10000 8.23 60 08:46 28.06.2022
2847 Rain 24 1017 94 8000 8.23 60 07:58 28.06.2022
2848 Clouds 25 1017 88 10000 8.75 70 07:19 28.06.2022
2849 Clouds 27 1017 78 10000 10.29 70 01:36 28.06.2022
2850 Clouds 26 1018 78 10000 10.29 70 23:45 27.06.2022
2851 Clouds 26 1018 78 10000 10.8 70 22:55 27.06.2022
2852 Clouds 26 1018 78 10000 10.29 70 21:38 27.06.2022
2853 Clouds 26 1018 78 10000 10.29 70 21:38 27.06.2022
2854 Clouds 25 1018 83 10000 10.29 70 20:55 27.06.2022
2855 Clouds 25 1017 78 10000 10.29 70 19:44 27.06.2022
2856 Clouds 25 1017 78 10000 7.72 80 18:40 27.06.2022
2857 Clouds 24 1017 83 10000 8.75 80 16:44 27.06.2022
2858 Clouds 24 1017 78 10000 8.75 80 15:42 27.06.2022
2859 Clouds 24 1018 78 10000 8.75 80 13:39 27.06.2022
2860 Clouds 24 1018 78 10000 9.77 80 12:57 27.06.2022
2861 Clouds 25 1019 69 10000 8.23 90 10:41 27.06.2022
2862 Clouds 25 1019 73 10000 7.72 80 09:23 27.06.2022
2863 Clouds 25 1019 73 10000 7.72 90 08:31 27.06.2022
2864 Clouds 25 1018 73 10000 9.77 80 07:38 27.06.2022
2865 Clouds 25 1018 69 10000 9.26 80 03:58 27.06.2022
2866 Clouds 25 1019 69 10000 10.8 80 01:18 27.06.2022
2867 Clouds 24 1021 73 10000 8.75 90 22:22 26.06.2022
2868 Clouds 24 1020 69 10000 8.23 90 20:48 26.06.2022
2869 Clouds 22 1019 83 10000 4.63 100 19:42 26.06.2022
2870 Rain 22 1019 88 10000 5.14 100 18:31 26.06.2022
2871 Rain 22 1019 83 10000 3.6 100 17:22 26.06.2022
2872 Clouds 23 1019 73 10000 6.17 100 15:27 26.06.2022
2873 Rain 22 1020 83 10000 6.17 100 13:53 26.06.2022
2874 Clouds 23 1020 73 10000 4.12 100 13:20 26.06.2022
2875 Clouds 23 1021 73 10000 5.66 100 11:26 26.06.2022
2876 Rain 22 1021 78 10000 5.14 100 10:28 26.06.2022
2877 Clouds 23 1020 73 10000 4.63 100 09:34 26.06.2022
2878 Rain 23 1020 68 10000 3.6 110 07:44 26.06.2022
2879 Clouds 25 1020 61 10000 5.66 110 02:28 26.06.2022
2880 Clouds 24 1021 60 10000 6.17 100 00:21 26.06.2022
2881 Clouds 25 1021 57 10000 6.17 100 23:49 25.06.2022
2882 Clouds 25 1021 61 10000 5.14 100 23:20 25.06.2022
2883 Clouds 24 1021 57 10000 4.12 100 22:27 25.06.2022
2884 Clouds 23 1021 60 10000 3.6 110 21:40 25.06.2022
2885 Clouds 23 1021 60 10000 3.6 110 21:18 25.06.2022
2886 Clouds 22 1021 64 10000 4.63 120 20:27 25.06.2022
2887 Clouds 22 1020 64 10000 3.6 130 19:21 25.06.2022
2888 Clouds 22 1019 68 10000 3.6 120 17:56 25.06.2022
2889 Rain 21 1019 78 10000 3.09 140 17:22 25.06.2022
2890 Clouds 22 1019 73 10000 3.09 120 15:26 25.06.2022
2891 Clouds 22 1020 73 10000 3.09 120 13:27 25.06.2022
2892 Clouds 22 1020 73 10000 3.6 120 12:37 25.06.2022
2893 Clouds 21 1020 78 10000 4.12 130 10:34 25.06.2022
2894 Rain 20 1020 88 10000 2.06 130 08:58 25.06.2022
2895 Rain 20 1020 94 4000 2.57 90 08:36 25.06.2022
2896 Rain 20 1020 88 8000 2.06 120 07:54 25.06.2022
2897 Clouds 22 1018 78 10000 2.57 140 03:33 25.06.2022
2898 Clouds 23 1020 68 10000 3.09 120 00:34 25.06.2022
2899 Clouds 23 1020 64 10000 4.12 100 22:53 24.06.2022
2900 Clouds 21 1020 78 10000 2.06 130 21:34 24.06.2022
2901 Clouds 22 1020 64 10000 3.09 140 20:44 24.06.2022
2902 Clouds 22 1019 60 10000 2.06 130 20:18 24.06.2022
2903 Clouds 22 1019 53 10000 2.57 150 19:20 24.06.2022
2904 Clouds 22 1019 53 10000 2.06 140 18:48 24.06.2022
2905 Clouds 22 1018 49 10000 3.09 140 18:30 24.06.2022
2906 Clouds 22 1018 53 10000 3.6 150 16:57 24.06.2022
2907 Clouds 22 1018 56 10000 2.57 140 15:28 24.06.2022
2908 Clouds 22 1018 60 10000 2.06 140 14:25 24.06.2022
2909 Clouds 21 1018 68 10000 2.06 120 13:53 24.06.2022
2910 Clouds 20 1018 64 10000 1.03 130 11:42 24.06.2022
2911 Clouds 22 1018 49 10000 2.57 120 10:43 24.06.2022
2912 Clouds 22 1018 56 10000 2.06 130 09:42 24.06.2022
2913 Clouds 22 1018 60 10000 3.09 160 08:58 24.06.2022
2914 Clouds 23 1017 60 10000 2.57 160 08:40 24.06.2022
2915 Clouds 23 1016 64 10000 4.12 150 06:47 24.06.2022
2916 Clouds 22 1016 68 10000 4.63 160 06:27 24.06.2022
2917 Clouds 23 1016 68 10000 2.57 140 05:21 24.06.2022
2918 Clouds 25 1016 61 10000 4.12 180 00:47 24.06.2022
2919 Rain 24 1017 69 10000 3.09 150 22:43 23.06.2022
2920 Clouds 24 1016 69 10000 2.57 170 21:40 23.06.2022
2921 Clouds 24 1015 60 10000 1.03 170 20:42 23.06.2022
2922 Clouds 24 1015 60 10000 3.09 190 19:55 23.06.2022
2923 Clouds 24 1013 64 10000 4.12 220 18:38 23.06.2022
2924 Clouds 24 1013 69 10000 2.57 210 17:34 23.06.2022
2925 Clouds 24 1013 64 10000 4.63 220 16:29 23.06.2022
2926 Clouds 24 1013 69 10000 4.63 220 15:26 23.06.2022
2927 Clouds 25 1013 65 10000 5.14 220 14:34 23.06.2022
2928 Clouds 25 1013 78 10000 4.63 230 11:41 23.06.2022
2929 Clouds 25 1013 78 10000 4.12 220 10:40 23.06.2022
2930 Rain 24 1013 88 10000 4.12 230 09:19 23.06.2022
2931 Rain 25 1011 94 6000 7.72 250 04:48 23.06.2022
2932 Clouds 28 1013 78 10000 7.72 300 00:27 23.06.2022
2933 Clouds 27 1014 83 10000 7.72 300 23:52 22.06.2022
2934 Clouds 28 1014 78 10000 6.69 310 22:53 22.06.2022
2935 Clouds 27 1014 78 10000 6.69 310 21:36 22.06.2022
2936 Clouds 27 1014 78 10000 6.69 310 20:48 22.06.2022
2937 Clouds 26 1013 89 10000 6.17 310 20:18 22.06.2022
2938 Clouds 26 1012 83 10000 5.14 310 18:57 22.06.2022
2939 Clouds 26 1012 83 10000 5.14 310 17:31 22.06.2022
2940 Clouds 26 1012 83 10000 5.14 310 16:40 22.06.2022
2941 Clouds 26 1013 89 10000 4.63 320 15:28 22.06.2022
2942 Clouds 26 1013 83 10000 5.14 310 14:40 22.06.2022
2943 Clouds 26 1013 83 10000 4.63 310 13:45 22.06.2022
2944 Clouds 26 1013 83 10000 5.14 320 13:23 22.06.2022
2945 Clouds 26 1014 89 10000 4.12 300 11:50 22.06.2022
2946 Clouds 26 1014 89 10000 4.12 300 11:50 22.06.2022
2947 Clouds 26 1014 89 10000 4.12 310 10:58 22.06.2022
2948 Clouds 26 1014 89 10000 4.63 310 10:26 22.06.2022
2949 Clouds 26 1014 89 10000 4.12 310 08:48 22.06.2022
2950 Clouds 27 1013 83 10000 4.63 310 06:21 22.06.2022
2951 Clouds 28 1014 78 10000 4.12 330 01:50 22.06.2022
2952 Clouds 28 1015 78 10000 4.63 340 00:39 22.06.2022
2953 Clouds 28 1015 83 10000 4.63 340 22:37 21.06.2022
2954 Clouds 26 1015 89 10000 4.12 320 20:40 21.06.2022
2955 Clouds 26 1014 89 10000 3.6 320 18:53 21.06.2022
2956 Clouds 26 1013 89 10000 4.12 330 17:42 21.06.2022
2957 Clouds 26 1014 94 10000 3.09 320 15:21 21.06.2022
2958 Clouds 26 1015 94 10000 3.6 310 11:55 21.06.2022
2959 Clouds 26 1015 89 10000 4.12 310 10:20 21.06.2022
2960 Clouds 27 1015 83 10000 3.6 320 08:51 21.06.2022
2961 Clouds 27 1014 83 10000 3.6 310 07:35 21.06.2022
2962 Clouds 28 1012 78 10000 3.6 350 03:21 21.06.2022
2963 Clouds 27 1014 83 10000 5.66 20 23:27 20.06.2022
2964 Clouds 26 1014 83 10000 4.12 40 21:58 20.06.2022
2965 Clouds 27 1014 78 10000 3.6 30 21:31 20.06.2022
2966 Clouds 26 1014 83 10000 4.12 40 19:49 20.06.2022
2967 Clouds 25 1013 88 10000 4.63 50 18:53 20.06.2022
2968 Clouds 25 1013 88 10000 4.63 40 18:23 20.06.2022
2969 Clouds 25 1013 88 10000 3.09 60 17:40 20.06.2022
2970 Clouds 23 1013 100 10000 3.6 90 16:20 20.06.2022
2971 Clouds 25 1014 78 10000 4.63 50 14:18 20.06.2022
2972 Clouds 25 1015 73 10000 6.17 60 11:30 20.06.2022
2973 Clouds 25 1014 73 10000 6.69 50 09:48 20.06.2022
2974 Clouds 25 1014 78 10000 7.72 60 08:45 20.06.2022
2975 Clouds 25 1015 78 10000 6.17 70 06:49 20.06.2022
2976 Clouds 27 1014 69 10000 7.2 70 03:20 20.06.2022
2977 Clouds 27 1016 65 10000 7.2 70 00:37 20.06.2022
2978 Clouds 27 1017 65 10000 6.69 70 23:25 19.06.2022
2979 Clouds 26 1017 69 10000 6.69 70 22:18 19.06.2022
2980 Clouds 25 1017 73 10000 5.14 80 21:41 19.06.2022
2981 Clouds 24 1017 73 10000 4.12 80 20:46 19.06.2022
2982 Clouds 24 1016 73 10000 4.12 90 19:48 19.06.2022
2983 Clouds 23 1016 78 10000 3.09 100 19:24 19.06.2022
2984 Clouds 23 1015 78 10000 5.66 80 18:31 19.06.2022
2985 Clouds 24 1015 73 10000 4.63 80 17:39 19.06.2022
2986 Rain 23 1015 78 10000 3.09 100 16:38 19.06.2022
2987 Clouds 24 1015 73 10000 5.14 90 15:44 19.06.2022
2988 Clouds 24 1016 69 10000 2.57 100 15:26 19.06.2022
2989 Clouds 24 1016 69 10000 2.57 100 14:30 19.06.2022
2990 Clouds 23 1017 73 10000 3.09 100 13:43 19.06.2022
2991 Clouds 23 1018 68 10000 2.57 110 11:53 19.06.2022
2992 Clouds 24 1018 69 10000 4.63 100 10:51 19.06.2022
2993 Clouds 24 1018 69 10000 3.09 120 08:55 19.06.2022
2994 Clouds 24 1018 64 10000 2.57 120 08:30 19.06.2022
2995 Clouds 24 1017 69 10000 3.6 100 06:41 19.06.2022
2996 Clouds 25 1017 61 10000 3.6 140 03:19 19.06.2022
2997 Clouds 25 1019 69 10000 4.12 110 00:27 19.06.2022
2998 Clouds 25 1020 65 10000 3.6 100 23:37 18.06.2022
2999 Clouds 25 1020 65 10000 3.6 100 23:19 18.06.2022
3000 Clouds 24 1020 64 10000 3.09 120 21:54 18.06.2022
3001 Clouds 24 1019 64 10000 3.6 100 20:50 18.06.2022
3002 Clouds 23 1019 68 10000 1.54 120 19:50 18.06.2022
3003 Clouds 23 1018 68 10000 2.57 110 18:54 18.06.2022
3004 Clouds 23 1018 68 10000 3.6 100 17:54 18.06.2022
3005 Clouds 23 1018 68 10000 3.6 100 17:23 18.06.2022
3006 Clouds 23 1018 73 10000 3.09 120 15:38 18.06.2022
3007 Clouds 23 1018 73 10000 2.06 110 14:49 18.06.2022
3008 Clouds 23 1019 73 10000 2.57 120 13:54 18.06.2022
3009 Rain 23 1019 83 10000 3.6 130 11:58 18.06.2022
3010 Rain 23 1020 83 10000 3.6 130 10:57 18.06.2022
3011 Rain 23 1020 83 10000 3.6 130 09:28 18.06.2022
3012 Rain 23 1020 88 10000 3.09 120 08:33 18.06.2022
3013 Rain 23 1019 88 7000 2.06 120 07:32 18.06.2022
3014 Rain 24 1018 83 10000 3.09 120 04:20 18.06.2022
3015 Clouds 27 1019 69 10000 3.09 130 01:27 18.06.2022
3016 Clouds 27 1020 69 10000 2.06 140 00:50 18.06.2022
3017 Clouds 27 1020 65 10000 4.12 90 00:21 18.06.2022
3018 Clouds 26 1020 69 10000 4.63 100 23:29 17.06.2022
3019 Clouds 26 1021 69 10000 3.6 100 21:44 17.06.2022
3020 Clouds 24 1020 78 10000 2.57 110 20:29 17.06.2022
3021 Clouds 24 1019 73 10000 3.09 110 18:59 17.06.2022
3022 Clouds 24 1019 78 10000 2.06 110 17:46 17.06.2022
3023 Clouds 24 1019 78 10000 1.54 120 16:43 17.06.2022
3024 Clouds 24 1019 78 10000 2.57 110 16:19 17.06.2022
3025 Clouds 24 1019 78 10000 2.06 110 15:37 17.06.2022
3026 Clouds 24 1019 78 10000 2.57 110 14:22 17.06.2022
3027 Clouds 24 1019 78 10000 2.06 110 13:51 17.06.2022
3028 Clouds 24 1019 78 10000 3.09 100 13:31 17.06.2022
3029 Clouds 24 1020 78 10000 2.57 110 11:59 17.06.2022
3030 Clouds 24 1020 78 10000 1.54 130 11:39 17.06.2022
3031 Clouds 24 1020 78 10000 1.54 130 11:21 17.06.2022
3032 Clouds 24 1020 73 10000 2.06 120 08:38 17.06.2022
3033 Clouds 24 1019 73 10000 2.57 100 07:53 17.06.2022
3034 Clouds 25 1019 73 10000 2.06 120 06:34 17.06.2022
3035 Clouds 27 1018 65 10000 2.57 110 03:24 17.06.2022
3036 Clouds 27 1019 65 10000 4.12 90 00:46 17.06.2022
3037 Clouds 26 1020 65 10000 3.6 90 23:25 16.06.2022
3038 Rain 26 1020 73 10000 1.54 120 22:31 16.06.2022
3039 Clouds 25 1020 78 10000 1.03 140 21:19 16.06.2022
3040 Clouds 24 1020 83 10000 1.03 160 20:50 16.06.2022
3041 Clouds 23 1019 83 10000 1.54 130 19:59 16.06.2022
3042 Clouds 23 1018 83 10000 1.54 130 18:44 16.06.2022
3043 Clouds 22 1018 83 10000 1.54 120 17:44 16.06.2022
3044 Clouds 22 1018 83 10000 1.54 110 17:22 16.06.2022
3045 Clouds 23 1018 83 10000 2.06 110 15:58 16.06.2022
3046 Clear 23 1019 83 10000 1.54 120 15:21 16.06.2022
3047 Clouds 22 1019 88 10000 1.03 100 13:55 16.06.2022
3048 Clouds 22 1019 88 10000 1.54 120 12:47 16.06.2022
3049 Clouds 21 1020 94 10000 1.03 110 12:20 16.06.2022
3050 Clouds 21 1020 94 10000 0.51 150 11:21 16.06.2022
3051 Clouds 22 1020 94 10000 0.51 170 10:35 16.06.2022
3052 Clouds 23 1019 88 10000 1.03 130 09:37 16.06.2022
3053 Clouds 23 1019 88 10000 1.03 110 08:50 16.06.2022
3054 Clouds 24 1018 83 10000 1.54 110 07:38 16.06.2022
3055 Clouds 26 1018 73 10000 3.6 90 05:43 16.06.2022
3056 Clouds 27 1017 74 10000 6.17 70 03:23 16.06.2022
3057 Clouds 28 1018 69 10000 6.69 70 01:51 16.06.2022
3058 Clouds 28 1018 69 10000 6.69 70 01:22 16.06.2022
3059 Clouds 28 1018 69 10000 6.69 70 01:22 16.06.2022
3060 Clouds 28 1019 74 10000 6.17 70 23:58 15.06.2022
3061 Clouds 27 1020 74 10000 6.17 80 22:47 15.06.2022
3062 Clouds 26 1019 78 10000 5.14 80 21:29 15.06.2022
3063 Clouds 25 1019 83 10000 4.63 80 20:57 15.06.2022
3064 Clouds 24 1019 83 10000 3.6 90 20:35 15.06.2022
3065 Clouds 24 1019 83 10000 3.09 100 19:49 15.06.2022
3066 Clouds 23 1018 88 10000 3.09 90 18:30 15.06.2022
3067 Clouds 24 1018 83 10000 3.09 90 17:42 15.06.2022
3068 Clouds 24 1018 83 10000 2.57 100 16:20 15.06.2022
3069 Clouds 25 1019 78 10000 3.6 90 14:33 15.06.2022
3070 Clouds 25 1019 78 10000 2.57 90 13:20 15.06.2022
3071 Clouds 24 1019 83 10000 3.09 90 12:33 15.06.2022
3072 Clouds 25 1019 78 10000 3.6 90 11:22 15.06.2022
3073 Clouds 24 1019 83 10000 2.57 90 10:21 15.06.2022
3074 Clouds 24 1018 83 10000 2.57 100 08:58 15.06.2022
3075 Clouds 25 1018 78 10000 2.06 100 07:32 15.06.2022
3076 Clouds 27 1017 69 10000 5.14 70 05:24 15.06.2022
3077 Clouds 27 1017 74 10000 5.14 50 02:31 15.06.2022
3078 Clouds 27 1018 74 10000 6.17 60 01:33 15.06.2022
3079 Clouds 27 1019 74 10000 7.2 70 23:55 14.06.2022
3080 Clouds 27 1019 74 10000 7.2 70 23:37 14.06.2022
3081 Clouds 27 1019 74 10000 6.69 70 22:33 14.06.2022
3082 Clouds 26 1019 73 10000 6.69 70 21:42 14.06.2022
3083 Clouds 25 1019 78 10000 4.12 80 20:57 14.06.2022
3084 Clouds 24 1019 83 10000 3.09 100 20:34 14.06.2022
3085 Clouds 24 1019 83 10000 3.09 90 19:25 14.06.2022
3086 Clouds 24 1018 83 10000 3.09 90 18:25 14.06.2022
3087 Clouds 24 1018 83 10000 2.57 90 16:49 14.06.2022
3088 Clouds 24 1019 88 10000 2.57 110 15:50 14.06.2022
3089 Clouds 24 1019 88 10000 1.54 110 15:31 14.06.2022
3090 Drizzle 23 1019 100 10000 0.51 230 14:46 14.06.2022
3091 Clouds 23 1019 94 10000 0.51 220 13:46 14.06.2022
3092 Clouds 23 1019 94 10000 1.54 70 12:48 14.06.2022
3093 Clouds 23 1019 94 10000 1.54 110 11:46 14.06.2022
3094 Rain 23 1019 100 4300 2.57 80 10:49 14.06.2022
3095 Clouds 23 1019 94 10000 2.57 60 10:25 14.06.2022
3096 Clouds 23 1019 94 10000 2.57 60 10:25 14.06.2022
3097 Clouds 23 1019 100 10000 1.03 180 08:49 14.06.2022
3098 Rain 23 1018 94 10000 1.54 70 07:50 14.06.2022
3099 Rain 23 1017 100 4800 5.66 60 05:56 14.06.2022
3100 Clouds 27 1017 74 10000 4.63 60 03:20 14.06.2022
3101 Clouds 28 1018 69 10000 4.12 70 01:36 14.06.2022
3102 Clouds 28 1020 69 10000 4.12 60 23:51 13.06.2022
3103 Clouds 27 1020 65 10000 3.6 60 22:27 13.06.2022
3104 Clouds 26 1020 69 10000 4.12 70 21:59 13.06.2022
3105 Clouds 25 1019 83 10000 2.57 70 20:43 13.06.2022
3106 Clouds 20 1018 94 10000 1.03 120 19:39 13.06.2022
3107 Clouds 20 1018 94 10000 0.51 120 18:36 13.06.2022
3108 Clouds 21 1018 88 10000 0.51 110 17:48 13.06.2022
3109 Clouds 23 1018 78 10000 1.54 110 16:54 13.06.2022
3110 Clouds 23 1018 78 10000 2.06 100 15:53 13.06.2022
3111 Clouds 24 1019 73 10000 1.54 120 14:47 13.06.2022
3112 Clouds 24 1019 73 10000 2.06 110 13:59 13.06.2022
3113 Clouds 25 1019 73 10000 2.57 100 12:59 13.06.2022
3114 Drizzle 24 1020 78 10000 4.12 90 11:38 13.06.2022
3115 Clouds 24 1020 73 10000 3.6 90 10:28 13.06.2022
3116 Clouds 24 1019 73 10000 2.57 100 09:42 13.06.2022
3117 Clouds 24 1019 78 10000 3.09 100 08:25 13.06.2022
3118 Clouds 25 1017 73 10000 4.12 90 06:34 13.06.2022
3119 Clouds 27 1018 69 10000 5.66 70 03:45 13.06.2022
3120 Clouds 26 1019 69 10000 6.17 70 01:38 13.06.2022
3121 Clouds 27 1020 69 10000 5.66 60 00:48 13.06.2022
3122 Clouds 26 1020 69 10000 8.75 80 23:31 12.06.2022
3123 Clouds 26 1020 69 10000 5.14 90 22:23 12.06.2022
3124 Clouds 26 1020 69 10000 2.06 90 21:39 12.06.2022
3125 Clouds 24 1019 69 10000 1.54 130 20:39 12.06.2022
3126 Clouds 24 1018 69 10000 2.06 110 19:38 12.06.2022
3127 Clouds 24 1018 73 10000 3.09 100 18:43 12.06.2022
3128 Rain 25 1018 71 10000 8.38 91 16:42 12.06.2022
3129 Clouds 25 1018 72 10000 8.37 89 15:30 12.06.2022
3130 Clouds 25 1019 69 10000 7.66 91 14:32 12.06.2022
3131 Clouds 25 1019 71 10000 8.14 97 13:55 12.06.2022
3132 Clouds 25 1020 70 10000 7.59 101 12:58 12.06.2022
3133 Clouds 25 1020 68 10000 7.71 100 11:47 12.06.2022
3134 Clouds 25 1020 66 10000 7.64 99 10:45 12.06.2022
3135 Clouds 25 1020 64 10000 7.81 95 09:28 12.06.2022
3136 Clouds 25 1020 64 10000 7.81 95 08:49 12.06.2022
3137 Clouds 25 1020 65 10000 7.54 95 07:40 12.06.2022
3138 Clouds 25 1019 67 10000 7.07 100 05:39 12.06.2022
3139 Clear 25 1018 67 10000 8.08 90 03:38 12.06.2022
3140 Clouds 27 1018 65 10000 8.23 70 01:43 12.06.2022
3141 Clouds 26 1019 65 10000 7.2 80 00:59 12.06.2022
3142 Clouds 26 1019 65 10000 7.72 80 00:26 12.06.2022
3143 Clouds 27 1020 61 10000 7.2 80 23:53 11.06.2022
3144 Clouds 26 1020 61 10000 6.17 90 22:40 11.06.2022
3145 Clouds 26 1020 61 10000 6.17 90 22:21 11.06.2022
3146 Clouds 25 1020 61 10000 2.57 110 20:50 11.06.2022
3147 Clouds 24 1020 69 10000 3.6 110 20:21 11.06.2022
3148 Clouds 23 1019 68 10000 2.06 120 19:26 11.06.2022
3149 Clouds 24 1018 69 10000 4.63 100 18:34 11.06.2022
3150 Clouds 24 1018 69 10000 3.09 90 17:51 11.06.2022
3151 Clouds 24 1018 69 10000 4.12 90 17:29 11.06.2022
3152 Clouds 24 1018 73 10000 3.09 100 16:57 11.06.2022
3153 Clouds 24 1018 73 10000 3.6 100 16:30 11.06.2022
3154 Clouds 24 1018 69 10000 2.57 100 15:43 11.06.2022
3155 Clouds 24 1018 69 10000 2.57 100 15:43 11.06.2022
3156 Clouds 24 1019 69 10000 4.12 100 13:53 11.06.2022
3157 Clouds 24 1019 69 10000 2.57 120 12:57 11.06.2022
3158 Clouds 24 1019 69 10000 3.6 100 10:55 11.06.2022
3159 Clouds 24 1019 64 10000 2.06 110 10:19 11.06.2022
3160 Clouds 24 1019 69 10000 2.57 120 09:19 11.06.2022
3161 Clouds 24 1019 69 10000 2.06 110 07:43 11.06.2022
3162 Clouds 24 1018 69 10000 3.09 110 06:30 11.06.2022
3163 Clouds 25 1017 65 10000 3.6 110 05:19 11.06.2022
3164 Clouds 26 1017 65 10000 6.17 90 01:53 11.06.2022
3165 Clouds 26 1018 65 10000 6.69 90 01:33 11.06.2022
3166 Clouds 26 1018 65 10000 7.2 90 00:21 11.06.2022
3167 Clouds 25 1019 65 10000 5.66 90 22:32 10.06.2022
3168 Clouds 25 1019 61 10000 4.12 100 21:52 10.06.2022
3169 Clouds 24 1019 60 10000 2.57 110 20:42 10.06.2022
3170 Clouds 24 1019 60 10000 2.57 110 20:22 10.06.2022
3171 Clouds 23 1018 68 10000 1.54 140 19:38 10.06.2022
3172 Clouds 23 1018 68 10000 1.54 140 19:18 10.06.2022
3173 Clouds 23 1018 68 10000 1.54 140 19:18 10.06.2022
3174 Clouds 23 1018 68 10000 1.54 140 19:18 10.06.2022
3175 Clouds 23 1018 64 10000 2.06 140 18:18 10.06.2022
3176 Clouds 23 1017 68 10000 2.06 140 17:35 10.06.2022
3177 Clouds 23 1017 68 10000 1.54 130 16:51 10.06.2022
3178 Clouds 23 1017 64 10000 2.06 140 15:45 10.06.2022
3179 Clouds 22 1017 68 10000 1.54 150 14:57 10.06.2022
3180 Clouds 22 1018 68 10000 1.03 140 13:36 10.06.2022
3181 Clouds 22 1018 73 10000 1.54 130 12:21 10.06.2022
3182 Clouds 21 1018 78 10000 1.03 150 11:30 10.06.2022
3183 Clouds 22 1018 68 10000 1.54 150 10:36 10.06.2022
3184 Clouds 23 1018 68 10000 2.06 140 09:37 10.06.2022
3185 Clouds 23 1017 68 10000 2.57 130 07:58 10.06.2022
3186 Clouds 23 1017 68 10000 2.06 140 06:50 10.06.2022
3187 Clouds 23 1017 68 10000 1.54 120 06:31 10.06.2022
3188 Clouds 24 1016 64 10000 3.6 140 05:34 10.06.2022
3189 Clouds 26 1016 65 10000 2.06 110 02:50 10.06.2022
3190 Clouds 26 1016 53 10000 2.57 150 01:37 10.06.2022
3191 Clouds 25 1018 57 10000 3.6 120 23:58 09.06.2022
3192 Clouds 25 1018 61 10000 3.09 120 22:43 09.06.2022
3193 Clouds 24 1018 64 10000 3.6 130 21:44 09.06.2022
3194 Clouds 25 1018 61 10000 2.57 140 21:25 09.06.2022
3195 Clouds 24 1017 64 10000 3.09 120 20:38 09.06.2022
3196 Clouds 23 1017 68 10000 2.57 130 19:51 09.06.2022
3197 Clouds 23 1016 68 10000 3.09 130 18:41 09.06.2022
3198 Clouds 23 1015 73 10000 3.6 140 17:33 09.06.2022
3199 Clouds 23 1015 73 10000 3.09 140 16:28 09.06.2022
3200 Clouds 23 1015 73 10000 1.03 120 15:22 09.06.2022
3201 Clouds 23 1016 73 10000 2.57 140 14:30 09.06.2022
3202 Clouds 23 1016 78 10000 2.06 140 13:44 09.06.2022
3203 Clouds 23 1016 78 10000 1.03 190 13:19 09.06.2022
3204 Clouds 23 1016 78 10000 1.54 110 11:35 09.06.2022
3205 Clouds 24 1016 73 10000 1.54 340 09:55 09.06.2022
3206 Clouds 24 1016 73 10000 1.54 340 09:55 09.06.2022
3207 Clouds 24 1016 73 10000 2.06 10 09:37 09.06.2022
3208 Clouds 24 1016 73 10000 2.57 140 08:38 09.06.2022
3209 Clouds 24 1015 73 10000 2.06 150 07:29 09.06.2022
3210 Clouds 26 1013 65 10000 4.12 160 03:31 09.06.2022
3211 Clouds 25 1015 73 10000 2.06 190 00:35 09.06.2022
3212 Clouds 26 1015 69 10000 2.57 190 23:18 08.06.2022
3213 Clouds 26 1015 73 10000 2.06 190 22:43 08.06.2022
3214 Clouds 26 1015 73 10000 2.06 180 22:23 08.06.2022
3215 Clouds 25 1015 73 10000 1.54 200 21:33 08.06.2022
3216 Clouds 21 1014 94 10000 0.51 90 20:25 08.06.2022
3217 Clouds 19 1013 100 10000 0.51 140 19:41 08.06.2022
3218 Clouds 19 1013 100 10000 0.51 120 18:48 08.06.2022
3219 Clouds 22 1012 94 10000 0.51 180 17:41 08.06.2022
3220 Clouds 20 1012 100 10000 0.51 170 15:53 08.06.2022
3221 Clear 20 1013 100 10000 1.03 180 14:38 08.06.2022
3222 Clear 20 1013 100 10000 1.03 180 12:55 08.06.2022
3223 Clear 20 1013 100 10000 1.03 180 12:55 08.06.2022
3224 Clear 20 1013 100 10000 1.03 180 11:36 08.06.2022
3225 Clear 21 1013 94 10000 0.51 120 10:46 08.06.2022
3226 Clouds 21 1013 100 10000 1.03 180 09:28 08.06.2022
3227 Clear 21 1013 100 10000 1.54 180 08:52 08.06.2022
3228 Clouds 23 1012 88 10000 0.51 150 06:56 08.06.2022
3229 Clouds 27 1011 69 10000 3.09 230 04:41 08.06.2022
3230 Clouds 27 1012 69 10000 4.12 250 00:58 08.06.2022
3231 Clouds 26 1013 78 10000 4.63 260 23:32 07.06.2022
3232 Clouds 26 1013 78 10000 4.63 260 22:51 07.06.2022
3233 Clouds 26 1013 73 10000 4.63 260 22:33 07.06.2022
3234 Clouds 26 1012 73 10000 4.63 260 21:37 07.06.2022
3235 Clouds 26 1012 73 10000 4.63 260 21:18 07.06.2022
3236 Clouds 25 1012 78 10000 4.63 270 20:37 07.06.2022
3237 Clouds 25 1012 78 10000 5.14 270 19:49 07.06.2022
3238 Clouds 25 1011 78 10000 5.14 270 18:25 07.06.2022
3239 Clouds 25 1010 78 10000 5.14 260 17:31 07.06.2022
3240 Clouds 25 1010 78 10000 5.14 260 16:44 07.06.2022
3241 Clouds 25 1010 83 10000 4.63 250 15:57 07.06.2022
3242 Clouds 25 1010 83 10000 6.17 270 15:27 07.06.2022
3243 Clouds 25 1010 83 10000 6.17 270 14:52 07.06.2022
3244 Clouds 25 1010 83 10000 5.14 280 14:34 07.06.2022
3245 Clouds 25 1011 78 10000 6.17 280 13:32 07.06.2022
3246 Clouds 25 1010 78 10000 6.69 270 12:52 07.06.2022
3247 Clouds 24 1010 83 10000 2.57 310 11:49 07.06.2022
3248 Rain 23 1011 88 10000 2.06 250 10:27 07.06.2022
3249 Rain 23 1012 94 3700 10.29 260 08:51 07.06.2022
3250 Clouds 27 1011 78 10000 4.63 330 07:35 07.06.2022
3251 Clouds 27 1010 78 10000 4.63 350 06:38 07.06.2022
3252 Clouds 27 1010 78 10000 4.63 350 06:38 07.06.2022
3253 Clouds 27 1010 78 10000 5.66 350 04:20 07.06.2022
3254 Clouds 27 1012 83 10000 5.14 340 01:27 07.06.2022
3255 Clouds 27 1013 74 10000 4.63 360 23:46 06.06.2022
3256 Rain 27 1013 83 10000 4.63 10 22:54 06.06.2022
3257 Clouds 27 1014 78 10000 4.63 10 22:28 06.06.2022
3258 Clouds 26 1013 83 10000 3.6 40 20:42 06.06.2022
3259 Clouds 25 1013 78 10000 5.66 50 19:24 06.06.2022
3260 Clouds 25 1013 88 10000 5.14 40 18:48 06.06.2022
3261 Clouds 25 1013 83 10000 7.2 40 17:57 06.06.2022
3262 Clouds 26 1012 78 10000 7.2 50 16:57 06.06.2022
3263 Clouds 26 1012 83 10000 5.66 60 15:52 06.06.2022
3264 Clouds 26 1013 83 10000 6.69 70 14:59 06.06.2022
3265 Clouds 26 1013 83 10000 6.69 70 14:59 06.06.2022
3266 Clouds 26 1013 83 10000 6.69 60 14:18 06.06.2022
3267 Clouds 26 1014 83 10000 5.66 70 13:20 06.06.2022
3268 Clouds 25 1015 88 10000 5.14 70 12:34 06.06.2022
3269 Clouds 26 1015 83 10000 6.17 70 11:47 06.06.2022
3270 Clouds 26 1015 83 10000 5.66 70 09:53 06.06.2022
3271 Clouds 25 1015 88 10000 5.66 70 08:57 06.06.2022
3272 Clouds 26 1014 83 10000 5.66 60 08:28 06.06.2022
3273 Clouds 24 1014 94 10000 2.57 90 07:19 06.06.2022
3274 Clouds 27 1014 83 10000 6.17 80 04:39 06.06.2022
3275 Clear 28 1015 78 10000 4.63 70 01:57 06.06.2022
3276 Clouds 28 1015 78 10000 4.12 50 00:57 06.06.2022
3277 Clouds 28 1015 78 10000 3.09 40 00:34 06.06.2022
3278 Clouds 28 1016 78 10000 4.63 60 23:20 05.06.2022
3279 Clouds 27 1016 83 10000 4.63 70 22:21 05.06.2022
3280 Clouds 23 1015 100 10000 1.54 90 20:24 05.06.2022
3281 Clouds 24 1015 94 10000 2.06 100 19:23 05.06.2022
3282 Clouds 22 1015 100 10000 1.54 100 18:19 05.06.2022
3283 Clouds 22 1015 100 10000 1.03 80 17:39 05.06.2022
3284 Clouds 22 1015 100 10000 1.03 80 17:20 05.06.2022
3285 Clouds 23 1015 94 10000 0.51 170 16:47 05.06.2022
3286 Clouds 23 1015 100 10000 2.06 90 15:25 05.06.2022
3287 Clouds 25 1016 94 10000 1.54 110 14:21 05.06.2022
3288 Clouds 25 1016 94 10000 2.57 90 11:59 05.06.2022
3289 Clouds 25 1016 94 10000 2.06 100 10:45 05.06.2022
3290 Clouds 25 1016 94 10000 2.06 100 10:24 05.06.2022
3291 Rain 25 1016 94 10000 3.09 90 09:33 05.06.2022
3292 Clouds 25 1015 94 10000 3.09 90 08:23 05.06.2022
3293 Clouds 26 1015 89 10000 2.06 90 06:23 05.06.2022
3294 Clouds 26 1015 89 10000 2.06 100 05:19 05.06.2022
3295 Clouds 27 1015 83 10000 7.2 80 02:43 05.06.2022
3296 Clouds 27 1015 78 10000 9.26 80 01:23 05.06.2022
3297 Clouds 27 1015 78 10000 9.26 80 01:23 05.06.2022
3298 Clouds 26 1017 83 10000 5.14 80 22:51 04.06.2022
3299 Clouds 25 1017 88 10000 7.2 80 21:30 04.06.2022
3300 Clouds 25 1016 88 10000 6.17 90 19:27 04.06.2022
3301 Clouds 25 1015 83 10000 4.12 90 16:48 04.06.2022
3302 Clouds 25 1016 83 10000 4.12 90 16:20 04.06.2022
3303 Rain 24 1016 94 10000 3.09 80 15:39 04.06.2022
3304 Clouds 24 1016 88 10000 4.63 90 13:59 04.06.2022
3305 Clouds 25 1017 83 10000 7.72 80 11:41 04.06.2022
3306 Clouds 25 1017 78 10000 5.66 80 10:54 04.06.2022
3307 Clouds 25 1017 78 10000 6.69 80 09:56 04.06.2022
3308 Clouds 25 1017 73 10000 6.17 80 09:38 04.06.2022
3309 Clouds 25 1016 78 10000 6.69 80 08:38 04.06.2022
3310 Clouds 25 1015 73 10000 5.14 90 06:32 04.06.2022
3311 Clouds 27 1015 65 10000 8.75 70 03:52 04.06.2022
3312 Clouds 27 1016 61 10000 8.23 80 00:22 04.06.2022
3313 Clouds 26 1017 65 10000 8.23 80 22:56 03.06.2022
3314 Clouds 25 1017 69 10000 6.69 90 21:52 03.06.2022
3315 Clouds 25 1016 69 10000 6.17 90 20:40 03.06.2022
3316 Clouds 24 1016 73 10000 5.66 90 19:33 03.06.2022
3317 Clouds 24 1015 69 10000 5.14 90 16:58 03.06.2022
3318 Clouds 24 1015 69 10000 5.66 90 15:55 03.06.2022
3319 Clouds 25 1015 65 10000 6.69 90 14:25 03.06.2022
3320 Clouds 25 1016 65 10000 6.69 80 12:21 03.06.2022
3321 Clouds 24 1016 69 10000 7.2 90 09:57 03.06.2022
3322 Clouds 24 1017 69 10000 4.63 100 09:29 03.06.2022
3323 Clouds 24 1016 69 10000 7.72 80 07:45 03.06.2022
3324 Clouds 24 1016 69 10000 7.72 90 06:49 03.06.2022
3325 Clouds 24 1015 64 10000 6.17 90 06:27 03.06.2022
3326 Clouds 25 1015 65 10000 9.26 80 02:58 03.06.2022
3327 Clouds 25 1017 65 10000 7.2 100 23:39 02.06.2022
3328 Clouds 24 1017 69 10000 6.69 90 21:58 02.06.2022
3329 Clouds 24 1017 69 10000 5.66 100 20:38 02.06.2022
3330 Clouds 24 1017 64 10000 4.63 90 19:55 02.06.2022
3331 Clouds 23 1016 68 10000 5.14 100 19:37 02.06.2022
3332 Clouds 24 1016 64 10000 4.12 100 18:39 02.06.2022
3333 Clouds 23 1016 64 10000 4.63 100 16:28 02.06.2022
3334 Clouds 23 1016 64 10000 5.66 90 15:46 02.06.2022
3335 Clouds 23 1017 60 10000 3.6 100 13:30 02.06.2022
3336 Clouds 23 1017 60 10000 4.63 100 12:46 02.06.2022
3337 Clouds 23 1017 64 10000 4.63 110 10:36 02.06.2022
3338 Clouds 23 1017 64 10000 5.14 110 09:29 02.06.2022
3339 Rain 22 1017 73 10000 3.6 100 08:39 02.06.2022
3340 Rain 22 1017 73 10000 3.6 100 08:19 02.06.2022
3341 Clouds 24 1015 57 10000 5.66 100 06:20 02.06.2022
3342 Clouds 25 1015 57 10000 5.66 100 03:50 02.06.2022
3343 Clouds 25 1015 61 10000 7.2 90 00:47 02.06.2022
3344 Clouds 25 1016 57 10000 6.69 110 22:57 01.06.2022
3345 Clouds 25 1016 57 10000 6.69 110 22:57 01.06.2022
3346 Clouds 24 1016 60 10000 6.17 110 21:52 01.06.2022
3347 Clouds 24 1016 60 10000 5.66 110 21:24 01.06.2022
3348 Clouds 24 1015 60 10000 5.66 110 20:38 01.06.2022
3349 Clouds 23 1015 68 10000 4.12 110 19:50 01.06.2022
3350 Clouds 23 1014 68 10000 4.12 110 18:24 01.06.2022
3351 Clouds 24 1014 64 10000 3.09 130 16:48 01.06.2022
3352 Clouds 24 1013 69 10000 5.66 110 15:42 01.06.2022
3353 Clouds 24 1013 69 10000 5.66 110 15:42 01.06.2022
3354 Rain 23 1014 73 10000 5.66 110 14:35 01.06.2022
3355 Rain 22 1014 83 10000 6.17 110 13:18 01.06.2022
3356 Clouds 24 1014 73 10000 5.14 110 10:42 01.06.2022
3357 Clouds 24 1014 73 10000 6.17 100 09:28 01.06.2022
3358 Rain 24 1013 73 10000 4.12 110 07:59 01.06.2022
3359 Clouds 24 1013 73 10000 3.09 110 07:20 01.06.2022
3360 Rain 23 1011 83 10000 4.63 100 03:22 01.06.2022
3361 Rain 25 1012 83 10000 2.57 120 23:47 31.05.2022
3362 Clouds 25 1012 73 10000 2.57 80 22:38 31.05.2022
3363 Clouds 25 1012 73 10000 2.57 80 22:18 31.05.2022
3364 Clouds 23 1013 76 10000 6.28 131 21:22 31.05.2022
3365 Clouds 22 1012 83 10000 2.06 150 20:41 31.05.2022
3366 Clouds 22 1011 83 10000 1.03 100 18:57 31.05.2022
3367 Clouds 23 1010 83 10000 2.06 130 18:19 31.05.2022
3368 Rain 22 1010 94 10000 1.54 130 17:35 31.05.2022
3369 Clouds 22 1011 88 10000 1.03 130 15:42 31.05.2022
3370 Clouds 22 1010 83 10000 4.63 80 14:36 31.05.2022
3371 Clouds 22 1011 94 10000 4.63 100 12:39 31.05.2022
3372 Clouds 22 1011 94 10000 4.63 100 12:18 31.05.2022
3373 Rain 21 1013 88 8000 5.66 170 09:53 31.05.2022
3374 Clouds 25 1010 83 10000 5.14 60 07:42 31.05.2022
3375 Clouds 25 1011 78 10000 3.09 50 05:25 31.05.2022
3376 Rain 23 1012 88 10000 3.09 70 02:51 31.05.2022
3377 Clouds 25 1016 88 10000 4.63 320 23:29 30.05.2022
3378 Rain 25 1016 83 10000 3.6 20 23:00 30.05.2022
3379 Rain 25 1015 83 10000 4.63 40 22:31 30.05.2022
3380 Rain 25 1015 83 10000 5.66 70 21:35 30.05.2022
3381 Clouds 25 1014 78 10000 6.17 70 20:31 30.05.2022
3382 Clouds 24 1013 83 10000 6.69 80 19:26 30.05.2022
3383 Clouds 25 1013 69 10000 5.66 90 17:43 30.05.2022
3384 Clouds 24 1014 73 10000 6.17 80 16:54 30.05.2022
3385 Drizzle 23 1015 88 10000 8.75 70 15:43 30.05.2022
3386 Clouds 25 1015 69 10000 6.17 90 12:44 30.05.2022
3387 Clouds 25 1017 69 10000 4.63 100 10:57 30.05.2022
3388 Clouds 25 1016 69 10000 5.66 100 09:39 30.05.2022
3389 Clouds 25 1016 73 10000 5.14 100 07:24 30.05.2022
3390 Clouds 25 1015 73 10000 6.17 100 05:51 30.05.2022
3391 Clouds 25 1016 78 10000 5.14 100 02:36 30.05.2022
3392 Clouds 26 1018 73 10000 6.69 90 23:28 29.05.2022
3393 Clouds 26 1018 73 10000 6.69 80 22:39 29.05.2022
3394 Clouds 26 1018 73 10000 5.14 90 21:31 29.05.2022
3395 Clouds 25 1017 78 10000 4.12 100 19:48 29.05.2022
3396 Clouds 25 1017 78 10000 4.12 100 19:27 29.05.2022
3397 Clouds 25 1017 78 10000 2.57 110 17:41 29.05.2022
3398 Clouds 24 1017 83 10000 2.06 100 15:49 29.05.2022
3399 Clouds 24 1017 83 10000 1.54 120 15:28 29.05.2022
3400 Clouds 25 1017 78 10000 2.57 120 14:23 29.05.2022
3401 Clouds 25 1018 78 10000 2.57 110 11:55 29.05.2022
3402 Clouds 25 1018 78 10000 2.06 110 10:42 29.05.2022
3403 Clouds 25 1018 83 10000 2.06 120 09:51 29.05.2022
3404 Rain 25 1017 83 10000 2.06 110 06:51 29.05.2022
3405 Clouds 27 1016 74 10000 3.6 100 04:47 29.05.2022
3406 Clouds 27 1016 74 10000 4.12 100 04:19 29.05.2022
3407 Clouds 28 1018 69 10000 4.63 100 23:53 28.05.2022
3408 Clouds 28 1019 74 10000 3.09 100 23:34 28.05.2022
3409 Clouds 27 1019 74 10000 3.6 100 22:40 28.05.2022
3410 Clouds 26 1018 78 10000 3.09 100 21:38 28.05.2022
3411 Clouds 25 1018 83 10000 2.06 100 19:51 28.05.2022
3412 Clouds 24 1017 88 10000 2.06 100 18:58 28.05.2022
3413 Rain 24 1017 88 10000 1.54 140 17:38 28.05.2022
3414 Rain 25 1017 83 10000 2.06 120 16:50 28.05.2022
3415 Clouds 25 1017 83 10000 2.06 110 15:43 28.05.2022
3416 Clouds 25 1017 83 10000 2.57 100 14:28 28.05.2022
3417 Clouds 24 1017 88 10000 2.06 110 12:57 28.05.2022
3418 Clouds 24 1017 88 10000 1.03 120 12:35 28.05.2022
3419 Clouds 25 1017 83 10000 3.09 100 11:23 28.05.2022
3420 Clouds 25 1017 83 10000 2.57 100 10:21 28.05.2022
3421 Clouds 24 1017 88 10000 1.03 90 09:22 28.05.2022
3422 Clouds 24 1016 88 10000 2.06 100 07:23 28.05.2022
3423 Clouds 25 1016 88 10000 2.57 90 05:48 28.05.2022
3424 Rain 25 1016 88 10000 5.66 80 02:52 28.05.2022
3425 Clouds 28 1017 74 10000 4.12 90 00:33 28.05.2022
3426 Clouds 28 1017 74 10000 3.09 100 23:20 27.05.2022
3427 Clouds 27 1017 74 10000 1.54 80 21:46 27.05.2022
3428 Clouds 24 1017 94 10000 0.51 250 20:56 27.05.2022
3429 Clouds 22 1016 100 10000 1.03 190 20:25 27.05.2022
3430 Clouds 22 1016 100 10000 1.03 60 19:42 27.05.2022
3431 Clouds 22 1016 100 10000 1.03 210 19:24 27.05.2022
3432 Clouds 22 1014 100 10000 1.03 130 17:54 27.05.2022
3433 Clouds 21 1014 100 10000 0.51 110 16:38 27.05.2022
3434 Clouds 22 1015 100 10000 1.54 190 15:22 27.05.2022
3435 Clouds 21 1015 100 10000 0.51 160 13:53 27.05.2022
3436 Clouds 23 1015 94 10000 1.54 100 12:39 27.05.2022
3437 Clouds 22 1015 100 10000 1.03 150 11:33 27.05.2022
3438 Clouds 22 1015 100 10000 0.51 140 10:54 27.05.2022
3439 Clouds 22 1015 100 10000 0 0 10:26 27.05.2022
3440 Clouds 23 1015 94 10000 1.54 190 09:32 27.05.2022
3441 Clouds 23 1015 100 10000 0.51 150 07:50 27.05.2022
3442 Clouds 26 1014 83 10000 1.03 110 05:32 27.05.2022
3443 Clouds 26 1014 72 10000 2.91 132 02:26 27.05.2022
3444 Clouds 28 1015 69 10000 3.6 60 00:19 27.05.2022
3445 Clouds 27 1016 78 10000 1.54 90 22:30 26.05.2022
3446 Clouds 26 1016 89 10000 0.51 80 21:34 26.05.2022
3447 Clouds 23 1015 100 10000 1.03 190 19:58 26.05.2022
3448 Rain 23 1014 100 10000 2.57 100 19:19 26.05.2022
3449 Clouds 23 1013 94 10000 1.54 60 17:37 26.05.2022
3450 Clouds 22 1013 100 10000 1.03 90 16:36 26.05.2022
3451 Clouds 22 1014 100 10000 1.54 190 15:41 26.05.2022
3452 Clouds 21 1013 100 10000 0.51 200 14:21 26.05.2022
3453 Clouds 21 1014 100 10000 1.03 180 12:36 26.05.2022
3454 Clouds 22 1015 94 10000 1.03 180 11:21 26.05.2022
3455 Clouds 22 1014 94 10000 1.03 190 09:40 26.05.2022
3456 Clouds 22 1014 94 10000 1.03 190 09:19 26.05.2022
3457 Clouds 23 1014 94 10000 0.51 180 07:51 26.05.2022
3458 Clouds 26 1013 74 10000 1.47 152 03:35 26.05.2022
3459 Clouds 29 1015 70 10000 1.54 10 00:21 26.05.2022
3460 Clear 28 1015 74 10000 2.57 30 23:22 25.05.2022
3461 Clear 27 1015 78 10000 2.57 70 21:47 25.05.2022
3462 Clouds 27 1015 78 10000 1.03 100 21:28 25.05.2022
3463 Clouds 23 1015 94 10000 1.03 100 19:59 25.05.2022
3464 Clouds 23 1014 94 10000 2.06 110 19:19 25.05.2022
3465 Clear 22 1014 94 10000 1.54 80 17:30 25.05.2022
3466 Clouds 22 1014 94 10000 1.54 170 16:36 25.05.2022
3467 Clear 22 1014 94 10000 1.03 190 15:53 25.05.2022
3468 Clear 22 1014 100 10000 1.03 160 14:51 25.05.2022
3469 Clouds 22 1014 94 10000 1.54 100 14:32 25.05.2022
3470 Clouds 23 1014 94 10000 1.54 80 13:28 25.05.2022
3471 Clear 26 1015 72 10000 4.57 60 12:24 25.05.2022
3472 Clouds 24 1015 94 10000 2.57 100 10:42 25.05.2022
3473 Clear 23 1016 94 10000 2.06 90 09:53 25.05.2022
3474 Clear 27 1016 69 10000 4.08 61 08:22 25.05.2022
3475 Clear 27 1016 69 10000 4.43 70 06:45 25.05.2022
3476 Clouds 29 1016 74 10000 3.09 30 02:55 25.05.2022
3477 Clouds 29 1018 74 10000 3.09 40 23:52 24.05.2022
3478 Clouds 29 1018 74 10000 3.09 40 23:23 24.05.2022
3479 Clouds 28 1019 74 10000 3.6 60 22:18 24.05.2022
3480 Clouds 27 1018 78 10000 3.6 50 21:38 24.05.2022
3481 Clouds 27 1018 78 10000 3.6 50 21:19 24.05.2022
3482 Clouds 26 1017 83 10000 4.63 50 19:32 24.05.2022
3483 Clouds 25 1017 88 10000 4.63 90 18:40 24.05.2022
3484 Clouds 24 1016 94 10000 2.06 120 16:40 24.05.2022
3485 Clouds 24 1016 94 10000 1.54 110 15:54 24.05.2022
3486 Clouds 24 1017 88 10000 2.06 130 14:45 24.05.2022
3487 Clouds 24 1017 88 10000 1.54 140 13:48 24.05.2022
3488 Clouds 24 1018 94 10000 1.54 150 12:42 24.05.2022
3489 Clouds 25 1018 88 10000 2.06 150 10:18 24.05.2022
3490 Clouds 25 1018 88 10000 2.06 150 09:41 24.05.2022
3491 Clouds 25 1018 88 10000 2.57 150 08:43 24.05.2022
3492 Rain 26 1018 77 10000 4.26 68 06:45 24.05.2022
3493 Clouds 28 1016 69 10000 1.54 90 03:48 24.05.2022
3494 Clouds 29 1017 74 10000 4.12 60 01:48 24.05.2022
3495 Clouds 30 1018 74 10000 3.6 30 00:57 24.05.2022
3496 Clouds 27 1019 83 10000 3.09 40 22:29 23.05.2022
3497 Clouds 27 1019 83 10000 3.09 40 21:53 23.05.2022
3498 Clouds 25 1018 88 10000 1.54 130 20:55 23.05.2022
3499 Clouds 25 1018 88 10000 1.54 130 20:21 23.05.2022
3500 Clouds 25 1018 83 10000 1.03 140 19:30 23.05.2022
3501 Clouds 26 1017 83 10000 0.51 80 18:42 23.05.2022
3502 Clouds 26 1017 83 10000 0.51 80 18:22 23.05.2022
3503 Clouds 26 1017 83 10000 1.03 130 16:46 23.05.2022
3504 Clouds 26 1017 89 10000 2.57 10 14:44 23.05.2022
3505 Clouds 26 1017 83 10000 2.57 360 11:58 23.05.2022
3506 Clouds 26 1017 83 10000 2.57 360 11:20 23.05.2022
3507 Clouds 27 1017 78 10000 3.09 360 09:48 23.05.2022
3508 Clouds 27 1017 78 10000 2.57 360 08:50 23.05.2022
3509 Clouds 27 1016 78 10000 3.09 330 07:41 23.05.2022
3510 Clouds 27 1015 83 10000 2.57 310 06:41 23.05.2022
3511 Clouds 29 1014 74 10000 3.6 330 04:40 23.05.2022
3512 Clouds 29 1014 74 10000 4.12 330 02:19 23.05.2022
3513 Clouds 29 1015 74 10000 4.63 330 01:34 23.05.2022
3514 Clouds 28 1015 83 10000 6.95 8 23:42 22.05.2022
3515 Clouds 27 1015 89 10000 4.63 40 22:34 22.05.2022
3516 Clouds 26 1015 89 10000 6.17 60 21:54 22.05.2022
3517 Rain 26 1016 78 10000 5.37 67 20:51 22.05.2022
3518 Rain 26 1016 79 10000 6.17 89 20:23 22.05.2022
3519 Rain 25 1014 94 10000 7.2 70 19:42 22.05.2022
3520 Rain 24 1014 94 10000 2.06 100 18:52 22.05.2022
3521 Rain 24 1014 94 10000 2.06 100 18:22 22.05.2022
3522 Rain 24 1014 94 10000 1.54 110 17:26 22.05.2022
3523 Rain 24 1014 94 10000 3.6 100 15:59 22.05.2022
3524 Rain 24 1014 94 10000 3.09 100 14:48 22.05.2022
3525 Drizzle 24 1014 94 10000 3.6 100 13:27 22.05.2022
3526 Drizzle 24 1015 94 10000 3.6 90 12:50 22.05.2022
3527 Rain 24 1015 94 8000 2.57 110 11:32 22.05.2022
3528 Clouds 24 1015 88 10000 3.6 100 09:41 22.05.2022
3529 Clouds 24 1014 88 10000 3.09 100 08:21 22.05.2022
3530 Clouds 24 1014 88 10000 2.57 110 07:21 22.05.2022
3531 Clouds 27 1012 78 10000 2.57 100 04:59 22.05.2022
3532 Clouds 27 1013 78 10000 5.66 70 01:21 22.05.2022
3533 Clouds 28 1014 74 10000 4.63 70 00:39 22.05.2022
3534 Clouds 28 1015 74 10000 4.12 80 23:50 21.05.2022
3535 Clouds 28 1015 69 10000 3.6 70 22:26 21.05.2022
3536 Clouds 25 1015 78 10000 1.03 120 21:41 21.05.2022
3537 Clouds 23 1014 88 10000 0.51 160 20:48 21.05.2022
3538 Clouds 23 1014 88 10000 0.51 160 20:21 21.05.2022
3539 Clouds 23 1014 83 10000 1.54 150 19:25 21.05.2022
3540 Clouds 23 1013 83 10000 1.54 140 17:38 21.05.2022
3541 Clouds 24 1013 88 10000 1.03 130 15:38 21.05.2022
3542 Clouds 25 1014 77 10000 4.13 115 14:37 21.05.2022
3543 Clouds 24 1014 83 10000 1.54 110 13:39 21.05.2022
3544 Clouds 25 1015 75 10000 4.58 117 12:40 21.05.2022
3545 Clouds 25 1014 73 10000 2.06 110 11:54 21.05.2022
3546 Clouds 25 1014 73 10000 2.06 110 10:22 21.05.2022
3547 Clouds 25 1014 78 10000 2.06 140 09:20 21.05.2022
3548 Clouds 25 1013 78 10000 1.54 100 08:47 21.05.2022
3549 Clouds 25 1014 73 10000 4.5 110 06:22 21.05.2022
3550 Clouds 28 1014 65 10000 3.09 100 02:24 21.05.2022
3551 Clouds 28 1016 61 10000 4.12 80 23:45 20.05.2022
3552 Clouds 26 1016 69 10000 3.09 130 22:42 20.05.2022
3553 Clouds 26 1016 69 10000 3.09 130 22:22 20.05.2022
3554 Clouds 25 1016 73 10000 3.09 100 21:27 20.05.2022
3555 Clouds 24 1016 78 10000 1.54 140 20:51 20.05.2022
3556 Clouds 24 1015 78 10000 1.54 130 19:55 20.05.2022
3557 Clouds 23 1015 78 10000 1.03 130 18:58 20.05.2022
3558 Clouds 23 1015 78 10000 1.03 130 18:24 20.05.2022
3559 Clouds 24 1015 83 10000 1.54 120 16:28 20.05.2022
3560 Clouds 24 1015 83 10000 1.54 120 15:54 20.05.2022
3561 Clouds 24 1015 83 10000 1.54 120 15:32 20.05.2022
3562 Clouds 24 1015 83 10000 1.03 140 14:27 20.05.2022
3563 Clouds 24 1016 78 10000 2.06 110 12:45 20.05.2022
3564 Clouds 24 1017 83 10000 2.57 120 10:48 20.05.2022
3565 Clouds 24 1016 83 10000 1.54 120 09:31 20.05.2022
3566 Drizzle 23 1016 94 10000 2.57 100 08:27 20.05.2022
3567 Rain 24 1015 88 10000 2.06 110 06:43 20.05.2022
3568 Clouds 24 1015 88 10000 2.57 120 05:40 20.05.2022
3569 Clouds 26 1017 83 10000 7.9 126 02:41 20.05.2022
3570 Clouds 25 1018 94 10000 8.1 125 23:47 19.05.2022
3571 Clouds 25 1018 94 10000 8.04 123 22:37 19.05.2022
3572 Clouds 24 1018 94 10000 7.91 123 21:50 19.05.2022
3573 Clouds 24 1018 94 10000 7.87 124 21:24 19.05.2022
3574 Clouds 23 1017 94 10000 1.54 130 20:47 19.05.2022
3575 Clouds 23 1017 94 10000 1.54 130 19:54 19.05.2022
3576 Clouds 23 1017 94 10000 1.54 130 19:18 19.05.2022
3577 Clouds 24 1016 88 10000 1.54 150 17:44 19.05.2022
3578 Clouds 23 1017 94 10000 1.54 130 15:51 19.05.2022
3579 Rain 24 1017 94 10000 1.54 180 14:47 19.05.2022
3580 Rain 24 1017 94 10000 1.54 180 14:20 19.05.2022
3581 Clouds 24 1018 88 10000 1.03 150 11:54 19.05.2022
3582 Clouds 24 1018 94 10000 1.54 160 10:30 19.05.2022
3583 Rain 26 1019 79 10000 7.33 131 08:39 19.05.2022
3584 Rain 26 1018 79 10000 7.15 134 07:18 19.05.2022
3585 Clouds 27 1015 89 10000 2.06 150 03:41 19.05.2022
3586 Clouds 25 1018 79 10000 6.8 121 00:57 19.05.2022
3587 Rain 25 1018 78 10000 6.7 122 23:35 18.05.2022
3588 Rain 25 1019 79 10000 6.82 125 22:43 18.05.2022
3589 Clouds 25 1017 83 10000 0.51 160 21:42 18.05.2022
3590 Clouds 25 1017 83 10000 0.51 160 21:20 18.05.2022
3591 Clouds 23 1017 94 10000 0.51 130 20:19 18.05.2022
3592 Clouds 23 1016 94 10000 1.03 260 18:53 18.05.2022
3593 Clouds 23 1016 94 10000 0.51 150 17:42 18.05.2022
3594 Clouds 23 1016 94 10000 0.51 150 17:23 18.05.2022
3595 Clouds 24 1016 94 10000 1.54 110 16:52 18.05.2022
3596 Clouds 23 1017 94 10000 1.54 160 15:43 18.05.2022
3597 Clouds 23 1017 94 10000 1.54 160 15:20 18.05.2022
3598 Clouds 23 1017 94 10000 1.03 180 13:59 18.05.2022
3599 Clouds 23 1017 94 10000 1.03 160 12:53 18.05.2022
3600 Clouds 23 1018 94 10000 2.06 190 11:47 18.05.2022
3601 Clouds 23 1018 94 10000 2.06 190 11:29 18.05.2022
3602 Clouds 23 1017 94 10000 1.03 180 10:36 18.05.2022
3603 Clouds 26 1015 78 10000 1.03 150 07:56 18.05.2022
3604 Clouds 26 1015 78 10000 1.54 140 06:52 18.05.2022
3605 Clouds 27 1015 83 10000 3.6 10 02:47 18.05.2022
3606 Clouds 30 1017 66 10000 3.09 50 00:41 18.05.2022
3607 Clouds 28 1017 74 10000 1.54 70 22:59 17.05.2022
3608 Clouds 26 1017 83 10000 0.51 100 21:21 17.05.2022
3609 Clouds 26 1017 83 10000 0.51 100 21:21 17.05.2022
3610 Clouds 24 1016 88 10000 1.03 190 20:38 17.05.2022
3611 Clouds 23 1016 94 10000 1.03 100 19:29 17.05.2022
3612 Clouds 26 1015 83 10000 2.57 320 18:22 17.05.2022
3613 Rain 25 1016 77 10000 1.75 117 17:28 17.05.2022
3614 Clouds 26 1015 83 10000 2.57 320 16:36 17.05.2022
3615 Clouds 23 1015 94 10000 1.54 170 15:43 17.05.2022
3616 Clouds 23 1016 94 10000 1.54 170 14:31 17.05.2022
3617 Clouds 22 1016 94 10000 0.51 110 13:54 17.05.2022
3618 Rain 25 1016 78 10000 5.52 87 12:32 17.05.2022
3619 Clouds 23 1016 94 10000 1.54 170 09:53 17.05.2022
3620 Clouds 24 1016 88 10000 1.03 180 08:44 17.05.2022
3621 Clouds 24 1015 83 10000 1.54 190 07:18 17.05.2022
3622 Clouds 28 1014 61 10000 2.57 160 04:33 17.05.2022
3623 Clouds 28 1016 65 10000 3.6 90 00:47 17.05.2022
3624 Clouds 27 1017 69 10000 1.54 120 22:45 16.05.2022
3625 Clouds 27 1017 69 10000 1.54 120 22:18 16.05.2022
3626 Clouds 25 1016 73 10000 1.54 130 20:50 16.05.2022
3627 Clouds 24 1015 78 10000 0.51 160 19:59 16.05.2022
3628 Clouds 24 1015 78 10000 2.06 130 18:32 16.05.2022
3629 Clouds 24 1014 78 10000 1.03 150 16:28 16.05.2022
3630 Clouds 24 1015 78 10000 0 0 14:46 16.05.2022
3631 Clouds 24 1016 78 10000 1.54 100 13:26 16.05.2022
3632 Clouds 24 1017 73 10000 2.06 110 11:34 16.05.2022
3633 Clouds 24 1016 73 10000 3.6 150 10:24 16.05.2022
3634 Clouds 25 1015 65 10000 1.54 140 07:34 16.05.2022
3635 Clouds 26 1014 65 10000 1.54 180 05:23 16.05.2022
3636 Clouds 28 1015 61 10000 1.54 180 23:56 15.05.2022
3637 Clouds 27 1015 61 10000 1.03 150 22:34 15.05.2022
3638 Clouds 24 1015 83 10000 1.03 140 21:48 15.05.2022
3639 Clouds 24 1015 83 10000 1.03 140 21:19 15.05.2022
3640 Clouds 20 1013 88 10000 1.03 160 19:56 15.05.2022
3641 Clouds 21 1012 83 10000 2.06 180 17:52 15.05.2022
3642 Clouds 21 1012 88 10000 1.54 170 16:35 15.05.2022
3643 Clouds 22 1012 83 10000 1.03 170 14:18 15.05.2022
3644 Clouds 22 1012 88 10000 0.51 150 13:23 15.05.2022
3645 Clouds 25 1013 83 10000 0.51 90 11:41 15.05.2022
3646 Clouds 25 1012 83 10000 2.06 180 10:35 15.05.2022
3647 Clouds 25 1011 69 10000 2.06 180 08:47 15.05.2022
3648 Clouds 26 1009 69 10000 3.09 230 06:59 15.05.2022
3649 Clouds 26 1009 69 10000 4.12 240 05:57 15.05.2022
3650 Clouds 24 1010 88 10000 2.57 280 00:57 15.05.2022
3651 Rain 24 1010 94 10000 6.17 260 23:47 14.05.2022
3652 Rain 24 1010 94 10000 6.17 260 23:29 14.05.2022
3653 Rain 25 1010 88 10000 11.32 270 21:29 14.05.2022
3654 Rain 26 1009 83 10000 7.2 290 20:53 14.05.2022
3655 Clouds 27 1007 78 10000 5.66 320 19:40 14.05.2022
3656 Clouds 27 1007 78 10000 5.66 320 19:20 14.05.2022
3657 Clouds 27 1006 78 10000 7.2 340 18:46 14.05.2022
3658 Clouds 26 1007 83 10000 5.66 350 16:56 14.05.2022
3659 Clouds 27 1007 74 10000 4.63 360 15:33 14.05.2022
3660 Clouds 27 1008 74 10000 5.14 350 14:34 14.05.2022
3661 Clouds 27 1008 74 10000 5.14 350 14:34 14.05.2022
3662 Rain 26 1009 78 10000 4.63 340 12:34 14.05.2022
3663 Drizzle 25 1010 94 10000 3.09 320 11:35 14.05.2022
3664 Rain 26 1010 89 10000 5.14 20 10:21 14.05.2022
3665 Clouds 26 1009 89 10000 3.6 330 09:53 14.05.2022
3666 Drizzle 26 1009 89 10000 3.6 320 08:49 14.05.2022
3667 Clouds 28 1009 78 10000 4.12 320 06:47 14.05.2022
3668 Clouds 28 1009 78 10000 4.12 310 02:46 14.05.2022
3669 Clouds 28 1011 83 10000 5.14 340 23:44 13.05.2022
3670 Clouds 28 1012 83 10000 5.14 340 22:58 13.05.2022
3671 Clouds 28 1012 83 10000 5.14 340 22:27 13.05.2022
3672 Clouds 27 1011 89 10000 4.63 340 21:52 13.05.2022
3673 Clouds 25 1011 94 10000 3.6 360 20:45 13.05.2022
3674 Clouds 25 1011 94 10000 3.6 360 20:27 13.05.2022
3675 Clouds 26 1010 94 10000 3.6 10 19:28 13.05.2022
3676 Rain 27 1011 81 10000 9.13 352 17:51 13.05.2022
3677 Clouds 27 1010 81 10000 8.77 354 17:28 13.05.2022
3678 Clouds 27 1011 81 10000 8.36 350 16:20 13.05.2022
3679 Clouds 27 1011 94 10000 3.6 10 15:28 13.05.2022
3680 Clouds 27 1011 94 10000 3.6 10 13:48 13.05.2022
3681 Clouds 27 1012 89 10000 4.63 10 12:28 13.05.2022
3682 Clouds 27 1012 89 10000 3.09 10 11:22 13.05.2022
3683 Clouds 27 1012 89 10000 3.6 10 09:34 13.05.2022
3684 Clouds 27 1012 89 10000 4.63 20 08:24 13.05.2022
3685 Clouds 27 1012 89 10000 4.12 10 07:48 13.05.2022
3686 Clouds 28 1011 83 10000 5.14 20 06:33 13.05.2022
3687 Clouds 28 1011 83 10000 5.14 20 06:33 13.05.2022
3688 Clouds 29 1012 84 10000 4.63 30 02:48 13.05.2022
3689 Clouds 28 1013 89 10000 2.57 360 23:56 12.05.2022
3690 Clouds 28 1014 83 10000 4.12 20 22:44 12.05.2022
3691 Clouds 27 1013 89 10000 4.63 30 21:54 12.05.2022
3692 Clouds 26 1013 94 10000 3.6 40 20:27 12.05.2022
3693 Clouds 27 1012 83 10000 4.12 50 18:50 12.05.2022
3694 Clouds 25 1011 94 10000 3.6 30 16:58 12.05.2022
3695 Clouds 27 1012 83 10000 5.66 50 15:50 12.05.2022
3696 Clouds 27 1012 83 10000 4.63 80 14:39 12.05.2022
3697 Clouds 27 1012 83 10000 5.66 70 13:34 12.05.2022
3698 Rain 27 1014 79 10000 8.37 47 10:43 12.05.2022
3699 Clouds 27 1014 78 10000 8.84 50 09:24 12.05.2022
3700 Clouds 25 1013 88 10000 2.06 120 08:50 12.05.2022
3701 Clouds 25 1013 88 10000 2.06 120 07:37 12.05.2022
3702 Clouds 28 1012 78 10000 4.12 60 05:32 12.05.2022
3703 Clouds 28 1013 83 10000 5.66 60 02:24 12.05.2022
3704 Clouds 29 1015 74 10000 5.14 60 23:56 11.05.2022
3705 Clouds 28 1015 78 10000 4.63 60 22:33 11.05.2022
3706 Clouds 28 1015 78 10000 5.14 60 21:32 11.05.2022
3707 Clouds 27 1014 83 10000 5.14 60 20:53 11.05.2022
3708 Clouds 27 1013 83 10000 4.12 60 18:24 11.05.2022
3709 Clouds 25 1013 88 10000 1.54 100 16:50 11.05.2022
3710 Clouds 25 1014 88 10000 1.54 120 14:50 11.05.2022
3711 Clouds 25 1014 88 10000 1.54 120 14:26 11.05.2022
3712 Clouds 25 1014 88 10000 1.54 120 13:44 11.05.2022
3713 Clouds 27 1013 83 10000 2.06 113 11:51 11.05.2022
3714 Rain 27 1015 77 10000 3.72 62 09:54 11.05.2022
3715 Clouds 27 1013 83 10000 1.03 130 07:53 11.05.2022
3716 Clouds 27 1012 83 10000 1.54 90 04:43 11.05.2022
3717 Clouds 29 1014 79 10000 1.54 350 23:48 10.05.2022
3718 Clouds 28 1014 83 10000 0.51 120 22:30 10.05.2022
3719 Clouds 26 1014 89 10000 1.03 140 21:45 10.05.2022
3720 Rain 25 1014 94 10000 1.03 130 20:48 10.05.2022
3721 Clouds 24 1013 94 10000 2.06 170 19:25 10.05.2022
3722 Clouds 24 1012 94 10000 6.69 220 17:44 10.05.2022
3723 Clouds 25 1012 88 10000 2.06 180 16:39 10.05.2022
3724 Clouds 26 1013 89 10000 1.54 360 13:54 10.05.2022
3725 Clouds 27 1013 89 10000 0.51 140 12:30 10.05.2022
3726 Clouds 26 1014 89 10000 0.51 140 11:42 10.05.2022
3727 Clouds 26 1014 89 10000 0.51 140 11:18 10.05.2022
3728 Clouds 26 1014 89 10000 2.06 170 09:52 10.05.2022
3729 Clouds 25 1013 88 10000 1.54 150 08:29 10.05.2022
3730 Rain 27 1012 76 10000 4.51 321 06:21 10.05.2022
3731 Clouds 30 1012 74 10000 1.03 350 02:31 10.05.2022
3732 Rain 27 1014 78 10000 6.15 353 23:55 09.05.2022
3733 Rain 27 1014 78 10000 6.07 359 22:42 09.05.2022
3734 Rain 27 1015 78 10000 5.89 1 21:48 09.05.2022
3735 Clouds 27 1014 80 10000 5.63 10 20:22 09.05.2022
3736 Rain 24 1012 88 10000 3.09 110 18:29 09.05.2022
3737 Rain 26 1013 80 10000 2.63 346 17:27 09.05.2022
3738 Rain 27 1013 78 10000 2.74 335 16:19 09.05.2022
3739 Clouds 27 1015 89 10000 2.06 320 15:47 09.05.2022
3740 Rain 27 1014 77 10000 3.44 345 14:37 09.05.2022
3741 Clouds 27 1014 75 10000 3.85 348 13:59 09.05.2022
3742 Clouds 27 1015 75 10000 4.04 346 13:23 09.05.2022
3743 Clouds 27 1015 89 10000 2.06 320 11:53 09.05.2022
3744 Clouds 27 1015 89 10000 1.03 150 10:48 09.05.2022
3745 Clouds 27 1015 89 10000 1.03 150 10:26 09.05.2022
3746 Clouds 27 1013 89 10000 4.12 350 07:57 09.05.2022
3747 Clouds 29 1012 79 10000 2.06 340 05:53 09.05.2022
3748 Clouds 31 1015 74 10000 3.09 10 00:59 09.05.2022
3749 Clouds 30 1015 79 10000 3.6 20 23:28 08.05.2022
3750 Clouds 29 1015 79 10000 3.09 10 22:32 08.05.2022
3751 Clouds 28 1015 83 10000 2.57 350 21:20 08.05.2022
3752 Clouds 27 1014 83 10000 2.57 10 20:23 08.05.2022
3753 Clouds 27 1014 89 10000 3.09 10 19:33 08.05.2022
3754 Clouds 27 1013 89 10000 3.09 10 18:35 08.05.2022
3755 Clouds 27 1013 89 10000 3.6 10 17:36 08.05.2022
3756 Clouds 27 1014 89 10000 2.57 10 15:46 08.05.2022
3757 Clouds 27 1014 89 10000 2.57 10 15:22 08.05.2022
3758 Clouds 27 1016 89 10000 2.57 340 12:46 08.05.2022
3759 Clouds 27 1015 89 10000 2.57 40 10:59 08.05.2022
3760 Clouds 27 1015 89 10000 2.57 40 10:22 08.05.2022
3761 Clouds 27 1015 89 10000 2.06 30 09:51 08.05.2022
3762 Clouds 27 1015 89 10000 0.51 120 07:43 08.05.2022
3763 Clouds 27 1014 76 10000 2.81 8 05:22 08.05.2022
3764 Clouds 29 1013 84 10000 3.09 350 03:21 08.05.2022
3765 Clouds 27 1015 74 10000 2.46 16 00:42 08.05.2022
3766 Clouds 27 1015 74 10000 2.36 23 23:55 07.05.2022
3767 Clouds 28 1015 78 10000 3.6 50 22:59 07.05.2022
3768 Clouds 28 1015 78 10000 3.6 50 22:35 07.05.2022
3769 Clouds 28 1015 78 10000 2.06 100 21:55 07.05.2022
3770 Clouds 28 1015 78 10000 2.06 100 21:20 07.05.2022
3771 Clouds 25 1014 88 10000 1.03 160 19:59 07.05.2022
3772 Clouds 24 1013 94 10000 1.03 150 18:41 07.05.2022
3773 Clouds 24 1013 94 10000 1.03 150 16:19 07.05.2022
3774 Clouds 25 1013 88 10000 1.03 170 14:46 07.05.2022
3775 Clouds 26 1014 89 10000 1.03 160 11:19 07.05.2022
3776 Clouds 26 1013 89 10000 1.03 210 09:39 07.05.2022
3777 Clouds 27 1012 83 10000 2.57 290 07:54 07.05.2022
3778 Clouds 29 1012 79 10000 3.09 290 06:44 07.05.2022
3779 Clear 31 1011 74 10000 3.6 300 05:34 07.05.2022
3780 Clear 27 1011 75 10000 4.58 329 03:54 07.05.2022
3781 Clear 28 1013 69 10000 2.57 340 23:39 06.05.2022
3782 Clear 28 1013 74 10000 2.57 10 22:33 06.05.2022
3783 Clear 28 1013 74 10000 2.06 360 21:47 06.05.2022
3784 Clouds 25 1012 94 10000 1.54 80 20:37 06.05.2022
3785 Clouds 22 1011 100 10000 1.54 80 19:42 06.05.2022
3786 Clouds 22 1011 100 10000 1.54 80 19:18 06.05.2022
3787 Clouds 23 1011 100 10000 1.03 80 18:23 06.05.2022
3788 Clouds 22 1010 100 10000 0.51 130 16:53 06.05.2022
3789 Clouds 23 1011 94 10000 1.03 80 15:42 06.05.2022
3790 Clouds 23 1011 100 10000 1.03 80 14:54 06.05.2022
3791 Clouds 24 1011 94 10000 0.51 100 13:26 06.05.2022
3792 Clouds 24 1011 94 10000 0.51 120 12:40 06.05.2022
3793 Clouds 23 1011 100 10000 0.51 140 11:45 06.05.2022
3794 Clouds 23 1011 100 10000 0.51 140 10:30 06.05.2022
3795 Clouds 23 1011 94 10000 0.51 120 09:46 06.05.2022
3796 Clouds 24 1010 94 10000 0.51 120 08:33 06.05.2022
3797 Clouds 26 1010 83 10000 0.51 120 06:48 06.05.2022
3798 Clouds 28 1009 74 10000 1.54 20 05:23 06.05.2022
3799 Clouds 29 1009 70 10000 3.09 40 02:47 06.05.2022
3800 Clouds 28 1010 74 10000 2.57 40 00:19 06.05.2022
3801 Clouds 28 1011 74 10000 3.09 40 22:28 05.05.2022
3802 Clouds 27 1011 78 10000 2.57 70 21:22 05.05.2022
3803 Clouds 22 1010 100 10000 1.03 90 19:54 05.05.2022
3804 Clouds 22 1010 100 10000 0.51 150 18:31 05.05.2022
3805 Clouds 23 1009 100 10000 0.51 190 16:20 05.05.2022
3806 Clouds 22 1010 100 10000 0.51 190 14:49 05.05.2022
3807 Clouds 22 1010 100 10000 0.51 170 13:22 05.05.2022
3808 Clouds 23 1010 94 10000 1.03 180 12:25 05.05.2022
3809 Clouds 23 1010 100 10000 1.03 180 10:37 05.05.2022
3810 Clouds 24 1010 94 10000 0.51 180 09:39 05.05.2022
3811 Clouds 25 1009 83 10000 1.03 190 07:34 05.05.2022
3812 Clouds 29 1007 70 10000 3.6 240 04:28 05.05.2022
3813 Clouds 29 1008 65 10000 4.63 250 01:50 05.05.2022
3814 Clouds 28 1009 69 10000 4.63 260 01:22 05.05.2022
3815 Clouds 28 1010 69 10000 5.14 260 23:34 04.05.2022
3816 Clouds 28 1010 74 10000 4.63 270 22:27 04.05.2022
3817 Clouds 27 1010 78 10000 4.12 260 21:49 04.05.2022
3818 Clouds 27 1010 78 10000 4.12 260 21:26 04.05.2022
3819 Clouds 27 1010 78 10000 4.12 260 21:26 04.05.2022
3820 Clouds 25 1009 88 10000 1.54 210 20:22 04.05.2022
3821 Clouds 25 1009 83 10000 1.54 220 19:51 04.05.2022
3822 Clouds 24 1008 94 10000 2.06 220 18:51 04.05.2022
3823 Clouds 24 1008 94 10000 1.54 220 18:21 04.05.2022
3824 Clouds 24 1007 94 10000 1.54 200 17:29 04.05.2022
3825 Rain 24 1007 100 6000 1.54 230 15:38 04.05.2022
3826 Clouds 24 1008 100 10000 1.54 190 15:00 04.05.2022
3827 Clouds 24 1008 100 10000 1.54 200 14:20 04.05.2022
3828 Clouds 25 1008 94 10000 2.57 250 13:18 04.05.2022
3829 Clouds 25 1008 94 10000 1.54 200 12:29 04.05.2022
3830 Clouds 26 1008 89 10000 2.06 250 10:40 04.05.2022
3831 Clouds 26 1008 89 10000 4.12 280 09:38 04.05.2022
3832 Clouds 26 1007 89 10000 2.57 250 08:33 04.05.2022
3833 Clouds 27 1006 83 10000 3.09 270 05:50 04.05.2022
3834 Rain 27 1007 89 10000 2.57 240 02:43 04.05.2022
3835 Clouds 28 1008 83 10000 3.6 260 23:31 03.05.2022
3836 Clouds 27 1008 89 10000 3.6 260 22:20 03.05.2022
3837 Clouds 26 1007 94 10000 5.66 260 21:33 03.05.2022
3838 Clouds 26 1007 94 10000 4.63 260 20:52 03.05.2022
3839 Rain 25 1006 100 10000 8.75 250 19:44 03.05.2022
3840 Clouds 26 1006 89 10000 7.2 250 18:50 03.05.2022
3841 Clouds 27 1005 89 10000 8.75 280 17:38 03.05.2022
3842 Rain 26 1006 94 4600 10.29 290 16:28 03.05.2022
3843 Rain 26 1007 89 8000 8.75 300 14:43 03.05.2022
3844 Rain 27 1007 89 10000 8.75 300 12:47 03.05.2022
3845 Clouds 26 1007 94 10000 6.69 310 12:25 03.05.2022
3846 Clouds 26 1007 94 10000 6.69 310 12:25 03.05.2022
3847 Haze 26 1008 94 3100 7.2 270 10:52 03.05.2022
3848 Clouds 28 1008 83 10000 6.69 300 08:38 03.05.2022
3849 Clouds 28 1007 78 10000 7.2 310 06:46 03.05.2022
3850 Clouds 28 1007 83 10000 7.2 300 03:34 03.05.2022
3851 Clouds 28 1009 78 10000 5.66 330 23:32 02.05.2022
3852 Clouds 28 1009 78 10000 5.14 340 22:34 02.05.2022
3853 Clouds 28 1009 78 10000 5.66 330 21:48 02.05.2022
3854 Clouds 28 1009 78 10000 5.14 330 20:50 02.05.2022
3855 Clouds 27 1008 83 10000 5.14 330 18:35 02.05.2022
3856 Clouds 27 1008 83 10000 4.12 330 17:44 02.05.2022
3857 Clouds 27 1008 83 10000 4.63 340 16:50 02.05.2022
3858 Clouds 27 1008 83 10000 4.63 350 15:56 02.05.2022
3859 Clouds 27 1009 83 10000 4.12 350 14:56 02.05.2022
3860 Clouds 27 1010 78 10000 3.6 330 13:47 02.05.2022
3861 Clouds 27 1010 78 10000 2.57 360 11:51 02.05.2022
3862 Clouds 27 1011 78 10000 2.57 350 10:18 02.05.2022
3863 Clouds 27 1010 83 10000 2.57 300 08:44 02.05.2022
3864 Clouds 27 1010 83 10000 1.54 290 07:30 02.05.2022
3865 Clouds 28 1011 74 10000 2.57 30 01:27 02.05.2022
3866 Clouds 29 1012 70 10000 2.57 20 00:23 02.05.2022
3867 Clouds 29 1012 74 10000 2.57 20 23:43 01.05.2022
3868 Clouds 27 1012 83 10000 2.06 50 21:46 01.05.2022
3869 Clouds 24 1012 100 10000 0.51 130 20:50 01.05.2022
3870 Clouds 22 1011 100 10000 0.51 110 19:40 01.05.2022
3871 Clouds 22 1011 100 10000 0.51 180 18:53 01.05.2022
3872 Clouds 23 1011 100 10000 0.51 120 17:51 01.05.2022
3873 Clouds 23 1011 100 10000 0.51 160 16:42 01.05.2022
3874 Clouds 23 1011 100 10000 0.51 160 16:23 01.05.2022
3875 Clouds 23 1012 100 10000 0.51 160 14:58 01.05.2022
3876 Clouds 23 1013 100 10000 1.03 180 13:23 01.05.2022
3877 Clouds 24 1013 94 10000 0.51 180 10:45 01.05.2022
3878 Clouds 24 1013 94 10000 0.51 60 08:50 01.05.2022
3879 Clouds 26 1012 83 10000 2.06 90 06:51 01.05.2022
3880 Clouds 28 1012 78 10000 4.63 60 02:46 01.05.2022
3881 Clouds 29 1015 74 10000 4.12 60 22:51 30.04.2022
3882 Clouds 29 1015 74 10000 4.12 60 22:51 30.04.2022
3883 Clouds 28 1015 78 10000 4.12 80 21:33 30.04.2022
3884 Clouds 26 1014 89 10000 2.57 90 20:22 30.04.2022
3885 Clouds 25 1014 88 10000 2.57 90 19:31 30.04.2022
3886 Clouds 26 1013 83 10000 2.06 110 17:37 30.04.2022
3887 Clouds 26 1013 83 10000 2.57 100 16:28 30.04.2022
3888 Clouds 26 1013 83 10000 2.06 90 15:19 30.04.2022
3889 Clouds 25 1013 88 10000 3.6 80 14:19 30.04.2022
3890 Clouds 26 1014 83 10000 5.66 70 11:59 30.04.2022
3891 Clouds 26 1014 83 10000 4.12 80 11:32 30.04.2022
3892 Clouds 26 1015 89 10000 4.12 80 10:25 30.04.2022
3893 Clouds 26 1014 89 10000 3.6 90 08:25 30.04.2022
3894 Clouds 28 1013 78 10000 6.17 70 04:58 30.04.2022
3895 Clouds 29 1015 74 10000 8.23 70 00:34 30.04.2022
3896 Rain 27 1016 83 10000 7.2 70 22:58 29.04.2022
3897 Clouds 28 1015 78 10000 6.69 80 22:29 29.04.2022
3898 Clouds 28 1015 74 10000 7.2 70 21:26 29.04.2022
3899 Clouds 27 1014 78 10000 8.23 70 20:24 29.04.2022
3900 Clouds 26 1014 83 10000 7.2 80 19:28 29.04.2022
3901 Clouds 26 1013 83 10000 5.14 90 17:37 29.04.2022
3902 Clouds 26 1013 83 10000 6.69 80 16:43 29.04.2022
3903 Clouds 27 1014 78 10000 8.23 70 14:38 29.04.2022
3904 Clouds 26 1014 89 10000 5.14 80 13:51 29.04.2022
3905 Clouds 27 1015 83 10000 7.2 70 12:38 29.04.2022
3906 Clouds 27 1015 83 10000 7.72 70 10:44 29.04.2022
3907 Clouds 26 1014 89 10000 4.63 80 07:57 29.04.2022
3908 Clouds 26 1014 83 10000 3.09 80 07:26 29.04.2022
3909 Clouds 26 1014 83 10000 3.6 90 06:33 29.04.2022
3910 Clouds 28 1014 74 10000 6.17 80 02:50 29.04.2022
3911 Clouds 29 1015 70 10000 8.23 70 00:18 29.04.2022
3912 Clouds 28 1015 78 10000 6.17 80 23:26 28.04.2022
3913 Rain 27 1015 83 10000 4.12 80 22:33 28.04.2022
3914 Clouds 28 1015 78 10000 4.63 90 21:43 28.04.2022
3915 Clouds 27 1015 83 10000 4.12 90 20:48 28.04.2022
3916 Clouds 26 1015 83 10000 3.6 90 19:55 28.04.2022
3917 Clouds 26 1014 83 10000 4.63 90 19:24 28.04.2022
3918 Clouds 26 1014 83 10000 4.12 90 18:52 28.04.2022
3919 Clouds 26 1014 83 10000 4.63 80 17:54 28.04.2022
3920 Clouds 26 1014 83 10000 4.12 90 16:52 28.04.2022
3921 Clouds 26 1014 83 10000 3.09 90 16:20 28.04.2022
3922 Clouds 26 1014 89 10000 3.09 100 15:48 28.04.2022
3923 Clouds 26 1015 89 10000 3.6 90 14:58 28.04.2022
3924 Clouds 26 1016 89 10000 3.09 90 13:37 28.04.2022
3925 Clouds 25 1016 88 10000 2.06 110 12:29 28.04.2022
3926 Clouds 26 1016 89 10000 1.54 100 10:59 28.04.2022
3927 Clouds 26 1016 89 10000 2.57 90 10:26 28.04.2022
3928 Clouds 26 1016 89 10000 2.57 90 09:50 28.04.2022
3929 Clouds 26 1015 89 10000 2.06 100 07:41 28.04.2022
3930 Clouds 27 1015 83 10000 3.6 80 06:43 28.04.2022
3931 Clouds 28 1015 78 10000 3.6 80 05:52 28.04.2022
3932 Clouds 28 1014 83 10000 4.12 70 04:42 28.04.2022
3933 Clouds 29 1015 79 10000 4.63 70 01:53 28.04.2022
3934 Clouds 29 1017 79 10000 3.6 60 23:25 27.04.2022
3935 Clouds 28 1017 89 10000 3.6 60 22:18 27.04.2022
3936 Clouds 28 1017 83 10000 2.06 90 21:34 27.04.2022
3937 Clouds 27 1017 89 10000 2.06 90 20:45 27.04.2022
3938 Clouds 24 1016 100 10000 1.03 80 19:54 27.04.2022
3939 Clouds 23 1016 100 10000 0.51 130 19:31 27.04.2022
3940 Drizzle 24 1015 94 10000 1.03 120 18:39 27.04.2022
3941 Rain 24 1015 94 10000 2.06 360 17:54 27.04.2022
3942 Clouds 24 1015 100 10000 0.51 150 15:57 27.04.2022
3943 Clouds 24 1016 100 10000 1.03 100 12:59 27.04.2022
3944 Clouds 24 1016 94 10000 0.51 100 11:24 27.04.2022
3945 Clouds 24 1016 100 10000 1.03 150 10:27 27.04.2022
3946 Clouds 28 1015 83 10000 2.06 320 07:53 27.04.2022
3947 Clouds 28 1014 78 10000 2.57 320 06:41 27.04.2022
3948 Clouds 30 1014 74 10000 3.6 320 02:26 27.04.2022
3949 Clouds 29 1014 79 10000 3.6 320 01:21 27.04.2022
3950 Clouds 29 1015 79 10000 4.12 320 00:27 27.04.2022
3951 Clouds 28 1015 83 10000 3.6 320 23:24 26.04.2022
3952 Clouds 28 1015 83 10000 3.09 320 22:44 26.04.2022
3953 Clouds 28 1014 83 10000 2.06 10 21:57 26.04.2022
3954 Clouds 27 1014 89 10000 1.54 20 21:18 26.04.2022
3955 Rain 25 1014 100 2400 4.63 340 20:36 26.04.2022
3956 Clouds 25 1013 94 10000 2.57 90 19:44 26.04.2022
3957 Clouds 25 1013 94 10000 2.57 90 19:24 26.04.2022
3958 Clouds 25 1012 94 10000 3.09 100 18:20 26.04.2022
3959 Clouds 25 1011 100 10000 2.06 90 17:34 26.04.2022
3960 Clouds 25 1012 94 10000 1.54 100 14:58 26.04.2022
3961 Clouds 25 1012 94 10000 5.66 70 13:38 26.04.2022
3962 Rain 25 1012 100 10000 1.03 40 12:35 26.04.2022
3963 Rain 24 1013 100 10000 1.54 110 10:57 26.04.2022
3964 Rain 24 1013 100 10000 1.54 100 10:29 26.04.2022
3965 Rain 24 1012 100 3200 1.03 130 08:29 26.04.2022
3966 Clouds 28 1010 78 10000 2.57 60 04:38 26.04.2022
3967 Clouds 29 1011 79 10000 4.12 50 02:40 26.04.2022
3968 Clouds 28 1011 78 10000 4.63 60 00:39 26.04.2022
3969 Clouds 28 1012 78 10000 3.6 60 23:43 25.04.2022
3970 Clouds 27 1012 83 10000 3.09 90 21:44 25.04.2022
3971 Clouds 27 1012 83 10000 3.09 90 21:44 25.04.2022
3972 Clouds 25 1011 94 10000 2.57 80 20:46 25.04.2022
3973 Clouds 21 1011 100 10000 1.03 170 19:39 25.04.2022
3974 Clouds 21 1010 100 10000 1.03 190 18:25 25.04.2022
3975 Clouds 21 1010 100 10000 0.51 130 17:32 25.04.2022
3976 Clouds 22 1010 100 10000 1.03 170 15:38 25.04.2022
3977 Clouds 22 1010 100 10000 1.03 170 15:18 25.04.2022
3978 Clouds 23 1011 100 10000 1.54 190 13:43 25.04.2022
3979 Clouds 26 1011 80 10000 2.89 102 11:53 25.04.2022
3980 Clouds 23 1011 100 10000 0.51 150 10:27 25.04.2022
3981 Clouds 25 1010 88 10000 1.03 190 08:47 25.04.2022
3982 Clouds 26 1009 83 10000 1.03 200 06:46 25.04.2022
3983 Clouds 28 1008 78 10000 2.57 220 04:33 25.04.2022
3984 Rain 27 1009 83 8000 5.14 270 00:58 25.04.2022
3985 Clouds 28 1010 78 10000 3.09 270 23:52 24.04.2022
3986 Clouds 28 1010 78 10000 2.57 280 22:49 24.04.2022
3987 Clouds 28 1010 83 10000 2.57 290 22:29 24.04.2022
3988 Clouds 27 1010 83 10000 2.57 330 21:41 24.04.2022
3989 Clouds 27 1010 83 10000 2.57 330 21:18 24.04.2022
3990 Clouds 25 1009 94 10000 0.51 110 20:35 24.04.2022
3991 Clouds 24 1009 94 10000 0.51 130 19:48 24.04.2022
3992 Clouds 25 1008 88 10000 3.6 330 18:20 24.04.2022
3993 Clouds 26 1008 83 10000 2.06 330 17:29 24.04.2022
3994 Clouds 26 1009 89 10000 2.57 310 16:59 24.04.2022
3995 Clouds 26 1009 83 10000 2.57 10 16:35 24.04.2022
3996 Clouds 26 1009 83 10000 2.06 10 15:54 24.04.2022
3997 Clouds 25 1009 94 10000 1.54 40 15:29 24.04.2022
3998 Clouds 24 1010 88 10000 2.06 80 13:57 24.04.2022
3999 Clouds 25 1010 88 10000 2.06 90 13:25 24.04.2022
4000 Clouds 25 1010 88 10000 2.06 80 11:56 24.04.2022
4001 Clouds 25 1010 88 10000 2.06 110 11:28 24.04.2022
4002 Clouds 25 1011 88 10000 2.57 110 10:24 24.04.2022
4003 Clouds 24 1011 94 10000 2.57 90 09:19 24.04.2022
4004 Clouds 25 1010 88 10000 1.54 110 06:18 24.04.2022
4005 Clouds 28 1009 74 10000 3.09 60 03:37 24.04.2022
4006 Clouds 26 1011 83 10000 5.14 70 01:37 24.04.2022
4007 Clouds 25 1012 94 10000 5.14 80 23:57 23.04.2022
4008 Rain 24 1013 94 10000 3.6 80 23:26 23.04.2022
4009 Rain 23 1013 94 10000 2.57 100 22:46 23.04.2022
4010 Rain 23 1013 94 10000 3.09 90 21:49 23.04.2022
4011 Rain 23 1012 94 7000 4.63 100 21:31 23.04.2022
4012 Rain 23 1012 94 10000 1.54 160 20:33 23.04.2022
4013 Rain 23 1012 94 4900 5.14 30 19:41 23.04.2022
4014 Rain 23 1012 94 4900 5.14 30 19:18 23.04.2022
4015 Rain 25 1011 94 10000 3.6 100 18:46 23.04.2022
4016 Clouds 26 1010 89 10000 4.63 100 17:48 23.04.2022
4017 Clouds 26 1011 83 10000 3.6 90 16:47 23.04.2022
4018 Clouds 26 1011 83 10000 4.63 80 15:54 23.04.2022
4019 Clouds 26 1013 83 10000 6.17 70 13:33 23.04.2022
4020 Clouds 26 1013 83 10000 8.23 70 11:57 23.04.2022
4021 Clouds 26 1013 78 10000 8.75 70 10:40 23.04.2022
4022 Clouds 26 1013 78 10000 7.72 80 08:30 23.04.2022
4023 Clouds 27 1013 74 10000 5.66 90 05:27 23.04.2022
4024 Clouds 27 1013 69 10000 8.23 80 03:32 23.04.2022
4025 Clouds 27 1015 74 10000 9.26 80 23:38 22.04.2022
4026 Clouds 27 1015 74 10000 9.26 80 23:20 22.04.2022
4027 Clouds 25 1015 78 10000 5.66 90 21:58 22.04.2022
4028 Clouds 25 1015 73 10000 5.14 100 21:40 22.04.2022
4029 Clouds 25 1015 78 10000 6.17 90 20:35 22.04.2022
4030 Rain 24 1014 83 10000 5.66 90 19:27 22.04.2022
4031 Clouds 25 1014 78 10000 7.72 90 18:57 22.04.2022
4032 Clouds 26 1014 73 10000 7.72 80 18:26 22.04.2022
4033 Clouds 26 1014 69 10000 6.17 90 16:57 22.04.2022
4034 Clouds 26 1014 69 10000 6.17 90 15:59 22.04.2022
4035 Clouds 26 1014 61 10000 5.14 90 15:30 22.04.2022
4036 Clouds 26 1015 57 10000 6.17 90 14:38 22.04.2022
4037 Clouds 26 1015 61 10000 8.23 80 13:41 22.04.2022
4038 Clouds 26 1015 65 10000 7.72 80 12:47 22.04.2022
4039 Clouds 26 1016 61 10000 7.72 80 11:23 22.04.2022
4040 Clouds 26 1016 65 10000 7.2 90 10:56 22.04.2022
4041 Clouds 26 1017 61 10000 5.66 90 10:34 22.04.2022
4042 Clouds 26 1017 61 10000 7.2 90 09:57 22.04.2022
4043 Clouds 26 1017 61 10000 7.2 90 09:21 22.04.2022
4044 Clouds 26 1016 65 10000 8.75 80 08:42 22.04.2022
4045 Clouds 26 1015 65 10000 8.23 90 06:38 22.04.2022
4046 Clouds 26 1017 61 10000 5.14 100 00:56 22.04.2022
4047 Clouds 26 1018 61 10000 7.2 90 23:31 21.04.2022
4048 Clouds 26 1018 57 10000 6.69 100 22:36 21.04.2022
4049 Clouds 25 1018 61 10000 5.66 100 21:36 21.04.2022
4050 Clouds 25 1018 61 10000 4.12 110 20:30 21.04.2022
4051 Clouds 25 1017 57 10000 5.14 100 18:49 21.04.2022
4052 Clouds 25 1017 61 10000 8.23 80 18:26 21.04.2022
4053 Clouds 25 1016 65 10000 4.12 100 17:19 21.04.2022
4054 Clouds 25 1016 61 10000 5.14 100 15:24 21.04.2022
4055 Clouds 25 1017 57 10000 5.14 100 14:52 21.04.2022
4056 Clouds 25 1018 57 10000 3.6 120 13:59 21.04.2022
4057 Clouds 25 1018 61 10000 4.63 100 13:21 21.04.2022
4058 Clouds 25 1018 61 10000 5.14 100 11:46 21.04.2022
4059 Rain 25 1018 65 10000 5.14 90 09:24 21.04.2022
4060 Clouds 25 1018 57 10000 3.09 110 08:29 21.04.2022
4061 Clouds 25 1017 57 10000 5.14 100 06:26 21.04.2022
4062 Clouds 26 1017 61 10000 5.14 110 03:39 21.04.2022
4063 Clouds 26 1017 61 10000 5.14 110 03:18 21.04.2022
4064 Clouds 27 1017 54 10000 5.14 100 02:43 21.04.2022
4065 Clouds 26 1018 57 10000 6.69 100 00:25 21.04.2022
4066 Clouds 25 1019 65 10000 7.2 100 23:24 20.04.2022
4067 Clouds 26 1019 65 10000 7.72 100 22:58 20.04.2022
4068 Clouds 25 1019 69 10000 6.69 110 22:32 20.04.2022
4069 Clouds 26 1019 69 10000 6.17 100 21:35 20.04.2022
4070 Clouds 25 1019 73 10000 7.2 100 20:43 20.04.2022
4071 Clouds 25 1018 65 10000 13.24 126 19:55 20.04.2022
4072 Clouds 25 1018 65 10000 4.12 100 19:29 20.04.2022
4073 Clouds 25 1018 69 10000 3.6 120 18:42 20.04.2022
4074 Clouds 25 1017 73 10000 3.6 110 16:59 20.04.2022
4075 Clouds 25 1017 73 10000 3.6 130 16:39 20.04.2022
4076 Clouds 25 1017 73 10000 2.57 130 14:52 20.04.2022
4077 Rain 24 1018 83 10000 2.06 130 11:57 20.04.2022
4078 Clouds 24 1018 83 10000 3.6 110 11:33 20.04.2022
4079 Rain 24 1018 88 10000 3.09 120 10:29 20.04.2022
4080 Rain 24 1018 88 10000 2.57 120 09:27 20.04.2022
4081 Clouds 25 1017 83 10000 4.63 100 08:24 20.04.2022
4082 Clouds 25 1017 78 10000 4.12 110 07:43 20.04.2022
4083 Clouds 26 1016 78 10000 2.57 120 04:49 20.04.2022
4084 Rain 27 1017 78 10000 3.09 110 00:55 20.04.2022
4085 Clouds 27 1017 83 10000 1.54 120 00:20 20.04.2022
4086 Rain 27 1017 74 10000 3.6 110 22:40 19.04.2022
4087 Rain 27 1017 74 10000 3.6 110 22:19 19.04.2022
4088 Clouds 25 1017 88 10000 2.06 110 21:38 19.04.2022
4089 Rain 25 1017 88 10000 1.54 120 20:56 19.04.2022
4090 Clouds 25 1016 83 10000 2.57 130 20:34 19.04.2022
4091 Rain 24 1016 88 10000 1.03 100 19:24 19.04.2022
4092 Rain 24 1015 88 10000 1.54 130 17:59 19.04.2022
4093 Clouds 25 1015 83 10000 1.54 110 16:44 19.04.2022
4094 Rain 25 1015 83 10000 2.57 130 16:24 19.04.2022
4095 Rain 24 1015 88 10000 3.09 100 14:51 19.04.2022
4096 Clouds 25 1015 83 10000 2.06 140 14:31 19.04.2022
4097 Clouds 25 1016 83 10000 1.03 70 12:52 19.04.2022
4098 Clouds 25 1016 83 10000 3.09 120 12:26 19.04.2022
4099 Clouds 26 1016 78 10000 1.54 130 11:22 19.04.2022
4100 Clouds 26 1016 78 10000 1.54 140 09:25 19.04.2022
4101 Clouds 26 1014 78 10000 1.54 140 06:34 19.04.2022
4102 Clouds 28 1014 74 10000 3.09 210 04:19 19.04.2022
4103 Clouds 28 1015 69 10000 2.06 210 00:56 19.04.2022
4104 Clouds 28 1016 74 10000 2.06 200 23:38 18.04.2022
4105 Clouds 26 1016 78 10000 1.54 190 21:39 18.04.2022
4106 Clouds 26 1016 78 10000 1.54 190 21:20 18.04.2022
4107 Clouds 23 1015 94 10000 1.03 80 20:38 18.04.2022
4108 Clouds 21 1015 100 10000 1.54 180 19:59 18.04.2022
4109 Clouds 21 1015 100 10000 2.06 190 19:27 18.04.2022
4110 Clouds 21 1015 100 10000 1.54 190 18:33 18.04.2022
4111 Clouds 21 1015 100 10000 1.54 190 17:38 18.04.2022
4112 Clouds 21 1015 100 10000 1.54 190 17:18 18.04.2022
4113 Clouds 21 1015 100 10000 1.03 180 16:35 18.04.2022
4114 Clouds 20 1015 100 10000 1.03 140 15:27 18.04.2022
4115 Clouds 21 1016 94 10000 0.51 170 13:42 18.04.2022
4116 Clouds 21 1016 94 10000 0.51 170 13:42 18.04.2022
4117 Clouds 21 1016 100 10000 1.03 180 12:40 18.04.2022
4118 Clouds 22 1016 94 10000 1.03 180 11:42 18.04.2022
4119 Clouds 22 1017 94 10000 1.03 170 10:42 18.04.2022
4120 Clouds 23 1016 88 10000 0.51 170 09:31 18.04.2022
4121 Clouds 24 1016 83 10000 0.51 50 08:28 18.04.2022
4122 Clouds 28 1015 69 10000 1.54 110 05:58 18.04.2022
4123 Clouds 27 1016 74 10000 2.57 120 01:37 18.04.2022
4124 Clouds 28 1017 74 10000 3.09 120 22:44 17.04.2022
4125 Clouds 28 1017 74 10000 2.06 140 21:51 17.04.2022
4126 Clouds 27 1017 78 10000 2.06 150 21:32 17.04.2022
4127 Clouds 27 1017 78 10000 1.03 40 20:50 17.04.2022
4128 Clouds 26 1016 83 10000 2.57 130 19:52 17.04.2022
4129 Clouds 23 1015 94 10000 0.51 210 18:24 17.04.2022
4130 Clouds 25 1016 88 10000 2.06 110 16:32 17.04.2022
4131 Clouds 23 1016 100 10000 0.51 140 15:28 17.04.2022
4132 Clouds 23 1016 100 10000 0.51 200 14:27 17.04.2022
4133 Clouds 24 1016 94 10000 1.03 130 13:20 17.04.2022
4134 Clouds 25 1016 88 10000 1.54 120 12:28 17.04.2022
4135 Clouds 24 1016 94 10000 1.54 110 10:47 17.04.2022
4136 Clouds 24 1016 94 10000 1.03 130 10:28 17.04.2022
4137 Clouds 25 1015 88 10000 1.54 100 09:37 17.04.2022
4138 Rain 25 1015 94 10000 0.51 170 08:54 17.04.2022
4139 Rain 25 1015 94 10000 1.54 100 07:53 17.04.2022
4140 Clouds 28 1014 74 10000 4.63 90 04:51 17.04.2022
4141 Clouds 27 1015 74 10000 5.14 80 01:38 17.04.2022
4142 Clouds 26 1016 83 10000 4.63 90 23:54 16.04.2022
4143 Clouds 26 1016 89 10000 3.6 80 22:41 16.04.2022
4144 Clouds 28 1016 74 10000 1.03 90 21:41 16.04.2022
4145 Clouds 24 1015 94 10000 2.06 80 20:35 16.04.2022
4146 Clouds 24 1015 94 10000 1.03 100 19:18 16.04.2022
4147 Clouds 23 1014 100 10000 0.51 100 18:28 16.04.2022
4148 Clouds 23 1014 100 10000 1.03 120 16:40 16.04.2022
4149 Clouds 24 1014 94 10000 0.51 120 15:46 16.04.2022
4150 Clouds 24 1014 94 10000 0.51 70 14:57 16.04.2022
4151 Clouds 25 1014 88 10000 1.54 110 13:58 16.04.2022
4152 Clouds 25 1015 88 10000 1.54 110 13:37 16.04.2022
4153 Clouds 25 1015 88 10000 1.54 110 13:37 16.04.2022
4154 Clouds 24 1015 94 10000 2.06 90 12:27 16.04.2022
4155 Clouds 24 1015 94 10000 0.51 170 11:18 16.04.2022
4156 Clouds 24 1015 94 10000 0.51 220 09:56 16.04.2022
4157 Clouds 25 1015 88 10000 0.51 200 08:59 16.04.2022
4158 Clouds 25 1014 88 10000 2.57 80 07:57 16.04.2022
4159 Clouds 26 1013 89 10000 1.54 90 06:58 16.04.2022
4160 Clouds 28 1013 74 10000 3.09 70 03:36 16.04.2022
4161 Clouds 27 1014 78 10000 1.54 90 00:31 16.04.2022
4162 Rain 26 1015 89 10000 1.54 120 23:23 15.04.2022
4163 Clouds 29 1015 74 10000 2.57 260 22:36 15.04.2022
4164 Clear 29 1015 74 10000 1.03 30 21:55 15.04.2022
4165 Clouds 28 1015 78 10000 0.51 300 21:18 15.04.2022
4166 Clouds 25 1014 100 10000 0.51 150 20:22 15.04.2022
4167 Clear 23 1014 100 10000 0.51 160 19:40 15.04.2022
4168 Clear 23 1013 100 10000 1.03 110 18:54 15.04.2022
4169 Clear 23 1013 100 10000 1.03 190 18:25 15.04.2022
4170 Clear 24 1013 94 10000 1.03 170 17:34 15.04.2022
4171 Clouds 25 1013 88 10000 1.03 100 16:48 15.04.2022
4172 Clouds 23 1013 100 10000 0.51 90 16:18 15.04.2022
4173 Clouds 23 1013 100 10000 1.54 180 14:51 15.04.2022
4174 Clouds 24 1014 94 10000 0.51 160 13:40 15.04.2022
4175 Clouds 24 1014 100 10000 1.03 190 12:40 15.04.2022
4176 Clouds 24 1014 100 10000 1.03 190 11:56 15.04.2022
4177 Clouds 24 1014 100 10000 1.03 170 11:30 15.04.2022
4178 Clouds 24 1014 100 10000 0.51 190 10:40 15.04.2022
4179 Clouds 25 1014 94 10000 0.51 200 09:44 15.04.2022
4180 Clouds 25 1014 94 10000 0.51 110 09:19 15.04.2022
4181 Clouds 26 1013 89 10000 1.03 180 07:28 15.04.2022
4182 Clouds 29 1012 74 10000 1.03 50 06:28 15.04.2022
4183 Clouds 29 1013 79 10000 2.06 10 02:39 15.04.2022
4184 Clouds 27 1014 78 10000 3.09 310 23:31 14.04.2022
4185 Rain 27 1014 89 9000 3.09 310 22:49 14.04.2022
4186 Clouds 28 1014 83 10000 2.06 30 22:29 14.04.2022
4187 Clouds 29 1014 79 10000 0.51 200 21:59 14.04.2022
4188 Clouds 26 1013 94 10000 0.51 170 20:37 14.04.2022
4189 Clouds 24 1013 100 10000 1.03 80 19:23 14.04.2022
4190 Clouds 24 1012 100 10000 1.03 160 18:19 14.04.2022
4191 Clouds 24 1012 100 10000 1.03 130 17:38 14.04.2022
4192 Clouds 24 1012 100 10000 1.54 190 16:36 14.04.2022
4193 Clouds 24 1012 100 10000 0.51 180 14:58 14.04.2022
4194 Clouds 24 1013 100 10000 0.51 170 13:45 14.04.2022
4195 Clouds 25 1013 94 10000 0.51 190 12:51 14.04.2022
4196 Clouds 25 1013 94 10000 0.51 170 12:31 14.04.2022
4197 Clouds 25 1013 94 10000 0.51 60 11:24 14.04.2022
4198 Clouds 25 1013 94 10000 0.51 80 10:41 14.04.2022
4199 Clouds 25 1013 94 10000 0.51 100 09:57 14.04.2022
4200 Clouds 26 1013 89 10000 0.51 170 08:44 14.04.2022
4201 Clouds 28 1012 78 10000 1.03 330 06:51 14.04.2022
4202 Clouds 29 1012 74 10000 2.06 340 02:53 14.04.2022
4203 Clear 28 1014 78 10000 1.54 40 22:56 13.04.2022
4204 Clear 27 1014 83 10000 2.06 60 21:44 13.04.2022
4205 Clouds 25 1014 100 10000 1.03 100 20:55 13.04.2022
4206 Clouds 24 1014 100 10000 0.51 140 20:22 13.04.2022
4207 Clear 23 1013 100 10000 0.51 170 19:24 13.04.2022
4208 Clouds 23 1012 100 10000 1.03 180 18:19 13.04.2022
4209 Clear 23 1012 100 10000 2.06 190 17:23 13.04.2022
4210 Clouds 24 1012 100 10000 1.03 110 16:33 13.04.2022
4211 Clouds 24 1013 100 10000 0.51 150 15:35 13.04.2022
4212 Rain 24 1013 100 10000 0.51 150 14:50 13.04.2022
4213 Rain 24 1013 100 10000 1.54 170 14:18 13.04.2022
4214 Rain 25 1013 94 10000 1.54 150 13:19 13.04.2022
4215 Clouds 24 1014 100 10000 0.51 160 12:20 13.04.2022
4216 Clear 24 1014 94 10000 1.03 200 10:47 13.04.2022
4217 Clear 24 1013 94 10000 0.51 110 08:57 13.04.2022
4218 Clouds 25 1013 88 10000 1.03 180 08:31 13.04.2022
4219 Clouds 26 1012 78 10000 1.54 290 06:51 13.04.2022
4220 Clouds 26 1012 78 10000 1.14 18 06:25 13.04.2022
4221 Clouds 29 1012 74 10000 1.54 10 03:31 13.04.2022
4222 Clouds 28 1014 74 10000 1.54 330 00:20 13.04.2022
4223 Clouds 28 1014 78 10000 1.54 360 22:46 12.04.2022
4224 Clouds 26 1014 89 10000 1.03 220 21:57 12.04.2022
4225 Rain 23 1014 100 9000 2.57 110 20:51 12.04.2022
4226 Rain 24 1014 94 5000 3.09 90 20:33 12.04.2022
4227 Clouds 24 1014 94 10000 2.57 100 19:47 12.04.2022
4228 Clouds 24 1013 94 10000 4.12 80 19:28 12.04.2022
4229 Rain 25 1012 94 10000 2.06 220 17:59 12.04.2022
4230 Clouds 27 1012 83 10000 3.09 290 16:53 12.04.2022
4231 Clouds 27 1012 83 10000 2.57 330 15:52 12.04.2022
4232 Clouds 26 1013 89 10000 2.06 300 15:25 12.04.2022
4233 Clouds 25 1013 94 10000 1.03 80 13:54 12.04.2022
4234 Clouds 25 1013 94 10000 1.03 90 13:27 12.04.2022
4235 Clouds 25 1013 94 10000 1.03 90 12:31 12.04.2022
4236 Clouds 25 1014 94 10000 2.06 110 11:40 12.04.2022
4237 Clouds 24 1014 100 10000 2.06 80 10:29 12.04.2022
4238 Rain 26 1013 89 10000 1.54 110 08:54 12.04.2022
4239 Rain 25 1013 94 10000 1.54 110 07:47 12.04.2022
4240 Clouds 27 1012 83 10000 1.54 40 05:47 12.04.2022
4241 Clouds 27 1012 83 10000 1.54 50 02:53 12.04.2022
4242 Rain 26 1014 89 10000 3.6 290 23:25 11.04.2022
4243 Clouds 26 1014 89 10000 3.09 290 22:44 11.04.2022
4244 Clouds 25 1013 94 10000 1.03 140 21:35 11.04.2022
4245 Clouds 24 1013 94 10000 0.51 180 20:37 11.04.2022
4246 Clouds 24 1013 94 10000 0.51 180 20:19 11.04.2022
4247 Rain 23 1012 100 10000 1.54 210 19:27 11.04.2022
4248 Rain 23 1012 100 7000 2.06 100 18:56 11.04.2022
4249 Rain 24 1012 100 6000 3.09 80 18:33 11.04.2022
4250 Clouds 24 1011 100 10000 1.54 220 17:43 11.04.2022
4251 Clouds 24 1011 100 10000 1.03 210 16:36 11.04.2022
4252 Rain 25 1011 94 10000 0.51 280 15:21 11.04.2022
4253 Clouds 25 1012 94 10000 0.51 150 13:37 11.04.2022
4254 Clouds 25 1013 94 10000 1.03 100 12:40 11.04.2022
4255 Clouds 25 1013 94 10000 0.51 130 12:21 11.04.2022
4256 Clouds 25 1013 94 10000 1.03 140 10:41 11.04.2022
4257 Clouds 25 1013 94 10000 1.03 90 09:57 11.04.2022
4258 Clouds 26 1012 89 10000 1.03 220 07:59 11.04.2022
4259 Clouds 28 1011 78 10000 2.57 330 04:36 11.04.2022
4260 Clouds 29 1013 79 10000 3.09 340 23:55 10.04.2022
4261 Clouds 29 1013 79 10000 3.09 350 22:27 10.04.2022
4262 Clouds 28 1014 83 10000 3.09 340 21:52 10.04.2022
4263 Clouds 28 1013 83 10000 2.57 360 20:52 10.04.2022
4264 Clouds 27 1012 89 10000 2.57 20 19:56 10.04.2022
4265 Clouds 26 1012 94 10000 1.54 40 19:34 10.04.2022
4266 Clouds 25 1012 94 10000 1.03 80 18:48 10.04.2022
4267 Clouds 24 1011 100 10000 1.54 80 18:24 10.04.2022
4268 Clouds 25 1011 100 10000 0.51 130 17:42 10.04.2022
4269 Clouds 25 1011 100 10000 1.03 20 16:51 10.04.2022
4270 Clouds 25 1012 94 10000 1.03 150 15:38 10.04.2022
4271 Clouds 25 1012 94 10000 0.51 200 14:37 10.04.2022
4272 Clouds 25 1013 94 10000 0.51 150 12:50 10.04.2022
4273 Clouds 25 1013 94 10000 0.51 120 12:26 10.04.2022
4274 Clouds 25 1013 94 10000 0.51 120 12:26 10.04.2022
4275 Clouds 25 1014 94 10000 1.03 90 11:29 10.04.2022
4276 Clouds 25 1014 94 10000 0.51 100 10:57 10.04.2022
4277 Clouds 25 1014 94 10000 0.51 80 10:22 10.04.2022
4278 Clouds 26 1013 89 10000 0.51 120 09:40 10.04.2022
4279 Clouds 28 1013 78 10000 1.03 10 08:25 10.04.2022
4280 Clouds 28 1013 78 10000 1.54 350 07:47 10.04.2022
4281 Clouds 28 1012 78 10000 2.06 350 06:19 10.04.2022
4282 Clouds 30 1013 74 10000 3.6 350 02:37 10.04.2022
4283 Clouds 30 1014 74 10000 3.6 360 00:34 10.04.2022
4284 Clouds 30 1014 74 10000 3.6 360 23:49 09.04.2022
4285 Clouds 29 1014 79 10000 3.6 10 22:50 09.04.2022
4286 Clouds 29 1014 79 10000 4.12 30 21:46 09.04.2022
4287 Clouds 28 1013 83 10000 5.14 40 20:50 09.04.2022
4288 Clouds 28 1013 78 10000 5.66 40 20:26 09.04.2022
4289 Clouds 28 1013 78 10000 4.63 50 19:42 09.04.2022
4290 Clouds 28 1013 78 10000 4.63 50 19:18 09.04.2022
4291 Clouds 27 1012 83 10000 5.14 50 18:21 09.04.2022
4292 Clouds 28 1012 78 10000 4.63 40 17:39 09.04.2022
4293 Clouds 28 1012 78 10000 5.14 50 16:53 09.04.2022
4294 Clouds 28 1013 83 10000 4.63 50 15:57 09.04.2022
4295 Clouds 27 1013 83 10000 5.14 60 15:39 09.04.2022
4296 Clouds 28 1013 78 10000 5.66 60 14:44 09.04.2022
4297 Clouds 28 1013 78 10000 5.66 60 14:23 09.04.2022
4298 Clouds 28 1014 83 10000 5.66 60 13:18 09.04.2022
4299 Clouds 28 1014 83 10000 6.69 60 12:41 09.04.2022
4300 Clouds 28 1014 83 10000 6.69 70 11:22 09.04.2022
4301 Clouds 28 1014 78 10000 7.2 60 10:21 09.04.2022
4302 Clouds 28 1014 83 10000 6.17 70 09:38 09.04.2022
4303 Clouds 27 1014 89 10000 5.14 80 08:53 09.04.2022
4304 Clouds 28 1013 83 10000 5.66 70 06:56 09.04.2022
4305 Clouds 30 1015 74 10000 6.17 70 01:32 09.04.2022
4306 Clouds 30 1016 79 10000 5.66 60 23:45 08.04.2022
4307 Clouds 29 1016 79 10000 4.63 60 21:58 08.04.2022
4308 Clear 29 1016 79 10000 4.63 80 21:29 08.04.2022
4309 Clouds 27 1016 89 10000 3.6 90 20:38 08.04.2022
4310 Clouds 26 1015 89 10000 2.57 80 19:20 08.04.2022
4311 Clouds 26 1014 89 10000 3.6 80 18:29 08.04.2022
4312 Clouds 27 1014 83 10000 5.14 70 17:46 08.04.2022
4313 Clouds 27 1013 83 10000 5.66 60 17:22 08.04.2022
4314 Clouds 27 1014 83 10000 5.14 60 16:47 08.04.2022
4315 Clouds 27 1014 83 10000 3.09 90 15:56 08.04.2022
4316 Clouds 26 1014 94 10000 3.09 90 15:25 08.04.2022
4317 Clouds 27 1014 83 10000 2.57 100 14:26 08.04.2022
4318 Clouds 27 1014 83 10000 2.57 100 13:44 08.04.2022
4319 Clouds 26 1014 89 10000 2.57 90 13:25 08.04.2022
4320 Clouds 27 1015 83 10000 3.6 90 11:54 08.04.2022
4321 Clouds 27 1015 83 10000 3.6 90 10:33 08.04.2022
4322 Clouds 27 1015 83 10000 3.09 90 09:37 08.04.2022
4323 Clouds 27 1014 83 10000 3.6 90 08:34 08.04.2022
4324 Clouds 28 1013 78 10000 4.12 90 06:47 08.04.2022
4325 Clouds 28 1013 78 10000 4.12 90 06:47 08.04.2022
4326 Clouds 30 1013 70 10000 6.17 70 04:34 08.04.2022
4327 Clouds 30 1015 74 10000 6.17 70 00:42 08.04.2022
4328 Clouds 30 1015 74 10000 6.17 70 00:19 08.04.2022
4329 Clouds 30 1016 74 10000 5.66 70 22:58 07.04.2022
4330 Clouds 29 1016 79 10000 5.14 80 22:37 07.04.2022
4331 Clouds 29 1016 79 10000 5.14 80 22:19 07.04.2022
4332 Clouds 29 1016 74 10000 5.66 70 21:49 07.04.2022
4333 Clouds 28 1015 78 10000 3.09 90 20:58 07.04.2022
4334 Clouds 27 1015 83 10000 2.57 90 20:30 07.04.2022
4335 Clouds 26 1014 89 10000 2.57 90 17:57 07.04.2022
4336 Clouds 26 1013 89 10000 2.57 100 17:24 07.04.2022
4337 Clouds 27 1013 83 10000 2.57 100 16:43 07.04.2022
4338 Clouds 27 1013 83 10000 2.57 100 16:20 07.04.2022
4339 Clouds 27 1014 83 10000 1.54 110 14:36 07.04.2022
4340 Clouds 26 1014 89 10000 2.57 90 13:42 07.04.2022
4341 Clouds 27 1015 83 10000 2.06 110 12:40 07.04.2022
4342 Clouds 27 1015 78 10000 2.06 100 10:58 07.04.2022
4343 Clouds 27 1015 83 10000 1.54 100 09:36 07.04.2022
4344 Clouds 27 1014 83 10000 2.06 100 08:37 07.04.2022
4345 Clouds 28 1013 74 10000 6.17 70 06:42 07.04.2022
4346 Clouds 30 1014 74 10000 6.69 70 02:43 07.04.2022
4347 Clouds 30 1014 70 10000 6.69 70 01:52 07.04.2022
4348 Clouds 29 1016 79 10000 7.2 70 23:56 06.04.2022
4349 Clouds 29 1016 74 10000 7.72 80 22:46 06.04.2022
4350 Clouds 29 1016 79 10000 6.69 80 22:24 06.04.2022
4351 Clouds 28 1016 83 10000 5.14 80 21:31 06.04.2022
4352 Clouds 27 1016 83 10000 1.54 110 20:27 06.04.2022
4353 Clouds 26 1016 89 10000 2.57 90 19:53 06.04.2022
4354 Clouds 24 1015 94 10000 1.03 90 18:50 06.04.2022
4355 Clouds 25 1015 94 10000 1.54 120 17:52 06.04.2022
4356 Clouds 25 1015 94 10000 2.57 100 17:28 06.04.2022
4357 Clouds 23 1016 100 10000 1.03 180 16:35 06.04.2022
4358 Clouds 24 1016 94 10000 1.54 180 15:47 06.04.2022
4359 Clouds 24 1016 94 10000 0.51 180 14:23 06.04.2022
4360 Clouds 24 1017 100 10000 1.03 160 12:58 06.04.2022
4361 Clouds 25 1017 94 10000 0.51 160 11:55 06.04.2022
4362 Clouds 26 1017 89 10000 1.54 120 10:45 06.04.2022
4363 Clouds 26 1017 89 10000 2.06 100 10:20 06.04.2022
4364 Clouds 26 1017 89 10000 2.57 80 09:27 06.04.2022
4365 Clouds 27 1017 83 10000 1.54 100 08:30 06.04.2022
4366 Clouds 27 1016 83 10000 3.09 80 07:38 06.04.2022
4367 Clouds 30 1015 70 10000 5.14 60 02:57 06.04.2022
4368 Clouds 29 1018 74 10000 3.09 50 23:51 05.04.2022
4369 Clouds 29 1018 74 10000 3.6 60 22:28 05.04.2022
4370 Clouds 28 1018 83 10000 3.6 60 21:18 05.04.2022
4371 Clouds 27 1018 89 10000 2.06 90 20:25 05.04.2022
4372 Clouds 26 1017 89 10000 1.54 110 18:56 05.04.2022
4373 Clouds 26 1016 89 10000 2.57 90 17:31 05.04.2022
4374 Clouds 26 1016 89 10000 2.57 90 16:47 05.04.2022
4375 Clouds 25 1016 94 10000 2.57 90 15:52 05.04.2022
4376 Rain 25 1016 94 10000 1.03 80 15:33 05.04.2022
4377 Rain 25 1016 94 10000 1.03 80 15:33 05.04.2022
4378 Clouds 24 1016 94 10000 2.06 80 14:18 05.04.2022
4379 Clouds 24 1017 94 10000 1.54 90 12:56 05.04.2022
4380 Clouds 24 1017 94 10000 1.03 90 11:49 05.04.2022
4381 Clouds 24 1018 94 10000 1.03 90 11:31 05.04.2022
4382 Clouds 24 1018 94 10000 0.51 60 09:49 05.04.2022
4383 Clouds 24 1017 94 10000 0.51 140 08:52 05.04.2022
4384 Clouds 28 1015 74 10000 1.54 40 06:43 05.04.2022
4385 Clouds 28 1017 74 10000 1.54 340 00:39 05.04.2022
4386 Clouds 28 1017 74 10000 2.06 340 22:41 04.04.2022
4387 Clouds 28 1017 74 10000 1.54 10 21:57 04.04.2022
4388 Clouds 27 1017 83 10000 1.54 50 21:21 04.04.2022
4389 Clouds 26 1016 94 10000 1.03 70 20:49 04.04.2022
4390 Clouds 22 1015 100 10000 0.51 130 19:40 04.04.2022
4391 Clouds 22 1014 100 10000 0.51 150 18:59 04.04.2022
4392 Clouds 22 1014 100 10000 1.03 180 17:54 04.04.2022
4393 Clouds 23 1014 100 10000 0.51 130 16:36 04.04.2022
4394 Clouds 23 1014 100 10000 1.03 220 15:34 04.04.2022
4395 Clouds 23 1014 100 10000 1.03 160 14:58 04.04.2022
4396 Clouds 23 1014 100 10000 1.03 170 14:40 04.04.2022
4397 Clouds 23 1015 100 10000 1.03 50 13:21 04.04.2022
4398 Clouds 23 1015 100 10000 1.03 150 11:48 04.04.2022
4399 Clouds 24 1015 94 10000 0.51 100 11:27 04.04.2022
4400 Clouds 24 1013 94 10000 1.03 110 07:46 04.04.2022
4401 Clouds 24 1013 94 10000 1.03 110 07:46 04.04.2022
4402 Rain 23 1013 88 5000 1.54 290 03:19 04.04.2022
4403 Clouds 27 1014 83 10000 2.57 80 00:25 04.04.2022
4404 Clouds 26 1014 89 10000 3.09 90 22:31 03.04.2022
4405 Clouds 25 1014 94 10000 1.03 140 21:38 03.04.2022
4406 Clouds 24 1013 94 10000 1.03 190 20:41 03.04.2022
4407 Clouds 23 1013 100 10000 0.51 160 19:45 03.04.2022
4408 Clouds 23 1012 100 10000 0.51 160 18:31 03.04.2022
4409 Clouds 23 1012 100 10000 0.51 210 17:44 03.04.2022
4410 Clouds 23 1012 94 10000 0.51 190 16:50 03.04.2022
4411 Clouds 23 1012 94 10000 1.03 170 16:31 03.04.2022
4412 Clouds 23 1013 100 10000 0.51 90 14:32 03.04.2022
4413 Clouds 23 1013 100 10000 0.51 170 13:45 03.04.2022
4414 Clouds 23 1013 100 10000 1.03 140 12:21 03.04.2022
4415 Clouds 24 1013 94 10000 0.51 160 10:54 03.04.2022
4416 Clouds 24 1013 94 10000 1.03 170 09:23 03.04.2022
4417 Clouds 26 1011 89 10000 1.03 190 07:24 03.04.2022
4418 Clouds 29 1011 74 10000 4.12 50 04:18 03.04.2022
4419 Clouds 29 1012 74 10000 3.09 10 00:41 03.04.2022
4420 Clouds 29 1013 74 10000 2.57 30 22:54 02.04.2022
4421 Clouds 29 1013 70 10000 1.54 70 21:57 02.04.2022
4422 Clouds 28 1013 78 10000 1.54 70 21:33 02.04.2022
4423 Clouds 27 1013 83 10000 1.54 60 20:51 02.04.2022
4424 Clouds 23 1012 94 10000 1.03 150 19:28 02.04.2022
4425 Clouds 23 1011 94 10000 1.03 210 18:21 02.04.2022
4426 Clouds 23 1011 100 10000 1.54 190 17:47 02.04.2022
4427 Clouds 23 1010 100 10000 1.03 180 16:22 02.04.2022
4428 Clouds 23 1010 100 10000 0.51 120 15:21 02.04.2022
4429 Clouds 23 1011 100 10000 0.51 80 14:43 02.04.2022
4430 Clouds 23 1011 100 10000 0.51 100 13:34 02.04.2022
4431 Clouds 24 1012 94 10000 1.03 140 12:37 02.04.2022
4432 Clouds 25 1012 88 10000 1.03 170 10:58 02.04.2022
4433 Clouds 25 1013 88 10000 1.03 150 08:49 02.04.2022
4434 Clouds 28 1012 74 10000 1.03 180 06:49 02.04.2022
4435 Clouds 29 1012 74 10000 2.06 10 03:39 02.04.2022
4436 Clouds 29 1013 74 10000 4.63 70 23:55 01.04.2022
4437 Clouds 29 1013 74 10000 5.14 60 23:18 01.04.2022
4438 Clouds 28 1014 78 10000 1.03 70 21:32 01.04.2022
4439 Clouds 26 1014 89 10000 1.03 200 20:50 01.04.2022
4440 Clouds 23 1014 100 10000 0.51 170 19:51 01.04.2022
4441 Clouds 23 1014 94 7000 0.51 90 19:30 01.04.2022
4442 Clouds 22 1013 100 10000 0.51 110 18:45 01.04.2022
4443 Clouds 23 1013 94 10000 1.03 190 17:46 01.04.2022
4444 Clouds 23 1013 94 10000 1.03 190 16:42 01.04.2022
4445 Clouds 23 1014 100 10000 1.54 190 15:23 01.04.2022
4446 Clouds 23 1014 100 10000 1.03 130 14:20 01.04.2022
4447 Clouds 23 1014 100 10000 0.51 140 13:33 01.04.2022
4448 Clouds 24 1015 94 10000 1.03 110 12:32 01.04.2022
4449 Clouds 25 1015 88 10000 1.54 130 11:33 01.04.2022
4450 Clouds 25 1016 88 10000 1.03 120 10:18 01.04.2022
4451 Clouds 27 1015 83 10000 2.06 110 08:30 01.04.2022
4452 Clouds 29 1014 74 10000 2.06 270 06:39 01.04.2022
4453 Clear 29 1014 74 10000 4.12 50 04:47 01.04.2022
4454 Clear 29 1014 74 10000 4.12 50 04:28 01.04.2022
4455 Clear 29 1015 79 10000 3.6 40 01:54 01.04.2022
4456 Clear 29 1017 79 10000 4.63 50 22:58 31.03.2022
4457 Clouds 28 1017 78 10000 4.12 70 21:50 31.03.2022
4458 Clear 28 1017 78 10000 4.12 80 21:31 31.03.2022
4459 Clouds 26 1017 94 10000 2.06 80 20:29 31.03.2022
4460 Clear 23 1016 100 10000 1.54 80 19:48 31.03.2022
4461 Clear 24 1016 94 10000 1.03 150 18:43 31.03.2022
4462 Clear 24 1015 100 10000 1.54 110 17:41 31.03.2022
4463 Clear 23 1015 100 10000 0.51 110 16:34 31.03.2022
4464 Clear 24 1016 94 10000 1.03 150 15:35 31.03.2022
4465 Clear 24 1016 94 10000 1.03 80 14:54 31.03.2022
4466 Clear 24 1016 94 10000 1.03 80 14:20 31.03.2022
4467 Clear 24 1017 100 10000 0.51 120 11:32 31.03.2022
4468 Clouds 24 1017 100 10000 0.51 140 10:41 31.03.2022
4469 Clouds 25 1017 94 10000 0.51 150 09:44 31.03.2022
4470 Clouds 26 1016 89 10000 1.03 120 07:49 31.03.2022
4471 Clouds 30 1014 74 10000 4.12 50 03:57 31.03.2022
4472 Clouds 29 1017 79 10000 5.14 50 23:27 30.03.2022
4473 Clouds 29 1017 79 10000 5.66 50 22:20 30.03.2022
4474 Clouds 28 1016 83 10000 5.14 60 21:32 30.03.2022
4475 Clouds 28 1016 83 10000 5.14 60 20:44 30.03.2022
4476 Clouds 27 1015 89 10000 4.63 60 19:57 30.03.2022
4477 Clouds 26 1015 89 10000 3.09 80 18:50 30.03.2022
4478 Clouds 26 1014 89 10000 2.57 80 17:52 30.03.2022
4479 Clouds 26 1014 89 10000 2.57 80 17:52 30.03.2022
4480 Clouds 27 1014 83 10000 4.63 60 17:29 30.03.2022
4481 Clouds 26 1014 89 10000 2.57 90 16:41 30.03.2022
4482 Clouds 26 1014 89 10000 2.57 90 16:18 30.03.2022
4483 Clouds 26 1015 94 10000 2.57 80 14:47 30.03.2022
4484 Clouds 27 1016 83 10000 2.57 70 13:26 30.03.2022
4485 Clouds 27 1016 89 10000 3.6 50 12:32 30.03.2022
4486 Clouds 28 1016 83 10000 3.6 50 10:48 30.03.2022
4487 Clouds 28 1015 83 10000 3.6 50 09:58 30.03.2022
4488 Clouds 28 1015 83 10000 3.6 40 08:27 30.03.2022
4489 Clouds 28 1014 83 10000 3.6 40 07:29 30.03.2022
4490 Clouds 29 1013 79 10000 4.63 40 05:40 30.03.2022
4491 Clouds 29 1013 79 10000 5.14 50 02:40 30.03.2022
4492 Clouds 28 1015 83 10000 5.14 60 22:43 29.03.2022
4493 Clouds 28 1015 83 10000 4.63 60 21:52 29.03.2022
4494 Clouds 28 1014 83 10000 4.12 60 21:34 29.03.2022
4495 Clouds 27 1014 89 10000 2.06 80 20:26 29.03.2022
4496 Clouds 25 1014 94 10000 1.54 90 19:32 29.03.2022
4497 Clouds 24 1013 100 10000 1.03 90 18:53 29.03.2022
4498 Clouds 24 1013 94 10000 1.54 90 17:52 29.03.2022
4499 Clouds 24 1013 100 10000 1.54 90 17:18 29.03.2022
4500 Clouds 24 1013 100 10000 1.03 80 16:52 29.03.2022
4501 Clouds 24 1013 100 10000 1.03 80 15:20 29.03.2022
4502 Rain 25 1014 94 10000 1.54 90 14:43 29.03.2022
4503 Clouds 25 1014 94 10000 1.03 120 13:33 29.03.2022
4504 Clouds 24 1014 94 10000 1.54 80 11:58 29.03.2022
4505 Clouds 26 1015 89 10000 2.06 100 10:59 29.03.2022
4506 Clouds 25 1014 88 10000 2.57 90 09:50 29.03.2022
4507 Rain 25 1013 88 10000 2.57 80 08:32 29.03.2022
4508 Clouds 28 1012 78 10000 3.09 60 05:44 29.03.2022
4509 Clouds 29 1013 79 10000 3.6 50 02:19 29.03.2022
4510 Clouds 29 1014 79 10000 5.14 50 23:26 28.03.2022
4511 Clouds 28 1014 83 10000 4.63 60 22:55 28.03.2022
4512 Clouds 28 1014 78 10000 4.63 60 22:30 28.03.2022
4513 Clouds 28 1014 74 10000 3.6 50 21:18 28.03.2022
4514 Clouds 26 1014 89 10000 2.57 90 20:32 28.03.2022
4515 Clouds 26 1014 89 10000 1.54 100 19:46 28.03.2022
4516 Clouds 25 1013 94 10000 2.06 90 19:28 28.03.2022
4517 Clouds 25 1013 94 10000 2.57 90 18:40 28.03.2022
4518 Clouds 24 1012 100 10000 2.57 80 17:39 28.03.2022
4519 Clouds 24 1012 100 10000 2.57 90 16:38 28.03.2022
4520 Clouds 22 1013 100 10000 1.54 80 14:50 28.03.2022
4521 Clouds 22 1013 100 10000 1.03 90 14:22 28.03.2022
4522 Clouds 23 1014 100 10000 1.03 180 12:41 28.03.2022
4523 Clouds 23 1014 100 10000 1.54 180 11:38 28.03.2022
4524 Drizzle 23 1014 100 10000 1.54 190 09:43 28.03.2022
4525 Rain 23 1014 100 10000 1.03 190 09:19 28.03.2022
4526 Rain 24 1014 94 10000 1.03 230 08:22 28.03.2022
4527 Rain 24 1014 94 10000 2.06 210 07:40 28.03.2022
4528 Rain 25 1013 94 10000 1.54 100 04:18 28.03.2022
4529 Clouds 28 1014 78 10000 3.09 20 23:33 27.03.2022
4530 Clouds 29 1014 79 10000 3.6 20 22:24 27.03.2022
4531 Clouds 28 1014 78 10000 4.12 20 21:42 27.03.2022
4532 Clouds 28 1014 78 10000 4.12 20 20:57 27.03.2022
4533 Clouds 27 1013 83 10000 3.09 30 19:49 27.03.2022
4534 Clouds 27 1013 83 10000 3.09 40 19:24 27.03.2022
4535 Clouds 27 1012 83 10000 4.12 40 18:28 27.03.2022
4536 Clouds 27 1012 83 10000 4.12 40 17:39 27.03.2022
4537 Clouds 27 1012 83 10000 3.6 40 16:31 27.03.2022
4538 Clouds 27 1012 83 10000 3.09 40 15:25 27.03.2022
4539 Clouds 27 1013 83 10000 2.57 30 13:56 27.03.2022
4540 Clouds 27 1014 83 10000 3.09 20 12:31 27.03.2022
4541 Clouds 27 1014 83 10000 2.57 340 10:57 27.03.2022
4542 Clouds 26 1014 89 10000 2.57 20 08:51 27.03.2022
4543 Clouds 27 1013 83 10000 3.6 320 05:54 27.03.2022
4544 Clouds 27 1013 78 10000 5.66 310 00:48 27.03.2022
4545 Rain 26 1015 89 10000 7.2 310 23:42 26.03.2022
4546 Rain 27 1015 83 10000 6.69 320 22:36 26.03.2022
4547 Rain 27 1015 83 10000 4.63 330 21:34 26.03.2022
4548 Rain 26 1015 94 10000 4.63 350 20:52 26.03.2022
4549 Rain 25 1014 94 10000 3.6 10 19:21 26.03.2022
4550 Rain 23 1013 100 10000 0.51 150 17:53 26.03.2022
4551 Rain 24 1013 94 10000 2.06 130 17:32 26.03.2022
4552 Rain 25 1013 88 10000 2.06 40 16:27 26.03.2022
4553 Clouds 25 1013 94 10000 4.63 350 14:57 26.03.2022
4554 Clouds 26 1012 89 10000 3.09 360 13:52 26.03.2022
4555 Clouds 27 1012 89 10000 2.57 320 12:47 26.03.2022
4556 Rain 27 1013 83 10000 3.6 320 11:33 26.03.2022
4557 Clouds 26 1013 89 10000 4.12 290 10:18 26.03.2022
4558 Rain 24 1014 100 1500 2.57 250 08:33 26.03.2022
4559 Clouds 28 1011 78 10000 5.66 320 05:54 26.03.2022
4560 Clouds 28 1010 78 10000 5.66 330 03:59 26.03.2022
4561 Clouds 28 1012 78 10000 4.63 330 23:51 25.03.2022
4562 Clouds 27 1012 89 10000 5.14 310 21:35 25.03.2022
4563 Clouds 27 1012 89 10000 5.14 310 21:35 25.03.2022
4564 Clouds 27 1012 83 10000 5.14 320 20:46 25.03.2022
4565 Rain 26 1011 83 10000 4.63 310 19:28 25.03.2022
4566 Clouds 26 1011 83 10000 4.12 300 18:47 25.03.2022
4567 Rain 25 1010 88 10000 5.66 290 17:37 25.03.2022
4568 Rain 25 1010 88 10000 4.63 280 16:41 25.03.2022
4569 Rain 24 1010 94 10000 4.63 270 15:56 25.03.2022
4570 Rain 24 1011 94 10000 4.63 300 13:58 25.03.2022
4571 Rain 24 1011 94 7000 2.57 230 12:32 25.03.2022
4572 Rain 23 1011 94 5000 2.57 210 09:52 25.03.2022
4573 Rain 23 1011 100 750 5.66 260 09:26 25.03.2022
4574 Rain 23 1010 94 10000 3.6 100 07:51 25.03.2022
4575 Rain 24 1009 94 10000 2.06 140 07:23 25.03.2022
4576 Rain 25 1008 88 10000 2.57 100 04:47 25.03.2022
4577 Clouds 28 1009 83 10000 2.06 320 00:29 25.03.2022
4578 Clouds 28 1010 78 10000 2.57 290 22:30 24.03.2022
4579 Clouds 27 1010 74 10000 6.17 290 21:34 24.03.2022
4580 Clouds 28 1010 78 10000 4.12 320 19:50 24.03.2022
4581 Clouds 27 1009 83 10000 2.57 320 18:54 24.03.2022
4582 Clouds 27 1009 83 10000 3.09 320 17:39 24.03.2022
4583 Clouds 27 1009 78 10000 3.09 300 16:44 24.03.2022
4584 Clouds 27 1009 83 10000 3.09 340 14:59 24.03.2022
4585 Clouds 26 1009 89 10000 2.06 40 14:41 24.03.2022
4586 Clouds 27 1010 83 10000 2.57 350 13:41 24.03.2022
4587 Clouds 27 1010 83 10000 3.09 10 12:39 24.03.2022
4588 Clouds 27 1010 83 10000 3.09 30 11:31 24.03.2022
4589 Clouds 27 1011 83 10000 4.63 50 09:36 24.03.2022
4590 Clouds 27 1011 83 10000 4.63 50 08:39 24.03.2022
4591 Clouds 27 1010 78 10000 4.12 50 06:18 24.03.2022
4592 Clouds 29 1011 74 10000 5.14 50 01:20 24.03.2022
4593 Clouds 29 1013 79 10000 5.14 60 22:26 23.03.2022
4594 Clouds 29 1013 74 10000 5.14 50 21:25 23.03.2022
4595 Clouds 28 1013 78 10000 4.12 60 20:46 23.03.2022
4596 Clouds 26 1013 94 10000 1.54 80 19:40 23.03.2022
4597 Clouds 24 1012 94 10000 2.06 80 18:22 23.03.2022
4598 Clouds 24 1012 94 10000 1.54 100 17:31 23.03.2022
4599 Clouds 24 1012 88 10000 1.54 100 16:18 23.03.2022
4600 Clouds 24 1012 88 10000 1.54 100 16:18 23.03.2022
4601 Clouds 26 1012 89 10000 1.54 90 14:49 23.03.2022
4602 Clouds 26 1013 89 10000 2.06 90 13:34 23.03.2022
4603 Clouds 26 1014 89 10000 2.06 100 11:38 23.03.2022
4604 Clouds 26 1014 89 10000 2.06 100 08:49 23.03.2022
4605 Clouds 27 1013 83 10000 3.6 90 06:26 23.03.2022
4606 Clouds 29 1012 74 10000 6.69 80 03:44 23.03.2022
4607 Clouds 29 1014 74 10000 7.2 80 00:28 23.03.2022
4608 Clouds 28 1015 74 10000 3.6 80 21:53 22.03.2022
4609 Clouds 27 1015 83 10000 2.57 80 21:23 22.03.2022
4610 Clouds 25 1015 94 10000 2.06 90 20:29 22.03.2022
4611 Clouds 25 1015 88 10000 2.06 110 19:27 22.03.2022
4612 Rain 25 1015 94 10000 2.06 130 18:49 22.03.2022
4613 Clouds 24 1014 94 10000 1.03 170 17:44 22.03.2022
4614 Rain 24 1014 88 10000 2.06 120 16:58 22.03.2022
4615 Clouds 25 1013 88 10000 2.57 100 15:42 22.03.2022
4616 Clouds 25 1013 88 10000 2.57 100 15:20 22.03.2022
4617 Clouds 24 1013 94 10000 2.06 110 14:44 22.03.2022
4618 Clouds 24 1014 94 10000 0.51 160 13:42 22.03.2022
4619 Clouds 24 1014 88 10000 1.54 110 12:18 22.03.2022
4620 Rain 24 1015 100 10000 1.03 110 11:20 22.03.2022
4621 Clouds 27 1015 83 10000 2.06 100 09:42 22.03.2022
4622 Clouds 27 1014 78 10000 4.12 80 07:35 22.03.2022
4623 Clouds 29 1014 74 10000 6.69 70 03:58 22.03.2022
4624 Clouds 30 1014 74 10000 7.72 80 01:27 22.03.2022
4625 Clouds 30 1015 70 10000 8.23 80 22:57 21.03.2022
4626 Clouds 28 1016 78 10000 7.2 90 21:37 21.03.2022
4627 Clouds 29 1016 74 10000 6.69 80 20:44 21.03.2022
4628 Clouds 28 1016 78 10000 4.63 90 20:23 21.03.2022
4629 Clouds 28 1016 78 10000 4.63 90 19:45 21.03.2022
4630 Clouds 27 1015 78 10000 3.6 100 18:48 21.03.2022
4631 Clouds 27 1015 78 10000 3.09 100 17:36 21.03.2022
4632 Clouds 27 1015 78 10000 3.6 90 16:59 21.03.2022
4633 Clouds 27 1014 78 10000 3.09 90 16:27 21.03.2022
4634 Clouds 27 1014 78 10000 3.09 100 15:43 21.03.2022
4635 Clouds 27 1015 83 10000 3.6 90 14:36 21.03.2022
4636 Clouds 27 1015 83 10000 3.6 90 13:20 21.03.2022
4637 Clouds 27 1016 83 10000 3.09 90 11:58 21.03.2022
4638 Clouds 27 1016 83 10000 2.06 110 11:20 21.03.2022
4639 Clouds 27 1016 83 10000 2.57 100 09:42 21.03.2022
4640 Clouds 27 1015 83 10000 2.57 90 07:22 21.03.2022
4641 Clouds 28 1014 78 10000 5.66 80 05:42 21.03.2022
4642 Clouds 29 1015 74 10000 7.2 70 00:46 21.03.2022
4643 Clouds 29 1016 79 10000 6.69 70 22:56 20.03.2022
4644 Clouds 30 1017 74 10000 6.69 70 22:22 20.03.2022
4645 Clouds 29 1016 79 10000 5.66 80 21:31 20.03.2022
4646 Clouds 29 1016 79 10000 5.66 80 21:31 20.03.2022
4647 Clouds 29 1017 79 10000 6.69 70 20:48 20.03.2022
4648 Clouds 28 1016 78 10000 2.57 90 20:27 20.03.2022
4649 Clouds 27 1016 89 10000 1.54 100 19:48 20.03.2022
4650 Clouds 26 1016 94 10000 1.03 170 19:19 20.03.2022
4651 Clouds 24 1015 94 10000 0.51 110 17:43 20.03.2022
4652 Clouds 24 1015 94 10000 0.51 110 17:24 20.03.2022
4653 Clouds 24 1015 94 10000 1.54 90 15:57 20.03.2022
4654 Clouds 24 1015 94 10000 0.51 150 14:37 20.03.2022
4655 Clouds 23 1016 100 10000 0.51 120 13:31 20.03.2022
4656 Clouds 24 1017 94 10000 1.03 140 11:51 20.03.2022
4657 Clouds 25 1017 88 10000 1.03 170 09:58 20.03.2022
4658 Clouds 26 1017 83 10000 0.51 190 07:51 20.03.2022
4659 Clouds 27 1016 78 10000 0.51 120 05:49 20.03.2022
4660 Clouds 28 1015 69 10000 3.09 60 03:18 20.03.2022
4661 Clouds 29 1016 65 10000 3.09 30 00:51 20.03.2022
4662 Clouds 29 1016 70 10000 4.12 50 23:35 19.03.2022
4663 Clouds 28 1016 74 10000 3.6 50 21:54 19.03.2022
4664 Clouds 28 1017 69 10000 3.09 50 21:20 19.03.2022
4665 Clouds 25 1016 88 10000 2.06 80 19:21 19.03.2022
4666 Clouds 24 1015 88 10000 1.54 110 18:25 19.03.2022
4667 Clouds 25 1015 83 10000 1.54 110 17:41 19.03.2022
4668 Clouds 24 1015 88 10000 1.54 90 16:40 19.03.2022
4669 Clouds 25 1014 83 10000 2.57 100 15:21 19.03.2022
4670 Clouds 25 1015 88 10000 1.54 100 13:39 19.03.2022
4671 Clouds 25 1016 88 10000 1.54 100 12:42 19.03.2022
4672 Clouds 24 1016 94 10000 0.51 100 11:54 19.03.2022
4673 Clouds 24 1016 94 10000 1.03 120 11:33 19.03.2022
4674 Clouds 25 1016 83 10000 1.03 110 08:34 19.03.2022
4675 Clouds 29 1013 70 10000 3.09 60 04:23 19.03.2022
4676 Clouds 29 1013 70 10000 3.09 50 02:31 19.03.2022
4677 Clouds 28 1014 69 10000 3.09 50 23:46 18.03.2022
4678 Clouds 29 1015 70 10000 2.57 40 22:36 18.03.2022
4679 Clear 29 1015 70 10000 3.09 50 21:56 18.03.2022
4680 Clouds 26 1015 89 10000 2.06 90 19:57 18.03.2022
4681 Clouds 25 1014 100 10000 1.03 90 19:22 18.03.2022
4682 Clouds 22 1014 100 10000 0.51 110 18:27 18.03.2022
4683 Clouds 22 1013 100 10000 1.03 170 16:52 18.03.2022
4684 Clouds 23 1013 94 10000 0.51 160 15:43 18.03.2022
4685 Clouds 23 1014 100 10000 0.51 170 14:25 18.03.2022
4686 Clouds 23 1014 100 10000 1.03 190 12:39 18.03.2022
4687 Clouds 24 1014 94 10000 1.03 170 11:21 18.03.2022
4688 Clouds 24 1014 94 10000 0.51 130 09:34 18.03.2022
4689 Clouds 25 1014 88 10000 0.51 80 08:42 18.03.2022
4690 Clouds 26 1013 83 10000 1.03 120 06:40 18.03.2022
4691 Clouds 28 1012 74 10000 3.09 40 03:30 18.03.2022
4692 Clouds 28 1013 74 10000 3.6 50 00:53 18.03.2022
4693 Clouds 28 1013 69 10000 2.06 30 23:44 17.03.2022
4694 Clouds 28 1014 74 10000 2.06 350 22:25 17.03.2022
4695 Clouds 28 1014 74 10000 1.03 10 21:48 17.03.2022
4696 Clouds 28 1014 74 10000 0.51 90 21:27 17.03.2022
4697 Clouds 27 1014 78 10000 0.51 100 20:51 17.03.2022
4698 Clouds 25 1014 100 10000 0.51 80 19:53 17.03.2022
4699 Clouds 24 1014 100 10000 0.96 260 19:32 17.03.2022
4700 Clouds 23 1014 100 10000 0.51 170 18:49 17.03.2022
4701 Clouds 22 1013 100 10000 1.03 180 17:18 17.03.2022
4702 Clouds 22 1012 100 10000 0.51 170 15:44 17.03.2022
4703 Clouds 22 1013 100 10000 1.03 180 15:26 17.03.2022
4704 Clouds 22 1013 100 10000 1.03 180 14:38 17.03.2022
4705 Clouds 22 1013 100 10000 1.03 190 12:55 17.03.2022
4706 Clouds 23 1014 94 10000 1.03 180 12:25 17.03.2022
4707 Mist 23 1014 94 2200 0.51 180 11:29 17.03.2022
4708 Clouds 23 1014 100 10000 0.51 180 10:30 17.03.2022
4709 Clouds 24 1014 88 10000 1.03 180 08:37 17.03.2022
4710 Clouds 25 1014 88 10000 1.03 150 07:36 17.03.2022
4711 Clouds 28 1013 69 10000 1.54 190 05:47 17.03.2022
4712 Clouds 28 1013 69 10000 1.54 190 05:47 17.03.2022
4713 Clouds 29 1013 70 10000 2.06 280 01:30 17.03.2022
4714 Clouds 29 1014 70 10000 1.54 320 23:50 16.03.2022
4715 Clouds 29 1014 74 10000 1.54 300 22:48 16.03.2022
4716 Clouds 29 1014 74 10000 1.54 300 22:48 16.03.2022
4717 Clouds 29 1014 74 10000 1.54 320 22:30 16.03.2022
4718 Clouds 27 1015 78 10000 1.03 350 21:39 16.03.2022
4719 Clear 27 1015 78 10000 1.54 50 19:47 16.03.2022
4720 Clouds 25 1014 100 10000 0.51 150 19:21 16.03.2022
4721 Clear 22 1014 100 10000 1.03 190 18:37 16.03.2022
4722 Clear 22 1013 100 10000 0.51 100 17:43 16.03.2022
4723 Clear 22 1013 100 10000 0.51 100 17:19 16.03.2022
4724 Clear 22 1013 100 10000 1.03 180 15:55 16.03.2022
4725 Clear 23 1014 100 10000 0.51 170 14:25 16.03.2022
4726 Clouds 23 1014 100 10000 1.03 170 13:27 16.03.2022
4727 Clouds 23 1015 100 10000 0.51 150 11:54 16.03.2022
4728 Clouds 23 1015 100 10000 0.51 170 11:20 16.03.2022
4729 Clouds 24 1016 94 10000 0.51 160 10:22 16.03.2022
4730 Clouds 25 1015 88 10000 1.03 150 08:51 16.03.2022
4731 Clouds 29 1013 70 10000 2.06 200 04:45 16.03.2022
4732 Clouds 29 1014 65 10000 2.06 210 00:48 16.03.2022
4733 Clouds 29 1015 74 10000 3.09 220 22:38 15.03.2022
4734 Clouds 28 1015 78 10000 2.06 200 21:52 15.03.2022
4735 Clouds 28 1015 78 10000 1.54 230 19:53 15.03.2022
4736 Clouds 25 1015 94 10000 1.03 200 18:45 15.03.2022
4737 Clouds 25 1014 94 10000 1.54 200 16:55 15.03.2022
4738 Clouds 25 1014 94 10000 1.54 200 16:20 15.03.2022
4739 Clouds 25 1014 94 10000 1.54 200 14:57 15.03.2022
4740 Clouds 24 1014 100 10000 1.03 190 14:34 15.03.2022
4741 Clouds 25 1015 94 10000 1.03 190 13:27 15.03.2022
4742 Clouds 25 1015 94 10000 1.03 200 11:57 15.03.2022
4743 Clouds 25 1015 94 10000 1.54 200 11:19 15.03.2022
4744 Clouds 26 1016 89 10000 1.03 190 09:37 15.03.2022
4745 Clouds 26 1015 89 10000 1.03 200 08:32 15.03.2022
4746 Clouds 27 1015 83 10000 1.03 210 07:50 15.03.2022
4747 Clouds 28 1014 74 10000 2.06 240 06:35 15.03.2022
4748 Clouds 29 1013 70 10000 3.6 280 02:36 15.03.2022
4749 Clouds 30 1015 70 10000 3.6 280 23:36 14.03.2022
4750 Clouds 30 1015 70 10000 3.6 280 23:18 14.03.2022
4751 Clouds 29 1015 79 10000 2.57 290 21:57 14.03.2022
4752 Clouds 29 1015 74 10000 2.57 290 21:20 14.03.2022
4753 Clouds 28 1015 78 10000 3.6 290 20:31 14.03.2022
4754 Clouds 28 1015 74 10000 3.09 300 19:47 14.03.2022
4755 Clouds 26 1014 89 10000 3.09 290 18:20 14.03.2022
4756 Clouds 27 1013 83 10000 2.57 310 17:42 14.03.2022
4757 Clouds 27 1013 83 10000 3.09 310 16:37 14.03.2022
4758 Clouds 27 1013 78 10000 3.6 320 14:58 14.03.2022
4759 Clouds 27 1013 83 10000 3.09 320 13:59 14.03.2022
4760 Clouds 27 1015 83 10000 1.03 10 11:27 14.03.2022
4761 Clouds 27 1015 83 10000 2.06 320 09:58 14.03.2022
4762 Clouds 27 1015 83 10000 2.06 320 09:58 14.03.2022
4763 Clouds 26 1015 89 10000 1.03 300 09:38 14.03.2022
4764 Clouds 25 1015 94 10000 0.51 190 08:58 14.03.2022
4765 Clouds 26 1014 89 10000 0.51 190 08:30 14.03.2022
4766 Clouds 27 1014 78 10000 2.06 300 06:47 14.03.2022
4767 Clouds 29 1012 74 10000 2.57 320 03:27 14.03.2022
4768 Clouds 29 1013 79 10000 3.09 320 01:39 14.03.2022
4769 Clouds 29 1014 79 10000 2.57 340 00:29 14.03.2022
4770 Clouds 28 1015 83 10000 2.06 30 21:49 13.03.2022
4771 Clouds 29 1015 79 10000 1.54 20 21:21 13.03.2022
4772 Clouds 28 1015 78 10000 1.03 360 20:46 13.03.2022
4773 Clouds 27 1015 89 10000 0.51 360 20:22 13.03.2022
4774 Clouds 26 1014 94 10000 0.51 150 19:42 13.03.2022
4775 Clouds 26 1014 94 10000 0.51 150 19:22 13.03.2022
4776 Clouds 24 1014 100 10000 1.03 130 18:45 13.03.2022
4777 Clouds 24 1014 100 10000 0.51 190 18:25 13.03.2022
4778 Clouds 24 1013 100 10000 0.51 130 17:36 13.03.2022
4779 Clouds 24 1013 100 10000 0.51 160 16:45 13.03.2022
4780 Clouds 24 1013 100 10000 0.51 170 16:21 13.03.2022
4781 Clouds 24 1013 100 10000 0.51 180 15:39 13.03.2022
4782 Clouds 24 1013 100 10000 0.51 170 14:36 13.03.2022
4783 Clouds 24 1014 100 10000 1.03 190 13:27 13.03.2022
4784 Clouds 24 1014 100 8000 1.03 180 12:21 13.03.2022
4785 Mist 24 1015 100 4900 0.51 100 11:38 13.03.2022
4786 Clouds 24 1015 100 10000 0.51 110 10:49 13.03.2022
4787 Clouds 24 1015 100 10000 1.03 90 10:25 13.03.2022
4788 Clouds 25 1015 94 10000 0.51 160 09:41 13.03.2022
4789 Clouds 25 1015 94 10000 1.03 170 08:49 13.03.2022
4790 Clouds 25 1015 94 9000 1.03 180 08:21 13.03.2022
4791 Clouds 28 1013 78 10000 1.54 30 05:59 13.03.2022
4792 Clouds 29 1013 74 10000 3.09 40 03:33 13.03.2022
4793 Clouds 29 1014 74 10000 4.12 40 00:48 13.03.2022
4794 Clouds 29 1015 79 10000 3.09 50 22:47 12.03.2022
4795 Clouds 28 1016 78 10000 3.6 60 20:59 12.03.2022
4796 Clouds 26 1016 89 10000 0.51 170 19:57 12.03.2022
4797 Clouds 26 1016 89 10000 0.51 170 19:57 12.03.2022
4798 Clouds 25 1016 94 10000 0.51 170 19:38 12.03.2022
4799 Clouds 22 1016 100 10000 0.51 140 18:29 12.03.2022
4800 Clouds 22 1015 100 10000 0.51 170 17:39 12.03.2022
4801 Clouds 23 1015 100 10000 0.51 180 16:25 12.03.2022
4802 Clouds 23 1015 100 10000 1.03 190 15:24 12.03.2022
4803 Clouds 23 1015 100 10000 1.03 190 15:24 12.03.2022
4804 Clouds 23 1015 100 10000 1.03 170 14:51 12.03.2022
4805 Clouds 23 1016 100 10000 1.03 180 13:47 12.03.2022
4806 Clouds 23 1016 100 10000 1.03 190 12:18 12.03.2022
4807 Clouds 23 1016 100 10000 0.51 190 11:45 12.03.2022
4808 Clouds 24 1016 94 10000 0.51 150 11:19 12.03.2022
4809 Clouds 24 1017 100 10000 0.51 150 09:47 12.03.2022
4810 Clouds 24 1017 100 10000 0.51 170 09:20 12.03.2022
4811 Clouds 25 1016 94 10000 0.51 140 07:29 12.03.2022
4812 Clouds 29 1014 70 10000 2.06 40 04:50 12.03.2022
4813 Rain 29 1015 79 10000 1.54 350 00:21 12.03.2022
4814 Clouds 29 1016 79 10000 2.06 40 23:19 11.03.2022
4815 Clouds 29 1016 79 10000 2.06 40 23:19 11.03.2022
4816 Rain 26 1016 94 10000 2.57 90 21:43 11.03.2022
4817 Rain 26 1016 89 10000 4.12 50 20:57 11.03.2022
4818 Clouds 26 1016 89 10000 2.06 80 20:35 11.03.2022
4819 Clouds 26 1016 89 10000 2.57 90 19:52 11.03.2022
4820 Clouds 25 1016 94 10000 2.06 130 19:22 11.03.2022
4821 Clouds 24 1014 100 10000 1.54 90 17:30 11.03.2022
4822 Clouds 24 1014 94 10000 1.03 90 16:36 11.03.2022
4823 Clouds 24 1013 100 10000 0.51 100 15:55 11.03.2022
4824 Clouds 24 1014 100 10000 1.03 100 14:20 11.03.2022
4825 Clouds 24 1014 94 10000 1.54 100 12:45 11.03.2022
4826 Clouds 24 1014 94 10000 1.54 90 12:21 11.03.2022
4827 Clouds 24 1014 94 10000 1.54 90 11:51 11.03.2022
4828 Clouds 25 1015 94 10000 1.03 170 09:50 11.03.2022
4829 Clouds 25 1015 94 10000 1.03 190 08:56 11.03.2022
4830 Clouds 26 1014 89 10000 1.03 200 08:20 11.03.2022
4831 Clouds 26 1014 89 10000 1.03 190 07:40 11.03.2022
4832 Clouds 26 1013 89 10000 2.06 230 05:44 11.03.2022
4833 Clouds 29 1012 74 10000 3.09 360 02:56 11.03.2022
4834 Clouds 29 1013 79 10000 4.12 350 22:56 10.03.2022
4835 Clouds 28 1013 83 10000 4.12 10 22:28 10.03.2022
4836 Clouds 29 1013 79 10000 3.6 10 21:27 10.03.2022
4837 Clouds 28 1014 83 10000 4.12 10 20:45 10.03.2022
4838 Clouds 27 1013 83 10000 3.6 10 19:22 10.03.2022
4839 Clouds 27 1012 83 10000 4.12 20 18:30 10.03.2022
4840 Clouds 27 1011 83 10000 4.12 360 16:53 10.03.2022
4841 Clouds 27 1011 83 10000 3.09 360 15:36 10.03.2022
4842 Clouds 27 1011 83 10000 4.12 350 14:23 10.03.2022
4843 Clouds 26 1012 89 10000 3.6 340 12:46 10.03.2022
4844 Clouds 26 1012 94 10000 4.12 330 11:37 10.03.2022
4845 Clouds 26 1012 89 10000 4.12 340 10:19 10.03.2022
4846 Drizzle 26 1012 83 10000 3.6 340 08:40 10.03.2022
4847 Rain 26 1012 89 10000 6.17 320 05:48 10.03.2022
4848 Clouds 26 1010 89 10000 3.6 330 03:22 10.03.2022
4849 Rain 24 1012 100 9000 5.14 260 00:22 10.03.2022
4850 Clouds 28 1012 78 10000 3.09 360 22:32 09.03.2022
4851 Clouds 27 1012 89 10000 3.09 20 21:47 09.03.2022
4852 Rain 26 1012 94 10000 2.57 310 20:53 09.03.2022
4853 Clouds 27 1011 83 10000 5.14 350 19:23 09.03.2022
4854 Clouds 27 1010 83 10000 4.12 350 17:28 09.03.2022
4855 Clouds 26 1010 83 10000 3.09 350 16:48 09.03.2022
4856 Clouds 25 1009 88 10000 2.06 110 15:41 09.03.2022
4857 Clouds 26 1010 89 10000 2.06 360 14:24 09.03.2022
4858 Rain 26 1010 89 10000 4.12 260 13:38 09.03.2022
4859 Rain 27 1011 78 5626 4.79 14 12:20 09.03.2022
4860 Clouds 27 1011 83 10000 4.63 320 11:46 09.03.2022
4861 Clouds 27 1011 83 10000 3.6 320 10:54 09.03.2022
4862 Clouds 27 1011 89 10000 3.6 350 09:25 09.03.2022
4863 Clouds 27 1011 83 10000 4.12 320 08:43 09.03.2022
4864 Clouds 28 1010 78 10000 4.63 300 05:36 09.03.2022
4865 Clouds 29 1011 79 10000 5.66 310 00:56 09.03.2022
4866 Clouds 28 1011 89 10000 5.14 320 23:37 08.03.2022
4867 Clouds 28 1012 83 10000 5.66 320 22:45 08.03.2022
4868 Clouds 28 1012 83 10000 5.66 330 21:46 08.03.2022
4869 Clouds 28 1012 83 10000 5.14 330 21:19 08.03.2022
4870 Clouds 27 1012 89 10000 5.14 350 20:18 08.03.2022
4871 Clouds 27 1011 89 10000 4.12 340 18:53 08.03.2022
4872 Clouds 26 1011 94 10000 4.12 340 17:51 08.03.2022
4873 Clouds 26 1010 89 10000 4.12 350 16:35 08.03.2022
4874 Clouds 26 1011 89 10000 4.12 360 14:24 08.03.2022
4875 Clouds 25 1011 94 10000 2.57 10 13:22 08.03.2022
4876 Rain 23 1012 100 10000 2.57 60 12:19 08.03.2022
4877 Rain 23 1012 100 10000 2.06 90 11:41 08.03.2022
4878 Rain 23 1013 100 10000 1.54 50 10:27 08.03.2022
4879 Rain 23 1014 100 4000 2.06 310 08:28 08.03.2022
4880 Rain 23 1013 100 10000 2.57 90 05:47 08.03.2022
4881 Rain 24 1013 100 10000 5.14 350 00:43 08.03.2022
4882 Rain 24 1013 100 10000 3.6 350 22:23 07.03.2022
4883 Rain 24 1014 94 2900 6.69 350 21:35 07.03.2022
4884 Rain 24 1013 100 1900 3.6 300 20:53 07.03.2022
4885 Rain 25 1013 94 10000 3.09 110 20:20 07.03.2022
4886 Rain 24 1012 94 10000 3.6 50 19:34 07.03.2022
4887 Rain 24 1012 100 9000 1.03 100 18:47 07.03.2022
4888 Rain 27 1011 94 10000 4.12 350 17:54 07.03.2022
4889 Clouds 27 1011 94 10000 4.63 330 16:56 07.03.2022
4890 Rain 26 1011 94 10000 3.09 350 16:20 07.03.2022
4891 Clouds 26 1011 89 10000 3.6 330 14:18 07.03.2022
4892 Clouds 28 1012 83 10000 5.14 320 12:33 07.03.2022
4893 Clouds 28 1013 83 10000 4.63 330 10:39 07.03.2022
4894 Clouds 28 1012 83 10000 4.12 340 09:24 07.03.2022
4895 Clouds 28 1011 83 10000 5.66 350 04:51 07.03.2022
4896 Clouds 28 1012 83 10000 5.66 350 00:23 07.03.2022
4897 Clouds 29 1012 79 10000 4.63 340 23:35 06.03.2022
4898 Clouds 28 1012 83 10000 4.63 340 22:52 06.03.2022
4899 Clouds 28 1013 83 10000 5.14 340 21:58 06.03.2022
4900 Clouds 27 1012 89 10000 2.57 20 20:49 06.03.2022
4901 Clouds 27 1013 83 10000 5.14 350 20:22 06.03.2022
4902 Clouds 27 1012 89 10000 4.12 340 18:56 06.03.2022
4903 Clouds 27 1011 89 10000 2.57 10 18:23 06.03.2022
4904 Clouds 27 1011 83 10000 3.6 360 17:21 06.03.2022
4905 Clouds 27 1011 83 10000 5.14 330 16:41 06.03.2022
4906 Clouds 28 1011 83 10000 5.14 350 15:52 06.03.2022
4907 Clouds 27 1011 89 10000 3.6 360 14:49 06.03.2022
4908 Clouds 27 1011 89 10000 3.6 360 14:49 06.03.2022
4909 Clouds 26 1011 94 10000 2.06 80 14:31 06.03.2022
4910 Rain 25 1011 94 8000 3.09 40 13:18 06.03.2022
4911 Clouds 27 1012 89 10000 3.09 20 12:31 06.03.2022
4912 Clouds 27 1013 83 10000 3.6 30 10:53 06.03.2022
4913 Rain 27 1013 89 10000 3.6 20 09:54 06.03.2022
4914 Clouds 27 1012 89 10000 3.6 50 08:29 06.03.2022
4915 Clouds 27 1012 89 10000 3.6 50 08:29 06.03.2022
4916 Clouds 27 1012 89 10000 3.6 50 08:29 06.03.2022
4917 Clouds 27 1012 89 10000 3.09 30 07:34 06.03.2022
4918 Clouds 28 1011 78 10000 3.6 40 05:32 06.03.2022
4919 Clouds 30 1012 74 10000 4.63 20 00:49 06.03.2022
4920 Clouds 29 1012 84 10000 4.12 50 00:29 06.03.2022
4921 Clouds 29 1013 74 10000 3.6 30 23:21 05.03.2022
4922 Clouds 29 1013 74 10000 4.12 50 22:43 05.03.2022
4923 Clouds 29 1014 74 10000 4.63 40 21:45 05.03.2022
4924 Clouds 28 1014 83 10000 3.6 60 21:20 05.03.2022
4925 Clouds 27 1013 89 10000 4.12 50 19:24 05.03.2022
4926 Clouds 27 1013 89 10000 3.6 70 18:51 05.03.2022
4927 Clouds 26 1012 89 10000 3.09 60 17:43 05.03.2022
4928 Clouds 27 1012 83 10000 4.12 70 16:26 05.03.2022
4929 Clouds 27 1012 83 10000 4.63 50 15:30 05.03.2022
4930 Clouds 27 1012 89 10000 5.66 60 14:44 05.03.2022
4931 Clouds 27 1012 83 10000 5.14 70 14:24 05.03.2022
4932 Clouds 26 1013 89 10000 3.6 80 12:59 05.03.2022
4933 Clouds 26 1014 89 10000 2.06 100 11:43 05.03.2022
4934 Clouds 26 1014 89 10000 2.06 100 11:18 05.03.2022
4935 Clouds 26 1014 89 10000 1.54 100 09:58 05.03.2022
4936 Clouds 25 1014 94 10000 1.03 120 08:49 05.03.2022
4937 Clouds 26 1014 89 10000 1.03 150 07:23 05.03.2022
4938 Clouds 28 1013 74 10000 2.06 90 05:41 05.03.2022
4939 Clouds 28 1014 78 10000 2.57 50 01:25 05.03.2022
4940 Clouds 28 1015 74 10000 2.57 60 23:30 04.03.2022
4941 Clouds 28 1015 74 10000 4.12 60 22:40 04.03.2022
4942 Clouds 28 1015 74 10000 3.6 50 21:45 04.03.2022
4943 Clouds 28 1015 74 10000 3.6 70 20:48 04.03.2022
4944 Clouds 26 1015 89 10000 2.06 80 19:39 04.03.2022
4945 Clouds 24 1014 94 10000 1.54 90 18:59 04.03.2022
4946 Clouds 24 1014 94 10000 1.03 90 18:36 04.03.2022
4947 Clouds 25 1014 88 10000 2.06 100 17:29 04.03.2022
4948 Clouds 24 1014 94 10000 2.06 90 16:26 04.03.2022
4949 Clouds 24 1014 94 10000 1.54 90 15:27 04.03.2022
4950 Clouds 24 1014 94 10000 1.54 90 15:27 04.03.2022
4951 Clouds 25 1015 94 10000 1.54 120 13:38 04.03.2022
4952 Clouds 25 1015 88 10000 2.06 70 12:51 04.03.2022
4953 Clouds 26 1016 89 10000 2.06 90 11:37 04.03.2022
4954 Clouds 25 1016 88 10000 1.54 90 10:30 04.03.2022
4955 Clouds 26 1016 83 10000 2.57 90 09:28 04.03.2022
4956 Clouds 25 1016 83 10000 2.06 80 08:20 04.03.2022
4957 Clouds 27 1015 78 10000 2.57 70 06:55 04.03.2022
4958 Clouds 29 1014 74 10000 4.63 50 02:52 04.03.2022
4959 Clouds 29 1016 74 10000 4.63 40 23:43 03.03.2022
4960 Clouds 29 1016 74 10000 4.63 50 22:18 03.03.2022
4961 Clouds 29 1016 79 10000 4.12 50 21:37 03.03.2022
4962 Clouds 29 1016 74 10000 4.12 60 20:50 03.03.2022
4963 Clouds 27 1015 89 10000 3.6 70 19:34 03.03.2022
4964 Clouds 25 1015 94 10000 1.54 100 18:33 03.03.2022
4965 Clouds 24 1014 94 10000 2.06 80 17:39 03.03.2022
4966 Clouds 24 1014 94 10000 2.06 80 17:18 03.03.2022
4967 Clouds 24 1014 94 10000 1.54 80 15:46 03.03.2022
4968 Clouds 24 1014 100 10000 0.51 90 14:45 03.03.2022
4969 Clouds 24 1015 100 10000 0.51 100 14:27 03.03.2022
4970 Clouds 25 1015 94 10000 1.03 100 12:43 03.03.2022
4971 Clouds 26 1016 89 10000 1.54 110 11:31 03.03.2022
4972 Clouds 26 1016 89 10000 2.06 80 10:38 03.03.2022
4973 Clouds 28 1016 78 10000 3.09 40 08:43 03.03.2022
4974 Clouds 28 1015 78 10000 2.06 20 06:58 03.03.2022
4975 Clouds 28 1015 78 10000 2.57 20 06:23 03.03.2022
4976 Clouds 29 1015 79 10000 5.14 40 00:40 03.03.2022
4977 Clouds 30 1016 74 10000 4.63 40 23:28 02.03.2022
4978 Clouds 29 1016 79 10000 4.63 40 22:44 02.03.2022
4979 Clouds 29 1016 79 10000 4.63 50 21:23 02.03.2022
4980 Clouds 29 1016 79 10000 4.63 50 21:23 02.03.2022
4981 Clouds 28 1016 83 10000 4.63 50 20:30 02.03.2022
4982 Clouds 28 1016 83 10000 4.12 50 19:45 02.03.2022
4983 Clouds 27 1016 83 10000 3.09 50 19:26 02.03.2022
4984 Clouds 25 1016 94 10000 0.51 80 18:39 02.03.2022
4985 Clouds 25 1016 94 10000 0.51 80 18:39 02.03.2022
4986 Clouds 25 1016 94 10000 0.51 80 18:39 02.03.2022
4987 Clouds 25 1016 94 10000 0.51 80 18:39 02.03.2022
4988 Clouds 25 1015 94 10000 0.51 120 17:45 02.03.2022
4989 Clear 26 1015 89 10000 1.54 100 16:54 02.03.2022
4990 Rain 25 1015 94 10000 2.06 90 16:36 02.03.2022
4991 Clear 25 1015 94 10000 2.06 80 14:42 02.03.2022
4992 Clouds 26 1015 89 10000 2.57 90 13:23 02.03.2022
4993 Clouds 24 1016 94 10000 2.06 80 12:40 02.03.2022
4994 Clouds 26 1016 78 10000 2.57 90 11:38 02.03.2022
4995 Clouds 26 1016 78 10000 2.57 90 11:18 02.03.2022
4996 Clouds 28 1016 78 10000 3.09 50 09:40 02.03.2022
4997 Clouds 28 1016 83 10000 3.09 50 08:50 02.03.2022
4998 Clouds 28 1015 78 10000 4.12 40 07:25 02.03.2022
4999 Clouds 28 1013 83 10000 4.12 40 05:43 02.03.2022
5000 Clouds 29 1015 79 10000 4.63 40 00:57 02.03.2022
5001 Clouds 30 1016 74 10000 4.12 50 23:45 01.03.2022
5002 Clouds 29 1016 79 10000 3.6 40 22:42 01.03.2022
5003 Clouds 29 1016 79 10000 4.12 40 21:56 01.03.2022
5004 Clouds 28 1016 89 10000 4.12 70 20:56 01.03.2022
5005 Rain 26 1016 94 10000 2.57 70 20:24 01.03.2022
5006 Clouds 25 1015 94 10000 2.06 100 19:21 01.03.2022
5007 Clouds 25 1014 94 10000 1.54 90 18:26 01.03.2022
5008 Clouds 25 1014 94 10000 1.54 80 17:55 01.03.2022
5009 Clouds 25 1014 94 10000 1.54 100 16:50 01.03.2022
5010 Clouds 25 1013 94 10000 2.06 80 15:51 01.03.2022
5011 Clouds 25 1013 94 10000 2.06 70 14:54 01.03.2022
5012 Clouds 26 1014 89 10000 1.54 100 14:33 01.03.2022
5013 Clouds 27 1014 89 10000 3.09 50 13:26 01.03.2022
5014 Clouds 27 1014 89 10000 3.09 50 12:38 01.03.2022
5015 Clouds 26 1015 89 10000 2.06 80 11:44 01.03.2022
5016 Clouds 27 1015 89 10000 3.09 50 09:53 01.03.2022
5017 Clouds 27 1015 83 10000 3.6 60 08:31 01.03.2022
5018 Clouds 27 1014 83 10000 3.6 50 07:32 01.03.2022
5019 Clouds 29 1013 74 10000 2.57 30 03:27 01.03.2022
5020 Clouds 29 1014 79 10000 3.09 40 00:49 01.03.2022
5021 Clouds 29 1014 74 10000 4.12 40 23:47 28.02.2022
5022 Clouds 28 1014 78 10000 5.14 50 22:43 28.02.2022
5023 Clouds 29 1014 79 10000 5.14 50 21:48 28.02.2022
5024 Clouds 28 1014 78 10000 5.14 60 20:55 28.02.2022
5025 Clouds 27 1014 83 10000 3.6 60 19:51 28.02.2022
5026 Clouds 26 1014 89 10000 3.09 100 18:57 28.02.2022
5027 Clouds 23 1014 100 10000 2.57 80 17:57 28.02.2022
5028 Clouds 23 1013 100 10000 2.57 80 17:23 28.02.2022
5029 Clouds 23 1013 100 10000 2.06 100 16:32 28.02.2022
5030 Clouds 23 1013 100 10000 1.03 80 15:19 28.02.2022
5031 Clouds 23 1014 100 10000 0.51 170 14:29 28.02.2022
5032 Clouds 23 1015 100 10000 0.51 180 13:24 28.02.2022
5033 Clouds 23 1015 100 10000 0.51 170 12:29 28.02.2022
5034 Clouds 23 1016 100 10000 0.51 90 11:20 28.02.2022
5035 Clouds 23 1016 100 10000 0.51 100 10:23 28.02.2022
5036 Clouds 23 1016 100 10000 1.03 80 09:51 28.02.2022
5037 Clouds 24 1016 94 10000 0.51 80 09:24 28.02.2022
5038 Clouds 24 1015 94 10000 0.51 170 08:22 28.02.2022
5039 Clouds 27 1014 78 10000 2.57 50 06:31 28.02.2022
5040 Clouds 28 1013 74 10000 1.54 20 04:31 28.02.2022
5041 Clouds 29 1014 74 10000 4.12 40 01:24 28.02.2022
5042 Clouds 28 1015 78 10000 3.6 40 22:55 27.02.2022
5043 Clouds 28 1015 78 10000 4.12 40 22:32 27.02.2022
5044 Clouds 28 1016 78 10000 4.12 40 21:42 27.02.2022
5045 Clouds 28 1016 78 10000 3.6 40 20:50 27.02.2022
5046 Clouds 27 1016 83 10000 2.57 40 20:18 27.02.2022
5047 Clouds 27 1016 83 10000 3.09 50 19:49 27.02.2022
5048 Clouds 27 1015 89 10000 2.06 90 19:22 27.02.2022
5049 Clouds 25 1014 94 10000 2.06 90 18:37 27.02.2022
5050 Clouds 25 1014 94 10000 2.06 100 17:52 27.02.2022
5051 Clouds 26 1014 89 10000 2.06 80 16:30 27.02.2022
5052 Clouds 27 1014 83 10000 2.57 50 15:24 27.02.2022
5053 Clouds 27 1015 83 10000 2.06 40 12:37 27.02.2022
5054 Clouds 27 1016 89 10000 2.57 20 11:54 27.02.2022
5055 Clouds 27 1016 89 10000 2.57 50 10:37 27.02.2022
5056 Clouds 27 1016 89 10000 2.57 40 09:58 27.02.2022
5057 Clouds 27 1016 89 10000 2.57 40 09:58 27.02.2022
5058 Clouds 27 1015 89 10000 3.09 40 09:23 27.02.2022
5059 Clouds 27 1015 89 10000 2.06 40 08:45 27.02.2022
5060 Clouds 27 1015 89 10000 2.06 40 08:45 27.02.2022
5061 Clouds 28 1014 83 10000 2.57 30 06:26 27.02.2022
5062 Clouds 29 1014 79 10000 2.57 10 03:35 27.02.2022
5063 Clouds 30 1015 79 10000 3.09 360 23:57 26.02.2022
5064 Clouds 29 1016 79 10000 3.6 30 22:43 26.02.2022
5065 Clouds 29 1016 79 10000 3.6 30 21:29 26.02.2022
5066 Clouds 28 1016 83 10000 3.6 40 20:43 26.02.2022
5067 Clouds 27 1016 89 10000 3.6 40 19:56 26.02.2022
5068 Clouds 27 1016 89 10000 3.09 50 19:33 26.02.2022
5069 Clouds 27 1015 89 10000 3.09 50 18:33 26.02.2022
5070 Clouds 26 1015 89 10000 3.09 50 17:36 26.02.2022
5071 Clouds 27 1014 89 10000 3.09 50 16:39 26.02.2022
5072 Clouds 27 1014 83 10000 2.57 40 15:38 26.02.2022
5073 Clouds 27 1014 83 10000 2.57 40 15:19 26.02.2022
5074 Clouds 27 1015 89 10000 2.06 40 14:42 26.02.2022
5075 Clouds 27 1015 89 10000 2.57 20 13:53 26.02.2022
5076 Clouds 27 1015 89 10000 2.06 20 12:53 26.02.2022
5077 Clouds 27 1016 89 10000 2.06 20 11:52 26.02.2022
5078 Clouds 27 1016 89 10000 2.57 30 11:25 26.02.2022
5079 Clouds 27 1016 89 10000 3.09 30 09:44 26.02.2022
5080 Clouds 27 1014 83 10000 3.09 30 08:28 26.02.2022
5081 Clouds 28 1013 78 10000 3.6 30 06:31 26.02.2022
5082 Clouds 29 1014 79 10000 4.12 20 23:52 25.02.2022
5083 Clouds 29 1015 74 10000 4.63 20 22:34 25.02.2022
5084 Clouds 28 1015 83 10000 3.6 360 21:32 25.02.2022
5085 Clouds 28 1015 78 10000 4.12 20 20:51 25.02.2022
5086 Clouds 28 1015 78 10000 3.6 10 20:25 25.02.2022
5087 Clouds 27 1013 83 10000 3.09 10 17:57 25.02.2022
5088 Clouds 26 1012 83 10000 3.09 10 16:54 25.02.2022
5089 Clouds 27 1012 83 10000 5.14 20 15:55 25.02.2022
5090 Clouds 27 1012 83 10000 5.66 20 15:23 25.02.2022
5091 Clouds 27 1012 83 10000 5.14 20 14:55 25.02.2022
5092 Clouds 27 1012 83 10000 5.14 20 14:24 25.02.2022
5093 Clouds 27 1012 83 10000 5.66 30 13:30 25.02.2022
5094 Clouds 27 1013 83 10000 4.63 30 12:21 25.02.2022
5095 Clouds 27 1013 89 10000 5.14 40 11:21 25.02.2022
5096 Clouds 27 1013 89 10000 5.14 50 10:23 25.02.2022
5097 Clouds 27 1013 89 10000 5.14 40 09:45 25.02.2022
5098 Clouds 27 1012 89 10000 6.17 50 08:22 25.02.2022
5099 Clouds 27 1011 83 10000 6.69 60 06:56 25.02.2022
5100 Clouds 28 1011 83 10000 5.66 50 05:41 25.02.2022
5101 Clouds 29 1011 79 10000 6.17 40 02:43 25.02.2022
5102 Clouds 29 1012 74 10000 7.2 60 22:37 24.02.2022
5103 Clouds 28 1012 78 10000 6.69 50 21:50 24.02.2022
5104 Clouds 28 1013 78 10000 6.69 50 21:30 24.02.2022
5105 Clouds 28 1013 83 10000 6.69 50 20:44 24.02.2022
5106 Clouds 27 1012 83 10000 6.17 60 19:31 24.02.2022
5107 Clouds 27 1011 83 10000 6.17 60 18:20 24.02.2022
5108 Clouds 26 1011 89 10000 5.14 60 17:54 24.02.2022
5109 Clouds 26 1011 83 10000 5.14 60 17:20 24.02.2022
5110 Clouds 27 1011 78 10000 5.14 50 16:28 24.02.2022
5111 Clouds 27 1011 78 10000 5.14 50 15:43 24.02.2022
5112 Clouds 27 1011 78 10000 5.66 60 14:45 24.02.2022
5113 Clouds 27 1012 78 10000 5.66 60 13:59 24.02.2022
5114 Clouds 26 1012 83 10000 5.14 60 13:37 24.02.2022
5115 Clouds 27 1013 83 10000 4.63 60 11:38 24.02.2022
5116 Clouds 27 1013 83 10000 4.12 50 10:31 24.02.2022
5117 Clouds 27 1012 74 10000 4.63 60 08:43 24.02.2022
5118 Clouds 27 1011 78 10000 4.63 60 06:45 24.02.2022
5119 Clouds 28 1011 74 10000 5.66 60 05:40 24.02.2022
5120 Clouds 29 1011 74 10000 5.66 60 00:30 24.02.2022
5121 Clouds 28 1012 78 10000 6.69 70 22:19 23.02.2022
5122 Clouds 28 1013 74 10000 4.63 60 20:45 23.02.2022
5123 Clouds 28 1012 78 10000 5.14 60 20:26 23.02.2022
5124 Clouds 26 1012 83 10000 3.6 80 19:35 23.02.2022
5125 Clouds 25 1012 88 10000 2.57 100 18:26 23.02.2022
5126 Clouds 25 1011 88 10000 1.54 100 16:28 23.02.2022
5127 Clouds 25 1012 88 10000 2.06 110 13:58 23.02.2022
5128 Clouds 25 1012 88 10000 3.09 90 12:31 23.02.2022
5129 Clouds 26 1013 83 10000 2.57 90 10:58 23.02.2022
5130 Clouds 26 1014 83 10000 2.06 90 09:49 23.02.2022
5131 Clouds 25 1014 88 10000 2.06 100 08:54 23.02.2022
5132 Clear 26 1013 83 10000 2.06 100 07:53 23.02.2022
5133 Clouds 29 1012 70 10000 7.72 80 02:31 23.02.2022
5134 Clouds 29 1013 74 10000 7.72 70 23:50 22.02.2022
5135 Clouds 28 1013 74 10000 8.23 80 23:31 22.02.2022
5136 Clouds 29 1014 74 10000 7.72 80 22:28 22.02.2022
5137 Clouds 29 1014 74 10000 8.23 80 21:44 22.02.2022
5138 Clouds 28 1015 78 10000 7.72 80 21:20 22.02.2022
5139 Clouds 28 1015 78 10000 5.66 90 20:32 22.02.2022
5140 Clouds 27 1015 83 10000 4.63 90 19:56 22.02.2022
5141 Clouds 26 1014 83 10000 4.12 90 19:33 22.02.2022
5142 Clouds 26 1014 83 10000 4.12 100 18:35 22.02.2022
5143 Clouds 26 1013 83 10000 4.63 90 17:27 22.02.2022
5144 Clouds 26 1013 83 10000 4.12 90 16:55 22.02.2022
5145 Clouds 26 1013 83 10000 4.12 90 16:20 22.02.2022
5146 Clouds 26 1013 83 10000 3.6 90 15:21 22.02.2022
5147 Clouds 26 1013 83 10000 4.63 90 14:19 22.02.2022
5148 Clouds 26 1015 89 10000 5.66 80 11:38 22.02.2022
5149 Clouds 27 1015 83 10000 4.63 90 09:44 22.02.2022
5150 Clouds 27 1014 83 10000 6.17 80 07:30 22.02.2022
5151 Clouds 27 1013 83 10000 5.14 80 06:54 22.02.2022
5152 Clouds 28 1013 83 10000 7.2 70 02:50 22.02.2022
5153 Clouds 29 1014 79 10000 8.23 80 23:18 21.02.2022
5154 Clouds 29 1014 74 10000 8.23 70 22:36 21.02.2022
5155 Clouds 28 1014 83 10000 7.72 80 20:52 21.02.2022
5156 Clouds 26 1014 89 10000 5.66 70 18:56 21.02.2022
5157 Clouds 25 1014 94 10000 3.6 90 18:37 21.02.2022
5158 Clouds 26 1013 89 10000 6.17 80 16:23 21.02.2022
5159 Clouds 26 1013 89 10000 4.12 90 14:23 21.02.2022
5160 Clouds 26 1013 89 10000 4.12 90 13:31 21.02.2022
5161 Clouds 26 1013 89 10000 4.12 80 12:46 21.02.2022
5162 Clouds 26 1013 89 10000 6.17 80 12:21 21.02.2022
5163 Drizzle 25 1015 88 10000 5.14 90 10:27 21.02.2022
5164 Rain 25 1014 88 10000 1.54 100 07:48 21.02.2022
5165 Clouds 28 1013 83 10000 6.69 60 00:35 21.02.2022
5166 Clouds 28 1013 78 10000 6.69 60 22:32 20.02.2022
5167 Clouds 28 1013 78 10000 7.2 50 21:44 20.02.2022
5168 Clouds 28 1014 78 10000 6.69 60 21:24 20.02.2022
5169 Clouds 27 1013 83 10000 7.2 70 20:43 20.02.2022
5170 Clouds 27 1013 83 10000 5.66 70 19:49 20.02.2022
5171 Clouds 26 1012 89 10000 3.6 80 18:55 20.02.2022
5172 Clouds 26 1012 83 10000 5.14 70 18:36 20.02.2022
5173 Clouds 25 1012 88 10000 5.66 70 17:55 20.02.2022
5174 Clouds 25 1011 88 10000 3.6 90 16:59 20.02.2022
5175 Clouds 25 1011 88 10000 3.6 90 14:55 20.02.2022
5176 Clouds 25 1011 88 10000 3.09 100 13:58 20.02.2022
5177 Clouds 25 1012 88 10000 2.06 100 12:42 20.02.2022
5178 Clouds 25 1013 88 10000 2.57 100 11:30 20.02.2022
5179 Clouds 25 1012 88 10000 1.54 100 10:21 20.02.2022
5180 Clear 25 1012 88 10000 1.03 100 09:24 20.02.2022
5181 Clouds 29 1010 70 10000 5.14 50 02:54 20.02.2022
5182 Clouds 29 1011 70 10000 5.66 50 00:31 20.02.2022
5183 Clouds 28 1012 74 10000 5.66 60 23:32 19.02.2022
5184 Clouds 28 1012 78 10000 4.63 60 22:23 19.02.2022
5185 Clouds 28 1012 78 10000 5.14 60 21:45 19.02.2022
5186 Clouds 27 1012 78 10000 5.14 80 20:25 19.02.2022
5187 Clouds 27 1012 78 10000 5.14 80 20:25 19.02.2022
5188 Clouds 27 1012 78 10000 5.14 80 20:24 19.02.2022
5189 Clouds 26 1012 89 10000 2.06 100 19:34 19.02.2022
5190 Clouds 24 1011 94 10000 0.51 60 18:38 19.02.2022
5191 Clouds 24 1011 94 10000 1.54 110 17:37 19.02.2022
5192 Clouds 24 1010 94 10000 1.03 100 16:47 19.02.2022
5193 Clouds 24 1011 94 10000 1.54 110 15:20 19.02.2022
5194 Rain 25 1011 88 10000 2.06 110 14:53 19.02.2022
5195 Clouds 25 1011 88 10000 1.54 100 13:50 19.02.2022
5196 Clouds 25 1013 88 10000 1.54 90 11:40 19.02.2022
5197 Clouds 25 1013 88 10000 2.06 100 10:30 19.02.2022
5198 Clouds 26 1012 83 10000 2.06 100 08:31 19.02.2022
5199 Clouds 27 1011 78 10000 5.14 70 06:30 19.02.2022
5200 Clouds 29 1012 70 10000 5.66 60 23:45 18.02.2022
5201 Clouds 28 1013 83 10000 4.12 50 21:54 18.02.2022
5202 Clouds 28 1013 83 10000 3.6 40 20:57 18.02.2022
5203 Clouds 26 1012 89 10000 3.6 40 19:55 18.02.2022
5204 Clouds 25 1012 94 10000 4.12 20 18:50 18.02.2022
5205 Clouds 25 1011 94 10000 4.12 40 18:22 18.02.2022
5206 Rain 25 1011 94 10000 4.12 20 17:55 18.02.2022
5207 Clouds 25 1011 88 10000 6.17 50 15:22 18.02.2022
5208 Clouds 25 1011 88 10000 5.66 70 13:55 18.02.2022
5209 Clouds 25 1012 94 10000 3.6 90 12:55 18.02.2022
5210 Clouds 25 1012 94 10000 3.6 90 12:36 18.02.2022
5211 Clouds 24 1013 94 10000 3.09 90 11:29 18.02.2022
5212 Clouds 24 1013 94 10000 2.57 110 10:23 18.02.2022
5213 Clouds 23 1012 94 10000 1.03 80 06:57 18.02.2022
5214 Clouds 25 1011 94 10000 2.06 90 05:40 18.02.2022
5215 Clouds 25 1012 94 10000 4.12 100 23:31 17.02.2022
5216 Clouds 28 1012 78 10000 6.69 50 21:45 17.02.2022
5217 Clouds 27 1012 89 10000 5.14 50 21:19 17.02.2022
5218 Clouds 26 1012 83 10000 6.17 60 20:37 17.02.2022
5219 Clouds 27 1012 83 10000 5.14 40 19:48 17.02.2022
5220 Clouds 26 1011 89 10000 5.14 40 18:41 17.02.2022
5221 Clouds 26 1011 89 10000 4.63 40 17:50 17.02.2022
5222 Clouds 26 1011 83 10000 6.17 40 16:29 17.02.2022
5223 Clouds 25 1011 94 10000 6.17 50 15:32 17.02.2022
5224 Clouds 25 1011 88 10000 6.69 50 14:26 17.02.2022
5225 Rain 23 1012 100 4900 6.17 70 12:35 17.02.2022
5226 Clouds 26 1012 83 10000 6.17 50 11:21 17.02.2022
5227 Clouds 25 1012 94 10000 6.17 60 08:45 17.02.2022
5228 Rain 24 1011 94 9000 4.63 360 00:31 17.02.2022
5229 Rain 24 1012 94 7000 6.69 350 22:59 16.02.2022
5230 Rain 24 1012 94 10000 6.17 340 21:25 16.02.2022
5231 Rain 26 1011 89 10000 6.69 50 19:43 16.02.2022
5232 Clouds 25 1009 94 10000 6.69 60 18:36 16.02.2022
5233 -273 0 0 0 0 0 17:46 16.02.2022
5234 Clouds 25 1009 88 10000 6.69 50 15:36 16.02.2022
5235 Rain 24 1009 94 10000 7.72 50 14:57 16.02.2022
5236 Clouds 24 1011 94 10000 8.23 330 12:35 16.02.2022
5237 Clouds 27 1010 83 10000 6.17 40 11:53 16.02.2022
5238 Clouds 26 1010 89 10000 6.69 50 11:23 16.02.2022
5239 Clouds 26 1011 83 10000 6.69 50 10:29 16.02.2022
5240 Clouds 25 1009 88 10000 3.6 60 06:57 16.02.2022
5241 Clouds 25 1008 83 10000 4.12 50 04:42 16.02.2022
5242 Clouds 27 1010 78 10000 4.63 10 23:35 15.02.2022
5243 Clouds 27 1010 83 10000 4.12 30 22:18 15.02.2022
5244 Clouds 26 1010 89 10000 4.63 20 21:45 15.02.2022
5245 Rain 26 1010 89 10000 4.12 10 21:26 15.02.2022
5246 Rain 26 1010 89 10000 5.14 360 20:53 15.02.2022
5247 Clouds 26 1009 83 10000 5.66 20 19:48 15.02.2022
5248 Clouds 25 1009 88 10000 4.63 30 18:45 15.02.2022
5249 Clouds 25 1008 88 10000 5.14 40 18:19 15.02.2022
5250 Rain 24 1008 94 10000 6.17 40 17:47 15.02.2022
5251 Clouds 25 1008 88 10000 6.69 40 16:30 15.02.2022
5252 Rain 23 1009 94 10000 7.72 40 14:39 15.02.2022
5253 Clouds 25 1009 88 10000 6.17 50 13:26 15.02.2022
5254 Clouds 25 1009 88 10000 6.69 50 11:52 15.02.2022
5255 Clouds 24 1010 94 10000 5.66 70 10:57 15.02.2022
5256 Rain 23 1010 94 5000 5.14 60 09:25 15.02.2022
5257 Rain 22 1008 100 10000 1.54 150 06:48 15.02.2022
5258 Rain 25 1009 94 10000 4.63 60 00:26 15.02.2022
5259 Clouds 26 1009 83 10000 4.63 50 21:59 14.02.2022
5260 Clouds 26 1009 83 10000 4.12 40 21:19 14.02.2022
5261 Clouds 26 1009 83 10000 3.6 50 20:19 14.02.2022
5262 Clouds 25 1008 88 10000 4.63 50 19:30 14.02.2022
5263 Clouds 25 1008 83 10000 3.09 50 18:24 14.02.2022
5264 Clouds 25 1007 88 10000 4.63 60 17:37 14.02.2022
5265 Clouds 25 1007 88 10000 4.63 60 17:18 14.02.2022
5266 Clouds 23 1007 94 10000 1.03 100 15:52 14.02.2022
5267 Clouds 26 1008 83 10000 4.12 40 13:37 14.02.2022
5268 Clouds 26 1008 83 10000 4.12 40 12:59 14.02.2022
5269 Clouds 26 1008 83 10000 4.12 50 12:32 14.02.2022
5270 Clouds 26 1009 78 10000 5.14 50 11:39 14.02.2022
5271 Clouds 25 1009 88 10000 5.14 60 10:22 14.02.2022
5272 Clouds 24 1009 94 10000 2.57 80 08:26 14.02.2022
5273 Clouds 24 1009 88 10000 3.09 100 07:26 14.02.2022
5274 Clouds 27 1010 78 10000 1.54 340 23:19 13.02.2022
5275 Rain 26 1010 83 10000 1.03 310 22:41 13.02.2022
5276 Rain 26 1010 83 10000 1.03 310 22:22 13.02.2022
5277 Clouds 28 1010 74 10000 1.03 230 21:24 13.02.2022
5278 Clouds 26 1010 83 10000 1.54 270 20:28 13.02.2022
5279 Clouds 25 1010 94 10000 0.51 160 19:23 13.02.2022
5280 Clouds 24 1010 94 10000 1.54 210 18:41 13.02.2022
5281 Clouds 23 1009 100 10000 1.03 180 17:32 13.02.2022
5282 Rain 23 1009 100 10000 0.51 170 15:51 13.02.2022
5283 Clouds 23 1010 100 10000 1.03 90 14:50 13.02.2022
5284 Clouds 23 1010 100 10000 1.03 100 13:29 13.02.2022
5285 Clouds 24 1011 94 10000 1.54 80 12:42 13.02.2022
5286 Clouds 24 1011 100 10000 0.51 100 10:44 13.02.2022
5287 Clouds 24 1012 100 10000 1.03 160 10:25 13.02.2022
5288 Clouds 24 1011 94 10000 1.03 150 08:56 13.02.2022
5289 Clouds 28 1010 78 10000 2.57 300 02:49 13.02.2022
5290 Clouds 26 1012 78 10000 2.57 90 00:32 13.02.2022
5291 Clouds 27 1013 78 10000 2.06 300 22:55 12.02.2022
5292 Clouds 28 1013 78 10000 2.06 220 22:30 12.02.2022
5293 Clouds 28 1013 74 10000 2.57 80 21:18 12.02.2022
5294 Clouds 27 1013 78 10000 1.54 70 20:24 12.02.2022
5295 Clouds 23 1012 100 10000 1.03 170 18:54 12.02.2022
5296 Clouds 22 1012 100 10000 1.03 160 18:36 12.02.2022
5297 Clouds 22 1011 100 10000 1.03 170 17:40 12.02.2022
5298 Clouds 22 1011 100 10000 0.51 160 16:46 12.02.2022
5299 Clouds 23 1011 94 10000 1.03 120 15:59 12.02.2022
5300 Clouds 23 1011 94 10000 1.03 110 15:21 12.02.2022
5301 Clouds 23 1011 100 10000 1.54 90 14:29 12.02.2022
5302 Clouds 24 1013 94 10000 1.03 190 11:33 12.02.2022
5303 Clouds 24 1013 94 10000 0.51 150 10:33 12.02.2022
5304 Clouds 24 1013 94 10000 0.51 170 09:38 12.02.2022
5305 Clouds 24 1013 94 10000 0.51 80 08:47 12.02.2022
5306 Clouds 25 1013 88 10000 0.51 120 07:45 12.02.2022
5307 Clouds 28 1012 74 10000 3.6 60 04:50 12.02.2022
5308 Clouds 28 1012 74 10000 4.63 50 02:19 12.02.2022
5309 Clouds 28 1013 74 10000 4.63 60 23:34 11.02.2022
5310 Clouds 28 1014 74 10000 5.66 70 22:23 11.02.2022
5311 Clouds 28 1013 74 10000 5.14 60 21:34 11.02.2022
5312 Clouds 27 1013 78 10000 4.12 80 20:28 11.02.2022
5313 Clouds 25 1013 94 10000 1.54 100 19:29 11.02.2022
5314 Clouds 23 1013 94 10000 1.03 140 18:41 11.02.2022
5315 Clouds 23 1012 100 10000 1.03 170 17:27 11.02.2022
5316 Clouds 23 1012 94 10000 1.03 80 16:40 11.02.2022
5317 Clouds 23 1012 94 10000 1.03 110 15:19 11.02.2022
5318 Clouds 24 1012 88 10000 1.03 110 14:37 11.02.2022
5319 Clouds 24 1012 88 10000 1.03 110 14:19 11.02.2022
5320 Clouds 25 1013 88 10000 1.54 120 13:44 11.02.2022
5321 Clouds 25 1013 88 10000 2.06 90 13:25 11.02.2022
5322 Clear 24 1015 88 10000 2.06 70 10:59 11.02.2022
5323 Clouds 26 1015 78 10000 3.6 80 09:32 11.02.2022
5324 Clouds 26 1015 83 10000 6.17 70 08:33 11.02.2022
5325 Clouds 26 1015 83 10000 5.14 80 07:45 11.02.2022
5326 Clouds 27 1014 78 10000 3.6 90 06:22 11.02.2022
5327 Clouds 29 1013 70 10000 4.12 100 02:21 11.02.2022
5328 Clouds 30 1014 66 10000 3.6 80 23:45 10.02.2022
5329 Clouds 28 1015 74 10000 4.63 50 22:26 10.02.2022
5330 Clouds 27 1015 74 10000 3.6 60 21:41 10.02.2022
5331 Clouds 27 1015 74 10000 3.09 40 20:50 10.02.2022
5332 Clouds 26 1015 89 10000 3.09 80 19:51 10.02.2022
5333 Clouds 27 1015 83 10000 2.57 90 19:22 10.02.2022
5334 Clouds 22 1015 100 10000 1.03 190 18:22 10.02.2022
5335 Clouds 22 1014 100 10000 1.03 180 17:21 10.02.2022
5336 Clouds 22 1013 100 10000 0.51 150 16:39 10.02.2022
5337 Clouds 22 1014 100 10000 0.51 170 15:39 10.02.2022
5338 Clouds 22 1014 100 10000 0.51 170 15:20 10.02.2022
5339 Clouds 23 1014 94 10000 0.51 170 14:34 10.02.2022
5340 Clouds 24 1014 94 10000 1.03 210 13:37 10.02.2022
5341 Clouds 24 1014 94 10000 1.03 210 13:18 10.02.2022
5342 Clouds 23 1015 100 10000 0.51 170 11:50 10.02.2022
5343 Clouds 24 1015 94 10000 1.03 110 11:28 10.02.2022
5344 Clouds 25 1016 88 10000 0.51 190 10:21 10.02.2022
5345 Clouds 26 1016 89 10000 1.54 100 09:37 10.02.2022
5346 Clouds 26 1015 89 10000 2.57 80 08:21 10.02.2022
5347 Clouds 26 1014 83 10000 1.03 150 06:19 10.02.2022
5348 Clouds 27 1014 83 10000 7.2 70 02:28 10.02.2022
5349 Clouds 28 1015 78 10000 6.17 70 00:51 10.02.2022
5350 Clouds 28 1015 78 10000 6.17 70 00:30 10.02.2022
5351 Clouds 28 1015 78 10000 6.69 70 23:49 09.02.2022
5352 Clouds 28 1016 78 10000 6.17 70 22:45 09.02.2022
5353 Clouds 28 1016 78 10000 6.69 80 22:25 09.02.2022
5354 Clouds 28 1016 74 10000 4.12 90 21:38 09.02.2022
5355 Clouds 28 1016 74 10000 4.12 90 21:18 09.02.2022
5356 Clouds 26 1016 83 10000 2.06 80 20:41 09.02.2022
5357 Clouds 26 1016 83 10000 2.06 80 20:20 09.02.2022
5358 Clouds 25 1016 88 10000 0.51 190 19:38 09.02.2022
5359 Clouds 24 1014 94 10000 2.57 90 17:43 09.02.2022
5360 Clouds 23 1014 94 10000 1.54 110 16:53 09.02.2022
5361 Clouds 22 1013 94 10000 0.51 180 15:54 09.02.2022
5362 Clouds 23 1014 88 10000 1.03 210 14:43 09.02.2022
5363 Clouds 24 1016 88 10000 1.54 120 12:30 09.02.2022
5364 Clouds 23 1016 94 10000 1.54 40 11:19 09.02.2022
5365 Clouds 24 1016 94 10000 1.54 200 10:31 09.02.2022
5366 Rain 24 1016 94 10000 1.54 200 09:42 09.02.2022
5367 Rain 24 1016 94 10000 1.54 200 09:19 09.02.2022
5368 Rain 25 1016 94 10000 2.06 40 07:56 09.02.2022
5369 Rain 25 1015 88 10000 3.09 60 05:30 09.02.2022
5370 Clouds 26 1014 89 10000 2.57 60 03:50 09.02.2022
5371 Clouds 26 1015 89 10000 4.12 90 01:27 09.02.2022
5372 Rain 26 1016 89 10000 5.14 40 23:34 08.02.2022
5373 Rain 27 1016 83 10000 3.6 70 22:47 08.02.2022
5374 Clouds 27 1016 78 10000 6.17 70 22:22 08.02.2022
5375 Clouds 28 1016 78 10000 4.12 70 21:49 08.02.2022
5376 Rain 27 1016 83 10000 4.63 70 21:21 08.02.2022
5377 Clouds 27 1016 83 10000 4.12 80 20:44 08.02.2022
5378 Rain 26 1016 89 10000 3.09 60 19:46 08.02.2022
5379 Rain 25 1015 88 10000 1.54 110 18:38 08.02.2022
5380 Clouds 25 1015 88 10000 2.57 100 17:42 08.02.2022
5381 Clouds 25 1014 83 10000 3.6 70 16:30 08.02.2022
5382 Clouds 25 1014 88 10000 4.63 70 15:30 08.02.2022
5383 Clouds 25 1014 88 10000 4.63 70 14:36 08.02.2022
5384 Clouds 25 1014 88 10000 5.14 70 13:20 08.02.2022
5385 Clouds 25 1016 88 10000 2.06 100 11:38 08.02.2022
5386 Clouds 25 1016 88 10000 3.09 90 10:23 08.02.2022
5387 Clouds 25 1016 88 10000 3.09 80 09:44 08.02.2022
5388 Clouds 25 1016 88 10000 4.63 80 07:53 08.02.2022
5389 Clouds 26 1014 83 10000 4.12 80 05:41 08.02.2022
5390 Rain 25 1014 88 10000 4.12 90 04:39 08.02.2022
5391 Rain 25 1014 88 10000 4.12 90 04:21 08.02.2022
5392 Rain 24 1014 94 10000 2.57 110 03:36 08.02.2022
5393 Rain 24 1014 94 10000 2.57 110 03:18 08.02.2022
5394 Rain 22 1014 88 4200 6.69 100 02:58 08.02.2022
5395 Clouds 25 1014 94 10000 2.57 100 02:36 08.02.2022
5396 Clouds 25 1014 94 10000 2.57 100 02:18 08.02.2022
5397 Rain 26 1015 76 10000 6.99 78 01:43 08.02.2022
5398 Rain 26 1015 76 10000 6.99 78 01:43 08.02.2022
5399 Clouds 27 1015 83 10000 5.14 60 01:24 08.02.2022
5400 Clouds 27 1015 83 10000 5.14 60 00:53 08.02.2022
5401 Clouds 29 1015 74 10000 8.23 70 23:54 07.02.2022
5402 Rain 29 1015 70 10000 7.2 60 23:36 07.02.2022
5403 Rain 29 1015 70 10000 7.2 60 23:18 07.02.2022
5404 Clouds 28 1016 74 10000 7.2 70 22:19 07.02.2022
5405 Clouds 28 1016 74 10000 8.23 70 21:53 07.02.2022
5406 Clouds 28 1016 74 10000 7.72 70 21:29 07.02.2022
5407 Clouds 28 1016 74 10000 7.72 70 20:56 07.02.2022
5408 Clouds 28 1016 74 10000 7.72 70 20:38 07.02.2022
5409 Clouds 27 1016 74 10000 7.72 70 19:49 07.02.2022
5410 Clouds 26 1016 83 10000 6.17 80 19:31 07.02.2022
5411 Clouds 24 1014 88 10000 3.6 90 17:41 07.02.2022
5412 Clouds 23 1015 88 10000 3.6 90 16:52 07.02.2022
5413 Clouds 25 1014 83 10000 6.69 70 15:49 07.02.2022
5414 Clouds 26 1014 78 10000 7.2 70 14:44 07.02.2022
5415 Clouds 26 1015 83 10000 5.66 70 13:27 07.02.2022
5416 Clouds 26 1016 83 10000 6.17 70 12:38 07.02.2022
5417 Clouds 26 1016 83 10000 5.66 80 11:55 07.02.2022
5418 Clouds 26 1016 83 10000 7.72 70 11:26 07.02.2022
5419 Clouds 26 1016 83 10000 7.72 70 10:45 07.02.2022
5420 Clouds 26 1016 83 10000 8.23 70 10:26 07.02.2022
5421 Clouds 26 1016 78 10000 8.23 60 09:52 07.02.2022
5422 Clouds 26 1016 78 10000 7.2 60 09:18 07.02.2022
5423 Clouds 26 1015 83 10000 5.14 80 07:59 07.02.2022
5424 Clouds 26 1015 83 10000 5.66 70 06:35 07.02.2022
5425 Clouds 27 1014 78 10000 6.17 80 05:26 07.02.2022
5426 Clouds 28 1014 78 10000 7.72 70 02:56 07.02.2022
5427 Clouds 28 1015 74 10000 6.69 60 00:33 07.02.2022
5428 Clouds 28 1016 83 10000 7.2 80 23:40 06.02.2022
5429 Clouds 28 1016 83 10000 6.69 80 22:46 06.02.2022
5430 Clouds 28 1015 78 10000 5.14 70 21:51 06.02.2022
5431 Clouds 27 1015 83 10000 5.14 70 21:21 06.02.2022
5432 Clouds 27 1015 83 10000 5.14 70 21:21 06.02.2022
5433 Clouds 27 1015 83 10000 3.6 80 20:48 06.02.2022
5434 Clouds 26 1016 89 10000 6.17 80 20:24 06.02.2022
5435 Clouds 25 1015 88 10000 5.66 80 19:30 06.02.2022
5436 Clouds 24 1014 94 10000 3.6 90 18:34 06.02.2022
5437 Rain 23 1014 100 10000 2.57 70 17:39 06.02.2022
5438 Rain 23 1015 94 10000 2.06 70 16:52 06.02.2022
5439 Rain 22 1015 100 10000 1.54 90 16:29 06.02.2022
5440 Rain 22 1015 100 10000 2.57 80 15:47 06.02.2022
5441 Rain 22 1015 100 10000 2.57 80 15:47 06.02.2022
5442 Rain 22 1015 100 10000 2.06 100 15:25 06.02.2022
5443 Rain 22 1015 94 10000 0.51 60 14:23 06.02.2022
5444 Rain 22 1016 94 10000 2.57 330 13:23 06.02.2022
5445 Rain 24 1017 94 10000 4.63 60 12:33 06.02.2022
5446 Clouds 25 1017 78 10000 4.63 90 10:37 06.02.2022
5447 Clouds 25 1016 83 10000 5.14 80 09:48 06.02.2022
5448 Clouds 25 1016 83 10000 3.6 90 08:41 06.02.2022
5449 Clouds 25 1015 83 10000 4.63 90 07:31 06.02.2022
5450 Clouds 27 1014 83 10000 6.69 80 05:28 06.02.2022
5451 Clouds 28 1014 78 10000 8.75 70 02:25 06.02.2022
5452 Rain 28 1015 78 10000 7.72 80 00:49 06.02.2022
5453 Clouds 28 1015 78 10000 8.23 80 00:22 06.02.2022
5454 Clouds 28 1016 74 10000 6.69 90 21:48 05.02.2022
5455 Clouds 27 1016 78 10000 6.17 90 20:47 05.02.2022
5456 Rain 27 1016 78 10000 6.69 80 20:22 05.02.2022
5457 Clouds 26 1016 83 10000 5.14 90 19:42 05.02.2022
5458 Rain 26 1016 83 10000 3.09 90 18:37 05.02.2022
5459 Clouds 25 1015 88 10000 2.57 100 17:35 05.02.2022
5460 Clouds 26 1015 78 10000 4.12 90 16:20 05.02.2022
5461 Clouds 26 1015 83 10000 4.63 90 15:31 05.02.2022
5462 Clouds 26 1016 83 10000 4.12 90 13:38 05.02.2022
5463 Clouds 26 1016 83 10000 4.63 90 12:46 05.02.2022
5464 Clouds 26 1017 83 10000 5.14 90 11:45 05.02.2022
5465 Clouds 26 1017 83 10000 4.12 90 10:43 05.02.2022
5466 Clouds 26 1017 83 10000 4.63 90 09:50 05.02.2022
5467 Clouds 26 1017 83 10000 3.09 90 08:39 05.02.2022
5468 Clouds 26 1016 83 10000 4.12 90 06:59 05.02.2022
5469 Clouds 26 1016 83 10000 4.63 90 06:27 05.02.2022
5470 Clouds 27 1016 83 10000 3.6 90 02:31 05.02.2022
5471 Clouds 28 1016 74 10000 6.69 80 01:18 05.02.2022
5472 Clouds 29 1016 74 10000 6.69 80 00:36 05.02.2022
5473 Clouds 29 1017 70 10000 7.72 80 23:33 04.02.2022
5474 Clouds 29 1017 74 10000 7.2 70 22:37 04.02.2022
5475 Clouds 28 1017 78 10000 6.17 80 21:36 04.02.2022
5476 Clouds 28 1017 78 10000 6.17 80 21:18 04.02.2022
5477 Clouds 27 1017 78 10000 5.66 80 20:29 04.02.2022
5478 Clouds 26 1017 78 10000 2.57 90 18:30 04.02.2022
5479 Clouds 25 1016 88 10000 2.57 100 15:57 04.02.2022
5480 Clouds 26 1016 83 10000 3.6 90 14:56 04.02.2022
5481 Clouds 26 1016 83 10000 3.6 90 14:26 04.02.2022
5482 Clouds 26 1017 83 10000 3.6 90 12:43 04.02.2022
5483 Clouds 26 1017 83 10000 4.12 90 11:43 04.02.2022
5484 Clouds 26 1017 83 10000 4.63 90 10:48 04.02.2022
5485 Clouds 26 1016 83 10000 6.17 80 08:50 04.02.2022
5486 Clouds 26 1015 83 10000 8.23 80 06:58 04.02.2022
5487 Clouds 29 1015 74 10000 8.23 80 02:51 04.02.2022
5488 Clouds 29 1015 79 10000 6.69 70 01:56 04.02.2022
5489 Clouds 29 1016 74 10000 8.23 80 23:31 03.02.2022
5490 Clouds 28 1016 78 10000 8.23 80 22:46 03.02.2022
5491 Clouds 28 1016 78 10000 7.72 80 21:50 03.02.2022
5492 Clouds 28 1016 78 10000 7.72 80 21:50 03.02.2022
5493 Clouds 28 1016 78 10000 7.2 80 20:43 03.02.2022
5494 Clouds 28 1016 78 10000 7.2 80 20:20 03.02.2022
5495 Clouds 27 1015 83 10000 6.69 80 19:32 03.02.2022
5496 Clouds 26 1015 83 10000 6.17 80 18:40 03.02.2022
5497 Clouds 26 1014 83 10000 6.69 80 17:35 03.02.2022
5498 Clouds 26 1014 83 10000 4.63 90 16:35 03.02.2022
5499 Clouds 26 1014 89 10000 4.63 90 14:52 03.02.2022
5500 Clouds 26 1015 83 10000 5.14 90 12:59 03.02.2022
5501 Clouds 26 1016 83 10000 5.14 90 11:23 03.02.2022
5502 Clouds 26 1015 89 10000 5.66 90 08:37 03.02.2022
5503 Clouds 28 1014 78 10000 7.2 70 05:26 03.02.2022
5504 Clouds 29 1015 79 10000 8.23 70 00:32 03.02.2022
5505 Clouds 29 1015 79 10000 8.23 70 23:43 02.02.2022
5506 Clouds 28 1015 83 10000 8.23 70 22:32 02.02.2022
5507 Clouds 28 1015 78 10000 7.72 70 21:34 02.02.2022
5508 Rain 28 1015 83 10000 7.2 70 20:51 02.02.2022
5509 Clouds 27 1015 83 10000 6.69 70 19:59 02.02.2022
5510 Clouds 27 1015 83 10000 6.69 70 19:27 02.02.2022
5511 Clouds 26 1015 89 10000 6.17 70 18:46 02.02.2022
5512 Clouds 25 1014 94 10000 4.63 80 17:57 02.02.2022
5513 Clouds 25 1014 94 10000 5.14 80 17:19 02.02.2022
5514 Drizzle 25 1014 88 10000 4.63 90 16:42 02.02.2022
5515 Clouds 26 1014 89 10000 5.66 80 13:28 02.02.2022
5516 Clouds 26 1015 89 10000 6.17 60 12:20 02.02.2022
5517 Clouds 26 1016 83 10000 5.14 70 11:34 02.02.2022
5518 Clouds 27 1016 83 10000 6.17 70 10:22 02.02.2022
5519 Clouds 26 1014 89 10000 3.6 80 07:35 02.02.2022
5520 Clouds 28 1014 78 10000 5.66 50 22:52 01.02.2022
5521 Clouds 28 1014 78 10000 5.14 50 21:50 01.02.2022
5522 Clouds 27 1014 78 10000 4.63 50 19:58 01.02.2022
5523 Clouds 26 1013 83 10000 4.63 60 17:43 01.02.2022
5524 Rain 24 1012 83 10000 4.12 60 16:39 01.02.2022
5525 Rain 24 1012 83 10000 4.12 60 16:39 01.02.2022
5526 Clouds 26 1012 83 10000 4.12 50 13:56 01.02.2022
5527 Clouds 26 1013 89 10000 5.66 50 12:43 01.02.2022
5528 Clouds 26 1014 89 10000 5.66 50 11:20 01.02.2022
5529 Rain 25 1013 88 10000 4.63 30 02:34 01.02.2022
5530 Clouds 26 1013 83 10000 3.6 30 23:41 31.01.2022
5531 Clouds 26 1013 83 10000 2.57 20 22:57 31.01.2022
5532 Clouds 27 1014 78 10000 4.63 50 21:39 31.01.2022
5533 Clouds 27 1013 78 10000 4.63 50 20:50 31.01.2022
5534 Clouds 27 1013 78 10000 3.6 40 20:27 31.01.2022
5535 Clouds 26 1013 83 10000 4.12 50 19:20 31.01.2022
5536 Clouds 24 1012 94 10000 2.57 70 18:25 31.01.2022
5537 Clouds 24 1011 94 10000 1.54 100 17:26 31.01.2022
5538 Clouds 24 1011 88 10000 2.57 100 16:26 31.01.2022
5539 Clouds 23 1011 94 10000 3.09 80 14:54 31.01.2022
5540 Clouds 25 1011 94 10000 4.12 50 13:52 31.01.2022
5541 Clouds 24 1012 94 10000 2.06 100 12:38 31.01.2022
5542 Clouds 23 1012 100 10000 2.06 90 11:47 31.01.2022
5543 Clouds 23 1013 94 10000 2.57 80 10:50 31.01.2022
5544 Clouds 23 1013 94 10000 2.57 90 09:59 31.01.2022
5545 Clouds 24 1012 88 10000 2.57 90 08:59 31.01.2022
5546 Clouds 24 1013 88 10000 3.09 80 08:39 31.01.2022
5547 Clouds 24 1013 88 10000 3.09 80 08:20 31.01.2022
5548 Rain 25 1011 88 10000 3.6 60 06:18 31.01.2022
5549 Rain 23 1013 94 10000 3.6 80 00:44 31.01.2022
5550 Clouds 23 1014 100 10000 0.51 150 22:38 30.01.2022
5551 Clouds 23 1014 100 10000 0.51 150 22:20 30.01.2022
5552 Clouds 24 1013 94 10000 2.57 110 21:38 30.01.2022
5553 Clouds 24 1013 94 10000 2.57 110 21:18 30.01.2022
5554 Rain 23 1013 94 10000 1.54 100 20:45 30.01.2022
5555 Rain 22 1013 94 1900 8.23 50 20:26 30.01.2022
5556 Rain 26 1013 89 10000 4.12 60 19:24 30.01.2022
5557 Clouds 26 1012 89 10000 4.63 60 18:35 30.01.2022
5558 Clouds 26 1012 89 10000 5.66 60 17:53 30.01.2022
5559 Clouds 26 1012 89 10000 5.14 70 17:20 30.01.2022
5560 Clouds 26 1012 83 10000 5.14 70 16:37 30.01.2022
5561 Clouds 26 1012 83 10000 5.14 70 16:18 30.01.2022
5562 Clouds 26 1012 83 10000 4.12 70 15:45 30.01.2022
5563 Clouds 26 1012 89 10000 4.12 60 15:25 30.01.2022
5564 Clouds 26 1012 89 10000 4.63 50 14:44 30.01.2022
5565 Clouds 25 1013 88 10000 4.63 80 12:46 30.01.2022
5566 Clouds 25 1014 88 10000 4.63 90 11:52 30.01.2022
5567 Clouds 26 1015 83 10000 3.09 90 10:26 30.01.2022
5568 Clouds 26 1015 83 10000 3.09 90 09:41 30.01.2022
5569 Clouds 25 1015 88 10000 3.09 90 08:44 30.01.2022
5570 Clouds 27 1013 78 10000 5.14 70 02:58 30.01.2022
5571 Clouds 29 1014 79 10000 5.14 50 01:54 30.01.2022
5572 Clouds 28 1014 78 10000 6.17 70 23:49 29.01.2022
5573 Clouds 28 1015 78 10000 5.14 60 22:58 29.01.2022
5574 Clouds 28 1015 78 10000 4.12 60 21:44 29.01.2022
5575 Clouds 28 1015 78 10000 5.14 70 21:20 29.01.2022
5576 Clouds 27 1014 83 10000 4.63 80 20:21 29.01.2022
5577 Clouds 26 1015 89 10000 2.57 100 19:33 29.01.2022
5578 Clouds 24 1015 94 10000 1.54 80 18:51 29.01.2022
5579 Clouds 24 1014 94 10000 1.54 110 17:56 29.01.2022
5580 Clouds 24 1014 94 10000 2.06 100 17:19 29.01.2022
5581 Rain 24 1014 94 10000 1.54 100 15:35 29.01.2022
5582 Rain 25 1015 88 10000 1.54 100 13:58 29.01.2022
5583 Clouds 25 1015 88 10000 1.54 110 13:28 29.01.2022
5584 Clouds 25 1016 88 10000 2.06 90 12:59 29.01.2022
5585 Clouds 25 1017 94 10000 1.54 100 11:39 29.01.2022
5586 Clouds 25 1017 94 10000 3.09 90 10:34 29.01.2022
5587 Clouds 26 1017 83 10000 1.54 100 08:20 29.01.2022
5588 Rain 27 1016 89 10000 5.14 80 02:48 29.01.2022
5589 Clouds 29 1017 70 10000 6.69 70 00:32 29.01.2022
5590 Clouds 28 1017 74 10000 7.2 70 23:31 28.01.2022
5591 Clouds 28 1017 74 10000 5.66 50 22:47 28.01.2022
5592 Clouds 28 1017 74 10000 6.17 60 22:19 28.01.2022
5593 Clouds 26 1018 89 10000 4.12 80 20:41 28.01.2022
5594 Clouds 26 1018 83 10000 3.09 90 19:57 28.01.2022
5595 Clouds 26 1018 83 10000 2.06 100 18:52 28.01.2022
5596 Clouds 25 1017 88 10000 1.03 120 17:53 28.01.2022
5597 Clouds 26 1017 89 10000 4.63 90 15:52 28.01.2022
5598 Clouds 26 1017 89 10000 5.14 80 14:50 28.01.2022
5599 Rain 26 1018 94 10000 5.14 80 12:42 28.01.2022
5600 Clouds 26 1019 94 10000 5.14 80 11:43 28.01.2022
5601 Clouds 27 1019 89 10000 5.66 80 10:26 28.01.2022
5602 Clouds 27 1019 89 10000 4.63 90 09:46 28.01.2022
5603 Clouds 27 1018 89 10000 4.63 90 07:41 28.01.2022
5604 Clouds 28 1017 83 10000 6.69 70 05:31 28.01.2022
5605 Clouds 29 1016 79 10000 7.2 70 03:50 28.01.2022
5606 Clouds 28 1017 83 10000 7.2 80 02:24 28.01.2022
5607 Clouds 29 1017 79 10000 7.2 70 01:35 28.01.2022
5608 Clouds 28 1018 83 10000 7.72 80 00:33 28.01.2022
5609 Clouds 27 1018 89 10000 6.69 80 22:18 27.01.2022
5610 Clouds 28 1018 83 10000 6.69 80 21:34 27.01.2022
5611 Clouds 28 1018 83 10000 7.2 80 20:58 27.01.2022
5612 Clouds 27 1018 89 10000 5.66 80 19:35 27.01.2022
5613 Clouds 26 1017 94 10000 5.14 80 17:58 27.01.2022
5614 Clouds 26 1016 94 10000 5.66 70 15:43 27.01.2022
5615 Clouds 26 1016 94 10000 6.17 70 13:39 27.01.2022
5616 Clouds 26 1016 94 10000 5.66 70 12:46 27.01.2022
5617 Clouds 27 1017 89 10000 5.14 70 10:59 27.01.2022
5618 Clouds 27 1017 89 10000 5.66 70 09:27 27.01.2022
5619 Clouds 27 1016 89 10000 4.63 80 08:39 27.01.2022
5620 Clouds 27 1015 89 10000 4.63 80 07:23 27.01.2022
5621 Clouds 28 1014 83 10000 6.17 60 02:59 27.01.2022
5622 Clouds 28 1015 83 10000 6.17 60 23:45 26.01.2022
5623 Clouds 28 1015 83 10000 6.69 50 22:26 26.01.2022
5624 Clouds 28 1015 83 10000 6.69 60 21:37 26.01.2022
5625 Clouds 27 1015 89 10000 5.14 50 20:41 26.01.2022
5626 Clouds 27 1015 89 10000 5.14 50 20:23 26.01.2022
5627 Clouds 27 1015 83 10000 4.63 50 19:23 26.01.2022
5628 Clouds 26 1015 89 10000 4.63 50 18:45 26.01.2022
5629 Clouds 26 1014 89 10000 4.63 50 17:51 26.01.2022
5630 Clouds 26 1014 89 10000 4.63 50 17:23 26.01.2022
5631 Clouds 26 1013 89 10000 5.14 50 16:35 26.01.2022
5632 Clouds 26 1013 89 10000 5.14 50 15:49 26.01.2022
5633 Clouds 26 1013 89 10000 4.63 40 14:20 26.01.2022
5634 Clouds 27 1013 83 10000 5.14 50 11:52 26.01.2022
5635 Clouds 27 1014 83 10000 4.63 50 10:28 26.01.2022
5636 Clouds 27 1014 83 10000 4.63 50 09:48 26.01.2022
5637 Clouds 26 1013 89 10000 3.6 40 07:44 26.01.2022
5638 Clouds 27 1011 89 10000 4.12 30 03:31 26.01.2022
5639 Clouds 26 1012 94 10000 2.06 20 23:57 25.01.2022
5640 Clouds 28 1011 83 10000 3.6 60 22:57 25.01.2022
5641 Clear 28 1011 83 10000 4.12 50 22:21 25.01.2022
5642 Clear 28 1011 83 10000 3.6 60 21:58 25.01.2022
5643 Clear 28 1011 83 10000 3.6 60 20:46 25.01.2022
5644 Clear 27 1011 83 10000 3.09 70 20:23 25.01.2022
5645 Clear 27 1011 83 10000 1.54 50 19:50 25.01.2022
5646 Clouds 25 1010 94 10000 1.03 210 18:32 25.01.2022
5647 Clouds 25 1010 94 10000 2.57 90 17:43 25.01.2022
5648 Clouds 25 1009 100 10000 2.06 90 16:35 25.01.2022
5649 Clouds 24 1009 100 10000 0.51 60 15:49 25.01.2022
5650 Clouds 24 1009 100 10000 0.51 160 15:31 25.01.2022
5651 Clouds 24 1009 100 10000 0.51 180 14:57 25.01.2022
5652 Clear 24 1009 100 10000 1.03 70 13:42 25.01.2022
5653 Clouds 24 1010 100 10000 0.51 110 10:42 25.01.2022
5654 Clouds 25 1009 94 10000 0.51 200 08:37 25.01.2022
5655 Clouds 26 1009 89 10000 0.51 180 07:29 25.01.2022
5656 Clouds 26 1009 89 10000 1.54 80 06:47 25.01.2022
5657 Rain 27 1008 89 10000 0.51 110 05:22 25.01.2022
5658 Clouds 28 1008 83 10000 3.09 280 23:37 24.01.2022
5659 Clouds 28 1008 83 10000 3.09 280 23:18 24.01.2022
5660 Clouds 28 1008 83 10000 3.09 270 22:59 24.01.2022
5661 Clouds 27 1008 94 10000 3.09 280 22:41 24.01.2022
5662 Clouds 27 1008 89 10000 3.6 240 21:52 24.01.2022
5663 Rain 27 1008 89 10000 3.09 240 21:28 24.01.2022
5664 Clear 28 1008 89 10000 4.63 290 20:29 24.01.2022
5665 Fog 26 1008 100 3600 6.17 300 19:39 24.01.2022
5666 Fog 26 1008 100 3600 6.17 300 19:20 24.01.2022
5667 Clouds 26 1007 94 9000 4.12 300 17:45 24.01.2022
5668 Clear 26 1007 94 10000 5.66 290 17:23 24.01.2022
5669 Clear 26 1007 94 10000 5.66 290 17:23 24.01.2022
5670 Clouds 27 1006 89 10000 5.14 310 16:40 24.01.2022
5671 Clouds 27 1006 89 10000 5.14 310 16:18 24.01.2022
5672 Clouds 26 1006 94 10000 5.14 320 14:28 24.01.2022
5673 Clouds 27 1007 89 9000 6.17 310 12:38 24.01.2022
5674 Clouds 26 1007 94 9000 5.66 300 11:59 24.01.2022
5675 Clouds 26 1007 94 10000 5.14 310 10:25 24.01.2022
5676 Clouds 26 1007 94 10000 5.66 310 09:47 24.01.2022
5677 Clouds 26 1006 94 9000 6.17 330 08:19 24.01.2022
5678 Clouds 27 1004 89 7000 4.63 340 02:51 24.01.2022
5679 Rain 27 1004 94 7000 7.2 310 01:29 24.01.2022
5680 Mist 26 1004 100 4700 6.69 320 00:34 24.01.2022
5681 Clouds 27 1005 89 9000 8.23 320 23:47 23.01.2022
5682 Clouds 27 1005 89 7000 6.17 310 22:21 23.01.2022
5683 Clouds 26 1005 94 10000 7.2 300 21:42 23.01.2022
5684 Clouds 26 1005 94 10000 7.2 300 21:24 23.01.2022
5685 Clouds 26 1005 94 6000 7.72 320 20:29 23.01.2022
5686 Clouds 27 1005 89 7000 5.66 320 19:21 23.01.2022
5687 Clouds 26 1005 94 7000 7.72 310 18:44 23.01.2022
5688 Rain 25 1003 94 4100 11.32 310 17:27 23.01.2022
5689 Rain 27 1002 89 5000 9.26 300 16:27 23.01.2022
5690 Clouds 27 1003 89 6000 7.72 320 14:54 23.01.2022
5691 Clouds 27 1003 89 7000 9.26 310 14:19 23.01.2022
5692 Rain 27 1004 83 8000 9.77 320 12:47 23.01.2022
5693 Haze 26 1004 94 5000 8.23 330 12:21 23.01.2022
5694 Rain 26 1005 89 4500 10.8 320 11:27 23.01.2022
5695 Clouds 27 1004 89 6000 7.72 330 10:59 23.01.2022
5696 Clouds 27 1005 83 9000 9.77 330 10:25 23.01.2022
5697 Clouds 27 1004 89 10000 9.26 320 09:33 23.01.2022
5698 Rain 25 1003 100 1900 7.2 330 08:50 23.01.2022
5699 Rain 26 1002 89 7000 7.72 360 03:59 23.01.2022
5700 Clouds 26 1003 83 8000 9.77 10 01:40 23.01.2022
5701 Rain 26 1004 83 9000 9.77 10 00:47 23.01.2022
5702 Rain 26 1004 89 8000 8.75 10 00:22 23.01.2022
5703 Rain 26 1005 89 5000 10.8 20 23:18 22.01.2022
5704 Rain 25 1005 94 4400 8.23 360 22:33 22.01.2022
5705 Rain 26 1005 83 5000 10.29 350 20:47 22.01.2022
5706 Rain 25 1005 88 4600 10.8 350 19:46 22.01.2022
5707 Rain 25 1005 94 1500 10.29 360 18:41 22.01.2022
5708 Clouds 26 1003 94 6000 6.69 20 17:49 22.01.2022
5709 Clouds 26 1004 89 8000 7.72 10 17:31 22.01.2022
5710 Rain 26 1003 89 6000 8.75 20 16:54 22.01.2022
5711 Rain 24 1004 94 4100 6.69 20 15:45 22.01.2022
5712 Rain 25 1005 94 5000 7.2 360 14:56 22.01.2022
5713 Rain 25 1005 94 2500 14.4 350 13:31 22.01.2022
5714 Rain 26 1004 94 4700 7.2 10 12:40 22.01.2022
5715 Rain 26 1004 94 4700 7.2 10 12:20 22.01.2022
5716 Clouds 26 1004 94 6000 7.2 340 10:55 22.01.2022
5717 Clouds 26 1005 89 8000 10.29 350 10:26 22.01.2022
5718 Rain 25 1005 100 2200 6.69 330 09:43 22.01.2022
5719 Rain 26 1005 94 2900 8.75 350 08:51 22.01.2022
5720 Rain 26 1004 94 4300 10.29 350 07:27 22.01.2022
5721 Rain 25 1003 100 2000 7.72 20 03:26 22.01.2022
5722 Rain 24 1003 100 1300 8.23 340 00:31 22.01.2022
5723 Rain 26 1003 94 2300 7.2 20 23:21 21.01.2022
5724 Haze 27 1003 89 5000 7.2 20 22:19 21.01.2022
5725 Rain 26 1004 94 2400 8.23 350 19:52 21.01.2022
5726 Clouds 27 1003 89 8000 8.23 10 18:21 21.01.2022
5727 Rain 26 1001 94 3800 7.2 10 16:58 21.01.2022
5728 Rain 25 1002 100 3100 9.26 350 15:26 21.01.2022
5729 Mist 25 1003 100 3300 8.23 20 12:53 21.01.2022
5730 Rain 25 1004 100 3600 9.26 20 11:42 21.01.2022
5731 Rain 25 1004 100 3600 9.26 20 11:23 21.01.2022
5732 Clouds 26 1004 94 7000 7.2 10 09:26 21.01.2022
5733 Clouds 26 1004 94 9000 8.75 10 08:20 21.01.2022
5734 Clouds 26 1001 94 8000 7.72 10 04:37 21.01.2022
5735 Clouds 27 1003 89 10000 8.75 20 22:53 20.01.2022
5736 Rain 27 1002 89 8000 4.12 10 21:49 20.01.2022
5737 Clouds 27 1002 89 10000 4.63 360 21:28 20.01.2022
5738 Clouds 27 1002 94 10000 3.6 30 19:56 20.01.2022
5739 Clouds 27 1002 89 10000 4.12 30 19:19 20.01.2022
5740 Clouds 27 1000 89 10000 5.14 40 17:38 20.01.2022
5741 Clouds 26 1000 89 10000 5.66 40 16:32 20.01.2022
5742 Clouds 27 1000 89 10000 5.14 30 15:32 20.01.2022
5743 Clouds 27 1000 89 10000 5.66 20 14:37 20.01.2022
5744 Rain 27 1000 89 10000 5.14 20 12:53 20.01.2022
5745 Clouds 27 1001 89 10000 5.14 30 12:29 20.01.2022
5746 Clouds 26 1001 94 10000 3.6 40 11:19 20.01.2022
5747 Clouds 26 1002 94 10000 4.12 20 10:18 20.01.2022
5748 Clouds 26 1001 89 10000 3.09 10 08:51 20.01.2022
5749 Clouds 26 1001 89 10000 3.09 340 07:23 20.01.2022
5750 Clouds 26 1002 89 10000 4.63 110 00:40 20.01.2022
5751 Clouds 27 1003 83 10000 8.23 100 22:39 19.01.2022
5752 Clouds 26 1003 83 10000 6.69 100 21:36 19.01.2022
5753 Clouds 26 1004 78 10000 8.75 100 20:58 19.01.2022
5754 Clouds 26 1004 78 10000 9.26 100 20:40 19.01.2022
5755 Rain 24 1003 94 9000 10.8 100 18:59 19.01.2022
5756 Clouds 25 1003 88 10000 8.75 90 17:51 19.01.2022
5757 Clouds 25 1003 88 10000 8.23 100 17:18 19.01.2022
5758 Clouds 25 1003 88 10000 8.23 100 17:18 19.01.2022
5759 Clouds 25 1003 88 10000 8.23 100 17:18 19.01.2022
5760 Clouds 25 1003 88 10000 8.23 100 17:18 19.01.2022
5761 Clouds 26 1003 83 10000 8.75 90 15:32 19.01.2022
5762 Clouds 26 1004 83 10000 9.26 90 13:25 19.01.2022
5763 Clouds 26 1005 83 10000 9.77 80 11:58 19.01.2022
5764 Clouds 26 1005 83 10000 10.8 80 11:38 19.01.2022
5765 Drizzle 25 1006 88 10000 10.8 80 09:35 19.01.2022
5766 Drizzle 25 1006 88 10000 9.26 90 08:33 19.01.2022
5767 Rain 25 1005 94 10000 9.77 60 05:19 19.01.2022
5768 Clouds 26 1005 83 10000 9.77 80 00:18 19.01.2022
5769 Rain 26 1006 94 7000 8.23 80 23:18 18.01.2022
5770 Rain 27 1006 89 10000 8.23 90 21:44 18.01.2022
5771 Rain 26 1006 89 10000 4.12 100 20:22 18.01.2022
5772 Rain 27 1006 78 10000 6.17 90 19:45 18.01.2022
5773 Clouds 26 1006 89 10000 7.2 90 19:25 18.01.2022
5774 Rain 26 1006 89 10000 4.12 90 18:18 18.01.2022
5775 Rain 25 1005 94 10000 3.09 100 17:31 18.01.2022
5776 Clouds 25 1005 94 10000 6.69 80 16:20 18.01.2022
5777 Clouds 25 1006 94 10000 5.66 80 15:25 18.01.2022
5778 Clouds 25 1006 88 10000 5.66 80 14:22 18.01.2022
5779 Clouds 26 1008 89 10000 8.23 80 11:31 18.01.2022
5780 Clouds 26 1008 89 10000 7.72 80 09:59 18.01.2022
5781 Drizzle 25 1007 94 10000 7.2 80 08:29 18.01.2022
5782 Drizzle 26 1008 94 10000 9.26 70 07:42 18.01.2022
5783 Clouds 28 1007 78 10000 9.26 60 00:38 18.01.2022
5784 Clouds 27 1007 83 10000 7.2 60 22:39 17.01.2022
5785 Rain 27 1007 89 10000 7.2 60 21:41 17.01.2022
5786 Clouds 27 1007 83 10000 8.23 70 20:39 17.01.2022
5787 Clouds 26 1007 89 10000 7.2 70 18:46 17.01.2022
5788 Clouds 26 1006 89 10000 4.12 80 18:23 17.01.2022
5789 Rain 26 1006 83 10000 5.14 60 16:53 17.01.2022
5790 Clouds 26 1005 89 10000 5.66 60 15:47 17.01.2022
5791 Rain 25 1005 94 10000 6.69 60 14:58 17.01.2022
5792 Rain 25 1005 94 10000 6.69 60 14:58 17.01.2022
5793 Rain 26 1005 89 10000 6.17 60 14:22 17.01.2022
5794 Clouds 26 1007 89 10000 7.72 70 12:58 17.01.2022
5795 Rain 26 1007 94 10000 9.77 50 11:51 17.01.2022
5796 Rain 26 1007 89 10000 7.2 80 10:43 17.01.2022
5797 Clouds 26 1006 89 10000 12.35 70 09:35 17.01.2022
5798 Clouds 26 1005 83 10000 12.86 70 08:18 17.01.2022
5799 Clouds 26 1005 83 10000 11.32 70 07:19 17.01.2022
5800 Clouds 28 1002 83 10000 13.38 80 00:57 17.01.2022
5801 Clouds 29 1004 79 10000 9.77 100 22:53 16.01.2022
5802 Clouds 28 1004 83 10000 10.29 90 20:40 16.01.2022
5803 Clouds 27 1003 89 10000 8.75 90 18:53 16.01.2022
5804 Clouds 27 1004 83 10000 8.75 80 18:18 16.01.2022
5805 Clouds 27 1003 83 10000 9.26 90 17:25 16.01.2022
5806 Rain 27 1003 89 10000 9.26 80 16:45 16.01.2022
5807 Clouds 27 1003 89 10000 6.17 100 14:50 16.01.2022
5808 Clouds 27 1003 89 10000 6.69 90 14:27 16.01.2022
5809 Rain 27 1003 89 10000 6.69 90 12:51 16.01.2022
5810 Rain 27 1004 89 10000 4.12 110 11:47 16.01.2022
5811 Clouds 27 1005 89 10000 2.57 120 10:55 16.01.2022
5812 Rain 27 1005 89 7000 2.06 110 10:26 16.01.2022
5813 Clouds 27 1005 83 10000 2.57 120 09:52 16.01.2022
5814 Clouds 27 1005 83 10000 2.57 130 09:22 16.01.2022
5815 Clouds 27 1005 89 10000 2.57 120 08:37 16.01.2022
5816 Clouds 29 1004 79 10000 1.54 120 02:36 16.01.2022
5817 Rain 27 1006 89 4500 2.06 120 23:49 15.01.2022
5818 Clouds 29 1006 74 10000 1.54 160 21:37 15.01.2022
5819 Clouds 29 1006 74 10000 1.54 160 21:19 15.01.2022
5820 Clouds 28 1006 69 10000 2.06 160 20:39 15.01.2022
5821 Clouds 27 1006 78 10000 1.54 120 19:29 15.01.2022
5822 Clouds 25 1006 88 10000 1.54 100 18:37 15.01.2022
5823 Clouds 24 1005 88 10000 0.51 220 17:25 15.01.2022
5824 Clouds 25 1005 83 10000 1.54 130 15:42 15.01.2022
5825 Clouds 24 1006 88 10000 1.03 160 13:52 15.01.2022
5826 Clouds 25 1007 78 10000 2.06 120 11:46 15.01.2022
5827 Clouds 25 1007 78 10000 2.57 120 10:24 15.01.2022
5828 Clouds 26 1006 69 10000 3.6 90 06:40 15.01.2022
5829 Clouds 27 1007 65 10000 4.63 130 23:49 14.01.2022
5830 Clouds 27 1007 69 10000 3.09 130 21:37 14.01.2022
5831 Clouds 26 1007 73 10000 3.6 120 20:37 14.01.2022
5832 Clouds 26 1007 73 10000 3.09 120 19:57 14.01.2022
5833 Clouds 25 1007 78 10000 4.12 120 18:44 14.01.2022
5834 Clouds 25 1006 73 10000 3.09 120 17:53 14.01.2022
5835 Clouds 25 1006 78 10000 4.12 120 16:47 14.01.2022
5836 Clouds 25 1005 78 10000 3.09 120 15:33 14.01.2022
5837 Clouds 25 1006 78 10000 4.12 120 14:29 14.01.2022
5838 Clouds 26 1007 78 10000 3.6 120 12:59 14.01.2022
5839 Clouds 26 1007 78 10000 3.6 120 11:59 14.01.2022
5840 Clouds 26 1008 78 10000 3.09 110 10:40 14.01.2022
5841 Rain 27 1007 74 10000 3.6 110 08:53 14.01.2022
5842 Clouds 27 1007 74 10000 2.57 130 07:46 14.01.2022
5843 Clouds 29 1005 70 10000 3.6 120 03:19 14.01.2022
5844 Clouds 29 1006 70 10000 4.12 90 00:35 14.01.2022
5845 Clouds 28 1007 69 10000 2.57 110 21:55 13.01.2022
5846 Clouds 28 1007 65 10000 3.09 120 21:30 13.01.2022
5847 Clouds 27 1007 69 10000 3.09 120 20:27 13.01.2022
5848 Clouds 27 1007 74 10000 2.57 130 19:30 13.01.2022
5849 Clouds 26 1007 78 10000 2.06 120 18:49 13.01.2022
5850 Clouds 24 1006 83 10000 1.54 160 16:57 13.01.2022
5851 Clouds 23 1006 88 10000 1.03 150 15:46 13.01.2022
5852 Clouds 24 1006 83 10000 1.03 120 15:26 13.01.2022
5853 Clouds 25 1007 78 10000 1.03 130 13:36 13.01.2022
5854 Clouds 25 1008 83 10000 1.03 120 11:38 13.01.2022
5855 Clouds 26 1008 78 10000 2.06 110 09:24 13.01.2022
5856 Clouds 26 1008 78 10000 1.54 120 08:29 13.01.2022
5857 Clouds 26 1008 78 10000 3.09 100 07:59 13.01.2022
5858 Clouds 26 1008 78 10000 4.12 90 07:20 13.01.2022
5859 Clouds 28 1007 69 10000 3.6 110 05:21 13.01.2022
5860 Clouds 28 1007 74 10000 6.17 80 03:48 13.01.2022
5861 Clouds 29 1008 70 10000 7.72 80 01:39 13.01.2022
5862 Clouds 28 1008 74 10000 8.23 70 23:53 12.01.2022
5863 Clouds 28 1009 74 10000 8.23 80 23:34 12.01.2022
5864 Clouds 28 1009 74 10000 5.66 90 22:22 12.01.2022
5865 Clouds 28 1009 74 10000 5.14 90 21:43 12.01.2022
5866 Clouds 28 1009 74 10000 5.14 90 21:18 12.01.2022
5867 Clouds 27 1009 78 10000 5.14 90 20:44 12.01.2022
5868 Clouds 26 1009 83 10000 2.57 100 18:48 12.01.2022
5869 Clouds 25 1009 88 10000 2.57 90 17:54 12.01.2022
5870 Clouds 25 1008 83 10000 1.54 130 16:43 12.01.2022
5871 Clouds 25 1008 83 10000 2.57 90 14:49 12.01.2022
5872 Clouds 25 1009 83 10000 2.57 100 13:40 12.01.2022
5873 Clouds 25 1009 83 10000 3.6 90 12:57 12.01.2022
5874 Clouds 24 1011 88 10000 3.6 90 09:26 12.01.2022
5875 Rain 25 1011 88 10000 4.12 90 07:57 12.01.2022
5876 Rain 25 1011 88 10000 3.09 90 07:33 12.01.2022
5877 Rain 25 1011 94 10000 3.6 90 02:20 12.01.2022
5878 Rain 26 1012 89 10000 5.66 90 23:26 11.01.2022
5879 Rain 26 1013 89 10000 4.12 90 22:25 11.01.2022
5880 Clouds 26 1013 83 10000 5.66 90 21:28 11.01.2022
5881 Clouds 27 1012 78 10000 5.14 100 20:36 11.01.2022
5882 Rain 26 1012 83 10000 5.14 100 19:23 11.01.2022
5883 Clouds 26 1011 83 10000 4.63 110 17:46 11.01.2022
5884 Clouds 26 1011 83 10000 4.12 100 16:39 11.01.2022
5885 Clouds 26 1011 83 10000 4.12 100 16:18 11.01.2022
5886 Clouds 27 1010 83 10000 4.12 90 14:48 11.01.2022
5887 Clouds 26 1010 89 10000 4.12 90 14:30 11.01.2022
5888 Clouds 26 1011 89 10000 4.12 90 13:46 11.01.2022
5889 Clouds 26 1011 89 10000 4.63 90 13:25 11.01.2022
5890 Drizzle 26 1012 89 10000 3.6 90 12:24 11.01.2022
5891 Clouds 27 1012 83 10000 4.63 90 10:26 11.01.2022
5892 Clouds 27 1011 78 10000 2.57 100 07:38 11.01.2022
5893 Clouds 28 1010 74 10000 4.63 100 03:47 11.01.2022
5894 Clouds 28 1010 78 10000 7.72 70 00:25 11.01.2022
5895 Clouds 28 1011 78 10000 6.17 80 23:38 10.01.2022
5896 Clouds 27 1011 83 10000 4.12 100 22:20 10.01.2022
5897 Clouds 26 1011 89 10000 2.57 100 21:57 10.01.2022
5898 Clouds 26 1012 83 10000 2.06 120 21:33 10.01.2022
5899 Clouds 26 1012 89 10000 1.54 130 20:58 10.01.2022
5900 Clouds 26 1012 89 10000 1.54 130 20:29 10.01.2022
5901 Drizzle 26 1012 89 10000 1.54 110 19:48 10.01.2022
5902 Rain 26 1012 89 10000 1.54 100 19:23 10.01.2022
5903 Rain 26 1011 89 10000 2.06 80 18:55 10.01.2022
5904 Rain 26 1011 89 10000 1.54 160 18:37 10.01.2022
5905 Rain 25 1010 94 10000 1.03 190 16:48 10.01.2022
5906 Clouds 25 1010 94 10000 1.03 150 16:18 10.01.2022
5907 Clouds 26 1010 83 10000 1.54 100 14:41 10.01.2022
5908 Clouds 26 1011 89 10000 2.06 100 12:43 10.01.2022
5909 Clouds 26 1012 89 10000 2.57 100 11:40 10.01.2022
5910 Clouds 26 1012 89 10000 1.54 110 10:45 10.01.2022
5911 Clouds 26 1011 83 10000 1.54 110 08:57 10.01.2022
5912 Rain 26 1010 89 8000 4.63 90 05:51 10.01.2022
5913 Clouds 29 1009 70 10000 7.2 70 01:33 10.01.2022
5914 Clouds 29 1010 70 10000 5.66 70 00:36 10.01.2022
5915 Clouds 28 1010 78 10000 5.66 80 23:54 09.01.2022
5916 Clouds 29 1010 74 10000 5.66 70 22:43 09.01.2022
5917 Clouds 29 1010 74 10000 5.14 70 21:47 09.01.2022
5918 Clouds 29 1010 74 10000 4.63 70 21:25 09.01.2022
5919 Clouds 29 1010 74 10000 4.63 70 21:25 09.01.2022
5920 Clouds 28 1010 74 10000 5.14 70 20:55 09.01.2022
5921 Clouds 28 1010 74 10000 5.14 80 20:37 09.01.2022
5922 Clouds 28 1010 74 10000 5.14 80 20:18 09.01.2022
5923 Clouds 27 1010 83 10000 2.06 90 19:37 09.01.2022
5924 Clouds 27 1010 83 10000 2.06 90 19:18 09.01.2022
5925 Clouds 26 1009 89 10000 2.57 100 18:37 09.01.2022
5926 Clouds 25 1008 94 10000 2.57 100 17:48 09.01.2022
5927 Clouds 26 1008 89 10000 2.06 100 17:26 09.01.2022
5928 Clouds 25 1007 94 10000 2.06 100 16:38 09.01.2022
5929 Clouds 25 1008 94 10000 2.57 80 15:38 09.01.2022
5930 Clouds 24 1008 100 10000 2.06 80 14:41 09.01.2022
5931 Clouds 24 1008 100 10000 2.06 80 14:21 09.01.2022
5932 Clouds 24 1008 100 10000 0.51 20 13:41 09.01.2022
5933 Clouds 24 1009 100 10000 1.03 180 11:56 09.01.2022
5934 Clouds 24 1009 100 10000 1.03 150 11:24 09.01.2022
5935 Clouds 25 1009 94 10000 0.51 200 09:53 09.01.2022
5936 Clouds 25 1009 94 10000 0.51 180 08:54 09.01.2022
5937 Clouds 28 1007 89 10000 0.51 190 05:54 09.01.2022
5938 Rain 26 1008 94 10000 1.03 190 01:26 09.01.2022
5939 Rain 26 1008 94 5000 2.57 210 00:37 09.01.2022
5940 Rain 28 1008 78 10000 3.6 60 23:27 08.01.2022
5941 Clouds 29 1009 79 10000 3.09 40 22:35 08.01.2022
5942 Clouds 28 1009 78 10000 2.06 330 21:27 08.01.2022
5943 Clouds 27 1009 83 10000 1.54 330 20:43 08.01.2022
5944 Clouds 27 1009 83 10000 1.54 330 20:21 08.01.2022
5945 Clouds 26 1008 94 10000 0.51 190 18:46 08.01.2022
5946 Clouds 23 1008 100 10000 1.03 160 17:24 08.01.2022
5947 Mist 23 1007 100 5000 0.51 140 16:40 08.01.2022
5948 Clouds 24 1007 100 7000 0.51 140 14:50 08.01.2022
5949 Clouds 24 1008 100 6000 0.51 160 13:41 08.01.2022
5950 Clouds 25 1009 94 6000 0.51 120 11:30 08.01.2022
5951 Clouds 25 1009 94 10000 0.51 40 10:31 08.01.2022
5952 Clouds 25 1009 94 10000 1.03 180 09:54 08.01.2022
5953 Clouds 25 1009 94 10000 0.51 150 09:30 08.01.2022
5954 Clouds 29 1007 74 10000 3.09 230 04:25 08.01.2022
5955 Clouds 29 1008 79 10000 4.12 260 00:58 08.01.2022
5956 Clouds 29 1009 74 10000 4.12 250 22:54 07.01.2022
5957 Clouds 28 1009 83 10000 2.57 260 21:34 07.01.2022
5958 Clouds 27 1009 83 10000 3.09 260 20:23 07.01.2022
5959 Clouds 27 1009 89 10000 1.03 200 19:26 07.01.2022
5960 Clouds 24 1009 100 10000 1.03 200 18:45 07.01.2022
5961 Clouds 23 1008 100 10000 0.51 80 17:28 07.01.2022
5962 Clouds 23 1008 100 8000 0.51 130 16:41 07.01.2022
5963 Clouds 23 1008 100 10000 1.03 190 14:37 07.01.2022
5964 Clouds 24 1008 94 10000 1.03 170 13:41 07.01.2022
5965 Clouds 24 1009 94 10000 1.03 180 12:50 07.01.2022
5966 Clouds 25 1010 94 10000 0.51 160 09:46 07.01.2022
5967 Clouds 29 1009 70 10000 3.09 270 02:57 07.01.2022
5968 Clouds 29 1009 74 10000 3.09 270 01:56 07.01.2022
5969 Clouds 29 1009 74 10000 3.09 270 01:29 07.01.2022
5970 Clouds 28 1009 78 10000 3.09 270 00:59 07.01.2022
5971 Clouds 28 1009 78 10000 3.09 280 00:28 07.01.2022
5972 Clouds 28 1010 74 10000 2.57 220 21:39 06.01.2022
5973 Clouds 28 1011 78 10000 2.06 230 20:25 06.01.2022
5974 Clouds 28 1011 78 10000 2.06 190 19:45 06.01.2022
5975 Clouds 26 1011 89 10000 0.51 170 18:59 06.01.2022
5976 Clouds 23 1010 100 10000 1.03 190 17:42 06.01.2022
5977 Clouds 23 1010 100 10000 1.03 190 17:42 06.01.2022
5978 Clouds 24 1010 100 10000 0.51 130 16:57 06.01.2022
5979 Clouds 24 1010 100 10000 0.51 190 15:49 06.01.2022
5980 Clouds 24 1010 100 10000 1.03 190 15:27 06.01.2022
5981 Clouds 24 1010 100 10000 1.03 190 14:55 06.01.2022
5982 Clouds 24 1010 100 10000 1.03 180 14:18 06.01.2022
5983 Clouds 24 1011 100 10000 1.03 180 12:56 06.01.2022
5984 Clouds 24 1012 100 10000 1.03 190 11:43 06.01.2022
5985 Clouds 24 1012 100 10000 1.03 190 11:23 06.01.2022
5986 Clouds 25 1012 94 10000 1.54 190 08:59 06.01.2022
5987 Clouds 29 1011 74 10000 2.06 20 01:37 06.01.2022
5988 Clouds 28 1012 78 10000 2.57 40 23:38 05.01.2022
5989 Clouds 28 1012 78 10000 3.09 30 22:59 05.01.2022
5990 Clouds 28 1012 78 10000 3.09 30 22:33 05.01.2022
5991 Clouds 28 1012 78 10000 3.09 30 21:52 05.01.2022
5992 Clouds 27 1012 83 10000 2.57 40 21:21 05.01.2022
5993 Clouds 27 1012 83 10000 1.54 20 20:19 05.01.2022
5994 Clouds 26 1012 94 10000 0.51 200 18:50 05.01.2022
5995 Clouds 23 1012 100 10000 0.51 190 17:44 05.01.2022
5996 Clouds 23 1011 100 10000 0.51 130 16:51 05.01.2022
5997 Rain 24 1011 94 10000 0.51 170 15:26 05.01.2022
5998 Rain 24 1011 94 10000 0.51 90 13:52 05.01.2022
5999 Rain 25 1012 88 10000 1.03 90 13:22 05.01.2022
6000 Rain 25 1012 94 10000 2.57 90 11:36 05.01.2022
6001 Rain 25 1012 94 10000 3.09 100 07:47 05.01.2022
6002 Rain 25 1012 94 10000 3.09 100 07:47 05.01.2022
6003 Drizzle 26 1011 89 10000 6.17 80 06:25 05.01.2022
6004 Rain 28 1012 83 10000 8.23 70 00:58 05.01.2022
6005 Rain 28 1013 78 10000 6.69 80 23:28 04.01.2022
6006 Rain 28 1013 78 10000 6.69 80 23:28 04.01.2022
6007 Rain 27 1013 83 10000 8.23 80 22:46 04.01.2022
6008 Rain 27 1013 83 10000 6.69 90 21:24 04.01.2022
6009 Rain 26 1013 83 10000 2.57 100 19:20 04.01.2022
6010 Clouds 24 1012 94 10000 2.06 90 17:52 04.01.2022
6011 Mist 24 1012 94 5000 1.03 30 16:44 04.01.2022
6012 Rain 24 1012 94 10000 2.06 120 16:24 04.01.2022
6013 Rain 25 1012 88 8000 2.06 110 14:54 04.01.2022
6014 Rain 25 1012 83 10000 2.06 120 14:34 04.01.2022
6015 Rain 26 1012 78 10000 2.57 120 13:27 04.01.2022
6016 Rain 26 1013 83 10000 4.12 100 10:41 04.01.2022
6017 Rain 26 1013 83 10000 4.63 100 09:20 04.01.2022
6018 Rain 26 1013 83 10000 4.63 100 08:30 04.01.2022
6019 Rain 28 1011 74 10000 8.23 90 02:31 04.01.2022
6020 Clouds 28 1012 74 10000 7.72 80 00:41 04.01.2022
6021 Clouds 28 1012 74 10000 8.23 90 23:19 03.01.2022
6022 Clouds 27 1013 78 10000 7.2 80 21:52 03.01.2022
6023 Clouds 28 1013 74 10000 8.75 80 21:32 03.01.2022
6024 Clouds 27 1013 74 10000 7.2 80 19:56 03.01.2022
6025 Clouds 26 1013 78 10000 4.12 90 18:48 03.01.2022
6026 Clouds 26 1012 78 10000 4.63 100 18:27 03.01.2022
6027 Clouds 25 1012 88 10000 3.09 100 16:58 03.01.2022
6028 Rain 24 1011 94 10000 2.57 110 14:56 03.01.2022
6029 Rain 24 1011 100 10000 1.03 110 14:30 03.01.2022
6030 Rain 26 1013 83 10000 1.54 100 12:39 03.01.2022
6031 Clouds 26 1013 83 10000 1.54 110 11:35 03.01.2022
6032 Clouds 26 1013 89 10000 2.06 100 10:27 03.01.2022
6033 Clouds 26 1013 78 10000 4.63 90 08:47 03.01.2022
6034 Clouds 27 1012 83 10000 5.14 80 07:34 03.01.2022
6035 Clouds 27 1012 83 10000 5.14 80 07:34 03.01.2022
6036 Clouds 28 1012 78 10000 7.2 70 23:55 02.01.2022
6037 Clouds 28 1012 78 10000 6.69 70 23:21 02.01.2022
6038 Clouds 28 1012 78 10000 5.66 60 22:53 02.01.2022
6039 Clouds 28 1012 78 10000 6.17 70 21:39 02.01.2022
6040 Clouds 28 1013 74 10000 6.17 80 20:33 02.01.2022
6041 Clouds 27 1013 83 10000 5.66 80 19:54 02.01.2022
6042 Clouds 27 1013 83 10000 4.63 70 19:29 02.01.2022
6043 Clouds 26 1012 89 10000 2.06 90 18:39 02.01.2022
6044 Clouds 26 1012 89 10000 2.06 90 18:39 02.01.2022
6045 Clouds 24 1012 94 10000 2.06 80 17:43 02.01.2022
6046 Clouds 24 1012 94 10000 2.06 80 17:22 02.01.2022
6047 Clouds 24 1011 94 10000 2.06 90 16:53 02.01.2022
6048 Clouds 25 1011 88 10000 2.57 90 16:23 02.01.2022
6049 Clouds 25 1012 94 10000 4.12 70 14:19 02.01.2022
6050 Clouds 26 1012 83 10000 5.14 60 12:34 02.01.2022
6051 Clouds 26 1013 83 10000 5.14 60 11:56 02.01.2022
6052 Clouds 26 1013 89 10000 4.63 70 10:59 02.01.2022
6053 Rain 25 1013 88 10000 2.57 90 10:26 02.01.2022
6054 Clouds 26 1012 78 10000 3.6 50 08:22 02.01.2022
6055 Rain 28 1010 69 10000 4.63 40 03:22 02.01.2022
6056 Rain 28 1012 74 10000 6.69 60 23:56 01.01.2022
6057 Rain 28 1012 74 10000 6.69 60 23:36 01.01.2022
6058 Clouds 28 1012 78 10000 6.69 60 22:44 01.01.2022
6059 Clouds 27 1012 83 10000 5.66 60 22:18 01.01.2022
6060 Clouds 28 1012 78 10000 6.17 60 21:43 01.01.2022
6061 Clouds 27 1012 78 10000 7.2 70 20:51 01.01.2022
6062 Clouds 27 1011 78 10000 6.17 90 19:55 01.01.2022
6063 Clouds 26 1012 83 10000 3.09 90 18:53 01.01.2022
6064 Clouds 25 1011 88 10000 2.57 100 17:56 01.01.2022
6065 Clouds 25 1011 88 10000 2.57 100 16:35 01.01.2022
6066 Rain 25 1011 88 10000 3.6 90 15:57 01.01.2022
6067 Rain 25 1011 88 10000 3.09 90 14:56 01.01.2022
6068 Rain 25 1012 88 10000 5.66 70 13:42 01.01.2022
6069 Rain 26 1013 83 10000 5.66 70 12:26 01.01.2022
6070 Rain 26 1013 83 10000 5.66 70 11:46 01.01.2022
6071 Rain 26 1013 83 10000 6.17 70 11:18 01.01.2022
6072 Rain 26 1014 83 10000 5.66 70 09:48 01.01.2022
6073 Rain 25 1013 88 10000 3.09 90 08:49 01.01.2022
6074 Rain 25 1013 88 10000 4.12 80 08:21 01.01.2022
6075 Rain 24 1013 94 10000 1.54 140 07:40 01.01.2022
6076 Rain 24 1013 83 10000 8.75 50 06:44 01.01.2022
6077 Clouds 28 1012 74 10000 6.69 80 05:25 01.01.2022
6078 Clouds 28 1012 74 10000 6.17 70 04:36 01.01.2022
6079 Clouds 28 1014 74 10000 6.69 60 00:25 01.01.2022
6080 Clouds 27 1015 78 10000 5.66 60 22:40 31.12.2021
6081 Clouds 27 1015 78 10000 6.17 60 21:49 31.12.2021
6082 Clouds 27 1014 74 10000 5.66 80 19:56 31.12.2021
6083 Clouds 26 1014 78 10000 4.12 70 19:28 31.12.2021
6084 Clouds 24 1013 88 10000 3.09 90 18:24 31.12.2021
6085 Clouds 23 1013 94 10000 2.06 90 17:37 31.12.2021
6086 Rain 23 1013 94 10000 2.06 80 16:56 31.12.2021
6087 Rain 24 1013 88 10000 2.57 60 16:19 31.12.2021
6088 Rain 24 1013 88 10000 3.6 60 15:51 31.12.2021
6089 Rain 25 1013 83 10000 4.12 50 15:28 31.12.2021
6090 Rain 25 1014 83 10000 3.6 40 14:41 31.12.2021
6091 Rain 25 1015 83 10000 4.12 40 13:56 31.12.2021
6092 Rain 25 1015 83 10000 5.14 60 12:54 31.12.2021
6093 Rain 25 1015 83 10000 5.66 50 12:26 31.12.2021
6094 Rain 26 1016 78 10000 6.17 40 11:42 31.12.2021
6095 Rain 25 1016 83 10000 5.66 40 10:58 31.12.2021
6096 Rain 25 1017 88 10000 3.6 40 10:29 31.12.2021
6097 Rain 25 1016 88 10000 7.72 50 09:35 31.12.2021
6098 Rain 26 1016 83 10000 6.69 50 08:54 31.12.2021
6099 Rain 26 1016 78 10000 5.14 60 08:23 31.12.2021
6100 Rain 26 1014 83 10000 3.6 70 06:24 31.12.2021
6101 Rain 28 1015 78 10000 3.09 20 23:19 30.12.2021
6102 Rain 28 1014 78 10000 3.09 30 22:32 30.12.2021
6103 Rain 27 1015 78 10000 4.63 40 21:40 30.12.2021
6104 Rain 27 1015 78 10000 4.63 40 21:20 30.12.2021
6105 Rain 27 1015 78 10000 5.66 40 20:40 30.12.2021
6106 Clouds 27 1015 78 10000 5.14 50 19:58 30.12.2021
6107 Clouds 27 1014 78 10000 5.14 50 19:34 30.12.2021
6108 Clouds 26 1014 83 10000 6.17 60 18:29 30.12.2021
6109 Clouds 25 1013 88 10000 5.66 70 17:34 30.12.2021
6110 Rain 25 1013 88 10000 5.14 70 15:54 30.12.2021
6111 Rain 25 1013 88 10000 5.14 70 15:22 30.12.2021
6112 Rain 25 1013 88 10000 4.12 80 14:36 30.12.2021
6113 Rain 24 1013 94 10000 3.09 90 13:31 30.12.2021
6114 Clouds 24 1014 94 10000 3.6 90 11:58 30.12.2021
6115 Clouds 24 1014 94 10000 3.09 100 10:40 30.12.2021
6116 Clouds 24 1014 94 10000 3.09 100 09:50 30.12.2021
6117 Clouds 24 1014 94 10000 3.09 100 09:50 30.12.2021
6118 Rain 22 1014 94 2000 4.63 100 07:25 30.12.2021
6119 Clouds 27 1013 83 10000 5.66 70 06:32 30.12.2021
6120 Clouds 28 1012 78 10000 7.72 80 03:41 30.12.2021
6121 Clouds 29 1012 74 10000 7.2 70 02:35 30.12.2021
6122 Clouds 27 1013 78 10000 6.69 60 23:40 29.12.2021
6123 Clouds 27 1013 78 10000 7.72 70 22:59 29.12.2021
6124 Clouds 28 1013 78 10000 7.72 80 22:18 29.12.2021
6125 Rain 28 1014 74 10000 6.69 60 21:19 29.12.2021
6126 Rain 27 1014 78 10000 7.72 70 20:30 29.12.2021
6127 Rain 27 1014 78 10000 7.72 70 20:30 29.12.2021
6128 Rain 27 1014 78 10000 7.72 70 20:30 29.12.2021
6129 Rain 27 1014 78 10000 7.72 70 20:30 29.12.2021
6130 Rain 26 1013 83 10000 5.66 80 19:38 29.12.2021
6131 Rain 24 1013 94 10000 3.6 90 18:43 29.12.2021
6132 Rain 23 1013 94 10000 3.09 100 17:51 29.12.2021
6133 Rain 23 1012 94 7000 4.63 90 17:27 29.12.2021
6134 Rain 25 1011 83 10000 4.12 90 16:22 29.12.2021
6135 Clouds 25 1011 83 10000 3.6 90 15:26 29.12.2021
6136 Rain 25 1012 83 10000 4.63 80 13:42 29.12.2021
6137 Rain 25 1012 88 10000 6.17 70 12:35 29.12.2021
6138 Rain 25 1012 83 10000 6.69 80 11:25 29.12.2021
6139 Rain 26 1012 73 10000 6.17 80 09:38 29.12.2021
6140 Rain 25 1012 78 10000 5.66 80 07:47 29.12.2021
6141 Rain 26 1011 78 10000 6.69 80 06:36 29.12.2021
6142 Rain 26 1011 73 10000 6.69 80 05:57 29.12.2021
6143 Rain 27 1011 69 10000 5.14 90 05:30 29.12.2021
6144 Rain 27 1011 74 10000 7.72 80 01:27 29.12.2021
6145 Rain 27 1012 78 10000 7.72 70 23:59 28.12.2021
6146 Rain 28 1012 69 10000 8.23 80 23:18 28.12.2021
6147 Rain 26 1012 78 10000 8.75 70 22:26 28.12.2021
6148 Rain 27 1012 78 10000 8.75 70 21:55 28.12.2021
6149 Rain 27 1012 78 10000 7.72 70 21:35 28.12.2021
6150 Rain 26 1013 83 10000 6.17 70 20:32 28.12.2021
6151 Clouds 25 1012 73 10000 1.54 100 18:56 28.12.2021
6152 Clouds 24 1012 78 10000 2.06 110 18:28 28.12.2021
6153 Clouds 23 1011 78 10000 1.54 120 17:42 28.12.2021
6154 Clouds 24 1011 73 10000 2.57 100 16:21 28.12.2021
6155 Clouds 23 1011 78 10000 2.06 100 15:41 28.12.2021
6156 Clouds 23 1011 78 10000 2.06 100 14:56 28.12.2021
6157 Clouds 23 1011 78 10000 2.06 100 14:56 28.12.2021
6158 Clouds 23 1011 78 10000 2.57 100 14:38 28.12.2021
6159 Clouds 23 1011 78 10000 2.57 100 14:19 28.12.2021
6160 Clouds 24 1012 78 10000 2.57 100 13:37 28.12.2021
6161 Rain 24 1012 78 10000 2.57 100 12:56 28.12.2021
6162 Rain 24 1012 78 10000 2.57 100 12:29 28.12.2021
6163 Rain 24 1012 78 10000 3.09 100 10:51 28.12.2021
6164 Clouds 24 1011 78 10000 1.54 110 07:39 28.12.2021
6165 Rain 24 1011 83 8000 2.06 170 03:37 28.12.2021
6166 Clouds 27 1012 65 10000 3.09 150 23:41 27.12.2021
6167 Clouds 26 1013 65 10000 3.09 120 22:27 27.12.2021
6168 Clouds 27 1013 61 10000 2.06 110 21:31 27.12.2021
6169 Clouds 26 1013 61 10000 2.06 110 20:39 27.12.2021
6170 Clouds 26 1013 61 10000 3.6 90 19:49 27.12.2021
6171 Clouds 26 1013 61 10000 1.03 100 19:27 27.12.2021
6172 Clouds 23 1013 78 10000 2.57 130 17:54 27.12.2021
6173 Clouds 23 1013 78 10000 2.57 130 17:54 27.12.2021
6174 Clouds 22 1012 83 10000 1.54 130 17:28 27.12.2021
6175 Clouds 22 1012 83 10000 1.03 110 16:23 27.12.2021
6176 Clouds 23 1012 78 10000 2.06 140 15:44 27.12.2021
6177 Clouds 22 1012 83 10000 1.54 140 14:24 27.12.2021
6178 Clouds 22 1013 83 10000 1.54 150 13:31 27.12.2021
6179 Clouds 23 1013 73 10000 1.54 120 11:20 27.12.2021
6180 Clouds 24 1014 73 10000 1.54 130 10:27 27.12.2021
6181 Clouds 22 1013 88 10000 0.51 160 09:27 27.12.2021
6182 Rain 25 1013 69 10000 2.06 120 07:34 27.12.2021
6183 Clouds 25 1012 73 10000 3.09 120 06:29 27.12.2021
6184 Clouds 26 1012 73 10000 3.6 100 01:57 27.12.2021
6185 Clouds 26 1013 73 10000 4.63 100 23:50 26.12.2021
6186 Clouds 27 1013 65 10000 6.17 90 23:20 26.12.2021
6187 Clouds 27 1014 61 10000 3.6 100 21:41 26.12.2021
6188 Clouds 25 1014 78 10000 2.57 100 19:57 26.12.2021
6189 Clouds 25 1014 78 10000 2.06 120 18:46 26.12.2021
6190 Clouds 24 1014 88 10000 1.03 120 18:22 26.12.2021
6191 Clouds 23 1013 94 10000 0.51 150 15:53 26.12.2021
6192 Clouds 23 1013 100 10000 1.54 120 13:51 26.12.2021
6193 Rain 23 1013 100 10000 0.51 160 13:32 26.12.2021
6194 Clouds 23 1013 100 10000 0.51 290 12:37 26.12.2021
6195 Clouds 23 1014 100 10000 0.51 190 11:24 26.12.2021
6196 Clouds 24 1015 94 10000 1.03 160 09:35 26.12.2021
6197 Clouds 24 1015 94 10000 0.51 140 08:50 26.12.2021
6198 Clouds 24 1015 94 10000 1.03 130 08:27 26.12.2021
6199 Rain 28 1014 74 10000 4.12 70 02:19 26.12.2021
6200 Rain 28 1015 74 10000 6.69 70 00:40 26.12.2021
6201 Rain 28 1016 74 10000 6.69 80 23:37 25.12.2021
6202 Rain 28 1016 74 10000 7.2 80 22:38 25.12.2021
6203 Rain 28 1016 74 10000 7.2 80 22:20 25.12.2021
6204 Rain 27 1016 83 10000 3.6 90 20:26 25.12.2021
6205 Rain 27 1016 83 10000 5.66 80 19:19 25.12.2021
6206 Rain 26 1015 83 10000 3.09 90 18:37 25.12.2021
6207 Clouds 26 1014 83 10000 3.6 100 16:50 25.12.2021
6208 Clouds 25 1015 94 10000 2.06 100 15:34 25.12.2021
6209 Clouds 25 1015 94 10000 2.57 100 14:23 25.12.2021
6210 Clouds 26 1017 94 10000 2.06 80 12:21 25.12.2021
6211 Clouds 26 1017 94 10000 3.09 80 10:46 25.12.2021
6212 Rain 26 1018 94 10000 3.09 80 09:49 25.12.2021
6213 Rain 26 1017 94 10000 5.14 80 07:27 25.12.2021
6214 Rain 28 1016 78 10000 7.72 70 01:42 25.12.2021
6215 Rain 28 1017 83 10000 7.72 70 00:22 25.12.2021
6216 Clouds 28 1018 74 10000 5.14 70 21:59 24.12.2021
6217 Rain 26 1019 78 10000 3.6 80 19:27 24.12.2021
6218 Rain 26 1018 78 10000 4.12 90 18:56 24.12.2021
6219 Clouds 26 1016 94 10000 6.17 70 16:49 24.12.2021
6220 Rain 26 1016 94 10000 6.69 70 15:50 24.12.2021
6221 Clouds 26 1016 94 10000 7.2 70 15:25 24.12.2021
6222 Clouds 26 1016 94 10000 5.14 80 14:35 24.12.2021
6223 Clouds 26 1016 94 10000 4.12 80 13:57 24.12.2021
6224 Clouds 26 1016 94 10000 4.63 80 13:32 24.12.2021
6225 Clouds 26 1016 94 10000 4.12 80 12:45 24.12.2021
6226 Clouds 26 1016 89 10000 5.14 80 11:45 24.12.2021
6227 Clouds 26 1017 89 10000 4.63 90 11:24 24.12.2021
6228 Clouds 25 1017 88 10000 3.6 80 10:35 24.12.2021
6229 Clouds 25 1017 88 10000 3.6 70 09:22 24.12.2021
6230 Clouds 26 1016 89 10000 4.63 70 08:19 24.12.2021
6231 Clouds 27 1016 78 10000 5.14 60 07:42 24.12.2021
6232 Rain 27 1014 78 10000 6.17 40 00:47 24.12.2021
6233 Rain 26 1014 78 10000 5.66 30 23:50 23.12.2021
6234 Rain 27 1015 83 10000 8.23 50 22:53 23.12.2021
6235 Rain 27 1014 83 10000 7.72 40 22:24 23.12.2021
6236 Rain 27 1014 83 10000 6.69 50 21:47 23.12.2021
6237 Rain 26 1014 89 10000 5.66 50 20:31 23.12.2021
6238 Rain 25 1014 94 6000 5.14 50 19:30 23.12.2021
6239 Clouds 26 1012 89 10000 5.66 60 18:28 23.12.2021
6240 Rain 26 1012 83 10000 3.09 30 17:46 23.12.2021
6241 Clouds 26 1011 83 10000 4.12 40 16:27 23.12.2021
6242 Clouds 26 1011 83 10000 3.09 40 15:54 23.12.2021
6243 Clouds 26 1010 83 10000 4.12 20 15:30 23.12.2021
6244 Clouds 26 1011 83 10000 4.63 20 14:42 23.12.2021
6245 Rain 26 1011 83 10000 5.14 20 13:49 23.12.2021
6246 Rain 26 1011 83 10000 7.72 50 11:59 23.12.2021
6247 Rain 24 1011 94 10000 8.75 70 09:55 23.12.2021
6248 Clouds 25 1010 88 10000 9.26 70 09:34 23.12.2021
6249 Rain 25 1010 88 10000 5.66 90 08:41 23.12.2021
6250 Rain 23 1009 94 10000 6.69 90 06:20 23.12.2021
6251 Rain 24 1008 94 10000 3.6 90 03:22 23.12.2021
6252 Rain 26 1010 78 10000 4.63 100 22:53 22.12.2021
6253 Rain 25 1010 83 10000 4.63 100 22:22 22.12.2021
6254 Rain 26 1010 73 10000 6.17 100 21:37 22.12.2021
6255 Rain 26 1010 73 10000 6.17 100 21:19 22.12.2021
6256 Rain 25 1010 83 10000 4.63 110 20:40 22.12.2021
6257 Rain 26 1010 78 10000 3.6 100 19:57 22.12.2021
6258 Rain 25 1010 78 10000 3.09 110 18:55 22.12.2021
6259 Rain 25 1010 83 10000 5.14 90 17:38 22.12.2021
6260 Rain 25 1010 78 10000 4.12 100 16:25 22.12.2021
6261 Rain 22 1010 100 3900 3.6 110 14:34 22.12.2021
6262 Rain 24 1010 88 10000 2.57 110 12:55 22.12.2021
6263 Rain 25 1011 78 10000 4.12 100 11:48 22.12.2021
6264 Rain 26 1011 73 10000 3.6 100 09:52 22.12.2021
6265 Rain 26 1011 73 10000 3.6 110 08:23 22.12.2021
6266 Rain 26 1010 73 10000 4.63 100 05:54 22.12.2021
6267 Rain 27 1010 69 10000 3.6 100 05:36 22.12.2021
6268 Rain 27 1010 69 10000 3.6 100 05:18 22.12.2021
6269 Rain 27 1009 69 10000 4.12 120 04:37 22.12.2021
6270 Rain 27 1009 69 10000 4.63 100 03:49 22.12.2021
6271 Rain 27 1009 69 10000 5.66 100 03:31 22.12.2021
6272 Rain 27 1011 69 10000 6.69 100 23:48 21.12.2021
6273 Clouds 27 1012 69 10000 6.17 100 22:41 21.12.2021
6274 Clouds 27 1012 69 10000 4.63 100 21:56 21.12.2021
6275 Clouds 27 1012 69 10000 6.17 100 21:32 21.12.2021
6276 Clouds 26 1012 73 10000 4.12 100 20:24 21.12.2021
6277 Clouds 26 1012 73 10000 3.6 110 19:55 21.12.2021
6278 Clouds 26 1012 73 10000 4.12 100 19:33 21.12.2021
6279 Rain 25 1011 78 10000 3.09 120 18:23 21.12.2021
6280 Rain 25 1011 78 10000 4.63 100 17:58 21.12.2021
6281 Clouds 25 1010 73 10000 3.6 110 17:29 21.12.2021
6282 Rain 25 1010 73 10000 3.09 100 15:34 21.12.2021
6283 Clouds 25 1011 78 10000 2.57 100 14:20 21.12.2021
6284 Clouds 25 1011 73 10000 3.09 110 13:41 21.12.2021
6285 Clouds 25 1011 78 10000 3.09 120 12:25 21.12.2021
6286 Rain 25 1012 78 10000 2.57 100 10:38 21.12.2021
6287 Clouds 26 1012 73 10000 2.57 120 09:42 21.12.2021
6288 Clouds 26 1012 73 10000 2.57 100 08:55 21.12.2021
6289 Clouds 26 1011 73 10000 4.12 110 07:42 21.12.2021
6290 Clouds 26 1011 78 10000 2.57 100 07:19 21.12.2021
6291 Rain 26 1011 78 10000 2.57 110 03:24 21.12.2021
6292 Clouds 27 1011 74 10000 3.6 100 01:19 21.12.2021
6293 Clouds 29 1012 65 10000 4.63 90 23:54 20.12.2021
6294 Clouds 28 1013 69 10000 4.63 90 22:35 20.12.2021
6295 Rain 28 1013 74 10000 3.09 100 21:48 20.12.2021
6296 Clouds 27 1013 78 10000 3.6 100 21:24 20.12.2021
6297 Clouds 26 1013 83 10000 3.09 90 20:50 20.12.2021
6298 Clouds 26 1013 78 10000 2.06 90 19:55 20.12.2021
6299 Clouds 26 1013 78 10000 2.06 90 19:55 20.12.2021
6300 Clouds 26 1013 78 10000 2.06 90 19:55 20.12.2021
6301 Clouds 26 1013 78 10000 1.03 120 19:34 20.12.2021
6302 Clouds 25 1013 83 10000 1.03 100 18:55 20.12.2021
6303 Clouds 25 1013 78 10000 1.03 120 18:25 20.12.2021
6304 Clouds 24 1012 83 10000 1.54 140 17:46 20.12.2021
6305 Clouds 24 1012 88 10000 1.03 120 16:44 20.12.2021
6306 Rain 24 1011 88 10000 2.06 100 15:52 20.12.2021
6307 Clouds 24 1011 88 10000 2.06 130 14:58 20.12.2021
6308 Rain 25 1012 83 10000 3.6 100 13:24 20.12.2021
6309 Rain 25 1013 83 10000 3.09 110 11:27 20.12.2021
6310 Rain 25 1014 83 10000 2.06 120 09:51 20.12.2021
6311 Rain 25 1014 83 10000 2.06 120 09:31 20.12.2021
6312 Rain 26 1014 73 10000 2.57 110 08:42 20.12.2021
6313 Rain 26 1014 73 10000 2.57 120 07:55 20.12.2021
6314 Clouds 26 1013 73 7000 2.06 120 07:30 20.12.2021
6315 Clouds 28 1013 69 10000 3.6 130 04:36 20.12.2021
6316 Clouds 28 1014 69 10000 3.6 100 00:18 20.12.2021
6317 Clouds 29 1015 65 10000 2.57 120 22:53 19.12.2021
6318 Clouds 28 1015 69 10000 5.66 90 21:55 19.12.2021
6319 Clouds 28 1015 65 10000 4.12 100 21:30 19.12.2021
6320 Clouds 27 1015 74 10000 3.6 110 20:34 19.12.2021
6321 Clouds 27 1015 69 10000 3.6 100 19:52 19.12.2021
6322 Clouds 26 1015 73 10000 4.12 100 19:27 19.12.2021
6323 Clouds 25 1014 78 10000 2.06 110 18:30 19.12.2021
6324 Clouds 24 1014 83 10000 1.54 110 17:53 19.12.2021
6325 Clouds 25 1014 78 10000 2.57 140 17:19 19.12.2021
6326 Clouds 25 1014 78 10000 2.06 120 16:26 19.12.2021
6327 Clouds 25 1014 78 10000 2.06 120 15:43 19.12.2021
6328 Clouds 25 1014 78 10000 2.06 120 15:20 19.12.2021
6329 Clouds 25 1014 78 10000 2.06 120 14:42 19.12.2021
6330 Rain 25 1015 78 10000 2.57 140 13:22 19.12.2021
6331 Rain 25 1015 78 10000 2.57 140 12:42 19.12.2021
6332 Rain 25 1015 78 10000 2.57 140 12:18 19.12.2021
6333 Rain 25 1016 78 10000 2.57 140 11:19 19.12.2021
6334 Clouds 26 1016 73 10000 4.63 130 10:25 19.12.2021
6335 Clouds 25 1016 78 10000 3.09 130 09:41 19.12.2021
6336 Rain 25 1016 83 10000 3.6 140 08:25 19.12.2021
6337 Clouds 27 1014 69 10000 2.57 110 04:45 19.12.2021
6338 Clouds 28 1015 57 10000 4.63 90 01:19 19.12.2021
6339 Clouds 28 1015 65 10000 6.17 80 00:52 19.12.2021
6340 Clouds 27 1016 74 10000 5.14 100 22:36 18.12.2021
6341 Clouds 27 1016 74 10000 3.6 100 21:57 18.12.2021
6342 Clouds 27 1016 74 10000 4.63 90 21:35 18.12.2021
6343 Clouds 27 1016 74 10000 2.57 120 20:44 18.12.2021
6344 Clouds 26 1016 78 10000 2.06 120 19:54 18.12.2021
6345 Clouds 25 1016 83 10000 2.57 100 19:20 18.12.2021
6346 Clouds 25 1016 83 10000 1.54 110 18:20 18.12.2021
6347 Clouds 25 1016 83 10000 1.54 120 17:47 18.12.2021
6348 Clouds 24 1015 88 10000 1.03 130 16:25 18.12.2021
6349 Clouds 25 1015 83 10000 1.54 110 15:26 18.12.2021
6350 Clouds 25 1015 83 10000 2.06 120 14:32 18.12.2021
6351 Clouds 25 1015 83 10000 2.06 120 13:19 18.12.2021
6352 Clouds 26 1016 78 10000 1.03 130 11:21 18.12.2021
6353 Clouds 25 1017 83 10000 1.54 120 09:37 18.12.2021
6354 Clouds 26 1017 78 10000 1.54 120 08:43 18.12.2021
6355 Clouds 26 1016 78 10000 1.54 110 08:19 18.12.2021
6356 Clouds 29 1015 65 10000 5.14 90 02:20 18.12.2021
6357 Clouds 29 1016 74 10000 5.14 80 00:27 18.12.2021
6358 Clouds 28 1016 78 10000 3.6 20 23:37 17.12.2021
6359 Clouds 26 1017 83 10000 7.2 80 21:56 17.12.2021
6360 Clouds 28 1017 74 10000 5.14 70 20:51 17.12.2021
6361 Clouds 27 1017 74 10000 4.12 100 20:31 17.12.2021
6362 Clouds 26 1016 83 10000 2.57 90 18:58 17.12.2021
6363 Clouds 25 1016 88 10000 2.57 100 18:38 17.12.2021
6364 Clouds 25 1016 88 10000 3.09 90 17:26 17.12.2021
6365 Rain 25 1015 88 10000 3.09 90 16:44 17.12.2021
6366 Rain 25 1015 88 10000 2.57 90 16:19 17.12.2021
6367 Rain 25 1015 88 10000 2.06 90 15:19 17.12.2021
6368 Rain 25 1015 88 10000 1.54 100 14:34 17.12.2021
6369 Clouds 26 1015 83 10000 3.6 90 12:45 17.12.2021
6370 Clouds 26 1016 83 10000 4.12 90 11:22 17.12.2021
6371 Clouds 26 1016 89 10000 2.57 90 09:52 17.12.2021
6372 Clouds 26 1016 83 10000 3.09 100 08:58 17.12.2021
6373 Clouds 26 1015 83 10000 3.09 100 08:19 17.12.2021
6374 Clouds 27 1014 74 10000 4.12 100 05:21 17.12.2021
6375 Clouds 29 1014 70 10000 5.14 90 02:51 17.12.2021
6376 Clouds 28 1016 74 10000 6.69 70 22:50 16.12.2021
6377 Clouds 30 1016 66 10000 6.17 80 22:22 16.12.2021
6378 Clouds 28 1016 74 10000 5.14 80 21:44 16.12.2021
6379 Clouds 28 1016 74 10000 5.66 80 20:48 16.12.2021
6380 Clouds 28 1016 74 10000 3.6 90 20:21 16.12.2021
6381 Clouds 27 1016 78 10000 3.09 100 19:31 16.12.2021
6382 Clouds 26 1016 83 10000 1.54 110 18:33 16.12.2021
6383 Clouds 25 1015 88 10000 2.57 100 17:47 16.12.2021
6384 Clouds 25 1015 88 10000 2.06 90 16:26 16.12.2021
6385 Clouds 25 1014 88 10000 2.57 100 15:50 16.12.2021
6386 Clouds 26 1015 89 10000 2.06 100 13:46 16.12.2021
6387 Rain 26 1015 89 10000 4.12 90 12:27 16.12.2021
6388 Rain 26 1016 89 10000 4.63 90 11:19 16.12.2021
6389 Rain 26 1016 89 10000 4.12 90 10:39 16.12.2021
6390 Rain 26 1016 89 10000 3.6 90 09:43 16.12.2021
6391 Clouds 26 1015 89 10000 4.12 90 06:51 16.12.2021
6392 Clouds 27 1014 83 10000 4.12 90 06:18 16.12.2021
6393 Clouds 29 1015 74 10000 7.72 70 23:58 15.12.2021
6394 Clouds 30 1016 70 10000 7.2 70 22:50 15.12.2021
6395 Clouds 30 1016 74 10000 6.17 80 22:21 15.12.2021
6396 Clouds 29 1016 74 10000 5.66 80 21:31 15.12.2021
6397 Clouds 29 1016 74 10000 5.66 80 21:31 15.12.2021
6398 Clouds 28 1016 78 10000 5.14 90 20:41 15.12.2021
6399 Clouds 27 1016 83 10000 5.66 80 19:53 15.12.2021
6400 Clouds 27 1016 89 10000 3.09 90 18:50 15.12.2021
6401 Rain 26 1016 89 10000 1.54 90 18:18 15.12.2021
6402 Rain 25 1015 94 10000 2.57 80 17:43 15.12.2021
6403 Clouds 25 1015 94 10000 2.57 90 16:59 15.12.2021
6404 Clouds 26 1014 89 10000 5.14 70 15:47 15.12.2021
6405 Clouds 25 1014 94 10000 4.12 70 15:29 15.12.2021
6406 Clouds 26 1014 89 10000 4.12 90 14:44 15.12.2021
6407 Clouds 26 1015 89 10000 3.09 90 13:27 15.12.2021
6408 Clouds 26 1016 89 10000 3.09 90 11:40 15.12.2021
6409 Clouds 26 1016 89 10000 4.63 70 09:38 15.12.2021
6410 Clouds 26 1015 89 10000 5.14 70 07:52 15.12.2021
6411 Clouds 28 1013 83 10000 5.14 70 03:58 15.12.2021
6412 Clouds 28 1015 83 10000 4.63 60 23:53 14.12.2021
6413 Clouds 29 1015 84 10000 4.63 60 22:55 14.12.2021
6414 Clouds 28 1015 89 10000 4.12 50 22:37 14.12.2021
6415 Clouds 28 1015 89 10000 4.63 60 21:25 14.12.2021
6416 Rain 28 1015 83 10000 4.63 70 20:18 14.12.2021
6417 Rain 27 1014 89 10000 4.12 70 19:21 14.12.2021
6418 Clouds 25 1014 94 10000 3.09 90 18:38 14.12.2021
6419 Clouds 25 1013 94 10000 3.6 70 17:50 14.12.2021
6420 Clouds 25 1012 94 10000 2.06 90 16:43 14.12.2021
6421 Clouds 23 1012 94 10000 3.6 80 15:52 14.12.2021
6422 Clouds 25 1013 88 10000 3.09 40 13:35 14.12.2021
6423 Clouds 26 1013 94 10000 4.63 50 12:41 14.12.2021
6424 Rain 26 1014 94 10000 4.12 50 11:24 14.12.2021
6425 Rain 26 1013 94 10000 4.63 60 10:27 14.12.2021
6426 Rain 26 1013 94 10000 5.14 60 09:53 14.12.2021
6427 Rain 26 1012 94 10000 5.66 60 08:30 14.12.2021
6428 Rain 26 1012 94 10000 5.14 50 07:59 14.12.2021
6429 Rain 25 1011 94 8000 5.66 30 05:52 14.12.2021
6430 Rain 28 1011 78 10000 8.23 50 23:39 13.12.2021
6431 Rain 26 1011 83 10000 7.72 60 21:54 13.12.2021
6432 Rain 26 1011 83 10000 8.23 60 21:34 13.12.2021
6433 Rain 25 1012 83 10000 8.75 60 20:50 13.12.2021
6434 Rain 24 1011 94 10000 8.23 70 19:59 13.12.2021
6435 Rain 24 1011 88 10000 8.23 70 19:20 13.12.2021
6436 Rain 23 1010 94 10000 8.23 80 17:26 13.12.2021
6437 Rain 24 1009 94 10000 8.75 70 16:20 13.12.2021
6438 Rain 25 1009 88 10000 9.77 70 15:38 13.12.2021
6439 Rain 24 1009 88 10000 7.2 90 13:49 13.12.2021
6440 Rain 24 1010 88 10000 8.23 90 13:18 13.12.2021
6441 Rain 24 1010 88 10000 6.17 100 12:22 13.12.2021
6442 Rain 23 1011 94 10000 8.75 90 11:36 13.12.2021
6443 Rain 23 1011 94 10000 7.2 90 10:53 13.12.2021
6444 Rain 23 1012 94 10000 6.17 90 10:21 13.12.2021
6445 Rain 21 1013 94 7000 4.12 90 08:28 13.12.2021
6446 Rain 23 1011 94 10000 6.17 90 05:37 13.12.2021
6447 Rain 24 1010 88 10000 2.06 110 03:31 13.12.2021
6448 Rain 23 1013 94 10000 2.57 100 23:39 12.12.2021
6449 Rain 24 1012 88 10000 0.51 170 21:52 12.12.2021
6450 Rain 23 1013 100 10000 2.06 150 20:45 12.12.2021
6451 Rain 24 1012 88 8000 2.06 130 19:30 12.12.2021
6452 Rain 25 1011 83 10000 1.54 120 17:46 12.12.2021
6453 Clouds 24 1011 88 10000 1.03 190 16:28 12.12.2021
6454 Clouds 24 1011 88 10000 1.54 100 15:51 12.12.2021
6455 Clouds 23 1010 94 10000 1.54 90 15:26 12.12.2021
6456 Clouds 24 1010 88 10000 0.51 140 14:37 12.12.2021
6457 Clouds 25 1011 83 10000 3.09 90 13:34 12.12.2021
6458 Clouds 25 1012 83 10000 3.09 90 12:32 12.12.2021
6459 Clouds 25 1012 83 10000 2.06 90 11:44 12.12.2021
6460 Clouds 25 1013 83 10000 3.6 90 11:25 12.12.2021
6461 Clouds 25 1014 83 10000 2.06 100 10:32 12.12.2021
6462 Rain 24 1013 88 10000 0.51 120 09:39 12.12.2021
6463 Rain 25 1013 83 10000 1.54 110 08:34 12.12.2021
6464 Clouds 26 1012 73 10000 4.12 90 06:34 12.12.2021
6465 Clouds 26 1012 78 10000 6.69 80 05:22 12.12.2021
6466 Clouds 27 1012 74 10000 6.17 70 03:57 12.12.2021
6467 Rain 27 1013 74 10000 7.2 70 23:48 11.12.2021
6468 Rain 27 1014 74 10000 7.2 70 22:24 11.12.2021
6469 Rain 27 1014 74 10000 5.66 70 21:52 11.12.2021
6470 Rain 27 1014 74 10000 5.66 70 21:18 11.12.2021
6471 Rain 26 1013 83 10000 5.14 90 19:30 11.12.2021
6472 Rain 25 1013 83 10000 3.6 90 18:52 11.12.2021
6473 Clouds 24 1013 88 10000 3.09 90 18:25 11.12.2021
6474 Clouds 23 1013 94 10000 1.54 130 17:21 11.12.2021
6475 Clouds 22 1012 100 10000 1.03 110 15:55 11.12.2021
6476 Clouds 23 1012 94 10000 1.54 90 15:28 11.12.2021
6477 Clouds 23 1013 94 10000 1.03 180 12:57 11.12.2021
6478 Clouds 23 1014 100 10000 1.03 190 11:26 11.12.2021
6479 Clouds 23 1015 100 10000 1.54 210 09:46 11.12.2021
6480 Clouds 24 1015 94 10000 0.51 210 08:28 11.12.2021
6481 Rain 27 1013 78 10000 3.09 80 02:29 11.12.2021
6482 Clouds 27 1014 78 10000 3.6 50 00:36 11.12.2021
6483 Clouds 28 1014 74 10000 4.63 50 23:21 10.12.2021
6484 Clouds 27 1015 78 10000 4.12 50 21:56 10.12.2021
6485 Clouds 27 1014 78 10000 4.12 80 21:28 10.12.2021
6486 Clouds 26 1014 83 10000 1.03 80 19:21 10.12.2021
6487 Clouds 23 1014 100 10000 0.51 140 18:19 10.12.2021
6488 Clouds 23 1013 94 10000 1.03 170 16:56 10.12.2021
6489 Clouds 23 1012 94 10000 1.03 180 16:28 10.12.2021
6490 Clouds 23 1012 94 10000 1.03 190 15:40 10.12.2021
6491 Clouds 23 1012 94 10000 1.03 190 15:21 10.12.2021
6492 Rain 23 1012 94 10000 0.51 100 13:51 10.12.2021
6493 Rain 23 1012 94 10000 1.03 180 13:26 10.12.2021
6494 Clouds 23 1012 94 10000 0.51 90 12:36 10.12.2021
6495 Clouds 23 1013 94 10000 1.03 170 11:28 10.12.2021
6496 Clouds 23 1014 94 10000 0.51 170 10:26 10.12.2021
6497 Clouds 23 1013 94 10000 0.51 160 08:52 10.12.2021
6498 Clouds 26 1012 78 10000 1.54 110 06:22 10.12.2021
6499 Clouds 27 1011 74 10000 3.09 40 02:48 10.12.2021
6500 Clouds 27 1011 74 10000 5.14 50 00:32 10.12.2021
6501 Clouds 27 1012 74 10000 4.12 50 23:20 09.12.2021
6502 Clouds 26 1013 83 10000 3.09 50 22:24 09.12.2021
6503 Clouds 25 1013 83 10000 4.12 60 21:50 09.12.2021
6504 Clouds 25 1013 83 10000 1.54 120 20:42 09.12.2021
6505 Clouds 25 1013 83 10000 1.54 120 20:21 09.12.2021
6506 Clouds 25 1013 83 10000 1.03 20 19:21 09.12.2021
6507 Clouds 25 1012 83 10000 1.54 80 18:36 09.12.2021
6508 Clouds 23 1011 94 10000 3.09 80 17:51 09.12.2021
6509 Clouds 24 1011 88 10000 0.51 140 17:25 09.12.2021
6510 Clouds 24 1011 88 10000 1.03 130 16:53 09.12.2021
6511 Clouds 24 1010 88 10000 0.51 110 15:32 09.12.2021
6512 Clouds 24 1010 88 10000 2.06 110 14:46 09.12.2021
6513 Clouds 24 1011 88 10000 1.54 190 13:19 09.12.2021
6514 Clouds 24 1011 88 10000 0.51 200 12:35 09.12.2021
6515 Rain 24 1012 88 10000 1.54 200 11:21 09.12.2021
6516 Rain 24 1012 94 10000 0.51 170 08:54 09.12.2021
6517 Rain 26 1010 83 10000 1.03 100 06:21 09.12.2021
6518 Rain 28 1009 74 10000 1.54 190 02:58 09.12.2021
6519 Rain 27 1010 83 10000 1.03 120 23:43 08.12.2021
6520 Rain 27 1011 78 10000 1.54 60 23:21 08.12.2021
6521 Rain 27 1011 78 10000 1.03 260 22:46 08.12.2021
6522 Rain 26 1011 89 10000 2.06 250 21:40 08.12.2021
6523 Rain 26 1011 83 10000 3.6 270 20:59 08.12.2021
6524 Rain 25 1011 94 10000 3.6 270 19:58 08.12.2021
6525 Rain 25 1011 94 10000 3.09 290 19:33 08.12.2021
6526 Rain 25 1011 94 10000 4.12 280 18:31 08.12.2021
6527 Rain 24 1010 100 10000 1.54 230 17:26 08.12.2021
6528 Rain 24 1010 100 10000 1.03 220 15:47 08.12.2021
6529 Rain 24 1009 100 10000 1.54 200 15:23 08.12.2021
6530 Clouds 24 1010 100 10000 1.03 190 14:26 08.12.2021
6531 Clouds 24 1011 100 10000 1.03 180 10:53 08.12.2021
6532 Clouds 24 1012 100 10000 1.03 200 10:28 08.12.2021
6533 Clouds 24 1011 100 10000 1.03 210 08:54 08.12.2021
6534 Rain 25 1011 94 10000 0.51 180 07:21 08.12.2021
6535 Rain 27 1010 83 10000 1.54 40 01:21 08.12.2021
6536 Rain 26 1012 83 10000 2.57 60 23:33 07.12.2021
6537 Rain 24 1012 94 7000 1.54 50 21:26 07.12.2021
6538 Rain 25 1012 88 10000 3.09 60 20:54 07.12.2021
6539 Rain 25 1012 88 10000 2.06 40 19:50 07.12.2021
6540 Rain 23 1011 94 10000 1.54 210 18:39 07.12.2021
6541 Rain 23 1011 94 10000 1.54 170 17:27 07.12.2021
6542 Rain 23 1011 100 8000 1.03 220 16:57 07.12.2021
6543 Rain 23 1011 100 10000 0.51 160 16:28 07.12.2021
6544 Clouds 23 1011 100 10000 1.54 40 14:50 07.12.2021
6545 Rain 23 1011 100 9000 1.03 190 13:46 07.12.2021
6546 Clouds 23 1012 100 10000 0.51 210 12:41 07.12.2021
6547 Drizzle 24 1012 94 10000 1.54 210 11:23 07.12.2021
6548 Rain 23 1013 100 6000 1.54 210 09:43 07.12.2021
6549 Rain 24 1012 94 1200 3.09 210 07:52 07.12.2021
6550 Rain 27 1010 89 10000 2.57 310 05:55 07.12.2021
6551 Rain 27 1010 89 10000 2.06 330 05:27 07.12.2021
6552 Rain 24 1011 94 9000 3.09 260 23:41 06.12.2021
6553 Haze 24 1011 94 2800 3.6 270 22:44 06.12.2021
6554 Rain 24 1012 88 6000 7.72 320 22:18 06.12.2021
6555 Clouds 26 1011 89 10000 3.09 20 21:36 06.12.2021
6556 Rain 26 1011 94 10000 2.57 360 20:33 06.12.2021
6557 Rain 26 1011 94 10000 2.57 360 20:33 06.12.2021
6558 Rain 26 1011 94 10000 2.57 340 19:25 06.12.2021
6559 Rain 26 1011 89 10000 3.09 330 18:55 06.12.2021
6560 Rain 26 1010 89 10000 3.6 350 17:55 06.12.2021
6561 Rain 26 1010 89 10000 3.6 330 17:34 06.12.2021
6562 Rain 26 1009 89 10000 2.57 350 15:52 06.12.2021
6563 Rain 26 1009 89 10000 3.09 340 14:46 06.12.2021
6564 Rain 26 1009 89 10000 2.57 330 13:36 06.12.2021
6565 Rain 26 1010 89 10000 2.57 330 12:39 06.12.2021
6566 Rain 26 1011 89 10000 3.09 330 10:29 06.12.2021
6567 Rain 24 1010 94 10000 3.6 30 07:41 06.12.2021
6568 Clouds 27 1009 83 10000 1.54 350 03:52 06.12.2021
6569 Rain 28 1010 83 10000 3.09 290 22:28 05.12.2021
6570 Rain 28 1010 83 10000 3.09 290 22:28 05.12.2021
6571 Rain 27 1011 89 10000 2.57 260 21:26 05.12.2021
6572 Rain 27 1011 89 10000 3.09 290 20:54 05.12.2021
6573 Rain 27 1011 89 10000 3.09 290 20:18 05.12.2021
6574 Rain 26 1011 94 10000 3.09 300 19:26 05.12.2021
6575 Rain 26 1010 89 10000 3.09 320 18:31 05.12.2021
6576 Rain 26 1009 89 10000 2.57 310 17:52 05.12.2021
6577 Rain 25 1009 94 10000 3.09 320 17:34 05.12.2021
6578 Clouds 26 1009 89 10000 2.57 330 16:36 05.12.2021
6579 Clouds 26 1009 89 10000 2.57 330 16:18 05.12.2021
6580 Clouds 26 1009 89 10000 2.57 340 14:48 05.12.2021
6581 Clouds 26 1009 89 10000 2.57 340 14:30 05.12.2021
6582 Clouds 26 1010 94 10000 2.57 340 13:35 05.12.2021
6583 Clouds 26 1010 89 10000 2.06 360 12:45 05.12.2021
6584 Clouds 26 1010 89 10000 2.57 360 12:26 05.12.2021
6585 Clouds 26 1011 89 10000 2.06 350 11:44 05.12.2021
6586 Clouds 26 1011 89 10000 1.54 360 10:25 05.12.2021
6587 Clouds 26 1011 89 10000 2.06 340 09:41 05.12.2021
6588 Clouds 26 1010 89 10000 2.06 350 05:30 05.12.2021
6589 Rain 27 1011 89 10000 2.57 40 01:24 05.12.2021
6590 Clouds 26 1013 89 10000 2.06 30 22:45 04.12.2021
6591 Clouds 26 1013 83 10000 2.06 40 21:38 04.12.2021
6592 Clouds 26 1013 83 10000 2.06 20 20:47 04.12.2021
6593 Clouds 25 1013 88 10000 1.54 10 19:54 04.12.2021
6594 Clouds 25 1013 88 10000 1.03 30 19:24 04.12.2021
6595 Rain 23 1012 100 10000 1.03 80 17:52 04.12.2021
6596 Rain 23 1011 100 10000 1.03 140 17:32 04.12.2021
6597 Clouds 23 1011 100 10000 0.51 120 16:47 04.12.2021
6598 Rain 23 1011 100 10000 1.03 190 16:27 04.12.2021
6599 Rain 23 1012 94 10000 1.03 160 12:57 04.12.2021
6600 Rain 23 1013 100 10000 0.51 130 11:40 04.12.2021
6601 Rain 23 1014 100 10000 1.03 130 10:59 04.12.2021
6602 Drizzle 24 1014 94 10000 2.57 300 09:42 04.12.2021
6603 Rain 24 1013 94 10000 0.51 190 08:29 04.12.2021
6604 Rain 24 1011 94 10000 4.12 80 04:43 04.12.2021
6605 Rain 28 1012 74 10000 3.6 20 00:56 04.12.2021
6606 Rain 27 1012 83 10000 3.09 30 23:43 03.12.2021
6607 Rain 27 1013 83 10000 3.09 20 22:53 03.12.2021
6608 Rain 27 1013 83 10000 3.6 20 21:54 03.12.2021
6609 Rain 27 1013 83 10000 3.09 20 21:22 03.12.2021
6610 Rain 26 1013 89 10000 3.09 20 20:42 03.12.2021
6611 Rain 26 1012 78 10000 3.6 20 19:28 03.12.2021
6612 Rain 25 1012 78 10000 5.14 50 18:23 03.12.2021
6613 Rain 24 1012 88 10000 5.14 40 17:31 03.12.2021
6614 Drizzle 24 1011 88 10000 5.14 20 13:38 03.12.2021
6615 Rain 24 1012 88 10000 4.63 20 12:30 03.12.2021
6616 Rain 24 1013 94 8000 5.66 40 11:19 03.12.2021
6617 Rain 24 1013 88 10000 5.14 350 09:21 03.12.2021
6618 Clouds 26 1012 89 10000 5.14 50 07:44 03.12.2021
6619 Rain 26 1011 78 10000 5.14 40 06:41 03.12.2021
6620 Rain 25 1011 78 10000 4.63 20 00:49 03.12.2021
6621 Mist 23 1013 94 5000 9.77 340 23:54 02.12.2021
6622 Rain 25 1012 94 10000 3.6 10 23:33 02.12.2021
6623 Rain 26 1011 83 10000 6.69 60 21:41 02.12.2021
6624 Rain 26 1011 83 10000 6.17 60 20:46 02.12.2021
6625 Rain 26 1012 83 10000 7.2 60 20:22 02.12.2021
6626 Rain 26 1011 78 10000 8.23 60 19:22 02.12.2021
6627 Rain 25 1010 88 10000 6.69 60 16:53 02.12.2021
6628 Rain 24 1010 94 10000 7.72 50 15:41 02.12.2021
6629 Rain 24 1010 94 3400 7.2 40 14:53 02.12.2021